Wetterdaten: Freitag, 11.05.2018
Datum Zeit Temp. A. Feuchte A. Luftdruck Regen Wind Richtung Richtung Sonnenschein ET UV Solar Taupunkt Windchill Windböen
11.05.2018 00:00 7,2 °C 91 % 1018,8 hPa 0,0 mm 5,8 km/h (2 Bft) W-SW 248 ° 0 min 0,000 mm 0,0 UV-I 0 W/m² 5,8 °C 6,3 °C 12,9 km/h (3 Bft)
11.05.2018 00:01 7,2 °C 91 % 1018,9 hPa 0,0 mm 8,2 km/h (2 Bft) W 262 ° 0 min 0,000 mm 0,0 UV-I 0 W/m² 5,8 °C 5,7 °C 14,5 km/h (3 Bft)
11.05.2018 00:02 7,2 °C 92 % 1018,8 hPa 0,0 mm 6,3 km/h (2 Bft) W 279 ° 0 min 0,000 mm 0,0 UV-I 0 W/m² 6,0 °C 6,2 °C 11,3 km/h (2 Bft)
11.05.2018 00:03 7,2 °C 91 % 1018,8 hPa 0,0 mm 2,3 km/h (1 Bft) W-NW 286 ° 0 min 0,000 mm 0,0 UV-I 0 W/m² 5,8 °C 7,2 °C 4,8 km/h (1 Bft)
11.05.2018 00:04 7,2 °C 91 % 1018,7 hPa 0,0 mm 6,2 km/h (2 Bft) W-SW 249 ° 0 min 0,000 mm 0,0 UV-I 0 W/m² 5,8 °C 6,2 °C 11,3 km/h (2 Bft)
11.05.2018 00:05 7,2 °C 91 % 1018,7 hPa 0,0 mm 4,2 km/h (1 Bft) W-NW 287 ° 0 min 0,000 mm 0,0 UV-I 0 W/m² 5,8 °C 7,2 °C 11,3 km/h (2 Bft)
11.05.2018 00:06 7,2 °C 92 % 1018,7 hPa 0,0 mm 6,6 km/h (2 Bft) W 261 ° 0 min 0,000 mm 0,0 UV-I 0 W/m² 6,0 °C 6,1 °C 12,9 km/h (3 Bft)
11.05.2018 00:07 7,2 °C 91 % 1018,7 hPa 0,0 mm 9,9 km/h (2 Bft) W-SW 240 ° 0 min 0,000 mm 0,0 UV-I 0 W/m² 5,8 °C 5,3 °C 14,5 km/h (3 Bft)
11.05.2018 00:08 7,2 °C 92 % 1018,7 hPa 0,0 mm 6,0 km/h (2 Bft) W-SW 248 ° 0 min 0,000 mm 0,0 UV-I 0 W/m² 6,0 °C 6,3 °C 12,9 km/h (3 Bft)
11.05.2018 00:09 7,2 °C 91 % 1018,7 hPa 0,0 mm 7,2 km/h (2 Bft) W 260 ° 0 min 0,000 mm 0,0 UV-I 0 W/m² 5,8 °C 5,9 °C 12,9 km/h (3 Bft)
11.05.2018 00:10 7,2 °C 92 % 1018,7 hPa 0,0 mm 4,6 km/h (1 Bft) W 259 ° 0 min 0,000 mm 0,0 UV-I 0 W/m² 6,0 °C 6,7 °C 14,5 km/h (3 Bft)
11.05.2018 00:11 7,2 °C 92 % 1018,7 hPa 0,0 mm 8,6 km/h (2 Bft) W-SW 250 ° 0 min 0,000 mm 0,0 UV-I 0 W/m² 6,0 °C 5,6 °C 14,5 km/h (3 Bft)
11.05.2018 00:12 7,1 °C 92 % 1018,7 hPa 0,0 mm 3,6 km/h (1 Bft) W 267 ° 0 min 0,000 mm 0,0 UV-I 0 W/m² 5,9 °C 7,1 °C 6,4 km/h (2 Bft)
11.05.2018 00:13 7,2 °C 91 % 1018,7 hPa 0,0 mm 10,9 km/h (2 Bft) NW 304 ° 0 min 0,000 mm 0,0 UV-I 0 W/m² 5,8 °C 5,1 °C 14,5 km/h (3 Bft)
11.05.2018 00:14 7,1 °C 91 % 1018,7 hPa 0,0 mm 6,4 km/h (2 Bft) W-NW 283 ° 0 min 0,000 mm 0,0 UV-I 0 W/m² 5,7 °C 6,0 °C 12,9 km/h (3 Bft)
11.05.2018 00:15 7,1 °C 91 % 1018,7 hPa 0,0 mm 4,8 km/h (1 Bft) SW 222 ° 0 min 0,000 mm 0,0 UV-I 0 W/m² 5,7 °C 6,5 °C 9,7 km/h (2 Bft)
11.05.2018 00:16 7,1 °C 92 % 1018,6 hPa 0,0 mm 2,4 km/h (1 Bft) W-SW 256 ° 0 min 0,000 mm 0,0 UV-I 0 W/m² 5,9 °C 7,1 °C 4,8 km/h (1 Bft)
11.05.2018 00:17 7,1 °C 91 % 1018,7 hPa 0,0 mm 5,9 km/h (2 Bft) W-SW 239 ° 0 min 0,000 mm 0,0 UV-I 0 W/m² 5,7 °C 6,2 °C 11,3 km/h (2 Bft)
11.05.2018 00:18 7,1 °C 91 % 1018,7 hPa 0,0 mm 0,9 km/h (0 Bft) SW 231 ° 0 min 0,000 mm 0,0 UV-I 0 W/m² 5,7 °C 7,1 °C 4,8 km/h (1 Bft)
11.05.2018 00:19 7,1 °C 91 % 1018,7 hPa 0,0 mm 1,1 km/h (1 Bft) SW 231 ° 0 min 0,000 mm 0,0 UV-I 0 W/m² 5,7 °C 7,1 °C 3,2 km/h (1 Bft)
11.05.2018 00:20 7,1 °C 91 % 1018,7 hPa 0,0 mm 3,1 km/h (1 Bft) W-SW 247 ° 0 min 0,000 mm 0,0 UV-I 0 W/m² 5,7 °C 7,1 °C 6,4 km/h (2 Bft)
11.05.2018 00:21 7,1 °C 91 % 1018,7 hPa 0,0 mm 0,9 km/h (0 Bft) W-SW 245 ° 0 min 0,000 mm 0,0 UV-I 0 W/m² 5,7 °C 7,1 °C 3,2 km/h (1 Bft)
11.05.2018 00:22 7,1 °C 91 % 1018,7 hPa 0,0 mm 1,4 km/h (1 Bft) W-SW 247 ° 0 min 0,000 mm 0,0 UV-I 0 W/m² 5,7 °C 7,1 °C 4,8 km/h (1 Bft)
11.05.2018 00:23 7,1 °C 91 % 1018,8 hPa 0,0 mm 0,1 km/h (0 Bft) W-SW 247 ° 0 min 0,000 mm 0,0 UV-I 0 W/m² 5,7 °C 7,1 °C 1,6 km/h (1 Bft)
11.05.2018 00:24 7,1 °C 91 % 1018,8 hPa 0,0 mm 0,0 km/h (0 Bft) W-SW 247 ° 0 min 0,000 mm 0,0 UV-I 0 W/m² 5,7 °C 7,1 °C 0,0 km/h (0 Bft)
11.05.2018 00:25 7,1 °C 91 % 1018,8 hPa 0,0 mm 0,1 km/h (0 Bft) W-SW 247 ° 0 min 0,000 mm 0,0 UV-I 0 W/m² 5,7 °C 7,1 °C 1,6 km/h (1 Bft)
11.05.2018 00:26 7,1 °C 91 % 1018,8 hPa 0,0 mm 0,1 km/h (0 Bft) W-SW 247 ° 0 min 0,000 mm 0,0 UV-I 0 W/m² 5,7 °C 7,1 °C 1,6 km/h (1 Bft)
11.05.2018 00:27 7,1 °C 92 % 1018,8 hPa 0,0 mm 0,6 km/h (0 Bft) W-SW 247 ° 0 min 0,000 mm 0,0 UV-I 0 W/m² 5,9 °C 7,1 °C 1,6 km/h (1 Bft)
11.05.2018 00:28 7,1 °C 91 % 1018,8 hPa 0,0 mm 1,4 km/h (1 Bft) W-SW 247 ° 0 min 0,000 mm 0,0 UV-I 0 W/m² 5,7 °C 7,1 °C 3,2 km/h (1 Bft)
11.05.2018 00:29 7,1 °C 91 % 1018,8 hPa 0,0 mm 3,3 km/h (1 Bft) W 273 ° 0 min 0,000 mm 0,0 UV-I 0 W/m² 5,7 °C 7,1 °C 6,4 km/h (2 Bft)
11.05.2018 00:30 7,1 °C 91 % 1018,8 hPa 0,0 mm 1,2 km/h (1 Bft) W-SW 258 ° 0 min 0,000 mm 0,0 UV-I 0 W/m² 5,7 °C 7,1 °C 3,2 km/h (1 Bft)
11.05.2018 00:31 7,1 °C 91 % 1018,7 hPa 0,0 mm 2,6 km/h (1 Bft) SW 221 ° 0 min 0,000 mm 0,0 UV-I 0 W/m² 5,7 °C 7,1 °C 4,8 km/h (1 Bft)
11.05.2018 00:32 7,2 °C 91 % 1018,7 hPa 0,0 mm 2,5 km/h (1 Bft) S-SW 200 ° 0 min 0,000 mm 0,0 UV-I 0 W/m² 5,8 °C 7,2 °C 6,4 km/h (2 Bft)
11.05.2018 00:33 7,2 °C 91 % 1018,7 hPa 0,0 mm 2,5 km/h (1 Bft) W 261 ° 0 min 0,000 mm 0,0 UV-I 0 W/m² 5,8 °C 7,2 °C 6,4 km/h (2 Bft)
11.05.2018 00:34 7,2 °C 91 % 1018,7 hPa 0,0 mm 4,8 km/h (1 Bft) W-SW 257 ° 0 min 0,000 mm 0,0 UV-I 0 W/m² 5,8 °C 6,7 °C 8,0 km/h (2 Bft)
11.05.2018 00:35 7,2 °C 91 % 1018,8 hPa 0,0 mm 2,8 km/h (1 Bft) W 266 ° 0 min 0,000 mm 0,0 UV-I 0 W/m² 5,8 °C 7,2 °C 4,8 km/h (1 Bft)
11.05.2018 00:36 7,2 °C 92 % 1018,8 hPa 0,0 mm 4,1 km/h (1 Bft) W 259 ° 0 min 0,000 mm 0,0 UV-I 0 W/m² 6,0 °C 7,2 °C 4,8 km/h (1 Bft)
11.05.2018 00:37 7,2 °C 91 % 1018,8 hPa 0,0 mm 2,2 km/h (1 Bft) W-SW 252 ° 0 min 0,000 mm 0,0 UV-I 0 W/m² 5,8 °C 7,2 °C 6,4 km/h (2 Bft)
11.05.2018 00:38 7,2 °C 91 % 1018,7 hPa 0,0 mm 3,6 km/h (1 Bft) W-SW 238 ° 0 min 0,000 mm 0,0 UV-I 0 W/m² 5,8 °C 7,2 °C 8,0 km/h (2 Bft)
11.05.2018 00:39 7,2 °C 91 % 1018,8 hPa 0,0 mm 1,9 km/h (1 Bft) W-SW 238 ° 0 min 0,000 mm 0,0 UV-I 0 W/m² 5,8 °C 7,2 °C 4,8 km/h (1 Bft)
11.05.2018 00:40 7,2 °C 91 % 1018,8 hPa 0,0 mm 2,3 km/h (1 Bft) W-SW 250 ° 0 min 0,000 mm 0,0 UV-I 0 W/m² 5,8 °C 7,2 °C 3,2 km/h (1 Bft)
11.05.2018 00:41 7,2 °C 91 % 1018,8 hPa 0,0 mm 2,2 km/h (1 Bft) W-SW 249 ° 0 min 0,000 mm 0,0 UV-I 0 W/m² 5,8 °C 7,2 °C 4,8 km/h (1 Bft)
11.05.2018 00:42 7,2 °C 91 % 1018,8 hPa 0,0 mm 0,1 km/h (0 Bft) W-SW 249 ° 0 min 0,000 mm 0,0 UV-I 0 W/m² 5,8 °C 7,2 °C 1,6 km/h (1 Bft)
11.05.2018 00:43 7,2 °C 91 % 1018,8 hPa 0,0 mm 2,0 km/h (1 Bft) W 263 ° 0 min 0,000 mm 0,0 UV-I 0 W/m² 5,8 °C 7,2 °C 4,8 km/h (1 Bft)
11.05.2018 00:44 7,2 °C 91 % 1018,8 hPa 0,0 mm 4,8 km/h (1 Bft) W-SW 246 ° 0 min 0,000 mm 0,0 UV-I 0 W/m² 5,8 °C 6,7 °C 6,4 km/h (2 Bft)
11.05.2018 00:45 7,2 °C 91 % 1018,8 hPa 0,0 mm 1,4 km/h (1 Bft) W-SW 246 ° 0 min 0,000 mm 0,0 UV-I 0 W/m² 5,8 °C 7,2 °C 3,2 km/h (1 Bft)
11.05.2018 00:46 7,2 °C 91 % 1018,8 hPa 0,0 mm 0,8 km/h (0 Bft) W-SW 246 ° 0 min 0,000 mm 0,0 UV-I 0 W/m² 5,8 °C 7,2 °C 3,2 km/h (1 Bft)
11.05.2018 00:47 7,2 °C 91 % 1018,8 hPa 0,0 mm 0,0 km/h (0 Bft) W-SW 246 ° 0 min 0,000 mm 0,0 UV-I 0 W/m² 5,8 °C 7,2 °C 0,0 km/h (0 Bft)
11.05.2018 00:48 7,2 °C 91 % 1018,8 hPa 0,0 mm 0,5 km/h (0 Bft) W-SW 246 ° 0 min 0,000 mm 0,0 UV-I 0 W/m² 5,8 °C 7,2 °C 1,6 km/h (1 Bft)
11.05.2018 00:49 7,2 °C 91 % 1018,8 hPa 0,0 mm 0,6 km/h (0 Bft) W-SW 246 ° 0 min 0,000 mm 0,0 UV-I 0 W/m² 5,8 °C 7,2 °C 1,6 km/h (1 Bft)
11.05.2018 00:50 7,2 °C 91 % 1018,8 hPa 0,0 mm 0,0 km/h (0 Bft) W-SW 246 ° 0 min 0,000 mm 0,0 UV-I 0 W/m² 5,8 °C 7,2 °C 0,0 km/h (0 Bft)
11.05.2018 00:51 7,2 °C 91 % 1018,8 hPa 0,0 mm 0,0 km/h (0 Bft) W-SW 246 ° 0 min 0,000 mm 0,0 UV-I 0 W/m² 5,8 °C 7,2 °C 0,0 km/h (0 Bft)
11.05.2018 00:52 7,2 °C 91 % 1018,8 hPa 0,0 mm 2,1 km/h (1 Bft) W-SW 246 ° 0 min 0,000 mm 0,0 UV-I 0 W/m² 5,8 °C 7,2 °C 3,2 km/h (1 Bft)
11.05.2018 00:53 7,2 °C 91 % 1018,8 hPa 0,0 mm 0,8 km/h (0 Bft) W-SW 246 ° 0 min 0,000 mm 0,0 UV-I 0 W/m² 5,8 °C 7,2 °C 3,2 km/h (1 Bft)
11.05.2018 00:54 7,2 °C 91 % 1018,8 hPa 0,0 mm 1,2 km/h (1 Bft) W-SW 246 ° 0 min 0,000 mm 0,0 UV-I 0 W/m² 5,8 °C 7,2 °C 3,2 km/h (1 Bft)
11.05.2018 00:55 7,2 °C 91 % 1018,7 hPa 0,0 mm 0,3 km/h (0 Bft) W-SW 246 ° 0 min 0,000 mm 0,0 UV-I 0 W/m² 5,8 °C 7,2 °C 1,6 km/h (1 Bft)
11.05.2018 00:56 7,2 °C 91 % 1018,7 hPa 0,0 mm 1,4 km/h (1 Bft) W-SW 244 ° 0 min 0,000 mm 0,0 UV-I 0 W/m² 5,8 °C 7,2 °C 3,2 km/h (1 Bft)
11.05.2018 00:57 7,2 °C 91 % 1018,8 hPa 0,0 mm 1,9 km/h (1 Bft) W-SW 244 ° 0 min 0,000 mm 0,0 UV-I 0 W/m² 5,8 °C 7,2 °C 4,8 km/h (1 Bft)
11.05.2018 00:58 7,2 °C 91 % 1018,8 hPa 0,0 mm 0,6 km/h (0 Bft) W-SW 244 ° 0 min 0,000 mm 0,0 UV-I 0 W/m² 5,8 °C 7,2 °C 3,2 km/h (1 Bft)
11.05.2018 00:59 7,2 °C 91 % 1018,8 hPa 0,0 mm 2,8 km/h (1 Bft) W-SW 244 ° 0 min 0,000 mm 0,0 UV-I 0 W/m² 5,8 °C 7,2 °C 4,8 km/h (1 Bft)
11.05.2018 01:00 7,2 °C 91 % 1018,8 hPa 0,0 mm 2,7 km/h (1 Bft) W-SW 244 ° 0 min 0,000 mm 0,0 UV-I 0 W/m² 5,8 °C 7,2 °C 3,2 km/h (1 Bft)
11.05.2018 01:01 7,2 °C 91 % 1018,7 hPa 0,0 mm 1,7 km/h (1 Bft) W-SW 244 ° 0 min 0,000 mm 0,0 UV-I 0 W/m² 5,8 °C 7,2 °C 3,2 km/h (1 Bft)
11.05.2018 01:02 7,2 °C 90 % 1018,7 hPa 0,0 mm 0,0 km/h (0 Bft) W-SW 244 ° 0 min 0,000 mm 0,0 UV-I 0 W/m² 5,7 °C 7,2 °C 0,0 km/h (0 Bft)
11.05.2018 01:03 7,2 °C 91 % 1018,7 hPa 0,0 mm 0,0 km/h (0 Bft) SW 225 ° 0 min 0,000 mm 0,0 UV-I 0 W/m² 5,8 °C 7,2 °C 0,0 km/h (0 Bft)
11.05.2018 01:04 7,2 °C 90 % 1018,7 hPa 0,0 mm 2,8 km/h (1 Bft) S-SW 205 ° 0 min 0,000 mm 0,0 UV-I 0 W/m² 5,7 °C 7,2 °C 4,8 km/h (1 Bft)
11.05.2018 01:05 7,3 °C 90 % 1018,7 hPa 0,0 mm 1,4 km/h (1 Bft) S-SW 205 ° 0 min 0,000 mm 0,0 UV-I 0 W/m² 5,8 °C 7,3 °C 4,8 km/h (1 Bft)
11.05.2018 01:06 7,3 °C 90 % 1018,7 hPa 0,0 mm 2,0 km/h (1 Bft) S-SW 205 ° 0 min 0,000 mm 0,0 UV-I 0 W/m² 5,8 °C 7,3 °C 4,8 km/h (1 Bft)
11.05.2018 01:07 7,3 °C 90 % 1018,7 hPa 0,0 mm 2,5 km/h (1 Bft) W-SW 245 ° 0 min 0,000 mm 0,0 UV-I 0 W/m² 5,8 °C 7,3 °C 3,2 km/h (1 Bft)
11.05.2018 01:08 7,3 °C 90 % 1018,7 hPa 0,0 mm 1,4 km/h (1 Bft) W 273 ° 0 min 0,000 mm 0,0 UV-I 0 W/m² 5,8 °C 7,3 °C 4,8 km/h (1 Bft)
11.05.2018 01:09 7,3 °C 90 % 1018,7 hPa 0,0 mm 1,1 km/h (1 Bft) W 273 ° 0 min 0,000 mm 0,0 UV-I 0 W/m² 5,8 °C 7,3 °C 3,2 km/h (1 Bft)
11.05.2018 01:10 7,3 °C 90 % 1018,7 hPa 0,0 mm 1,6 km/h (1 Bft) W-SW 245 ° 0 min 0,000 mm 0,0 UV-I 0 W/m² 5,8 °C 7,3 °C 4,8 km/h (1 Bft)
11.05.2018 01:11 7,4 °C 89 % 1018,7 hPa 0,0 mm 1,9 km/h (1 Bft) S 190 ° 0 min 0,000 mm 0,0 UV-I 0 W/m² 5,7 °C 7,4 °C 6,4 km/h (2 Bft)
11.05.2018 01:12 7,4 °C 89 % 1018,7 hPa 0,0 mm 1,6 km/h (1 Bft) S-SW 193 ° 0 min 0,000 mm 0,0 UV-I 0 W/m² 5,7 °C 7,4 °C 4,8 km/h (1 Bft)
11.05.2018 01:13 7,4 °C 89 % 1018,7 hPa 0,0 mm 3,0 km/h (1 Bft) S-SW 196 ° 0 min 0,000 mm 0,0 UV-I 0 W/m² 5,7 °C 7,4 °C 6,4 km/h (2 Bft)
11.05.2018 01:14 7,4 °C 89 % 1018,7 hPa 0,0 mm 1,7 km/h (1 Bft) S-SW 196 ° 0 min 0,000 mm 0,0 UV-I 0 W/m² 5,7 °C 7,4 °C 3,2 km/h (1 Bft)
11.05.2018 01:15 7,4 °C 89 % 1018,7 hPa 0,0 mm 2,8 km/h (1 Bft) S-SW 192 ° 0 min 0,000 mm 0,0 UV-I 0 W/m² 5,7 °C 7,4 °C 6,4 km/h (2 Bft)
11.05.2018 01:16 7,4 °C 89 % 1018,6 hPa 0,0 mm 3,1 km/h (1 Bft) W-SW 246 ° 0 min 0,000 mm 0,0 UV-I 0 W/m² 5,7 °C 7,4 °C 6,4 km/h (2 Bft)
11.05.2018 01:17 7,4 °C 89 % 1018,7 hPa 0,0 mm 1,7 km/h (1 Bft) SW 221 ° 0 min 0,000 mm 0,0 UV-I 0 W/m² 5,7 °C 7,4 °C 3,2 km/h (1 Bft)
11.05.2018 01:18 7,4 °C 89 % 1018,7 hPa 0,0 mm 1,7 km/h (1 Bft) S-SW 207 ° 0 min 0,000 mm 0,0 UV-I 0 W/m² 5,7 °C 7,4 °C 3,2 km/h (1 Bft)
11.05.2018 01:19 7,4 °C 89 % 1018,7 hPa 0,0 mm 0,9 km/h (0 Bft) S-SW 207 ° 0 min 0,000 mm 0,0 UV-I 0 W/m² 5,7 °C 7,4 °C 3,2 km/h (1 Bft)
11.05.2018 01:20 7,5 °C 89 % 1018,6 hPa 0,0 mm 1,6 km/h (1 Bft) S-SW 206 ° 0 min 0,000 mm 0,0 UV-I 0 W/m² 5,8 °C 7,5 °C 4,8 km/h (1 Bft)
11.05.2018 01:21 7,5 °C 89 % 1018,6 hPa 0,0 mm 1,8 km/h (1 Bft) S-SW 206 ° 0 min 0,000 mm 0,0 UV-I 0 W/m² 5,8 °C 7,5 °C 3,2 km/h (1 Bft)
11.05.2018 01:22 7,5 °C 88 % 1018,5 hPa 0,0 mm 3,6 km/h (1 Bft) S-SW 203 ° 0 min 0,000 mm 0,0 UV-I 0 W/m² 5,6 °C 7,5 °C 6,4 km/h (2 Bft)
11.05.2018 01:23 7,5 °C 88 % 1018,5 hPa 0,0 mm 3,5 km/h (1 Bft) W 270 ° 0 min 0,000 mm 0,0 UV-I 0 W/m² 5,6 °C 7,5 °C 6,4 km/h (2 Bft)
11.05.2018 01:24 7,5 °C 88 % 1018,6 hPa 0,0 mm 1,7 km/h (1 Bft) S-SW 208 ° 0 min 0,000 mm 0,0 UV-I 0 W/m² 5,6 °C 7,5 °C 6,4 km/h (2 Bft)
11.05.2018 01:25 7,5 °C 88 % 1018,6 hPa 0,0 mm 2,8 km/h (1 Bft) S-SW 208 ° 0 min 0,000 mm 0,0 UV-I 0 W/m² 5,6 °C 7,5 °C 6,4 km/h (2 Bft)
11.05.2018 01:26 7,6 °C 88 % 1018,6 hPa 0,0 mm 1,1 km/h (1 Bft) S-SW 207 ° 0 min 0,000 mm 0,0 UV-I 0 W/m² 5,7 °C 7,6 °C 3,2 km/h (1 Bft)
11.05.2018 01:27 7,5 °C 88 % 1018,6 hPa 0,0 mm 1,1 km/h (1 Bft) S-SW 207 ° 0 min 0,000 mm 0,0 UV-I 0 W/m² 5,6 °C 7,5 °C 6,4 km/h (2 Bft)
11.05.2018 01:28 7,6 °C 88 % 1018,6 hPa 0,0 mm 1,4 km/h (1 Bft) W-SW 248 ° 0 min 0,000 mm 0,0 UV-I 0 W/m² 5,7 °C 7,6 °C 4,8 km/h (1 Bft)
11.05.2018 01:29 7,5 °C 88 % 1018,6 hPa 0,0 mm 0,6 km/h (0 Bft) W-SW 248 ° 0 min 0,000 mm 0,0 UV-I 0 W/m² 5,6 °C 7,5 °C 1,6 km/h (1 Bft)
11.05.2018 01:30 7,6 °C 88 % 1018,6 hPa 0,0 mm 1,5 km/h (1 Bft) SW 217 ° 0 min 0,000 mm 0,0 UV-I 0 W/m² 5,7 °C 7,6 °C 3,2 km/h (1 Bft)
11.05.2018 01:31 7,6 °C 88 % 1018,5 hPa 0,0 mm 0,7 km/h (0 Bft) SW 217 ° 0 min 0,000 mm 0,0 UV-I 0 W/m² 5,7 °C 7,6 °C 1,6 km/h (1 Bft)
11.05.2018 01:32 7,5 °C 88 % 1018,5 hPa 0,0 mm 0,0 km/h (0 Bft) SW 217 ° 0 min 0,000 mm 0,0 UV-I 0 W/m² 5,6 °C 7,5 °C 0,0 km/h (0 Bft)
11.05.2018 01:33 7,5 °C 88 % 1018,6 hPa 0,0 mm 0,0 km/h (0 Bft) SW 217 ° 0 min 0,000 mm 0,0 UV-I 0 W/m² 5,6 °C 7,5 °C 0,0 km/h (0 Bft)
11.05.2018 01:34 7,5 °C 88 % 1018,6 hPa 0,0 mm 1,1 km/h (1 Bft) W 267 ° 0 min 0,000 mm 0,0 UV-I 0 W/m² 5,6 °C 7,5 °C 4,8 km/h (1 Bft)
11.05.2018 01:35 7,5 °C 88 % 1018,6 hPa 0,0 mm 3,6 km/h (1 Bft) W-SW 239 ° 0 min 0,000 mm 0,0 UV-I 0 W/m² 5,6 °C 7,5 °C 6,4 km/h (2 Bft)
11.05.2018 01:36 7,5 °C 88 % 1018,5 hPa 0,0 mm 1,9 km/h (1 Bft) SW 215 ° 0 min 0,000 mm 0,0 UV-I 0 W/m² 5,6 °C 7,5 °C 4,8 km/h (1 Bft)
11.05.2018 01:37 7,6 °C 88 % 1018,5 hPa 0,0 mm 2,0 km/h (1 Bft) W 277 ° 0 min 0,000 mm 0,0 UV-I 0 W/m² 5,7 °C 7,6 °C 4,8 km/h (1 Bft)
11.05.2018 01:38 7,6 °C 88 % 1018,6 hPa 0,0 mm 1,7 km/h (1 Bft) SW 219 ° 0 min 0,000 mm 0,0 UV-I 0 W/m² 5,7 °C 7,6 °C 3,2 km/h (1 Bft)
11.05.2018 01:39 7,6 °C 88 % 1018,6 hPa 0,0 mm 0,8 km/h (0 Bft) SW 219 ° 0 min 0,000 mm 0,0 UV-I 0 W/m² 5,7 °C 7,6 °C 3,2 km/h (1 Bft)
11.05.2018 01:40 7,6 °C 88 % 1018,6 hPa 0,0 mm 1,7 km/h (1 Bft) S-SW 202 ° 0 min 0,000 mm 0,0 UV-I 0 W/m² 5,7 °C 7,6 °C 8,0 km/h (2 Bft)
11.05.2018 01:41 7,6 °C 88 % 1018,6 hPa 0,0 mm 1,2 km/h (1 Bft) S-SW 197 ° 0 min 0,000 mm 0,0 UV-I 0 W/m² 5,7 °C 7,6 °C 6,4 km/h (2 Bft)
11.05.2018 01:42 7,6 °C 88 % 1018,5 hPa 0,0 mm 0,0 km/h (0 Bft) S-SW 197 ° 0 min 0,000 mm 0,0 UV-I 0 W/m² 5,7 °C 7,6 °C 0,0 km/h (0 Bft)
11.05.2018 01:43 7,6 °C 88 % 1018,5 hPa 0,0 mm 0,0 km/h (0 Bft) S-SW 197 ° 0 min 0,000 mm 0,0 UV-I 0 W/m² 5,7 °C 7,6 °C 0,0 km/h (0 Bft)
11.05.2018 01:44 7,6 °C 88 % 1018,6 hPa 0,0 mm 0,0 km/h (0 Bft) S-SW 197 ° 0 min 0,000 mm 0,0 UV-I 0 W/m² 5,7 °C 7,6 °C 0,0 km/h (0 Bft)
11.05.2018 01:45 7,6 °C 89 % 1018,5 hPa 0,0 mm 1,4 km/h (1 Bft) S-SW 197 ° 0 min 0,000 mm 0,0 UV-I 0 W/m² 5,9 °C 7,6 °C 3,2 km/h (1 Bft)
11.05.2018 01:46 7,5 °C 89 % 1018,5 hPa 0,0 mm 0,1 km/h (0 Bft) S-SW 197 ° 0 min 0,000 mm 0,0 UV-I 0 W/m² 5,8 °C 7,5 °C 1,6 km/h (1 Bft)
11.05.2018 01:47 7,4 °C 89 % 1018,5 hPa 0,0 mm 0,1 km/h (0 Bft) S-SW 197 ° 0 min 0,000 mm 0,0 UV-I 0 W/m² 5,7 °C 7,4 °C 1,6 km/h (1 Bft)
11.05.2018 01:48 7,4 °C 90 % 1018,5 hPa 0,0 mm 0,0 km/h (0 Bft) S-SW 197 ° 0 min 0,000 mm 0,0 UV-I 0 W/m² 5,9 °C 7,4 °C 0,0 km/h (0 Bft)
11.05.2018 01:49 7,3 °C 90 % 1018,5 hPa 0,0 mm 1,1 km/h (1 Bft) S-SW 197 ° 0 min 0,000 mm 0,0 UV-I 0 W/m² 5,8 °C 7,3 °C 3,2 km/h (1 Bft)
11.05.2018 01:50 7,3 °C 90 % 1018,5 hPa 0,0 mm 0,2 km/h (0 Bft) S-SW 197 ° 0 min 0,000 mm 0,0 UV-I 0 W/m² 5,8 °C 7,3 °C 1,6 km/h (1 Bft)
11.05.2018 01:51 7,2 °C 90 % 1018,6 hPa 0,0 mm 0,0 km/h (0 Bft) S-SW 197 ° 0 min 0,000 mm 0,0 UV-I 0 W/m² 5,7 °C 7,2 °C 0,0 km/h (0 Bft)
11.05.2018 01:52 7,2 °C 90 % 1018,5 hPa 0,0 mm 0,0 km/h (0 Bft) S-SW 197 ° 0 min 0,000 mm 0,0 UV-I 0 W/m² 5,7 °C 7,2 °C 0,0 km/h (0 Bft)
11.05.2018 01:53 7,2 °C 90 % 1018,5 hPa 0,0 mm 0,5 km/h (0 Bft) S-SW 197 ° 0 min 0,000 mm 0,0 UV-I 0 W/m² 5,7 °C 7,2 °C 3,2 km/h (1 Bft)
11.05.2018 01:54 7,2 °C 90 % 1018,5 hPa 0,0 mm 0,0 km/h (0 Bft) S-SW 197 ° 0 min 0,000 mm 0,0 UV-I 0 W/m² 5,7 °C 7,2 °C 0,0 km/h (0 Bft)
11.05.2018 01:55 7,2 °C 91 % 1018,5 hPa 0,0 mm 0,0 km/h (0 Bft) S-SW 197 ° 0 min 0,000 mm 0,0 UV-I 0 W/m² 5,8 °C 7,2 °C 0,0 km/h (0 Bft)
11.05.2018 01:56 7,2 °C 91 % 1018,4 hPa 0,0 mm 1,1 km/h (1 Bft) S-SW 197 ° 0 min 0,000 mm 0,0 UV-I 0 W/m² 5,8 °C 7,2 °C 3,2 km/h (1 Bft)
11.05.2018 01:57 7,2 °C 91 % 1018,4 hPa 0,0 mm 0,9 km/h (0 Bft) S-SW 197 ° 0 min 0,000 mm 0,0 UV-I 0 W/m² 5,8 °C 7,2 °C 3,2 km/h (1 Bft)
11.05.2018 01:58 7,2 °C 91 % 1018,4 hPa 0,0 mm 0,0 km/h (0 Bft) S-SW 197 ° 0 min 0,000 mm 0,0 UV-I 0 W/m² 5,8 °C 7,2 °C 0,0 km/h (0 Bft)
11.05.2018 01:59 7,2 °C 91 % 1018,4 hPa 0,0 mm 0,0 km/h (0 Bft) S-SW 197 ° 0 min 0,000 mm 0,0 UV-I 0 W/m² 5,8 °C 7,2 °C 0,0 km/h (0 Bft)
11.05.2018 02:00 7,2 °C 91 % 1018,4 hPa 0,0 mm 0,0 km/h (0 Bft) S-SW 197 ° 0 min 0,000 mm 0,0 UV-I 0 W/m² 5,8 °C 7,2 °C 0,0 km/h (0 Bft)
11.05.2018 02:01 7,2 °C 91 % 1018,4 hPa 0,0 mm 0,0 km/h (0 Bft) S-SW 197 ° 0 min 0,000 mm 0,0 UV-I 0 W/m² 5,8 °C 7,2 °C 0,0 km/h (0 Bft)
11.05.2018 02:02 7,1 °C 91 % 1018,4 hPa 0,0 mm 0,0 km/h (0 Bft) S-SW 197 ° 0 min 0,000 mm 0,0 UV-I 0 W/m² 5,7 °C 7,1 °C 0,0 km/h (0 Bft)
11.05.2018 02:03 7,1 °C 91 % 1018,4 hPa 0,0 mm 0,0 km/h (0 Bft) S-SW 197 ° 0 min 0,000 mm 0,0 UV-I 0 W/m² 5,7 °C 7,1 °C 0,0 km/h (0 Bft)
11.05.2018 02:04 7,1 °C 91 % 1018,4 hPa 0,0 mm 0,0 km/h (0 Bft) S-SW 197 ° 0 min 0,000 mm 0,0 UV-I 0 W/m² 5,7 °C 7,1 °C 0,0 km/h (0 Bft)
11.05.2018 02:05 7,1 °C 91 % 1018,3 hPa 0,0 mm 0,0 km/h (0 Bft) S-SW 197 ° 0 min 0,000 mm 0,0 UV-I 0 W/m² 5,7 °C 7,1 °C 0,0 km/h (0 Bft)
11.05.2018 02:06 7,1 °C 91 % 1018,3 hPa 0,0 mm 0,0 km/h (0 Bft) S-SW 197 ° 0 min 0,000 mm 0,0 UV-I 0 W/m² 5,7 °C 7,1 °C 0,0 km/h (0 Bft)
11.05.2018 02:07 7,1 °C 91 % 1018,3 hPa 0,0 mm 0,0 km/h (0 Bft) S-SW 197 ° 0 min 0,000 mm 0,0 UV-I 0 W/m² 5,7 °C 7,1 °C 0,0 km/h (0 Bft)
11.05.2018 02:08 7,1 °C 91 % 1018,3 hPa 0,0 mm 0,0 km/h (0 Bft) S-SW 197 ° 0 min 0,000 mm 0,0 UV-I 0 W/m² 5,7 °C 7,1 °C 0,0 km/h (0 Bft)
11.05.2018 02:09 7,1 °C 91 % 1018,3 hPa 0,0 mm 0,0 km/h (0 Bft) S-SW 197 ° 0 min 0,000 mm 0,0 UV-I 0 W/m² 5,7 °C 7,1 °C 0,0 km/h (0 Bft)
11.05.2018 02:10 7,1 °C 91 % 1018,3 hPa 0,0 mm 0,0 km/h (0 Bft) S-SW 197 ° 0 min 0,000 mm 0,0 UV-I 0 W/m² 5,7 °C 7,1 °C 0,0 km/h (0 Bft)
11.05.2018 02:11 7,1 °C 92 % 1018,3 hPa 0,0 mm 0,0 km/h (0 Bft) S-SW 197 ° 0 min 0,000 mm 0,0 UV-I 0 W/m² 5,9 °C 7,1 °C 0,0 km/h (0 Bft)
11.05.2018 02:12 7,0 °C 92 % 1018,3 hPa 0,0 mm 0,5 km/h (0 Bft) S-SW 197 ° 0 min 0,000 mm 0,0 UV-I 0 W/m² 5,8 °C 7,0 °C 1,6 km/h (1 Bft)
11.05.2018 02:13 7,1 °C 91 % 1018,3 hPa 0,0 mm 0,6 km/h (0 Bft) S-SW 197 ° 0 min 0,000 mm 0,0 UV-I 0 W/m² 5,7 °C 7,1 °C 1,6 km/h (1 Bft)
11.05.2018 02:14 7,1 °C 91 % 1018,3 hPa 0,0 mm 0,0 km/h (0 Bft) S-SW 197 ° 0 min 0,000 mm 0,0 UV-I 0 W/m² 5,7 °C 7,1 °C 0,0 km/h (0 Bft)
11.05.2018 02:15 7,1 °C 91 % 1018,3 hPa 0,0 mm 0,0 km/h (0 Bft) S-SW 197 ° 0 min 0,000 mm 0,0 UV-I 0 W/m² 5,7 °C 7,1 °C 0,0 km/h (0 Bft)
11.05.2018 02:16 7,1 °C 91 % 1018,3 hPa 0,0 mm 0,0 km/h (0 Bft) S-SW 197 ° 0 min 0,000 mm 0,0 UV-I 0 W/m² 5,7 °C 7,1 °C 0,0 km/h (0 Bft)
11.05.2018 02:17 7,1 °C 91 % 1018,3 hPa 0,0 mm 1,1 km/h (1 Bft) S-SW 197 ° 0 min 0,000 mm 0,0 UV-I 0 W/m² 5,7 °C 7,1 °C 4,8 km/h (1 Bft)
11.05.2018 02:18 7,1 °C 91 % 1018,3 hPa 0,0 mm 1,5 km/h (1 Bft) S-SW 197 ° 0 min 0,000 mm 0,0 UV-I 0 W/m² 5,7 °C 7,1 °C 3,2 km/h (1 Bft)
11.05.2018 02:19 7,2 °C 91 % 1018,3 hPa 0,0 mm 0,5 km/h (0 Bft) S-SW 197 ° 0 min 0,000 mm 0,0 UV-I 0 W/m² 5,8 °C 7,2 °C 1,6 km/h (1 Bft)
11.05.2018 02:20 7,2 °C 91 % 1018,3 hPa 0,0 mm 1,7 km/h (1 Bft) S-SW 197 ° 0 min 0,000 mm 0,0 UV-I 0 W/m² 5,8 °C 7,2 °C 3,2 km/h (1 Bft)
11.05.2018 02:21 7,2 °C 91 % 1018,3 hPa 0,0 mm 1,1 km/h (1 Bft) S-SW 197 ° 0 min 0,000 mm 0,0 UV-I 0 W/m² 5,8 °C 7,2 °C 3,2 km/h (1 Bft)
11.05.2018 02:22 7,2 °C 91 % 1018,3 hPa 0,0 mm 0,1 km/h (0 Bft) S-SW 197 ° 0 min 0,000 mm 0,0 UV-I 0 W/m² 5,8 °C 7,2 °C 1,6 km/h (1 Bft)
11.05.2018 02:23 7,2 °C 91 % 1018,3 hPa 0,0 mm 2,3 km/h (1 Bft) S-SW 197 ° 0 min 0,000 mm 0,0 UV-I 0 W/m² 5,8 °C 7,2 °C 4,8 km/h (1 Bft)
11.05.2018 02:24 7,2 °C 91 % 1018,2 hPa 0,0 mm 2,3 km/h (1 Bft) S-SW 197 ° 0 min 0,000 mm 0,0 UV-I 0 W/m² 5,8 °C 7,2 °C 4,8 km/h (1 Bft)
11.05.2018 02:25 7,3 °C 91 % 1018,2 hPa 0,0 mm 0,0 km/h (0 Bft) S-SW 197 ° 0 min 0,000 mm 0,0 UV-I 0 W/m² 5,9 °C 7,3 °C 0,0 km/h (0 Bft)
11.05.2018 02:26 7,3 °C 91 % 1018,3 hPa 0,0 mm 0,0 km/h (0 Bft) S-SW 197 ° 0 min 0,000 mm 0,0 UV-I 0 W/m² 5,9 °C 7,3 °C 0,0 km/h (0 Bft)
11.05.2018 02:27 7,3 °C 91 % 1018,2 hPa 0,0 mm 0,0 km/h (0 Bft) S-SW 197 ° 0 min 0,000 mm 0,0 UV-I 0 W/m² 5,9 °C 7,3 °C 0,0 km/h (0 Bft)
11.05.2018 02:28 7,3 °C 91 % 1018,2 hPa 0,0 mm 0,0 km/h (0 Bft) S-SW 197 ° 0 min 0,000 mm 0,0 UV-I 0 W/m² 5,9 °C 7,3 °C 0,0 km/h (0 Bft)
11.05.2018 02:29 7,3 °C 91 % 1018,2 hPa 0,0 mm 0,0 km/h (0 Bft) S-SW 197 ° 0 min 0,000 mm 0,0 UV-I 0 W/m² 5,9 °C 7,3 °C 0,0 km/h (0 Bft)
11.05.2018 02:30 7,3 °C 91 % 1018,2 hPa 0,0 mm 0,0 km/h (0 Bft) S-SW 197 ° 0 min 0,000 mm 0,0 UV-I 0 W/m² 5,9 °C 7,3 °C 0,0 km/h (0 Bft)
11.05.2018 02:31 7,3 °C 91 % 1018,3 hPa 0,0 mm 0,0 km/h (0 Bft) S-SW 197 ° 0 min 0,000 mm 0,0 UV-I 0 W/m² 5,9 °C 7,3 °C 0,0 km/h (0 Bft)
11.05.2018 02:32 7,3 °C 91 % 1018,3 hPa 0,0 mm 0,0 km/h (0 Bft) S-SW 197 ° 0 min 0,000 mm 0,0 UV-I 0 W/m² 5,9 °C 7,3 °C 0,0 km/h (0 Bft)
11.05.2018 02:33 7,2 °C 91 % 1018,3 hPa 0,0 mm 0,0 km/h (0 Bft) S-SW 197 ° 0 min 0,000 mm 0,0 UV-I 0 W/m² 5,8 °C 7,2 °C 0,0 km/h (0 Bft)
11.05.2018 02:34 7,2 °C 91 % 1018,3 hPa 0,0 mm 0,0 km/h (0 Bft) S-SW 197 ° 0 min 0,000 mm 0,0 UV-I 0 W/m² 5,8 °C 7,2 °C 0,0 km/h (0 Bft)
11.05.2018 02:35 7,2 °C 91 % 1018,3 hPa 0,0 mm 0,0 km/h (0 Bft) S-SW 197 ° 0 min 0,000 mm 0,0 UV-I 0 W/m² 5,8 °C 7,2 °C 0,0 km/h (0 Bft)
11.05.2018 02:36 7,2 °C 91 % 1018,3 hPa 0,0 mm 0,0 km/h (0 Bft) S-SW 197 ° 0 min 0,000 mm 0,0 UV-I 0 W/m² 5,8 °C 7,2 °C 0,0 km/h (0 Bft)
11.05.2018 02:37 7,2 °C 91 % 1018,3 hPa 0,0 mm 0,0 km/h (0 Bft) S-SW 197 ° 0 min 0,000 mm 0,0 UV-I 0 W/m² 5,8 °C 7,2 °C 0,0 km/h (0 Bft)
11.05.2018 02:38 7,1 °C 91 % 1018,3 hPa 0,0 mm 0,0 km/h (0 Bft) S-SW 197 ° 0 min 0,000 mm 0,0 UV-I 0 W/m² 5,7 °C 7,1 °C 0,0 km/h (0 Bft)
11.05.2018 02:39 7,1 °C 91 % 1018,3 hPa 0,0 mm 0,0 km/h (0 Bft) S-SW 197 ° 0 min 0,000 mm 0,0 UV-I 0 W/m² 5,7 °C 7,1 °C 0,0 km/h (0 Bft)
11.05.2018 02:40 7,1 °C 91 % 1018,3 hPa 0,0 mm 0,0 km/h (0 Bft) S-SW 197 ° 0 min 0,000 mm 0,0 UV-I 0 W/m² 5,7 °C 7,1 °C 0,0 km/h (0 Bft)
11.05.2018 02:41 7,2 °C 90 % 1018,3 hPa 0,0 mm 0,0 km/h (0 Bft) S-SW 197 ° 0 min 0,000 mm 0,0 UV-I 0 W/m² 5,7 °C 7,2 °C 0,0 km/h (0 Bft)
11.05.2018 02:42 7,2 °C 91 % 1018,2 hPa 0,0 mm 0,0 km/h (0 Bft) S-SW 197 ° 0 min 0,000 mm 0,0 UV-I 0 W/m² 5,8 °C 7,2 °C 0,0 km/h (0 Bft)
11.05.2018 02:43 7,2 °C 91 % 1018,2 hPa 0,0 mm 0,0 km/h (0 Bft) S-SW 197 ° 0 min 0,000 mm 0,0 UV-I 0 W/m² 5,8 °C 7,2 °C 0,0 km/h (0 Bft)
11.05.2018 02:44 7,2 °C 91 % 1018,3 hPa 0,0 mm 0,6 km/h (0 Bft) S-SW 197 ° 0 min 0,000 mm 0,0 UV-I 0 W/m² 5,8 °C 7,2 °C 3,2 km/h (1 Bft)
11.05.2018 02:45 7,3 °C 91 % 1018,3 hPa 0,0 mm 2,1 km/h (1 Bft) S-SW 197 ° 0 min 0,000 mm 0,0 UV-I 0 W/m² 5,9 °C 7,3 °C 3,2 km/h (1 Bft)
11.05.2018 02:46 7,3 °C 90 % 1018,2 hPa 0,0 mm 1,5 km/h (1 Bft) S-SW 197 ° 0 min 0,000 mm 0,0 UV-I 0 W/m² 5,8 °C 7,3 °C 3,2 km/h (1 Bft)
11.05.2018 02:47 7,3 °C 90 % 1018,3 hPa 0,0 mm 0,1 km/h (0 Bft) S-SW 197 ° 0 min 0,000 mm 0,0 UV-I 0 W/m² 5,8 °C 7,3 °C 1,6 km/h (1 Bft)
11.05.2018 02:48 7,3 °C 90 % 1018,3 hPa 0,0 mm 4,2 km/h (1 Bft) S-SW 197 ° 0 min 0,000 mm 0,0 UV-I 0 W/m² 5,8 °C 7,3 °C 6,4 km/h (2 Bft)
11.05.2018 02:49 7,3 °C 90 % 1018,2 hPa 0,0 mm 4,3 km/h (1 Bft) S-SW 197 ° 0 min 0,000 mm 0,0 UV-I 0 W/m² 5,8 °C 7,3 °C 6,4 km/h (2 Bft)
11.05.2018 02:50 7,4 °C 89 % 1018,2 hPa 0,0 mm 1,1 km/h (1 Bft) S-SW 197 ° 0 min 0,000 mm 0,0 UV-I 0 W/m² 5,7 °C 7,4 °C 3,2 km/h (1 Bft)
11.05.2018 02:51 7,4 °C 90 % 1018,2 hPa 0,0 mm 1,2 km/h (1 Bft) S-SW 197 ° 0 min 0,000 mm 0,0 UV-I 0 W/m² 5,9 °C 7,4 °C 3,2 km/h (1 Bft)
11.05.2018 02:52 7,4 °C 90 % 1018,1 hPa 0,0 mm 0,9 km/h (0 Bft) S-SW 197 ° 0 min 0,000 mm 0,0 UV-I 0 W/m² 5,9 °C 7,4 °C 3,2 km/h (1 Bft)
11.05.2018 02:53 7,5 °C 89 % 1018,1 hPa 0,0 mm 3,0 km/h (1 Bft) S-SW 196 ° 0 min 0,000 mm 0,0 UV-I 0 W/m² 5,8 °C 7,5 °C 6,4 km/h (2 Bft)
11.05.2018 02:54 7,4 °C 90 % 1018,1 hPa 0,0 mm 3,4 km/h (1 Bft) S-SW 196 ° 0 min 0,000 mm 0,0 UV-I 0 W/m² 5,9 °C 7,4 °C 4,8 km/h (1 Bft)
11.05.2018 02:55 7,4 °C 90 % 1018,1 hPa 0,0 mm 3,6 km/h (1 Bft) S-SW 196 ° 0 min 0,000 mm 0,0 UV-I 0 W/m² 5,9 °C 7,4 °C 6,4 km/h (2 Bft)
11.05.2018 02:56 7,4 °C 90 % 1018,1 hPa 0,0 mm 3,9 km/h (1 Bft) S-SW 196 ° 0 min 0,000 mm 0,0 UV-I 0 W/m² 5,9 °C 7,4 °C 4,8 km/h (1 Bft)
11.05.2018 02:57 7,4 °C 90 % 1018,0 hPa 0,0 mm 0,1 km/h (0 Bft) S-SW 196 ° 0 min 0,000 mm 0,0 UV-I 0 W/m² 5,9 °C 7,4 °C 1,6 km/h (1 Bft)
11.05.2018 02:58 7,4 °C 90 % 1018,0 hPa 0,0 mm 0,6 km/h (0 Bft) S-SW 196 ° 0 min 0,000 mm 0,0 UV-I 0 W/m² 5,9 °C 7,4 °C 3,2 km/h (1 Bft)
11.05.2018 02:59 7,5 °C 90 % 1018,0 hPa 0,0 mm 2,3 km/h (1 Bft) S-SW 196 ° 0 min 0,000 mm 0,0 UV-I 0 W/m² 6,0 °C 7,5 °C 4,8 km/h (1 Bft)
11.05.2018 03:00 7,4 °C 90 % 1018,0 hPa 0,0 mm 0,0 km/h (0 Bft) S-SW 196 ° 0 min 0,000 mm 0,0 UV-I 0 W/m² 5,9 °C 7,4 °C 0,0 km/h (0 Bft)
11.05.2018 03:01 7,4 °C 90 % 1018,0 hPa 0,0 mm 0,0 km/h (0 Bft) S-SW 196 ° 0 min 0,000 mm 0,0 UV-I 0 W/m² 5,9 °C 7,4 °C 0,0 km/h (0 Bft)
11.05.2018 03:02 7,4 °C 90 % 1017,9 hPa 0,0 mm 0,0 km/h (0 Bft) S-SW 196 ° 0 min 0,000 mm 0,0 UV-I 0 W/m² 5,9 °C 7,4 °C 0,0 km/h (0 Bft)
11.05.2018 03:03 7,3 °C 90 % 1018,0 hPa 0,0 mm 0,0 km/h (0 Bft) S-SW 196 ° 0 min 0,000 mm 0,0 UV-I 0 W/m² 5,8 °C 7,3 °C 0,0 km/h (0 Bft)
11.05.2018 03:04 7,3 °C 90 % 1018,0 hPa 0,0 mm 0,0 km/h (0 Bft) S-SW 196 ° 0 min 0,000 mm 0,0 UV-I 0 W/m² 5,8 °C 7,3 °C 0,0 km/h (0 Bft)
11.05.2018 03:05 7,2 °C 91 % 1018,0 hPa 0,0 mm 0,0 km/h (0 Bft) S-SW 196 ° 0 min 0,000 mm 0,0 UV-I 0 W/m² 5,8 °C 7,2 °C 0,0 km/h (0 Bft)
11.05.2018 03:06 7,2 °C 91 % 1018,0 hPa 0,0 mm 0,0 km/h (0 Bft) S-SW 196 ° 0 min 0,000 mm 0,0 UV-I 0 W/m² 5,8 °C 7,2 °C 0,0 km/h (0 Bft)
11.05.2018 03:07 7,2 °C 91 % 1018,0 hPa 0,0 mm 0,0 km/h (0 Bft) S-SW 196 ° 0 min 0,000 mm 0,0 UV-I 0 W/m² 5,8 °C 7,2 °C 0,0 km/h (0 Bft)
11.05.2018 03:08 7,2 °C 91 % 1018,0 hPa 0,0 mm 0,0 km/h (0 Bft) S-SW 196 ° 0 min 0,000 mm 0,0 UV-I 0 W/m² 5,8 °C 7,2 °C 0,0 km/h (0 Bft)
11.05.2018 03:09 7,2 °C 91 % 1017,9 hPa 0,0 mm 0,0 km/h (0 Bft) S-SW 196 ° 0 min 0,000 mm 0,0 UV-I 0 W/m² 5,8 °C 7,2 °C 0,0 km/h (0 Bft)
11.05.2018 03:10 7,1 °C 91 % 1017,9 hPa 0,0 mm 0,0 km/h (0 Bft) S-SW 196 ° 0 min 0,000 mm 0,0 UV-I 0 W/m² 5,7 °C 7,1 °C 0,0 km/h (0 Bft)
11.05.2018 03:11 7,2 °C 91 % 1017,9 hPa 0,0 mm 0,0 km/h (0 Bft) S-SW 196 ° 0 min 0,000 mm 0,0 UV-I 0 W/m² 5,8 °C 7,2 °C 0,0 km/h (0 Bft)
11.05.2018 03:12 7,2 °C 91 % 1017,9 hPa 0,0 mm 0,0 km/h (0 Bft) S-SW 196 ° 0 min 0,000 mm 0,0 UV-I 0 W/m² 5,8 °C 7,2 °C 0,0 km/h (0 Bft)
11.05.2018 03:13 7,1 °C 91 % 1017,9 hPa 0,0 mm 0,0 km/h (0 Bft) S-SW 196 ° 0 min 0,000 mm 0,0 UV-I 0 W/m² 5,7 °C 7,1 °C 0,0 km/h (0 Bft)
11.05.2018 03:14 7,1 °C 91 % 1017,9 hPa 0,0 mm 0,0 km/h (0 Bft) S-SW 196 ° 0 min 0,000 mm 0,0 UV-I 0 W/m² 5,7 °C 7,1 °C 0,0 km/h (0 Bft)
11.05.2018 03:15 7,1 °C 91 % 1017,9 hPa 0,0 mm 0,0 km/h (0 Bft) S-SW 196 ° 0 min 0,000 mm 0,0 UV-I 0 W/m² 5,7 °C 7,1 °C 0,0 km/h (0 Bft)
11.05.2018 03:16 7,1 °C 91 % 1017,9 hPa 0,0 mm 0,0 km/h (0 Bft) S-SW 196 ° 0 min 0,000 mm 0,0 UV-I 0 W/m² 5,7 °C 7,1 °C 0,0 km/h (0 Bft)
11.05.2018 03:17 7,1 °C 91 % 1017,9 hPa 0,0 mm 0,0 km/h (0 Bft) S-SW 196 ° 0 min 0,000 mm 0,0 UV-I 0 W/m² 5,7 °C 7,1 °C 0,0 km/h (0 Bft)
11.05.2018 03:18 7,1 °C 91 % 1017,9 hPa 0,0 mm 0,0 km/h (0 Bft) S-SW 196 ° 0 min 0,000 mm 0,0 UV-I 0 W/m² 5,7 °C 7,1 °C 0,0 km/h (0 Bft)
11.05.2018 03:19 7,1 °C 91 % 1017,8 hPa 0,0 mm 0,0 km/h (0 Bft) S-SW 196 ° 0 min 0,000 mm 0,0 UV-I 0 W/m² 5,7 °C 7,1 °C 0,0 km/h (0 Bft)
11.05.2018 03:20 7,0 °C 91 % 1017,8 hPa 0,0 mm 0,0 km/h (0 Bft) S-SW 196 ° 0 min 0,000 mm 0,0 UV-I 0 W/m² 5,6 °C 7,0 °C 0,0 km/h (0 Bft)
11.05.2018 03:21 7,0 °C 91 % 1017,8 hPa 0,0 mm 0,0 km/h (0 Bft) S-SW 196 ° 0 min 0,000 mm 0,0 UV-I 0 W/m² 5,6 °C 7,0 °C 0,0 km/h (0 Bft)
11.05.2018 03:22 6,9 °C 91 % 1017,9 hPa 0,0 mm 0,0 km/h (0 Bft) S-SW 196 ° 0 min 0,000 mm 0,0 UV-I 0 W/m² 5,5 °C 6,9 °C 0,0 km/h (0 Bft)
11.05.2018 03:23 6,9 °C 91 % 1017,9 hPa 0,0 mm 0,0 km/h (0 Bft) S-SW 196 ° 0 min 0,000 mm 0,0 UV-I 0 W/m² 5,5 °C 6,9 °C 0,0 km/h (0 Bft)
11.05.2018 03:24 6,9 °C 92 % 1017,9 hPa 0,0 mm 0,0 km/h (0 Bft) S-SW 196 ° 0 min 0,000 mm 0,0 UV-I 0 W/m² 5,7 °C 6,9 °C 0,0 km/h (0 Bft)
11.05.2018 03:25 6,9 °C 92 % 1017,9 hPa 0,0 mm 0,0 km/h (0 Bft) S-SW 196 ° 0 min 0,000 mm 0,0 UV-I 0 W/m² 5,7 °C 6,9 °C 0,0 km/h (0 Bft)
11.05.2018 03:26 6,8 °C 91 % 1017,9 hPa 0,0 mm 0,0 km/h (0 Bft) S-SW 196 ° 0 min 0,000 mm 0,0 UV-I 0 W/m² 5,4 °C 6,8 °C 0,0 km/h (0 Bft)
11.05.2018 03:27 6,8 °C 92 % 1017,9 hPa 0,0 mm 0,0 km/h (0 Bft) S-SW 196 ° 0 min 0,000 mm 0,0 UV-I 0 W/m² 5,6 °C 6,8 °C 0,0 km/h (0 Bft)
11.05.2018 03:28 6,8 °C 91 % 1017,9 hPa 0,0 mm 0,0 km/h (0 Bft) S-SW 196 ° 0 min 0,000 mm 0,0 UV-I 0 W/m² 5,4 °C 6,8 °C 0,0 km/h (0 Bft)
11.05.2018 03:29 6,7 °C 91 % 1017,9 hPa 0,0 mm 0,0 km/h (0 Bft) S-SW 196 ° 0 min 0,000 mm 0,0 UV-I 0 W/m² 5,3 °C 6,7 °C 0,0 km/h (0 Bft)
11.05.2018 03:30 6,7 °C 92 % 1017,8 hPa 0,0 mm 0,0 km/h (0 Bft) S-SW 196 ° 0 min 0,000 mm 0,0 UV-I 0 W/m² 5,5 °C 6,7 °C 0,0 km/h (0 Bft)
11.05.2018 03:31 6,7 °C 92 % 1017,7 hPa 0,0 mm 0,0 km/h (0 Bft) S-SW 196 ° 0 min 0,000 mm 0,0 UV-I 0 W/m² 5,5 °C 6,7 °C 0,0 km/h (0 Bft)
11.05.2018 03:32 6,7 °C 92 % 1017,8 hPa 0,0 mm 0,0 km/h (0 Bft) S-SW 196 ° 0 min 0,000 mm 0,0 UV-I 0 W/m² 5,5 °C 6,7 °C 0,0 km/h (0 Bft)
11.05.2018 03:33 6,6 °C 91 % 1017,7 hPa 0,0 mm 0,0 km/h (0 Bft) S-SW 196 ° 0 min 0,000 mm 0,0 UV-I 0 W/m² 5,2 °C 6,6 °C 0,0 km/h (0 Bft)
11.05.2018 03:34 6,6 °C 92 % 1017,7 hPa 0,0 mm 0,0 km/h (0 Bft) S-SW 196 ° 0 min 0,000 mm 0,0 UV-I 0 W/m² 5,4 °C 6,6 °C 0,0 km/h (0 Bft)
11.05.2018 03:35 6,6 °C 92 % 1017,7 hPa 0,0 mm 0,0 km/h (0 Bft) S-SW 196 ° 0 min 0,000 mm 0,0 UV-I 0 W/m² 5,4 °C 6,6 °C 0,0 km/h (0 Bft)
11.05.2018 03:36 6,5 °C 92 % 1017,7 hPa 0,0 mm 0,0 km/h (0 Bft) S-SW 196 ° 0 min 0,000 mm 0,0 UV-I 0 W/m² 5,3 °C 6,5 °C 0,0 km/h (0 Bft)
11.05.2018 03:37 6,4 °C 92 % 1017,7 hPa 0,0 mm 0,0 km/h (0 Bft) S-SW 196 ° 0 min 0,000 mm 0,0 UV-I 0 W/m² 5,2 °C 6,4 °C 0,0 km/h (0 Bft)
11.05.2018 03:38 6,4 °C 91 % 1017,7 hPa 0,0 mm 0,0 km/h (0 Bft) S-SW 196 ° 0 min 0,000 mm 0,0 UV-I 0 W/m² 5,0 °C 6,4 °C 0,0 km/h (0 Bft)
11.05.2018 03:39 6,4 °C 92 % 1017,8 hPa 0,0 mm 0,0 km/h (0 Bft) S-SW 196 ° 0 min 0,000 mm 0,0 UV-I 0 W/m² 5,2 °C 6,4 °C 0,0 km/h (0 Bft)
11.05.2018 03:40 6,3 °C 92 % 1017,8 hPa 0,0 mm 0,0 km/h (0 Bft) S-SW 196 ° 0 min 0,000 mm 0,0 UV-I 0 W/m² 5,1 °C 6,3 °C 0,0 km/h (0 Bft)
11.05.2018 03:41 6,3 °C 92 % 1017,7 hPa 0,0 mm 0,0 km/h (0 Bft) S-SW 196 ° 0 min 0,000 mm 0,0 UV-I 0 W/m² 5,1 °C 6,3 °C 0,0 km/h (0 Bft)
11.05.2018 03:42 6,3 °C 92 % 1017,7 hPa 0,0 mm 0,0 km/h (0 Bft) S-SW 196 ° 0 min 0,000 mm 0,0 UV-I 0 W/m² 5,1 °C 6,3 °C 0,0 km/h (0 Bft)
11.05.2018 03:43 6,3 °C 92 % 1017,7 hPa 0,0 mm 0,0 km/h (0 Bft) S-SW 196 ° 0 min 0,000 mm 0,0 UV-I 0 W/m² 5,1 °C 6,3 °C 0,0 km/h (0 Bft)
11.05.2018 03:44 6,3 °C 92 % 1017,7 hPa 0,0 mm 0,0 km/h (0 Bft) S-SW 196 ° 0 min 0,000 mm 0,0 UV-I 0 W/m² 5,1 °C 6,3 °C 0,0 km/h (0 Bft)
11.05.2018 03:45 6,3 °C 92 % 1017,8 hPa 0,0 mm 0,0 km/h (0 Bft) S-SW 196 ° 0 min 0,000 mm 0,0 UV-I 0 W/m² 5,1 °C 6,3 °C 0,0 km/h (0 Bft)
11.05.2018 03:46 6,3 °C 92 % 1017,8 hPa 0,0 mm 0,0 km/h (0 Bft) S-SW 196 ° 0 min 0,000 mm 0,0 UV-I 0 W/m² 5,1 °C 6,3 °C 0,0 km/h (0 Bft)
11.05.2018 03:47 6,2 °C 92 % 1017,8 hPa 0,0 mm 0,0 km/h (0 Bft) S-SW 196 ° 0 min 0,000 mm 0,0 UV-I 0 W/m² 5,0 °C 6,2 °C 0,0 km/h (0 Bft)
11.05.2018 03:48 6,2 °C 92 % 1017,8 hPa 0,0 mm 0,0 km/h (0 Bft) S-SW 196 ° 0 min 0,000 mm 0,0 UV-I 0 W/m² 5,0 °C 6,2 °C 0,0 km/h (0 Bft)
11.05.2018 03:49 6,1 °C 91 % 1017,8 hPa 0,0 mm 0,0 km/h (0 Bft) S-SW 196 ° 0 min 0,000 mm 0,0 UV-I 0 W/m² 4,7 °C 6,1 °C 0,0 km/h (0 Bft)
11.05.2018 03:50 5,9 °C 91 % 1017,8 hPa 0,0 mm 0,0 km/h (0 Bft) S-SW 196 ° 0 min 0,000 mm 0,0 UV-I 0 W/m² 4,5 °C 5,9 °C 0,0 km/h (0 Bft)
11.05.2018 03:51 5,9 °C 92 % 1017,8 hPa 0,0 mm 0,0 km/h (0 Bft) S-SW 196 ° 0 min 0,000 mm 0,0 UV-I 0 W/m² 4,7 °C 5,9 °C 0,0 km/h (0 Bft)
11.05.2018 03:52 5,9 °C 92 % 1017,8 hPa 0,0 mm 0,0 km/h (0 Bft) S-SW 196 ° 0 min 0,000 mm 0,0 UV-I 0 W/m² 4,7 °C 5,9 °C 0,0 km/h (0 Bft)
11.05.2018 03:53 5,8 °C 92 % 1017,8 hPa 0,0 mm 0,0 km/h (0 Bft) S-SW 196 ° 0 min 0,000 mm 0,0 UV-I 0 W/m² 4,6 °C 5,8 °C 0,0 km/h (0 Bft)
11.05.2018 03:54 5,8 °C 92 % 1017,8 hPa 0,0 mm 0,0 km/h (0 Bft) S-SW 196 ° 0 min 0,000 mm 0,0 UV-I 0 W/m² 4,6 °C 5,8 °C 0,0 km/h (0 Bft)
11.05.2018 03:55 5,8 °C 92 % 1017,7 hPa 0,0 mm 0,0 km/h (0 Bft) S-SW 196 ° 0 min 0,000 mm 0,0 UV-I 0 W/m² 4,6 °C 5,8 °C 0,0 km/h (0 Bft)
11.05.2018 03:56 5,9 °C 92 % 1017,7 hPa 0,0 mm 0,0 km/h (0 Bft) S-SW 196 ° 0 min 0,000 mm 0,0 UV-I 0 W/m² 4,7 °C 5,9 °C 0,0 km/h (0 Bft)
11.05.2018 03:57 5,9 °C 92 % 1017,7 hPa 0,0 mm 0,0 km/h (0 Bft) S-SW 196 ° 0 min 0,000 mm 0,0 UV-I 0 W/m² 4,7 °C 5,9 °C 0,0 km/h (0 Bft)
11.05.2018 03:58 5,9 °C 92 % 1017,8 hPa 0,0 mm 0,0 km/h (0 Bft) S-SW 196 ° 0 min 0,000 mm 0,0 UV-I 0 W/m² 4,7 °C 5,9 °C 0,0 km/h (0 Bft)
11.05.2018 03:59 5,9 °C 93 % 1017,8 hPa 0,0 mm 0,0 km/h (0 Bft) S-SW 196 ° 0 min 0,000 mm 0,0 UV-I 0 W/m² 4,9 °C 5,9 °C 0,0 km/h (0 Bft)
11.05.2018 04:00 5,9 °C 92 % 1017,7 hPa 0,0 mm 0,0 km/h (0 Bft) S-SW 196 ° 0 min 0,000 mm 0,0 UV-I 0 W/m² 4,7 °C 5,9 °C 0,0 km/h (0 Bft)
11.05.2018 04:01 5,9 °C 93 % 1017,7 hPa 0,0 mm 0,5 km/h (0 Bft) S-SW 196 ° 0 min 0,000 mm 0,0 UV-I 0 W/m² 4,9 °C 5,9 °C 1,6 km/h (1 Bft)
11.05.2018 04:02 6,0 °C 92 % 1017,7 hPa 0,0 mm 1,0 km/h (0 Bft) S-SW 196 ° 0 min 0,000 mm 0,0 UV-I 0 W/m² 4,8 °C 6,0 °C 3,2 km/h (1 Bft)
11.05.2018 04:03 6,1 °C 93 % 1017,7 hPa 0,0 mm 0,1 km/h (0 Bft) S-SW 196 ° 0 min 0,000 mm 0,0 UV-I 0 W/m² 5,1 °C 6,1 °C 1,6 km/h (1 Bft)
11.05.2018 04:04 6,1 °C 93 % 1017,7 hPa 0,0 mm 0,0 km/h (0 Bft) S-SW 196 ° 0 min 0,000 mm 0,0 UV-I 0 W/m² 5,1 °C 6,1 °C 0,0 km/h (0 Bft)
11.05.2018 04:05 6,1 °C 93 % 1017,7 hPa 0,0 mm 0,0 km/h (0 Bft) S-SW 196 ° 0 min 0,000 mm 0,0 UV-I 0 W/m² 5,1 °C 6,1 °C 0,0 km/h (0 Bft)
11.05.2018 04:06 6,0 °C 93 % 1017,7 hPa 0,0 mm 0,0 km/h (0 Bft) S-SW 196 ° 0 min 0,000 mm 0,0 UV-I 0 W/m² 5,0 °C 6,0 °C 0,0 km/h (0 Bft)
11.05.2018 04:07 6,0 °C 93 % 1017,7 hPa 0,0 mm 0,0 km/h (0 Bft) S-SW 196 ° 0 min 0,000 mm 0,0 UV-I 0 W/m² 5,0 °C 6,0 °C 0,0 km/h (0 Bft)
11.05.2018 04:08 5,9 °C 92 % 1017,7 hPa 0,0 mm 0,0 km/h (0 Bft) S-SW 196 ° 0 min 0,000 mm 0,0 UV-I 0 W/m² 4,7 °C 5,9 °C 0,0 km/h (0 Bft)
11.05.2018 04:09 5,9 °C 93 % 1017,7 hPa 0,0 mm 0,0 km/h (0 Bft) S-SW 196 ° 0 min 0,000 mm 0,0 UV-I 0 W/m² 4,9 °C 5,9 °C 0,0 km/h (0 Bft)
11.05.2018 04:10 5,9 °C 92 % 1017,7 hPa 0,0 mm 0,0 km/h (0 Bft) S-SW 196 ° 0 min 0,000 mm 0,0 UV-I 0 W/m² 4,7 °C 5,9 °C 0,0 km/h (0 Bft)
11.05.2018 04:11 6,0 °C 93 % 1017,7 hPa 0,0 mm 0,0 km/h (0 Bft) S-SW 196 ° 0 min 0,000 mm 0,0 UV-I 0 W/m² 5,0 °C 6,0 °C 0,0 km/h (0 Bft)
11.05.2018 04:12 5,9 °C 93 % 1017,7 hPa 0,0 mm 0,0 km/h (0 Bft) S-SW 196 ° 0 min 0,000 mm 0,0 UV-I 0 W/m² 4,9 °C 5,9 °C 0,0 km/h (0 Bft)
11.05.2018 04:13 6,0 °C 92 % 1017,7 hPa 0,0 mm 0,0 km/h (0 Bft) S-SW 196 ° 0 min 0,000 mm 0,0 UV-I 0 W/m² 4,8 °C 6,0 °C 0,0 km/h (0 Bft)
11.05.2018 04:14 5,9 °C 92 % 1017,7 hPa 0,0 mm 0,0 km/h (0 Bft) S-SW 196 ° 0 min 0,000 mm 0,0 UV-I 0 W/m² 4,7 °C 5,9 °C 0,0 km/h (0 Bft)
11.05.2018 04:15 6,0 °C 93 % 1017,7 hPa 0,0 mm 0,0 km/h (0 Bft) S-SW 196 ° 0 min 0,000 mm 0,0 UV-I 0 W/m² 5,0 °C 6,0 °C 0,0 km/h (0 Bft)
11.05.2018 04:16 6,0 °C 93 % 1017,7 hPa 0,0 mm 0,0 km/h (0 Bft) S-SW 196 ° 0 min 0,000 mm 0,0 UV-I 0 W/m² 5,0 °C 6,0 °C 0,0 km/h (0 Bft)
11.05.2018 04:17 6,1 °C 93 % 1017,7 hPa 0,0 mm 0,0 km/h (0 Bft) S-SW 196 ° 0 min 0,000 mm 0,0 UV-I 0 W/m² 5,1 °C 6,1 °C 0,0 km/h (0 Bft)
11.05.2018 04:18 6,0 °C 93 % 1017,7 hPa 0,0 mm 0,0 km/h (0 Bft) S-SW 196 ° 0 min 0,000 mm 0,0 UV-I 0 W/m² 5,0 °C 6,0 °C 0,0 km/h (0 Bft)
11.05.2018 04:19 6,0 °C 93 % 1017,7 hPa 0,0 mm 0,0 km/h (0 Bft) S-SW 196 ° 0 min 0,000 mm 0,0 UV-I 0 W/m² 5,0 °C 6,0 °C 0,0 km/h (0 Bft)
11.05.2018 04:20 6,0 °C 93 % 1017,7 hPa 0,0 mm 0,0 km/h (0 Bft) S-SW 196 ° 0 min 0,000 mm 0,0 UV-I 0 W/m² 5,0 °C 6,0 °C 0,0 km/h (0 Bft)
11.05.2018 04:21 5,9 °C 93 % 1017,7 hPa 0,0 mm 0,0 km/h (0 Bft) S-SW 196 ° 0 min 0,000 mm 0,0 UV-I 0 W/m² 4,9 °C 5,9 °C 0,0 km/h (0 Bft)
11.05.2018 04:22 5,9 °C 93 % 1017,7 hPa 0,0 mm 0,0 km/h (0 Bft) S-SW 196 ° 0 min 0,000 mm 0,0 UV-I 0 W/m² 4,9 °C 5,9 °C 0,0 km/h (0 Bft)
11.05.2018 04:23 5,9 °C 93 % 1017,7 hPa 0,0 mm 0,0 km/h (0 Bft) S-SW 196 ° 0 min 0,000 mm 0,0 UV-I 0 W/m² 4,9 °C 5,9 °C 0,0 km/h (0 Bft)
11.05.2018 04:24 5,9 °C 93 % 1017,7 hPa 0,0 mm 0,0 km/h (0 Bft) S-SW 196 ° 0 min 0,000 mm 0,0 UV-I 0 W/m² 4,9 °C 5,9 °C 0,0 km/h (0 Bft)
11.05.2018 04:25 5,8 °C 93 % 1017,7 hPa 0,0 mm 0,0 km/h (0 Bft) S-SW 196 ° 0 min 0,000 mm 0,0 UV-I 0 W/m² 4,8 °C 5,8 °C 0,0 km/h (0 Bft)
11.05.2018 04:26 5,8 °C 93 % 1017,7 hPa 0,0 mm 0,0 km/h (0 Bft) S-SW 196 ° 0 min 0,000 mm 0,0 UV-I 0 W/m² 4,8 °C 5,8 °C 0,0 km/h (0 Bft)
11.05.2018 04:27 5,8 °C 93 % 1017,7 hPa 0,0 mm 0,0 km/h (0 Bft) S-SW 196 ° 0 min 0,000 mm 0,0 UV-I 0 W/m² 4,8 °C 5,8 °C 0,0 km/h (0 Bft)
11.05.2018 04:28 5,8 °C 93 % 1017,7 hPa 0,0 mm 0,0 km/h (0 Bft) S-SW 196 ° 0 min 0,000 mm 0,0 UV-I 0 W/m² 4,8 °C 5,8 °C 0,0 km/h (0 Bft)
11.05.2018 04:29 5,8 °C 93 % 1017,6 hPa 0,0 mm 0,0 km/h (0 Bft) S-SW 196 ° 0 min 0,000 mm 0,0 UV-I 0 W/m² 4,8 °C 5,8 °C 0,0 km/h (0 Bft)
11.05.2018 04:30 5,8 °C 93 % 1017,6 hPa 0,0 mm 0,0 km/h (0 Bft) S-SW 196 ° 0 min 0,000 mm 0,0 UV-I 0 W/m² 4,8 °C 5,8 °C 0,0 km/h (0 Bft)
11.05.2018 04:31 5,7 °C 93 % 1017,7 hPa 0,0 mm 0,0 km/h (0 Bft) S-SW 196 ° 0 min 0,000 mm 0,0 UV-I 0 W/m² 4,7 °C 5,7 °C 0,0 km/h (0 Bft)
11.05.2018 04:32 5,6 °C 92 % 1017,6 hPa 0,0 mm 0,0 km/h (0 Bft) S-SW 196 ° 0 min 0,000 mm 0,0 UV-I 0 W/m² 4,4 °C 5,6 °C 0,0 km/h (0 Bft)
11.05.2018 04:33 5,6 °C 93 % 1017,7 hPa 0,0 mm 0,0 km/h (0 Bft) S-SW 196 ° 0 min 0,000 mm 0,0 UV-I 0 W/m² 4,6 °C 5,6 °C 0,0 km/h (0 Bft)
11.05.2018 04:34 5,5 °C 93 % 1017,7 hPa 0,0 mm 0,0 km/h (0 Bft) S-SW 196 ° 0 min 0,000 mm 0,0 UV-I 0 W/m² 4,5 °C 5,5 °C 0,0 km/h (0 Bft)
11.05.2018 04:35 5,4 °C 93 % 1017,7 hPa 0,0 mm 0,0 km/h (0 Bft) S-SW 196 ° 0 min 0,000 mm 0,0 UV-I 0 W/m² 4,4 °C 5,4 °C 0,0 km/h (0 Bft)
11.05.2018 04:36 5,4 °C 93 % 1017,6 hPa 0,0 mm 0,0 km/h (0 Bft) S-SW 196 ° 0 min 0,000 mm 0,0 UV-I 0 W/m² 4,4 °C 5,4 °C 0,0 km/h (0 Bft)
11.05.2018 04:37 5,4 °C 93 % 1017,7 hPa 0,0 mm 0,0 km/h (0 Bft) S-SW 196 ° 0 min 0,000 mm 0,0 UV-I 0 W/m² 4,4 °C 5,4 °C 0,0 km/h (0 Bft)
11.05.2018 04:38 5,4 °C 93 % 1017,7 hPa 0,0 mm 0,0 km/h (0 Bft) S-SW 196 ° 0 min 0,000 mm 0,0 UV-I 0 W/m² 4,4 °C 5,4 °C 0,0 km/h (0 Bft)
11.05.2018 04:39 5,4 °C 93 % 1017,6 hPa 0,0 mm 0,0 km/h (0 Bft) S-SW 196 ° 0 min 0,000 mm 0,0 UV-I 0 W/m² 4,4 °C 5,4 °C 0,0 km/h (0 Bft)
11.05.2018 04:40 5,3 °C 93 % 1017,6 hPa 0,0 mm 0,0 km/h (0 Bft) S-SW 196 ° 0 min 0,000 mm 0,0 UV-I 0 W/m² 4,3 °C 5,3 °C 0,0 km/h (0 Bft)
11.05.2018 04:41 5,3 °C 93 % 1017,6 hPa 0,0 mm 0,0 km/h (0 Bft) S-SW 196 ° 0 min 0,000 mm 0,0 UV-I 0 W/m² 4,3 °C 5,3 °C 0,0 km/h (0 Bft)
11.05.2018 04:42 5,3 °C 93 % 1017,6 hPa 0,0 mm 0,0 km/h (0 Bft) S-SW 196 ° 0 min 0,000 mm 0,0 UV-I 0 W/m² 4,3 °C 5,3 °C 0,0 km/h (0 Bft)
11.05.2018 04:43 5,3 °C 93 % 1017,6 hPa 0,0 mm 0,0 km/h (0 Bft) S-SW 196 ° 0 min 0,000 mm 0,0 UV-I 0 W/m² 4,3 °C 5,3 °C 0,0 km/h (0 Bft)
11.05.2018 04:44 5,3 °C 93 % 1017,5 hPa 0,0 mm 0,0 km/h (0 Bft) S-SW 196 ° 0 min 0,000 mm 0,0 UV-I 0 W/m² 4,3 °C 5,3 °C 0,0 km/h (0 Bft)
11.05.2018 04:45 5,2 °C 93 % 1017,5 hPa 0,0 mm 0,0 km/h (0 Bft) S-SW 196 ° 0 min 0,000 mm 0,0 UV-I 0 W/m² 4,2 °C 5,2 °C 0,0 km/h (0 Bft)
11.05.2018 04:46 5,2 °C 93 % 1017,5 hPa 0,0 mm 0,0 km/h (0 Bft) S-SW 196 ° 0 min 0,000 mm 0,0 UV-I 0 W/m² 4,2 °C 5,2 °C 0,0 km/h (0 Bft)
11.05.2018 04:47 5,1 °C 93 % 1017,5 hPa 0,0 mm 0,0 km/h (0 Bft) S-SW 196 ° 0 min 0,000 mm 0,0 UV-I 0 W/m² 4,1 °C 5,1 °C 0,0 km/h (0 Bft)
11.05.2018 04:48 5,1 °C 93 % 1017,5 hPa 0,0 mm 0,0 km/h (0 Bft) S-SW 196 ° 0 min 0,000 mm 0,0 UV-I 0 W/m² 4,1 °C 5,1 °C 0,0 km/h (0 Bft)
11.05.2018 04:49 5,1 °C 93 % 1017,6 hPa 0,0 mm 0,0 km/h (0 Bft) S-SW 196 ° 0 min 0,000 mm 0,0 UV-I 0 W/m² 4,1 °C 5,1 °C 0,0 km/h (0 Bft)
11.05.2018 04:50 5,1 °C 93 % 1017,5 hPa 0,0 mm 0,0 km/h (0 Bft) S-SW 196 ° 0 min 0,000 mm 0,0 UV-I 0 W/m² 4,1 °C 5,1 °C 0,0 km/h (0 Bft)
11.05.2018 04:51 5,2 °C 93 % 1017,6 hPa 0,0 mm 0,0 km/h (0 Bft) S-SW 196 ° 0 min 0,000 mm 0,0 UV-I 0 W/m² 4,2 °C 5,2 °C 0,0 km/h (0 Bft)
11.05.2018 04:52 5,3 °C 93 % 1017,5 hPa 0,0 mm 0,0 km/h (0 Bft) S-SW 196 ° 0 min 0,000 mm 0,0 UV-I 0 W/m² 4,3 °C 5,3 °C 0,0 km/h (0 Bft)
11.05.2018 04:53 5,3 °C 94 % 1017,5 hPa 0,0 mm 0,0 km/h (0 Bft) S-SW 196 ° 0 min 0,000 mm 0,0 UV-I 0 W/m² 4,4 °C 5,3 °C 0,0 km/h (0 Bft)
11.05.2018 04:54 5,3 °C 93 % 1017,6 hPa 0,0 mm 0,0 km/h (0 Bft) S-SW 196 ° 0 min 0,000 mm 0,0 UV-I 0 W/m² 4,3 °C 5,3 °C 0,0 km/h (0 Bft)
11.05.2018 04:55 5,3 °C 93 % 1017,7 hPa 0,0 mm 0,0 km/h (0 Bft) S-SW 196 ° 0 min 0,000 mm 0,0 UV-I 0 W/m² 4,3 °C 5,3 °C 0,0 km/h (0 Bft)
11.05.2018 04:56 5,3 °C 93 % 1017,6 hPa 0,0 mm 0,0 km/h (0 Bft) S-SW 196 ° 0 min 0,000 mm 0,0 UV-I 0 W/m² 4,3 °C 5,3 °C 0,0 km/h (0 Bft)
11.05.2018 04:57 5,4 °C 93 % 1017,6 hPa 0,0 mm 0,0 km/h (0 Bft) S-SW 196 ° 0 min 0,000 mm 0,0 UV-I 0 W/m² 4,4 °C 5,4 °C 0,0 km/h (0 Bft)
11.05.2018 04:58 5,4 °C 93 % 1017,6 hPa 0,0 mm 0,0 km/h (0 Bft) S-SW 196 ° 0 min 0,000 mm 0,0 UV-I 0 W/m² 4,4 °C 5,4 °C 0,0 km/h (0 Bft)
11.05.2018 04:59 5,4 °C 93 % 1017,6 hPa 0,0 mm 0,0 km/h (0 Bft) S-SW 196 ° 0 min 0,000 mm 0,0 UV-I 0 W/m² 4,4 °C 5,4 °C 0,0 km/h (0 Bft)
11.05.2018 05:00 5,5 °C 93 % 1017,6 hPa 0,0 mm 0,0 km/h (0 Bft) S-SW 196 ° 0 min 0,000 mm 0,0 UV-I 0 W/m² 4,5 °C 5,5 °C 0,0 km/h (0 Bft)
11.05.2018 05:01 5,5 °C 93 % 1017,6 hPa 0,0 mm 0,0 km/h (0 Bft) S-SW 196 ° 0 min 0,000 mm 0,0 UV-I 0 W/m² 4,5 °C 5,5 °C 0,0 km/h (0 Bft)
11.05.2018 05:02 5,6 °C 93 % 1017,6 hPa 0,0 mm 0,0 km/h (0 Bft) S-SW 196 ° 0 min 0,000 mm 0,0 UV-I 0 W/m² 4,6 °C 5,6 °C 0,0 km/h (0 Bft)
11.05.2018 05:03 5,6 °C 94 % 1017,6 hPa 0,0 mm 0,0 km/h (0 Bft) S-SW 196 ° 0 min 0,000 mm 0,0 UV-I 0 W/m² 4,7 °C 5,6 °C 0,0 km/h (0 Bft)
11.05.2018 05:04 5,6 °C 94 % 1017,6 hPa 0,0 mm 0,0 km/h (0 Bft) S-SW 196 ° 0 min 0,000 mm 0,0 UV-I 0 W/m² 4,7 °C 5,6 °C 0,0 km/h (0 Bft)
11.05.2018 05:05 5,6 °C 94 % 1017,5 hPa 0,0 mm 0,0 km/h (0 Bft) S-SW 196 ° 0 min 0,000 mm 0,0 UV-I 0 W/m² 4,7 °C 5,6 °C 0,0 km/h (0 Bft)
11.05.2018 05:06 5,7 °C 94 % 1017,6 hPa 0,0 mm 0,0 km/h (0 Bft) S-SW 196 ° 0 min 0,000 mm 0,0 UV-I 0 W/m² 4,8 °C 5,7 °C 0,0 km/h (0 Bft)
11.05.2018 05:07 5,7 °C 94 % 1017,6 hPa 0,0 mm 0,0 km/h (0 Bft) S-SW 196 ° 0 min 0,000 mm 0,0 UV-I 0 W/m² 4,8 °C 5,7 °C 0,0 km/h (0 Bft)
11.05.2018 05:08 5,8 °C 94 % 1017,6 hPa 0,0 mm 0,0 km/h (0 Bft) S-SW 196 ° 0 min 0,000 mm 0,0 UV-I 0 W/m² 4,9 °C 5,8 °C 0,0 km/h (0 Bft)
11.05.2018 05:09 5,7 °C 94 % 1017,5 hPa 0,0 mm 0,0 km/h (0 Bft) S-SW 196 ° 0 min 0,000 mm 0,0 UV-I 0 W/m² 4,8 °C 5,7 °C 0,0 km/h (0 Bft)
11.05.2018 05:10 5,7 °C 93 % 1017,5 hPa 0,0 mm 0,0 km/h (0 Bft) S-SW 196 ° 0 min 0,000 mm 0,0 UV-I 0 W/m² 4,7 °C 5,7 °C 0,0 km/h (0 Bft)
11.05.2018 05:11 5,8 °C 93 % 1017,6 hPa 0,0 mm 0,0 km/h (0 Bft) S-SW 196 ° 0 min 0,000 mm 0,0 UV-I 0 W/m² 4,8 °C 5,8 °C 0,0 km/h (0 Bft)
11.05.2018 05:12 5,8 °C 93 % 1017,6 hPa 0,0 mm 0,0 km/h (0 Bft) S-SW 196 ° 0 min 0,000 mm 0,0 UV-I 0 W/m² 4,8 °C 5,8 °C 0,0 km/h (0 Bft)
11.05.2018 05:13 5,8 °C 93 % 1017,6 hPa 0,0 mm 0,0 km/h (0 Bft) S-SW 196 ° 0 min 0,000 mm 0,0 UV-I 0 W/m² 4,8 °C 5,8 °C 0,0 km/h (0 Bft)
11.05.2018 05:14 5,7 °C 93 % 1017,6 hPa 0,0 mm 0,0 km/h (0 Bft) S-SW 196 ° 0 min 0,000 mm 0,0 UV-I 0 W/m² 4,7 °C 5,7 °C 0,0 km/h (0 Bft)
11.05.2018 05:15 5,7 °C 93 % 1017,5 hPa 0,0 mm 0,0 km/h (0 Bft) S-SW 196 ° 0 min 0,000 mm 0,0 UV-I 0 W/m² 4,7 °C 5,7 °C 0,0 km/h (0 Bft)
11.05.2018 05:16 5,8 °C 93 % 1017,5 hPa 0,0 mm 0,0 km/h (0 Bft) S-SW 196 ° 0 min 0,000 mm 0,0 UV-I 0 W/m² 4,8 °C 5,8 °C 0,0 km/h (0 Bft)
11.05.2018 05:17 5,8 °C 93 % 1017,5 hPa 0,0 mm 0,0 km/h (0 Bft) S-SW 196 ° 0 min 0,000 mm 0,0 UV-I 0 W/m² 4,8 °C 5,8 °C 0,0 km/h (0 Bft)
11.05.2018 05:18 5,8 °C 93 % 1017,6 hPa 0,0 mm 0,0 km/h (0 Bft) S-SW 196 ° 0 min 0,000 mm 0,0 UV-I 0 W/m² 4,8 °C 5,8 °C 0,0 km/h (0 Bft)
11.05.2018 05:19 5,8 °C 93 % 1017,5 hPa 0,0 mm 0,0 km/h (0 Bft) S-SW 196 ° 0 min 0,000 mm 0,0 UV-I 0 W/m² 4,8 °C 5,8 °C 0,0 km/h (0 Bft)
11.05.2018 05:20 5,8 °C 93 % 1017,5 hPa 0,0 mm 0,0 km/h (0 Bft) S-SW 196 ° 0 min 0,000 mm 0,0 UV-I 0 W/m² 4,8 °C 5,8 °C 0,0 km/h (0 Bft)
11.05.2018 05:21 5,8 °C 93 % 1017,5 hPa 0,0 mm 0,0 km/h (0 Bft) S-SW 196 ° 0 min 0,000 mm 0,0 UV-I 0 W/m² 4,8 °C 5,8 °C 0,0 km/h (0 Bft)
11.05.2018 05:22 5,7 °C 93 % 1017,5 hPa 0,0 mm 0,0 km/h (0 Bft) S-SW 196 ° 0 min 0,000 mm 0,0 UV-I 0 W/m² 4,7 °C 5,7 °C 0,0 km/h (0 Bft)
11.05.2018 05:23 5,7 °C 93 % 1017,5 hPa 0,0 mm 0,0 km/h (0 Bft) S-SW 196 ° 0 min 0,000 mm 0,0 UV-I 0 W/m² 4,7 °C 5,7 °C 0,0 km/h (0 Bft)
11.05.2018 05:24 5,6 °C 93 % 1017,6 hPa 0,0 mm 0,0 km/h (0 Bft) S-SW 196 ° 0 min 0,000 mm 0,0 UV-I 0 W/m² 4,6 °C 5,6 °C 0,0 km/h (0 Bft)
11.05.2018 05:25 5,6 °C 93 % 1017,6 hPa 0,0 mm 0,0 km/h (0 Bft) S-SW 196 ° 0 min 0,000 mm 0,0 UV-I 0 W/m² 4,6 °C 5,6 °C 0,0 km/h (0 Bft)
11.05.2018 05:26 5,6 °C 93 % 1017,6 hPa 0,0 mm 0,0 km/h (0 Bft) S-SW 196 ° 0 min 0,000 mm 0,0 UV-I 0 W/m² 4,6 °C 5,6 °C 0,0 km/h (0 Bft)
11.05.2018 05:27 5,6 °C 93 % 1017,5 hPa 0,0 mm 0,0 km/h (0 Bft) S-SW 196 ° 0 min 0,000 mm 0,0 UV-I 0 W/m² 4,6 °C 5,6 °C 0,0 km/h (0 Bft)
11.05.2018 05:28 5,6 °C 93 % 1017,6 hPa 0,0 mm 0,0 km/h (0 Bft) S-SW 196 ° 0 min 0,000 mm 0,0 UV-I 0 W/m² 4,6 °C 5,6 °C 0,0 km/h (0 Bft)
11.05.2018 05:29 5,7 °C 93 % 1017,6 hPa 0,0 mm 0,0 km/h (0 Bft) S-SW 196 ° 0 min 0,000 mm 0,0 UV-I 0 W/m² 4,7 °C 5,7 °C 0,0 km/h (0 Bft)
11.05.2018 05:30 5,7 °C 93 % 1017,6 hPa 0,0 mm 0,0 km/h (0 Bft) S-SW 196 ° 0 min 0,000 mm 0,0 UV-I 0 W/m² 4,7 °C 5,7 °C 0,0 km/h (0 Bft)
11.05.2018 05:31 5,7 °C 94 % 1017,6 hPa 0,0 mm 0,0 km/h (0 Bft) S-SW 196 ° 0 min 0,000 mm 0,0 UV-I 0 W/m² 4,8 °C 5,7 °C 0,0 km/h (0 Bft)
11.05.2018 05:32 5,7 °C 93 % 1017,6 hPa 0,0 mm 0,0 km/h (0 Bft) S-SW 196 ° 0 min 0,000 mm 0,0 UV-I 0 W/m² 4,7 °C 5,7 °C 0,0 km/h (0 Bft)
11.05.2018 05:33 5,7 °C 93 % 1017,6 hPa 0,0 mm 0,0 km/h (0 Bft) S-SW 196 ° 0 min 0,000 mm 0,0 UV-I 0 W/m² 4,7 °C 5,7 °C 0,0 km/h (0 Bft)
11.05.2018 05:34 5,7 °C 93 % 1017,6 hPa 0,0 mm 0,0 km/h (0 Bft) S-SW 196 ° 0 min 0,000 mm 0,0 UV-I 0 W/m² 4,7 °C 5,7 °C 0,0 km/h (0 Bft)
11.05.2018 05:35 5,7 °C 93 % 1017,6 hPa 0,0 mm 0,0 km/h (0 Bft) S-SW 196 ° 0 min 0,000 mm 0,0 UV-I 0 W/m² 4,7 °C 5,7 °C 0,0 km/h (0 Bft)
11.05.2018 05:36 5,7 °C 93 % 1017,6 hPa 0,0 mm 0,0 km/h (0 Bft) S-SW 196 ° 0 min 0,000 mm 0,0 UV-I 0 W/m² 4,7 °C 5,7 °C 0,0 km/h (0 Bft)
11.05.2018 05:37 5,6 °C 93 % 1017,6 hPa 0,0 mm 0,0 km/h (0 Bft) S-SW 196 ° 0 min 0,000 mm 0,0 UV-I 0 W/m² 4,6 °C 5,6 °C 0,0 km/h (0 Bft)
11.05.2018 05:38 5,6 °C 93 % 1017,6 hPa 0,0 mm 0,0 km/h (0 Bft) S-SW 196 ° 0 min 0,000 mm 0,0 UV-I 0 W/m² 4,6 °C 5,6 °C 0,0 km/h (0 Bft)
11.05.2018 05:39 5,6 °C 93 % 1017,6 hPa 0,0 mm 0,0 km/h (0 Bft) S-SW 196 ° 0 min 0,000 mm 0,0 UV-I 0 W/m² 4,6 °C 5,6 °C 0,0 km/h (0 Bft)
11.05.2018 05:40 5,6 °C 93 % 1017,6 hPa 0,0 mm 0,0 km/h (0 Bft) S-SW 196 ° 0 min 0,000 mm 0,0 UV-I 0 W/m² 4,6 °C 5,6 °C 0,0 km/h (0 Bft)
11.05.2018 05:41 5,6 °C 93 % 1017,6 hPa 0,0 mm 0,0 km/h (0 Bft) S-SW 196 ° 0 min 0,000 mm 0,0 UV-I 0 W/m² 4,6 °C 5,6 °C 0,0 km/h (0 Bft)
11.05.2018 05:42 5,6 °C 93 % 1017,5 hPa 0,0 mm 0,0 km/h (0 Bft) S-SW 196 ° 0 min 0,000 mm 0,0 UV-I 0 W/m² 4,6 °C 5,6 °C 0,0 km/h (0 Bft)
11.05.2018 05:43 5,5 °C 93 % 1017,5 hPa 0,0 mm 0,0 km/h (0 Bft) S-SW 196 ° 0 min 0,000 mm 0,0 UV-I 0 W/m² 4,5 °C 5,5 °C 0,0 km/h (0 Bft)
11.05.2018 05:44 5,4 °C 93 % 1017,6 hPa 0,0 mm 0,0 km/h (0 Bft) S-SW 196 ° 0 min 0,000 mm 0,0 UV-I 0 W/m² 4,4 °C 5,4 °C 0,0 km/h (0 Bft)
11.05.2018 05:45 5,4 °C 93 % 1017,6 hPa 0,0 mm 0,0 km/h (0 Bft) S-SW 196 ° 0 min 0,000 mm 0,0 UV-I 5 W/m² 4,4 °C 5,4 °C 0,0 km/h (0 Bft)
11.05.2018 05:46 5,4 °C 93 % 1017,6 hPa 0,0 mm 0,0 km/h (0 Bft) S-SW 196 ° 0 min 0,000 mm 0,0 UV-I 5 W/m² 4,4 °C 5,4 °C 0,0 km/h (0 Bft)
11.05.2018 05:47 5,4 °C 93 % 1017,6 hPa 0,0 mm 0,0 km/h (0 Bft) S-SW 196 ° 0 min 0,000 mm 0,0 UV-I 5 W/m² 4,4 °C 5,4 °C 0,0 km/h (0 Bft)
11.05.2018 05:48 5,3 °C 93 % 1017,5 hPa 0,0 mm 0,0 km/h (0 Bft) S-SW 196 ° 0 min 0,000 mm 0,0 UV-I 7 W/m² 4,3 °C 5,3 °C 0,0 km/h (0 Bft)
11.05.2018 05:49 5,3 °C 93 % 1017,5 hPa 0,0 mm 0,0 km/h (0 Bft) S-SW 196 ° 0 min 0,000 mm 0,0 UV-I 7 W/m² 4,3 °C 5,3 °C 0,0 km/h (0 Bft)
11.05.2018 05:50 5,3 °C 93 % 1017,5 hPa 0,0 mm 0,0 km/h (0 Bft) S-SW 196 ° 0 min 0,000 mm 0,0 UV-I 7 W/m² 4,3 °C 5,3 °C 0,0 km/h (0 Bft)
11.05.2018 05:51 5,3 °C 93 % 1017,5 hPa 0,0 mm 0,0 km/h (0 Bft) S-SW 196 ° 0 min 0,000 mm 0,0 UV-I 7 W/m² 4,3 °C 5,3 °C 0,0 km/h (0 Bft)
11.05.2018 05:52 5,2 °C 93 % 1017,5 hPa 0,0 mm 0,0 km/h (0 Bft) S-SW 196 ° 0 min 0,000 mm 0,0 UV-I 7 W/m² 4,2 °C 5,2 °C 0,0 km/h (0 Bft)
11.05.2018 05:53 5,3 °C 93 % 1017,5 hPa 0,0 mm 0,0 km/h (0 Bft) S-SW 196 ° 0 min 0,000 mm 0,0 UV-I 7 W/m² 4,3 °C 5,3 °C 0,0 km/h (0 Bft)
11.05.2018 05:54 5,2 °C 93 % 1017,6 hPa 0,0 mm 0,0 km/h (0 Bft) S-SW 196 ° 0 min 0,000 mm 0,0 UV-I 7 W/m² 4,2 °C 5,2 °C 0,0 km/h (0 Bft)
11.05.2018 05:55 5,2 °C 93 % 1017,6 hPa 0,0 mm 0,0 km/h (0 Bft) S-SW 196 ° 0 min 0,000 mm 0,0 UV-I 7 W/m² 4,2 °C 5,2 °C 0,0 km/h (0 Bft)
11.05.2018 05:56 5,2 °C 93 % 1017,6 hPa 0,0 mm 0,0 km/h (0 Bft) S-SW 196 ° 0 min 0,000 mm 0,0 UV-I 9 W/m² 4,2 °C 5,2 °C 0,0 km/h (0 Bft)
11.05.2018 05:57 5,2 °C 93 % 1017,6 hPa 0,0 mm 0,0 km/h (0 Bft) S-SW 196 ° 0 min 0,000 mm 0,0 UV-I 9 W/m² 4,2 °C 5,2 °C 0,0 km/h (0 Bft)
11.05.2018 05:58 5,2 °C 93 % 1017,6 hPa 0,0 mm 0,0 km/h (0 Bft) S-SW 196 ° 0 min 0,000 mm 0,0 UV-I 9 W/m² 4,2 °C 5,2 °C 0,0 km/h (0 Bft)
11.05.2018 05:59 5,1 °C 93 % 1017,6 hPa 0,0 mm 0,0 km/h (0 Bft) S-SW 196 ° 0 min 0,000 mm 0,0 UV-I 11 W/m² 4,1 °C 5,1 °C 0,0 km/h (0 Bft)
11.05.2018 06:00 5,1 °C 93 % 1017,6 hPa 0,0 mm 0,0 km/h (0 Bft) S-SW 196 ° 0 min 0,000 mm 0,0 UV-I 11 W/m² 4,1 °C 5,1 °C 0,0 km/h (0 Bft)
11.05.2018 06:01 5,0 °C 93 % 1017,7 hPa 0,0 mm 0,0 km/h (0 Bft) S-SW 196 ° 0 min 0,000 mm 0,0 UV-I 11 W/m² 4,0 °C 5,0 °C 0,0 km/h (0 Bft)
11.05.2018 06:02 5,0 °C 93 % 1017,6 hPa 0,0 mm 0,0 km/h (0 Bft) S-SW 196 ° 0 min 0,000 mm 0,0 UV-I 14 W/m² 4,0 °C 5,0 °C 0,0 km/h (0 Bft)
11.05.2018 06:03 5,1 °C 93 % 1017,7 hPa 0,0 mm 0,0 km/h (0 Bft) S-SW 196 ° 0 min 0,000 mm 0,0 UV-I 14 W/m² 4,1 °C 5,1 °C 0,0 km/h (0 Bft)
11.05.2018 06:04 5,1 °C 93 % 1017,6 hPa 0,0 mm 0,0 km/h (0 Bft) S-SW 196 ° 0 min 0,000 mm 0,0 UV-I 14 W/m² 4,1 °C 5,1 °C 0,0 km/h (0 Bft)
11.05.2018 06:05 5,1 °C 93 % 1017,6 hPa 0,0 mm 0,0 km/h (0 Bft) S-SW 196 ° 0 min 0,000 mm 0,0 UV-I 14 W/m² 4,1 °C 5,1 °C 0,0 km/h (0 Bft)
11.05.2018 06:06 5,1 °C 93 % 1017,6 hPa 0,0 mm 0,0 km/h (0 Bft) S-SW 196 ° 0 min 0,000 mm 0,0 UV-I 16 W/m² 4,1 °C 5,1 °C 0,0 km/h (0 Bft)
11.05.2018 06:07 5,1 °C 93 % 1017,6 hPa 0,0 mm 0,0 km/h (0 Bft) S-SW 196 ° 0 min 0,000 mm 0,0 UV-I 16 W/m² 4,1 °C 5,1 °C 0,0 km/h (0 Bft)
11.05.2018 06:08 5,0 °C 93 % 1017,7 hPa 0,0 mm 0,0 km/h (0 Bft) S-SW 196 ° 0 min 0,000 mm 0,0 UV-I 16 W/m² 4,0 °C 5,0 °C 0,0 km/h (0 Bft)
11.05.2018 06:09 4,9 °C 93 % 1017,7 hPa 0,0 mm 0,0 km/h (0 Bft) S-SW 196 ° 0 min 0,000 mm 0,0 UV-I 18 W/m² 3,9 °C 4,9 °C 0,0 km/h (0 Bft)
11.05.2018 06:10 5,0 °C 93 % 1017,7 hPa 0,0 mm 0,0 km/h (0 Bft) S-SW 196 ° 0 min 0,000 mm 0,0 UV-I 18 W/m² 4,0 °C 5,0 °C 0,0 km/h (0 Bft)
11.05.2018 06:11 5,0 °C 93 % 1017,7 hPa 0,0 mm 0,0 km/h (0 Bft) S-SW 196 ° 0 min 0,000 mm 0,0 UV-I 18 W/m² 4,0 °C 5,0 °C 0,0 km/h (0 Bft)
11.05.2018 06:12 5,1 °C 94 % 1017,7 hPa 0,0 mm 0,0 km/h (0 Bft) S-SW 196 ° 0 min 0,000 mm 0,0 UV-I 18 W/m² 4,2 °C 5,1 °C 0,0 km/h (0 Bft)
11.05.2018 06:13 5,1 °C 93 % 1017,7 hPa 0,0 mm 0,0 km/h (0 Bft) S-SW 196 ° 0 min 0,000 mm 0,0 UV-I 18 W/m² 4,1 °C 5,1 °C 0,0 km/h (0 Bft)
11.05.2018 06:14 5,1 °C 94 % 1017,7 hPa 0,0 mm 0,0 km/h (0 Bft) S-SW 196 ° 0 min 0,000 mm 0,0 UV-I 18 W/m² 4,2 °C 5,1 °C 0,0 km/h (0 Bft)
11.05.2018 06:15 5,1 °C 94 % 1017,6 hPa 0,0 mm 0,0 km/h (0 Bft) S-SW 196 ° 0 min 0,000 mm 0,0 UV-I 19 W/m² 4,2 °C 5,1 °C 0,0 km/h (0 Bft)
11.05.2018 06:16 5,2 °C 94 % 1017,6 hPa 0,0 mm 0,0 km/h (0 Bft) S-SW 196 ° 0 min 0,000 mm 0,0 UV-I 19 W/m² 4,3 °C 5,2 °C 0,0 km/h (0 Bft)
11.05.2018 06:17 5,2 °C 94 % 1017,7 hPa 0,0 mm 0,0 km/h (0 Bft) S-SW 196 ° 0 min 0,000 mm 0,0 UV-I 19 W/m² 4,3 °C 5,2 °C 0,0 km/h (0 Bft)
11.05.2018 06:18 5,2 °C 94 % 1017,7 hPa 0,0 mm 0,0 km/h (0 Bft) S-SW 196 ° 0 min 0,000 mm 0,0 UV-I 19 W/m² 4,3 °C 5,2 °C 0,0 km/h (0 Bft)
11.05.2018 06:19 5,2 °C 94 % 1017,7 hPa 0,0 mm 0,0 km/h (0 Bft) S-SW 196 ° 0 min 0,000 mm 0,0 UV-I 19 W/m² 4,3 °C 5,2 °C 0,0 km/h (0 Bft)
11.05.2018 06:20 5,2 °C 94 % 1017,7 hPa 0,0 mm 0,0 km/h (0 Bft) S-SW 196 ° 0 min 0,000 mm 0,0 UV-I 21 W/m² 4,3 °C 5,2 °C 0,0 km/h (0 Bft)
11.05.2018 06:21 5,2 °C 94 % 1017,7 hPa 0,0 mm 0,0 km/h (0 Bft) S-SW 196 ° 0 min 0,000 mm 0,0 UV-I 21 W/m² 4,3 °C 5,2 °C 0,0 km/h (0 Bft)
11.05.2018 06:22 5,1 °C 93 % 1017,7 hPa 0,0 mm 0,0 km/h (0 Bft) S-SW 196 ° 0 min 0,000 mm 0,0 UV-I 21 W/m² 4,1 °C 5,1 °C 0,0 km/h (0 Bft)
11.05.2018 06:23 5,1 °C 93 % 1017,7 hPa 0,0 mm 0,0 km/h (0 Bft) S-SW 196 ° 0 min 0,000 mm 0,0 UV-I 21 W/m² 4,1 °C 5,1 °C 0,0 km/h (0 Bft)
11.05.2018 06:24 5,0 °C 93 % 1017,8 hPa 0,0 mm 0,0 km/h (0 Bft) S-SW 196 ° 0 min 0,000 mm 0,0 UV-I 21 W/m² 4,0 °C 5,0 °C 0,0 km/h (0 Bft)
11.05.2018 06:25 4,9 °C 93 % 1017,7 hPa 0,0 mm 0,0 km/h (0 Bft) S-SW 196 ° 0 min 0,000 mm 0,0 UV-I 23 W/m² 3,9 °C 4,9 °C 0,0 km/h (0 Bft)
11.05.2018 06:26 4,9 °C 93 % 1017,7 hPa 0,0 mm 0,0 km/h (0 Bft) S-SW 196 ° 0 min 0,000 mm 0,0 UV-I 23 W/m² 3,9 °C 4,9 °C 0,0 km/h (0 Bft)
11.05.2018 06:27 4,8 °C 93 % 1017,7 hPa 0,0 mm 0,0 km/h (0 Bft) S-SW 196 ° 0 min 0,000 mm 0,0 UV-I 25 W/m² 3,8 °C 4,8 °C 0,0 km/h (0 Bft)
11.05.2018 06:28 4,9 °C 93 % 1017,7 hPa 0,0 mm 0,0 km/h (0 Bft) S-SW 196 ° 0 min 0,000 mm 0,0 UV-I 25 W/m² 3,9 °C 4,9 °C 0,0 km/h (0 Bft)
11.05.2018 06:29 4,9 °C 94 % 1017,7 hPa 0,0 mm 0,0 km/h (0 Bft) S-SW 196 ° 0 min 0,000 mm 0,0 UV-I 25 W/m² 4,0 °C 4,9 °C 0,0 km/h (0 Bft)
11.05.2018 06:30 4,9 °C 94 % 1017,7 hPa 0,0 mm 0,0 km/h (0 Bft) S-SW 196 ° 0 min 0,000 mm 0,0 UV-I 26 W/m² 4,0 °C 4,9 °C 0,0 km/h (0 Bft)
11.05.2018 06:31 4,9 °C 93 % 1017,7 hPa 0,0 mm 0,0 km/h (0 Bft) S-SW 196 ° 0 min 0,000 mm 0,0 UV-I 26 W/m² 3,9 °C 4,9 °C 0,0 km/h (0 Bft)
11.05.2018 06:32 4,9 °C 93 % 1017,7 hPa 0,0 mm 0,0 km/h (0 Bft) S-SW 196 ° 0 min 0,000 mm 0,0 UV-I 26 W/m² 3,9 °C 4,9 °C 0,0 km/h (0 Bft)
11.05.2018 06:33 4,9 °C 93 % 1017,7 hPa 0,0 mm 0,0 km/h (0 Bft) S-SW 196 ° 0 min 0,000 mm 0,0 UV-I 28 W/m² 3,9 °C 4,9 °C 0,0 km/h (0 Bft)
11.05.2018 06:34 4,9 °C 93 % 1017,7 hPa 0,0 mm 0,0 km/h (0 Bft) S-SW 196 ° 0 min 0,000 mm 0,0 UV-I 32 W/m² 3,9 °C 4,9 °C 0,0 km/h (0 Bft)
11.05.2018 06:35 4,9 °C 93 % 1017,7 hPa 0,0 mm 0,0 km/h (0 Bft) S-SW 196 ° 0 min 0,000 mm 0,0 UV-I 40 W/m² 3,9 °C 4,9 °C 0,0 km/h (0 Bft)
11.05.2018 06:36 4,9 °C 93 % 1017,6 hPa 0,0 mm 0,0 km/h (0 Bft) S-SW 196 ° 0 min 0,000 mm 0,0 UV-I 49 W/m² 3,9 °C 4,9 °C 0,0 km/h (0 Bft)
11.05.2018 06:37 5,0 °C 93 % 1017,6 hPa 0,0 mm 0,0 km/h (0 Bft) S-SW 196 ° 0 min 0,000 mm 0,0 UV-I 53 W/m² 4,0 °C 5,0 °C 0,0 km/h (0 Bft)
11.05.2018 06:38 5,1 °C 93 % 1017,6 hPa 0,0 mm 0,0 km/h (0 Bft) S-SW 196 ° 0 min 0,000 mm 0,0 UV-I 54 W/m² 4,1 °C 5,1 °C 0,0 km/h (0 Bft)
11.05.2018 06:39 5,2 °C 94 % 1017,6 hPa 0,0 mm 0,0 km/h (0 Bft) S-SW 196 ° 0 min 0,000 mm 0,0 UV-I 56 W/m² 4,3 °C 5,2 °C 0,0 km/h (0 Bft)
11.05.2018 06:40 5,2 °C 94 % 1017,6 hPa 0,0 mm 0,0 km/h (0 Bft) S-SW 196 ° 0 min 0,000 mm 0,0 UV-I 56 W/m² 4,3 °C 5,2 °C 0,0 km/h (0 Bft)
11.05.2018 06:41 5,3 °C 94 % 1017,6 hPa 0,0 mm 0,0 km/h (0 Bft) S-SW 196 ° 0 min 0,000 mm 0,0 UV-I 58 W/m² 4,4 °C 5,3 °C 0,0 km/h (0 Bft)
11.05.2018 06:42 5,3 °C 94 % 1017,7 hPa 0,0 mm 0,0 km/h (0 Bft) S-SW 196 ° 0 min 0,000 mm 0,0 UV-I 56 W/m² 4,4 °C 5,3 °C 0,0 km/h (0 Bft)
11.05.2018 06:43 5,4 °C 94 % 1017,7 hPa 0,0 mm 0,0 km/h (0 Bft) S-SW 196 ° 0 min 0,000 mm 0,0 UV-I 56 W/m² 4,5 °C 5,4 °C 0,0 km/h (0 Bft)
11.05.2018 06:44 5,3 °C 93 % 1017,7 hPa 0,0 mm 0,0 km/h (0 Bft) S-SW 196 ° 0 min 0,000 mm 0,0 UV-I 56 W/m² 4,3 °C 5,3 °C 0,0 km/h (0 Bft)
11.05.2018 06:45 5,3 °C 93 % 1017,7 hPa 0,0 mm 0,0 km/h (0 Bft) S-SW 196 ° 0 min 0,000 mm 0,0 UV-I 56 W/m² 4,3 °C 5,3 °C 0,0 km/h (0 Bft)
11.05.2018 06:46 5,4 °C 93 % 1017,7 hPa 0,0 mm 0,0 km/h (0 Bft) S-SW 196 ° 0 min 0,000 mm 0,0 UV-I 58 W/m² 4,4 °C 5,4 °C 0,0 km/h (0 Bft)
11.05.2018 06:47 5,4 °C 93 % 1017,7 hPa 0,0 mm 0,0 km/h (0 Bft) S-SW 196 ° 0 min 0,000 mm 0,0 UV-I 60 W/m² 4,4 °C 5,4 °C 0,0 km/h (0 Bft)
11.05.2018 06:48 5,4 °C 93 % 1017,7 hPa 0,0 mm 0,0 km/h (0 Bft) S-SW 196 ° 0 min 0,000 mm 0,0 UV-I 65 W/m² 4,4 °C 5,4 °C 0,0 km/h (0 Bft)
11.05.2018 06:49 5,4 °C 93 % 1017,7 hPa 0,0 mm 0,0 km/h (0 Bft) S-SW 196 ° 0 min 0,000 mm 0,0 UV-I 74 W/m² 4,4 °C 5,4 °C 0,0 km/h (0 Bft)
11.05.2018 06:50 5,4 °C 93 % 1017,7 hPa 0,0 mm 0,0 km/h (0 Bft) S-SW 196 ° 0 min 0,000 mm 0,0 UV-I 76 W/m² 4,4 °C 5,4 °C 0,0 km/h (0 Bft)
11.05.2018 06:51 5,5 °C 93 % 1017,7 hPa 0,0 mm 0,0 km/h (0 Bft) S-SW 196 ° 0 min 0,000 mm 0,0 UV-I 77 W/m² 4,5 °C 5,5 °C 0,0 km/h (0 Bft)
11.05.2018 06:52 5,5 °C 93 % 1017,7 hPa 0,0 mm 0,0 km/h (0 Bft) S-SW 196 ° 0 min 0,000 mm 0,0 UV-I 81 W/m² 4,5 °C 5,5 °C 0,0 km/h (0 Bft)
11.05.2018 06:53 5,5 °C 93 % 1017,7 hPa 0,0 mm 0,0 km/h (0 Bft) S-SW 196 ° 0 min 0,000 mm 0,0 UV-I 84 W/m² 4,5 °C 5,5 °C 0,0 km/h (0 Bft)
11.05.2018 06:54 5,6 °C 93 % 1017,7 hPa 0,0 mm 0,0 km/h (0 Bft) S-SW 196 ° 0 min 0,000 mm 0,0 UV-I 86 W/m² 4,6 °C 5,6 °C 0,0 km/h (0 Bft)
11.05.2018 06:55 5,6 °C 94 % 1017,7 hPa 0,0 mm 0,0 km/h (0 Bft) S-SW 196 ° 0 min 0,000 mm 0,0 UV-I 93 W/m² 4,7 °C 5,6 °C 0,0 km/h (0 Bft)
11.05.2018 06:56 5,7 °C 94 % 1017,7 hPa 0,0 mm 0,0 km/h (0 Bft) S-SW 196 ° 0 min 0,000 mm 0,0 UV-I 95 W/m² 4,8 °C 5,7 °C 0,0 km/h (0 Bft)
11.05.2018 06:57 5,7 °C 94 % 1017,8 hPa 0,0 mm 0,0 km/h (0 Bft) S-SW 196 ° 0 min 0,000 mm 0,0 UV-I 98 W/m² 4,8 °C 5,7 °C 0,0 km/h (0 Bft)
11.05.2018 06:58 5,8 °C 94 % 1017,7 hPa 0,0 mm 0,0 km/h (0 Bft) S-SW 196 ° 0 min 0,000 mm 0,0 UV-I 102 W/m² 4,9 °C 5,8 °C 0,0 km/h (0 Bft)
11.05.2018 06:59 5,8 °C 93 % 1017,8 hPa 0,0 mm 0,0 km/h (0 Bft) S-SW 196 ° 0 min 0,000 mm 0,0 UV-I 105 W/m² 4,8 °C 5,8 °C 0,0 km/h (0 Bft)
11.05.2018 07:00 5,7 °C 93 % 1017,8 hPa 0,0 mm 0,0 km/h (0 Bft) S-SW 196 ° 0 min 0,025 mm 0,0 UV-I 109 W/m² 4,7 °C 5,7 °C 0,0 km/h (0 Bft)
11.05.2018 07:01 5,7 °C 93 % 1017,8 hPa 0,0 mm 0,0 km/h (0 Bft) S-SW 196 ° 0 min 0,000 mm 0,5 UV-I 114 W/m² 4,7 °C 5,7 °C 0,0 km/h (0 Bft)
11.05.2018 07:02 5,7 °C 93 % 1017,7 hPa 0,0 mm 0,0 km/h (0 Bft) S-SW 196 ° 0 min 0,000 mm 0,5 UV-I 116 W/m² 4,7 °C 5,7 °C 0,0 km/h (0 Bft)
11.05.2018 07:03 5,8 °C 93 % 1017,7 hPa 0,0 mm 0,0 km/h (0 Bft) S-SW 196 ° 0 min 0,000 mm 0,5 UV-I 118 W/m² 4,8 °C 5,8 °C 0,0 km/h (0 Bft)
11.05.2018 07:04 5,8 °C 93 % 1017,7 hPa 0,0 mm 0,0 km/h (0 Bft) S-SW 196 ° 0 min 0,000 mm 0,5 UV-I 120 W/m² 4,8 °C 5,8 °C 0,0 km/h (0 Bft)
11.05.2018 07:05 5,9 °C 93 % 1017,7 hPa 0,0 mm 0,0 km/h (0 Bft) S-SW 196 ° 0 min 0,000 mm 0,5 UV-I 123 W/m² 4,9 °C 5,9 °C 0,0 km/h (0 Bft)
11.05.2018 07:06 5,9 °C 93 % 1017,7 hPa 0,0 mm 0,0 km/h (0 Bft) S-SW 196 ° 0 min 0,000 mm 0,5 UV-I 125 W/m² 4,9 °C 5,9 °C 0,0 km/h (0 Bft)
11.05.2018 07:07 5,9 °C 94 % 1017,7 hPa 0,0 mm 0,0 km/h (0 Bft) S-SW 196 ° 0 min 0,000 mm 0,5 UV-I 125 W/m² 5,0 °C 5,9 °C 0,0 km/h (0 Bft)
11.05.2018 07:08 5,9 °C 93 % 1017,7 hPa 0,0 mm 0,0 km/h (0 Bft) S-SW 196 ° 0 min 0,000 mm 0,5 UV-I 127 W/m² 4,9 °C 5,9 °C 0,0 km/h (0 Bft)
11.05.2018 07:09 6,0 °C 94 % 1017,7 hPa 0,0 mm 0,0 km/h (0 Bft) S-SW 196 ° 0 min 0,000 mm 0,5 UV-I 132 W/m² 5,1 °C 6,0 °C 0,0 km/h (0 Bft)
11.05.2018 07:10 6,1 °C 94 % 1017,7 hPa 0,0 mm 0,0 km/h (0 Bft) S-SW 196 ° 0 min 0,000 mm 0,5 UV-I 134 W/m² 5,2 °C 6,1 °C 0,0 km/h (0 Bft)
11.05.2018 07:11 6,1 °C 94 % 1017,7 hPa 0,0 mm 0,0 km/h (0 Bft) S-SW 196 ° 0 min 0,000 mm 0,5 UV-I 132 W/m² 5,2 °C 6,1 °C 0,0 km/h (0 Bft)
11.05.2018 07:12 6,1 °C 94 % 1017,6 hPa 0,0 mm 0,0 km/h (0 Bft) S-SW 196 ° 0 min 0,000 mm 0,6 UV-I 127 W/m² 5,2 °C 6,1 °C 0,0 km/h (0 Bft)
11.05.2018 07:13 6,2 °C 93 % 1017,7 hPa 0,0 mm 0,0 km/h (0 Bft) S-SW 196 ° 0 min 0,000 mm 0,6 UV-I 107 W/m² 5,2 °C 6,2 °C 0,0 km/h (0 Bft)
11.05.2018 07:14 6,2 °C 93 % 1017,7 hPa 0,0 mm 0,0 km/h (0 Bft) S-SW 196 ° 0 min 0,000 mm 0,6 UV-I 107 W/m² 5,2 °C 6,2 °C 0,0 km/h (0 Bft)
11.05.2018 07:15 6,3 °C 93 % 1017,7 hPa 0,0 mm 0,0 km/h (0 Bft) S-SW 196 ° 0 min 0,000 mm 0,6 UV-I 105 W/m² 5,3 °C 6,3 °C 0,0 km/h (0 Bft)
11.05.2018 07:16 6,3 °C 94 % 1017,7 hPa 0,0 mm 0,0 km/h (0 Bft) S-SW 196 ° 0 min 0,000 mm 0,6 UV-I 83 W/m² 5,4 °C 6,3 °C 0,0 km/h (0 Bft)
11.05.2018 07:17 6,3 °C 94 % 1017,7 hPa 0,0 mm 0,0 km/h (0 Bft) S-SW 196 ° 0 min 0,000 mm 0,6 UV-I 69 W/m² 5,4 °C 6,3 °C 0,0 km/h (0 Bft)
11.05.2018 07:18 6,4 °C 94 % 1017,7 hPa 0,0 mm 0,0 km/h (0 Bft) S-SW 196 ° 0 min 0,000 mm 0,6 UV-I 54 W/m² 5,5 °C 6,4 °C 0,0 km/h (0 Bft)
11.05.2018 07:19 6,4 °C 93 % 1017,7 hPa 0,0 mm 0,0 km/h (0 Bft) S-SW 196 ° 0 min 0,000 mm 0,0 UV-I 47 W/m² 5,4 °C 6,4 °C 0,0 km/h (0 Bft)
11.05.2018 07:20 6,5 °C 93 % 1017,7 hPa 0,0 mm 0,0 km/h (0 Bft) S-SW 196 ° 0 min 0,000 mm 0,0 UV-I 40 W/m² 5,5 °C 6,5 °C 0,0 km/h (0 Bft)
11.05.2018 07:21 6,5 °C 93 % 1017,7 hPa 0,0 mm 0,0 km/h (0 Bft) S-SW 196 ° 0 min 0,000 mm 0,0 UV-I 40 W/m² 5,5 °C 6,5 °C 0,0 km/h (0 Bft)
11.05.2018 07:22 6,6 °C 93 % 1017,6 hPa 0,0 mm 0,0 km/h (0 Bft) S-SW 196 ° 0 min 0,000 mm 0,0 UV-I 40 W/m² 5,6 °C 6,6 °C 0,0 km/h (0 Bft)
11.05.2018 07:23 6,6 °C 93 % 1017,6 hPa 0,0 mm 0,0 km/h (0 Bft) S-SW 196 ° 0 min 0,000 mm 0,0 UV-I 40 W/m² 5,6 °C 6,6 °C 0,0 km/h (0 Bft)
11.05.2018 07:24 6,7 °C 93 % 1017,6 hPa 0,0 mm 0,0 km/h (0 Bft) S-SW 196 ° 0 min 0,000 mm 0,0 UV-I 40 W/m² 5,6 °C 6,7 °C 0,0 km/h (0 Bft)
11.05.2018 07:25 6,7 °C 93 % 1017,6 hPa 0,0 mm 0,0 km/h (0 Bft) S-SW 196 ° 0 min 0,000 mm 0,0 UV-I 40 W/m² 5,6 °C 6,7 °C 0,0 km/h (0 Bft)
11.05.2018 07:26 6,8 °C 93 % 1017,7 hPa 0,0 mm 0,0 km/h (0 Bft) S-SW 196 ° 0 min 0,000 mm 0,6 UV-I 56 W/m² 5,7 °C 6,8 °C 0,0 km/h (0 Bft)
11.05.2018 07:27 6,9 °C 93 % 1017,7 hPa 0,0 mm 0,0 km/h (0 Bft) S-SW 196 ° 0 min 0,000 mm 0,7 UV-I 95 W/m² 5,8 °C 6,9 °C 0,0 km/h (0 Bft)
11.05.2018 07:28 6,9 °C 93 % 1017,6 hPa 0,0 mm 0,0 km/h (0 Bft) S-SW 196 ° 0 min 0,000 mm 0,7 UV-I 128 W/m² 5,8 °C 6,9 °C 0,0 km/h (0 Bft)
11.05.2018 07:29 7,1 °C 93 % 1017,6 hPa 0,0 mm 0,0 km/h (0 Bft) S-SW 204 ° 0 min 0,000 mm 0,8 UV-I 135 W/m² 6,0 °C 7,1 °C 0,0 km/h (0 Bft)
11.05.2018 07:30 7,2 °C 93 % 1017,6 hPa 0,0 mm 0,0 km/h (0 Bft) S-SW 205 ° 0 min 0,000 mm 0,8 UV-I 134 W/m² 6,1 °C 7,2 °C 0,0 km/h (0 Bft)
11.05.2018 07:31 7,3 °C 93 % 1017,6 hPa 0,0 mm 0,0 km/h (0 Bft) S-SW 205 ° 0 min 0,000 mm 0,8 UV-I 134 W/m² 6,2 °C 7,3 °C 0,0 km/h (0 Bft)
11.05.2018 07:32 7,3 °C 92 % 1017,6 hPa 0,0 mm 0,0 km/h (0 Bft) S-SW 205 ° 0 min 0,000 mm 0,8 UV-I 134 W/m² 6,1 °C 7,3 °C 0,0 km/h (0 Bft)
11.05.2018 07:33 7,4 °C 92 % 1017,6 hPa 0,0 mm 0,0 km/h (0 Bft) S-SW 205 ° 0 min 0,000 mm 0,8 UV-I 132 W/m² 6,2 °C 7,4 °C 0,0 km/h (0 Bft)
11.05.2018 07:34 7,5 °C 92 % 1017,6 hPa 0,0 mm 0,0 km/h (0 Bft) S-SW 205 ° 0 min 0,000 mm 0,8 UV-I 134 W/m² 6,3 °C 7,5 °C 0,0 km/h (0 Bft)
11.05.2018 07:35 7,6 °C 92 % 1017,7 hPa 0,0 mm 0,0 km/h (0 Bft) S-SW 205 ° 0 min 0,000 mm 0,8 UV-I 135 W/m² 6,4 °C 7,6 °C 0,0 km/h (0 Bft)
11.05.2018 07:36 7,8 °C 92 % 1017,6 hPa 0,0 mm 0,0 km/h (0 Bft) S-SW 205 ° 0 min 0,000 mm 0,8 UV-I 141 W/m² 6,6 °C 7,8 °C 0,0 km/h (0 Bft)
11.05.2018 07:37 7,8 °C 92 % 1017,6 hPa 0,0 mm 0,0 km/h (0 Bft) S-SW 205 ° 0 min 0,000 mm 0,9 UV-I 144 W/m² 6,6 °C 7,8 °C 0,0 km/h (0 Bft)
11.05.2018 07:38 7,8 °C 91 % 1017,6 hPa 0,0 mm 0,0 km/h (0 Bft) S-SW 205 ° 0 min 0,000 mm 0,9 UV-I 148 W/m² 6,4 °C 7,8 °C 0,0 km/h (0 Bft)
11.05.2018 07:39 7,9 °C 91 % 1017,6 hPa 0,0 mm 0,0 km/h (0 Bft) S-SW 205 ° 0 min 0,000 mm 0,9 UV-I 151 W/m² 6,5 °C 7,9 °C 0,0 km/h (0 Bft)
11.05.2018 07:40 7,9 °C 91 % 1017,6 hPa 0,0 mm 0,0 km/h (0 Bft) S-SW 205 ° 0 min 0,000 mm 0,9 UV-I 155 W/m² 6,5 °C 7,9 °C 0,0 km/h (0 Bft)
11.05.2018 07:41 8,0 °C 91 % 1017,5 hPa 0,0 mm 0,0 km/h (0 Bft) S-SW 205 ° 0 min 0,000 mm 0,9 UV-I 160 W/m² 6,6 °C 8,0 °C 0,0 km/h (0 Bft)
11.05.2018 07:42 8,1 °C 91 % 1017,6 hPa 0,0 mm 0,0 km/h (0 Bft) S-SW 205 ° 0 min 0,000 mm 0,9 UV-I 171 W/m² 6,7 °C 8,1 °C 0,0 km/h (0 Bft)
11.05.2018 07:43 8,1 °C 91 % 1017,6 hPa 0,0 mm 0,0 km/h (0 Bft) S-SW 205 ° 0 min 0,000 mm 0,9 UV-I 176 W/m² 6,7 °C 8,1 °C 0,0 km/h (0 Bft)
11.05.2018 07:44 8,1 °C 91 % 1017,6 hPa 0,0 mm 0,0 km/h (0 Bft) S-SW 205 ° 0 min 0,000 mm 1,0 UV-I 181 W/m² 6,7 °C 8,1 °C 0,0 km/h (0 Bft)
11.05.2018 07:45 8,3 °C 91 % 1017,5 hPa 0,0 mm 0,0 km/h (0 Bft) S-SW 205 ° 0 min 0,000 mm 1,0 UV-I 186 W/m² 6,9 °C 8,3 °C 0,0 km/h (0 Bft)
11.05.2018 07:46 8,4 °C 91 % 1017,5 hPa 0,0 mm 0,0 km/h (0 Bft) S-SW 205 ° 0 min 0,000 mm 1,0 UV-I 192 W/m² 7,0 °C 8,4 °C 0,0 km/h (0 Bft)
11.05.2018 07:47 8,4 °C 91 % 1017,5 hPa 0,0 mm 0,0 km/h (0 Bft) S-SW 205 ° 0 min 0,000 mm 1,0 UV-I 195 W/m² 7,0 °C 8,4 °C 0,0 km/h (0 Bft)
11.05.2018 07:48 8,6 °C 91 % 1017,5 hPa 0,0 mm 0,0 km/h (0 Bft) S-SW 205 ° 0 min 0,000 mm 1,0 UV-I 206 W/m² 7,2 °C 8,6 °C 0,0 km/h (0 Bft)
11.05.2018 07:49 8,7 °C 91 % 1017,5 hPa 0,0 mm 0,0 km/h (0 Bft) S-SW 205 ° 0 min 0,000 mm 1,0 UV-I 211 W/m² 7,3 °C 8,7 °C 0,0 km/h (0 Bft)
11.05.2018 07:50 8,8 °C 91 % 1017,5 hPa 0,0 mm 0,0 km/h (0 Bft) O-NO 63 ° 0 min 0,000 mm 1,1 UV-I 216 W/m² 7,4 °C 8,8 °C 0,0 km/h (0 Bft)
11.05.2018 07:51 8,9 °C 89 % 1017,5 hPa 0,0 mm 0,0 km/h (0 Bft) O-NO 63 ° 0 min 0,000 mm 1,1 UV-I 220 W/m² 7,2 °C 8,9 °C 0,0 km/h (0 Bft)
11.05.2018 07:52 8,9 °C 88 % 1017,5 hPa 0,0 mm 0,0 km/h (0 Bft) O-NO 63 ° 0 min 0,000 mm 1,1 UV-I 225 W/m² 7,0 °C 8,9 °C 0,0 km/h (0 Bft)
11.05.2018 07:53 9,1 °C 87 % 1017,5 hPa 0,0 mm 2,0 km/h (1 Bft) O-NO 61 ° 0 min 0,000 mm 1,1 UV-I 229 W/m² 7,1 °C 9,1 °C 4,8 km/h (1 Bft)
11.05.2018 07:54 9,1 °C 87 % 1017,5 hPa 0,0 mm 0,2 km/h (0 Bft) O-NO 61 ° 0 min 0,000 mm 1,1 UV-I 237 W/m² 7,1 °C 9,1 °C 1,6 km/h (1 Bft)
11.05.2018 07:55 9,1 °C 86 % 1017,5 hPa 0,0 mm 0,0 km/h (0 Bft) O-NO 61 ° 0 min 0,000 mm 1,1 UV-I 241 W/m² 6,9 °C 9,1 °C 0,0 km/h (0 Bft)
11.05.2018 07:56 9,1 °C 86 % 1017,6 hPa 0,0 mm 0,0 km/h (0 Bft) O-NO 61 ° 0 min 0,000 mm 1,2 UV-I 244 W/m² 6,9 °C 9,1 °C 0,0 km/h (0 Bft)
11.05.2018 07:57 9,1 °C 86 % 1017,5 hPa 0,0 mm 0,0 km/h (0 Bft) O-NO 61 ° 0 min 0,000 mm 1,2 UV-I 250 W/m² 6,9 °C 9,1 °C 0,0 km/h (0 Bft)
11.05.2018 07:58 9,1 °C 87 % 1017,6 hPa 0,0 mm 3,3 km/h (1 Bft) O-NO 67 ° 0 min 0,000 mm 1,2 UV-I 253 W/m² 7,1 °C 9,1 °C 6,4 km/h (2 Bft)
11.05.2018 07:59 9,1 °C 86 % 1017,6 hPa 0,0 mm 4,2 km/h (1 Bft) O-NO 70 ° 0 min 0,000 mm 1,2 UV-I 257 W/m² 6,9 °C 9,1 °C 6,4 km/h (2 Bft)
11.05.2018 08:00 9,2 °C 85 % 1017,6 hPa 0,0 mm 5,1 km/h (1 Bft) NO 56 ° 0 min 0,000 mm 1,2 UV-I 265 W/m² 6,8 °C 8,8 °C 8,0 km/h (2 Bft)
11.05.2018 08:01 9,2 °C 85 % 1017,6 hPa 0,0 mm 4,2 km/h (1 Bft) O-SO 119 ° 0 min 0,051 mm 1,2 UV-I 269 W/m² 6,8 °C 9,2 °C 6,4 km/h (2 Bft)
11.05.2018 08:02 9,2 °C 84 % 1017,7 hPa 0,0 mm 3,0 km/h (1 Bft) O-NO 78 ° 0 min 0,000 mm 1,3 UV-I 274 W/m² 6,6 °C 9,2 °C 4,8 km/h (1 Bft)
11.05.2018 08:03 9,3 °C 85 % 1017,7 hPa 0,0 mm 2,1 km/h (1 Bft) O-NO 78 ° 0 min 0,000 mm 1,3 UV-I 278 W/m² 6,9 °C 9,3 °C 3,2 km/h (1 Bft)
11.05.2018 08:04 9,3 °C 85 % 1017,7 hPa 0,0 mm 2,3 km/h (1 Bft) O-SO 122 ° 0 min 0,000 mm 1,3 UV-I 283 W/m² 6,9 °C 9,3 °C 4,8 km/h (1 Bft)
11.05.2018 08:05 9,3 °C 85 % 1017,6 hPa 0,0 mm 5,0 km/h (1 Bft) O 84 ° 1 min 0,000 mm 1,3 UV-I 290 W/m² 6,9 °C 9,0 °C 8,0 km/h (2 Bft)
11.05.2018 08:06 9,4 °C 84 % 1017,6 hPa 0,0 mm 3,2 km/h (1 Bft) O 87 ° 1 min 0,000 mm 1,3 UV-I 292 W/m² 6,8 °C 9,4 °C 6,4 km/h (2 Bft)
11.05.2018 08:07 9,4 °C 83 % 1017,6 hPa 0,0 mm 3,6 km/h (1 Bft) NO 40 ° 1 min 0,000 mm 1,3 UV-I 295 W/m² 6,7 °C 9,4 °C 6,4 km/h (2 Bft)
11.05.2018 08:08 9,6 °C 83 % 1017,6 hPa 0,0 mm 4,1 km/h (1 Bft) NO 40 ° 1 min 0,000 mm 1,4 UV-I 299 W/m² 6,9 °C 9,6 °C 4,8 km/h (1 Bft)
11.05.2018 08:09 9,6 °C 84 % 1017,6 hPa 0,0 mm 2,6 km/h (1 Bft) NO 51 ° 1 min 0,000 mm 1,4 UV-I 302 W/m² 7,0 °C 9,6 °C 4,8 km/h (1 Bft)
11.05.2018 08:10 9,7 °C 84 % 1017,6 hPa 0,0 mm 5,0 km/h (1 Bft) NO 40 ° 1 min 0,000 mm 1,4 UV-I 308 W/m² 7,1 °C 9,4 °C 6,4 km/h (2 Bft)
11.05.2018 08:11 9,8 °C 84 % 1017,6 hPa 0,0 mm 6,2 km/h (2 Bft) O-NO 75 ° 0 min 0,000 mm 1,4 UV-I 283 W/m² 7,2 °C 9,2 °C 8,0 km/h (2 Bft)
11.05.2018 08:12 9,8 °C 82 % 1017,6 hPa 0,0 mm 4,4 km/h (1 Bft) O-NO 67 ° 1 min 0,000 mm 1,4 UV-I 302 W/m² 6,9 °C 9,8 °C 6,4 km/h (2 Bft)
11.05.2018 08:13 9,8 °C 81 % 1017,7 hPa 0,0 mm 3,3 km/h (1 Bft) NO 40 ° 1 min 0,000 mm 1,4 UV-I 315 W/m² 6,7 °C 9,8 °C 4,8 km/h (1 Bft)
11.05.2018 08:14 9,8 °C 82 % 1017,7 hPa 0,0 mm 4,7 km/h (1 Bft) NO 37 ° 1 min 0,000 mm 1,5 UV-I 325 W/m² 6,9 °C 9,6 °C 8,0 km/h (2 Bft)
11.05.2018 08:15 9,8 °C 81 % 1017,6 hPa 0,0 mm 2,1 km/h (1 Bft) NO 37 ° 1 min 0,000 mm 1,5 UV-I 332 W/m² 6,7 °C 9,8 °C 6,4 km/h (2 Bft)
11.05.2018 08:16 9,8 °C 81 % 1017,7 hPa 0,0 mm 0,3 km/h (0 Bft) NO 37 ° 1 min 0,000 mm 1,5 UV-I 336 W/m² 6,7 °C 9,8 °C 1,6 km/h (1 Bft)
11.05.2018 08:17 9,9 °C 83 % 1017,6 hPa 0,0 mm 3,4 km/h (1 Bft) O 82 ° 1 min 0,000 mm 1,5 UV-I 341 W/m² 7,2 °C 9,9 °C 6,4 km/h (2 Bft)
11.05.2018 08:18 10,0 °C 84 % 1017,7 hPa 0,0 mm 0,9 km/h (0 Bft) O-NO 71 ° 1 min 0,000 mm 1,6 UV-I 339 W/m² 7,4 °C 10,0 °C 4,8 km/h (1 Bft)
11.05.2018 08:19 10,0 °C 82 % 1017,6 hPa 0,0 mm 4,3 km/h (1 Bft) N-NO 30 ° 1 min 0,000 mm 1,6 UV-I 345 W/m² 7,1 °C 10,0 °C 8,0 km/h (2 Bft)
11.05.2018 08:20 10,1 °C 81 % 1017,7 hPa 0,0 mm 7,0 km/h (2 Bft) NO 49 ° 1 min 0,000 mm 1,6 UV-I 350 W/m² 7,0 °C 10,1 °C 9,7 km/h (2 Bft)
11.05.2018 08:21 10,1 °C 81 % 1017,7 hPa 0,0 mm 8,0 km/h (2 Bft) NO 45 ° 1 min 0,000 mm 1,6 UV-I 357 W/m² 7,0 °C 10,1 °C 11,3 km/h (2 Bft)
11.05.2018 08:22 10,0 °C 80 % 1017,7 hPa 0,0 mm 5,3 km/h (1 Bft) NO 40 ° 1 min 0,000 mm 1,6 UV-I 362 W/m² 6,7 °C 9,7 °C 8,0 km/h (2 Bft)
11.05.2018 08:23 10,0 °C 81 % 1017,7 hPa 0,0 mm 6,3 km/h (2 Bft) N-NO 16 ° 1 min 0,000 mm 1,6 UV-I 380 W/m² 6,9 °C 9,4 °C 11,3 km/h (2 Bft)
11.05.2018 08:24 10,1 °C 81 % 1017,6 hPa 0,0 mm 9,1 km/h (2 Bft) NO 40 ° 1 min 0,000 mm 1,7 UV-I 385 W/m² 7,0 °C 10,1 °C 16,1 km/h (3 Bft)
11.05.2018 08:25 10,1 °C 80 % 1017,7 hPa 0,0 mm 3,8 km/h (1 Bft) NO 40 ° 1 min 0,000 mm 1,7 UV-I 404 W/m² 6,8 °C 10,1 °C 8,0 km/h (2 Bft)
11.05.2018 08:26 10,0 °C 80 % 1017,7 hPa 0,0 mm 6,8 km/h (2 Bft) NO 34 ° 1 min 0,000 mm 1,8 UV-I 425 W/m² 6,7 °C 9,3 °C 9,7 km/h (2 Bft)
11.05.2018 08:27 9,9 °C 81 % 1017,7 hPa 0,0 mm 3,5 km/h (1 Bft) NO 34 ° 1 min 0,000 mm 1,4 UV-I 425 W/m² 6,8 °C 9,9 °C 6,4 km/h (2 Bft)
11.05.2018 08:28 9,9 °C 80 % 1017,7 hPa 0,0 mm 2,4 km/h (1 Bft) NO 40 ° 1 min 0,000 mm 1,8 UV-I 425 W/m² 6,6 °C 9,9 °C 4,8 km/h (1 Bft)
11.05.2018 08:29 9,9 °C 81 % 1017,7 hPa 0,0 mm 3,6 km/h (1 Bft) NO 42 ° 1 min 0,000 mm 1,7 UV-I 475 W/m² 6,8 °C 9,9 °C 6,4 km/h (2 Bft)
11.05.2018 08:30 9,9 °C 81 % 1017,7 hPa 0,0 mm 2,8 km/h (1 Bft) NO 49 ° 1 min 0,000 mm 1,9 UV-I 475 W/m² 6,8 °C 9,9 °C 4,8 km/h (1 Bft)
11.05.2018 08:31 9,9 °C 81 % 1017,7 hPa 0,0 mm 3,9 km/h (1 Bft) O-NO 67 ° 1 min 0,000 mm 1,9 UV-I 476 W/m² 6,8 °C 9,9 °C 6,4 km/h (2 Bft)
11.05.2018 08:32 9,9 °C 80 % 1017,7 hPa 0,0 mm 4,1 km/h (1 Bft) N-NO 30 ° 1 min 0,000 mm 1,3 UV-I 446 W/m² 6,6 °C 9,9 °C 4,8 km/h (1 Bft)
11.05.2018 08:33 10,0 °C 81 % 1017,7 hPa 0,0 mm 3,8 km/h (1 Bft) NO 52 ° 1 min 0,000 mm 1,3 UV-I 446 W/m² 6,9 °C 10,0 °C 6,4 km/h (2 Bft)
11.05.2018 08:34 9,9 °C 81 % 1017,7 hPa 0,0 mm 5,0 km/h (1 Bft) O-NO 59 ° 0 min 0,000 mm 1,6 UV-I 223 W/m² 6,8 °C 9,6 °C 8,0 km/h (2 Bft)
11.05.2018 08:35 9,9 °C 80 % 1017,7 hPa 0,0 mm 4,7 km/h (1 Bft) NO 55 ° 1 min 0,000 mm 2,0 UV-I 499 W/m² 6,6 °C 9,7 °C 9,7 km/h (2 Bft)
11.05.2018 08:36 10,0 °C 81 % 1017,7 hPa 0,0 mm 3,6 km/h (1 Bft) NO 55 ° 1 min 0,000 mm 2,0 UV-I 496 W/m² 6,9 °C 10,0 °C 6,4 km/h (2 Bft)
11.05.2018 08:37 10,0 °C 80 % 1017,7 hPa 0,0 mm 0,1 km/h (0 Bft) NO 55 ° 1 min 0,000 mm 1,7 UV-I 485 W/m² 6,7 °C 10,0 °C 1,6 km/h (1 Bft)
11.05.2018 08:38 10,1 °C 82 % 1017,7 hPa 0,0 mm 5,1 km/h (1 Bft) NO 41 ° 1 min 0,000 mm 2,0 UV-I 461 W/m² 7,2 °C 10,1 °C 12,9 km/h (3 Bft)
11.05.2018 08:39 10,1 °C 81 % 1017,7 hPa 0,0 mm 2,7 km/h (1 Bft) NO 38 ° 1 min 0,000 mm 2,1 UV-I 478 W/m² 7,0 °C 10,1 °C 6,4 km/h (2 Bft)
11.05.2018 08:40 10,2 °C 80 % 1017,7 hPa 0,0 mm 7,1 km/h (2 Bft) NO 48 ° 1 min 0,000 mm 2,1 UV-I 475 W/m² 6,9 °C 10,2 °C 9,7 km/h (2 Bft)
11.05.2018 08:41 10,2 °C 80 % 1017,7 hPa 0,0 mm 5,8 km/h (2 Bft) O-NO 57 ° 1 min 0,000 mm 2,1 UV-I 457 W/m² 6,9 °C 10,2 °C 9,7 km/h (2 Bft)
11.05.2018 08:42 10,2 °C 79 % 1017,7 hPa 0,0 mm 8,6 km/h (2 Bft) O-NO 70 ° 1 min 0,000 mm 2,1 UV-I 420 W/m² 6,7 °C 10,2 °C 12,9 km/h (3 Bft)
11.05.2018 08:43 10,2 °C 79 % 1017,6 hPa 0,0 mm 4,0 km/h (1 Bft) O-NO 61 ° 1 min 0,000 mm 2,0 UV-I 420 W/m² 6,7 °C 10,2 °C 8,0 km/h (2 Bft)
11.05.2018 08:44 10,1 °C 80 % 1017,7 hPa 0,0 mm 5,7 km/h (1 Bft) NO 48 ° 0 min 0,000 mm 1,7 UV-I 171 W/m² 6,8 °C 10,1 °C 9,7 km/h (2 Bft)
11.05.2018 08:45 10,1 °C 80 % 1017,6 hPa 0,0 mm 5,7 km/h (1 Bft) O-NO 61 ° 0 min 0,000 mm 2,1 UV-I 171 W/m² 6,8 °C 10,1 °C 8,0 km/h (2 Bft)
11.05.2018 08:46 10,1 °C 80 % 1017,6 hPa 0,0 mm 3,4 km/h (1 Bft) O-NO 57 ° 1 min 0,000 mm 2,2 UV-I 438 W/m² 6,8 °C 10,1 °C 6,4 km/h (2 Bft)
11.05.2018 08:47 10,1 °C 80 % 1017,6 hPa 0,0 mm 3,6 km/h (1 Bft) N 355 ° 1 min 0,000 mm 2,2 UV-I 457 W/m² 6,8 °C 10,1 °C 6,4 km/h (2 Bft)
11.05.2018 08:48 10,2 °C 80 % 1017,5 hPa 0,0 mm 7,4 km/h (2 Bft) NO 42 ° 1 min 0,000 mm 2,2 UV-I 450 W/m² 6,9 °C 10,2 °C 11,3 km/h (2 Bft)
11.05.2018 08:49 10,2 °C 79 % 1017,6 hPa 0,0 mm 4,5 km/h (1 Bft) O-NO 69 ° 1 min 0,000 mm 2,2 UV-I 450 W/m² 6,7 °C 10,2 °C 6,4 km/h (2 Bft)
11.05.2018 08:50 10,2 °C 79 % 1017,6 hPa 0,0 mm 9,5 km/h (2 Bft) NO 40 ° 1 min 0,000 mm 2,2 UV-I 457 W/m² 6,7 °C 10,2 °C 16,1 km/h (3 Bft)
11.05.2018 08:51 10,2 °C 79 % 1017,6 hPa 0,0 mm 2,7 km/h (1 Bft) NO 40 ° 1 min 0,000 mm 2,2 UV-I 457 W/m² 6,7 °C 10,2 °C 6,4 km/h (2 Bft)
11.05.2018 08:52 10,2 °C 80 % 1017,6 hPa 0,0 mm 4,5 km/h (1 Bft) N-NO 23 ° 1 min 0,000 mm 2,2 UV-I 457 W/m² 6,9 °C 10,2 °C 6,4 km/h (2 Bft)
11.05.2018 08:53 10,3 °C 79 % 1017,6 hPa 0,0 mm 3,7 km/h (1 Bft) NO 43 ° 1 min 0,000 mm 2,2 UV-I 459 W/m² 6,8 °C 10,3 °C 6,4 km/h (2 Bft)
11.05.2018 08:54 10,3 °C 79 % 1017,6 hPa 0,0 mm 6,5 km/h (2 Bft) O 92 ° 1 min 0,000 mm 2,3 UV-I 462 W/m² 6,8 °C 10,3 °C 9,7 km/h (2 Bft)
11.05.2018 08:55 10,4 °C 79 % 1017,6 hPa 0,0 mm 1,8 km/h (1 Bft) N-NO 15 ° 1 min 0,000 mm 2,3 UV-I 452 W/m² 6,9 °C 10,4 °C 4,8 km/h (1 Bft)
11.05.2018 08:56 10,4 °C 79 % 1017,6 hPa 0,0 mm 3,3 km/h (1 Bft) O-NO 64 ° 1 min 0,000 mm 2,3 UV-I 464 W/m² 6,9 °C 10,4 °C 6,4 km/h (2 Bft)
11.05.2018 08:57 10,3 °C 79 % 1017,5 hPa 0,0 mm 5,7 km/h (1 Bft) O 96 ° 1 min 0,000 mm 1,7 UV-I 464 W/m² 6,8 °C 10,3 °C 11,3 km/h (2 Bft)
11.05.2018 08:58 10,4 °C 80 % 1017,5 hPa 0,0 mm 5,2 km/h (1 Bft) NO 52 ° 1 min 0,000 mm 2,4 UV-I 485 W/m² 7,1 °C 10,4 °C 9,7 km/h (2 Bft)
11.05.2018 08:59 10,4 °C 79 % 1017,5 hPa 0,0 mm 4,3 km/h (1 Bft) NO 45 ° 1 min 0,000 mm 2,2 UV-I 501 W/m² 6,9 °C 10,4 °C 6,4 km/h (2 Bft)
11.05.2018 09:00 10,4 °C 79 % 1017,5 hPa 0,0 mm 5,8 km/h (2 Bft) O-NO 59 ° 1 min 0,178 mm 2,4 UV-I 489 W/m² 6,9 °C 10,4 °C 11,3 km/h (2 Bft)
11.05.2018 09:01 10,4 °C 78 % 1017,5 hPa 0,0 mm 4,7 km/h (1 Bft) NO 41 ° 1 min 0,000 mm 2,5 UV-I 490 W/m² 6,7 °C 10,4 °C 9,7 km/h (2 Bft)
11.05.2018 09:02 10,4 °C 80 % 1017,5 hPa 0,0 mm 4,7 km/h (1 Bft) O-NO 64 ° 1 min 0,000 mm 1,7 UV-I 482 W/m² 7,1 °C 10,4 °C 9,7 km/h (2 Bft)
11.05.2018 09:03 10,5 °C 79 % 1017,4 hPa 0,0 mm 6,0 km/h (2 Bft) N 349 ° 1 min 0,000 mm 1,7 UV-I 482 W/m² 7,0 °C 10,5 °C 8,0 km/h (2 Bft)
11.05.2018 09:04 10,6 °C 80 % 1017,4 hPa 0,0 mm 5,8 km/h (2 Bft) NO 42 ° 1 min 0,000 mm 2,5 UV-I 503 W/m² 7,3 °C 10,6 °C 8,0 km/h (2 Bft)
11.05.2018 09:05 10,7 °C 81 % 1017,4 hPa 0,0 mm 7,1 km/h (2 Bft) O-NO 58 ° 1 min 0,000 mm 2,6 UV-I 499 W/m² 7,6 °C 10,7 °C 11,3 km/h (2 Bft)
11.05.2018 09:06 10,7 °C 79 % 1017,4 hPa 0,0 mm 5,7 km/h (1 Bft) NO 43 ° 1 min 0,000 mm 2,6 UV-I 504 W/m² 7,2 °C 10,7 °C 9,7 km/h (2 Bft)
11.05.2018 09:07 10,7 °C 79 % 1017,5 hPa 0,0 mm 4,0 km/h (1 Bft) NO 34 ° 1 min 0,000 mm 2,0 UV-I 504 W/m² 7,2 °C 10,7 °C 6,4 km/h (2 Bft)
11.05.2018 09:08 10,7 °C 78 % 1017,4 hPa 0,0 mm 1,6 km/h (1 Bft) NO 34 ° 1 min 0,000 mm 2,6 UV-I 504 W/m² 7,0 °C 10,7 °C 4,8 km/h (1 Bft)
11.05.2018 09:09 10,7 °C 79 % 1017,4 hPa 0,0 mm 4,4 km/h (1 Bft) O-NO 64 ° 1 min 0,000 mm 2,6 UV-I 508 W/m² 7,2 °C 10,7 °C 9,7 km/h (2 Bft)
11.05.2018 09:10 10,6 °C 78 % 1017,4 hPa 0,0 mm 5,3 km/h (1 Bft) O-NO 78 ° 1 min 0,000 mm 2,6 UV-I 519 W/m² 6,9 °C 10,6 °C 8,0 km/h (2 Bft)
11.05.2018 09:11 10,6 °C 79 % 1017,4 hPa 0,0 mm 2,1 km/h (1 Bft) O 79 ° 1 min 0,000 mm 2,6 UV-I 526 W/m² 7,1 °C 10,6 °C 3,2 km/h (1 Bft)
11.05.2018 09:12 10,6 °C 79 % 1017,3 hPa 0,0 mm 4,8 km/h (1 Bft) NO 40 ° 1 min 0,000 mm 1,7 UV-I 490 W/m² 7,1 °C 10,6 °C 8,0 km/h (2 Bft)
11.05.2018 09:13 10,6 °C 79 % 1017,3 hPa 0,0 mm 7,7 km/h (2 Bft) NO 44 ° 1 min 0,000 mm 2,3 UV-I 490 W/m² 7,1 °C 10,6 °C 9,7 km/h (2 Bft)
11.05.2018 09:14 10,7 °C 78 % 1017,2 hPa 0,0 mm 5,9 km/h (2 Bft) O-NO 63 ° 1 min 0,000 mm 2,8 UV-I 490 W/m² 7,0 °C 10,7 °C 9,7 km/h (2 Bft)
11.05.2018 09:15 10,7 °C 79 % 1017,2 hPa 0,0 mm 7,5 km/h (2 Bft) N-NO 32 ° 1 min 0,000 mm 2,8 UV-I 513 W/m² 7,2 °C 10,7 °C 11,3 km/h (2 Bft)
11.05.2018 09:16 10,8 °C 79 % 1017,2 hPa 0,0 mm 8,6 km/h (2 Bft) O 80 ° 1 min 0,000 mm 2,8 UV-I 512 W/m² 7,3 °C 10,8 °C 12,9 km/h (3 Bft)
11.05.2018 09:17 10,8 °C 79 % 1017,2 hPa 0,0 mm 7,3 km/h (2 Bft) O 89 ° 1 min 0,000 mm 2,8 UV-I 519 W/m² 7,3 °C 10,8 °C 12,9 km/h (3 Bft)
11.05.2018 09:18 10,8 °C 78 % 1017,2 hPa 0,0 mm 10,6 km/h (2 Bft) O-NO 58 ° 1 min 0,000 mm 2,9 UV-I 522 W/m² 7,1 °C 10,8 °C 16,1 km/h (3 Bft)
11.05.2018 09:19 10,9 °C 78 % 1017,2 hPa 0,0 mm 7,6 km/h (2 Bft) O-NO 72 ° 1 min 0,000 mm 2,9 UV-I 522 W/m² 7,2 °C 10,9 °C 12,9 km/h (3 Bft)
11.05.2018 09:20 10,8 °C 77 % 1017,2 hPa 0,0 mm 7,9 km/h (2 Bft) O-NO 74 ° 1 min 0,000 mm 2,9 UV-I 526 W/m² 6,9 °C 10,8 °C 14,5 km/h (3 Bft)
11.05.2018 09:21 10,8 °C 77 % 1017,2 hPa 0,0 mm 10,5 km/h (2 Bft) NO 50 ° 1 min 0,000 mm 2,9 UV-I 529 W/m² 6,9 °C 10,8 °C 16,1 km/h (3 Bft)
11.05.2018 09:22 10,8 °C 78 % 1017,2 hPa 0,0 mm 10,6 km/h (2 Bft) NO 48 ° 1 min 0,000 mm 3,0 UV-I 531 W/m² 7,1 °C 10,8 °C 14,5 km/h (3 Bft)
11.05.2018 09:23 10,9 °C 77 % 1017,2 hPa 0,0 mm 5,4 km/h (1 Bft) NO 52 ° 1 min 0,000 mm 3,0 UV-I 534 W/m² 7,0 °C 10,9 °C 11,3 km/h (2 Bft)
11.05.2018 09:24 10,9 °C 77 % 1017,2 hPa 0,0 mm 8,0 km/h (2 Bft) O 100 ° 1 min 0,000 mm 3,0 UV-I 536 W/m² 7,0 °C 10,9 °C 12,9 km/h (3 Bft)
11.05.2018 09:25 10,9 °C 77 % 1017,2 hPa 0,0 mm 6,2 km/h (2 Bft) S-SO 153 ° 1 min 0,000 mm 3,0 UV-I 538 W/m² 7,0 °C 10,9 °C 12,9 km/h (3 Bft)
11.05.2018 09:26 10,8 °C 77 % 1017,2 hPa 0,0 mm 6,9 km/h (2 Bft) O 98 ° 1 min 0,000 mm 3,1 UV-I 540 W/m² 6,9 °C 10,8 °C 12,9 km/h (3 Bft)
11.05.2018 09:27 10,9 °C 78 % 1017,2 hPa 0,0 mm 9,6 km/h (2 Bft) O 82 ° 1 min 0,000 mm 3,1 UV-I 545 W/m² 7,2 °C 10,9 °C 14,5 km/h (3 Bft)
11.05.2018 09:28 10,9 °C 79 % 1017,2 hPa 0,0 mm 5,8 km/h (2 Bft) NO 34 ° 1 min 0,000 mm 3,1 UV-I 548 W/m² 7,4 °C 10,9 °C 9,7 km/h (2 Bft)
11.05.2018 09:29 11,0 °C 78 % 1017,2 hPa 0,0 mm 6,0 km/h (2 Bft) NO 44 ° 1 min 0,000 mm 3,1 UV-I 548 W/m² 7,3 °C 11,0 °C 9,7 km/h (2 Bft)
11.05.2018 09:30 11,1 °C 77 % 1017,2 hPa 0,0 mm 5,0 km/h (1 Bft) O 90 ° 1 min 0,000 mm 3,1 UV-I 552 W/m² 7,2 °C 11,1 °C 8,0 km/h (2 Bft)
11.05.2018 09:31 11,2 °C 77 % 1017,2 hPa 0,0 mm 5,1 km/h (1 Bft) N-NO 27 ° 1 min 0,000 mm 3,2 UV-I 552 W/m² 7,3 °C 11,2 °C 8,0 km/h (2 Bft)
11.05.2018 09:32 11,2 °C 78 % 1017,2 hPa 0,0 mm 5,2 km/h (1 Bft) O-NO 67 ° 1 min 0,000 mm 3,2 UV-I 557 W/m² 7,5 °C 11,2 °C 11,3 km/h (2 Bft)
11.05.2018 09:33 11,2 °C 77 % 1017,2 hPa 0,0 mm 2,3 km/h (1 Bft) N-NO 21 ° 1 min 0,000 mm 3,2 UV-I 559 W/m² 7,3 °C 11,2 °C 4,8 km/h (1 Bft)
11.05.2018 09:34 11,2 °C 78 % 1017,1 hPa 0,0 mm 4,7 km/h (1 Bft) NO 41 ° 1 min 0,000 mm 3,2 UV-I 563 W/m² 7,5 °C 11,2 °C 6,4 km/h (2 Bft)
11.05.2018 09:35 11,3 °C 77 % 1017,1 hPa 0,0 mm 7,2 km/h (2 Bft) O-NO 66 ° 1 min 0,000 mm 3,2 UV-I 557 W/m² 7,4 °C 11,3 °C 9,7 km/h (2 Bft)
11.05.2018 09:36 11,3 °C 77 % 1017,1 hPa 0,0 mm 7,8 km/h (2 Bft) O 82 ° 1 min 0,000 mm 3,3 UV-I 563 W/m² 7,4 °C 11,3 °C 11,3 km/h (2 Bft)
11.05.2018 09:37 11,4 °C 77 % 1017,1 hPa 0,0 mm 8,7 km/h (2 Bft) O-NO 71 ° 1 min 0,000 mm 3,3 UV-I 568 W/m² 7,5 °C 11,4 °C 12,9 km/h (3 Bft)
11.05.2018 09:38 11,4 °C 77 % 1017,0 hPa 0,0 mm 4,0 km/h (1 Bft) O-NO 74 ° 1 min 0,000 mm 3,3 UV-I 570 W/m² 7,5 °C 11,4 °C 9,7 km/h (2 Bft)
11.05.2018 09:39 11,5 °C 76 % 1017,0 hPa 0,0 mm 3,2 km/h (1 Bft) O-NO 78 ° 1 min 0,000 mm 3,3 UV-I 573 W/m² 7,4 °C 11,5 °C 4,8 km/h (1 Bft)
11.05.2018 09:40 11,5 °C 78 % 1017,0 hPa 0,0 mm 7,8 km/h (2 Bft) S-SO 160 ° 1 min 0,000 mm 3,4 UV-I 577 W/m² 7,8 °C 11,5 °C 14,5 km/h (3 Bft)
11.05.2018 09:41 11,5 °C 75 % 1017,0 hPa 0,0 mm 2,0 km/h (1 Bft) O 92 ° 1 min 0,000 mm 3,4 UV-I 577 W/m² 7,2 °C 11,5 °C 6,4 km/h (2 Bft)
11.05.2018 09:42 11,6 °C 79 % 1017,0 hPa 0,0 mm 3,4 km/h (1 Bft) SO 124 ° 1 min 0,000 mm 3,4 UV-I 582 W/m² 8,1 °C 11,6 °C 4,8 km/h (1 Bft)
11.05.2018 09:43 11,6 °C 76 % 1016,9 hPa 0,0 mm 6,8 km/h (2 Bft) O-NO 57 ° 1 min 0,000 mm 3,4 UV-I 580 W/m² 7,5 °C 11,6 °C 11,3 km/h (2 Bft)
11.05.2018 09:44 11,6 °C 75 % 1016,9 hPa 0,0 mm 5,9 km/h (2 Bft) NO 51 ° 1 min 0,000 mm 3,4 UV-I 584 W/m² 7,3 °C 11,6 °C 12,9 km/h (3 Bft)
11.05.2018 09:45 11,6 °C 77 % 1016,9 hPa 0,0 mm 4,5 km/h (1 Bft) N-NO 29 ° 1 min 0,000 mm 3,4 UV-I 582 W/m² 7,7 °C 11,6 °C 8,0 km/h (2 Bft)
11.05.2018 09:46 11,7 °C 77 % 1016,8 hPa 0,0 mm 3,8 km/h (1 Bft) O-NO 78 ° 1 min 0,000 mm 3,5 UV-I 589 W/m² 7,8 °C 11,7 °C 8,0 km/h (2 Bft)
11.05.2018 09:47 11,8 °C 77 % 1016,8 hPa 0,0 mm 1,9 km/h (1 Bft) NO 53 ° 1 min 0,000 mm 3,5 UV-I 594 W/m² 7,9 °C 11,8 °C 3,2 km/h (1 Bft)
11.05.2018 09:48 11,8 °C 77 % 1016,8 hPa 0,0 mm 2,8 km/h (1 Bft) NO 44 ° 1 min 0,000 mm 3,6 UV-I 603 W/m² 7,9 °C 11,8 °C 6,4 km/h (2 Bft)
11.05.2018 09:49 11,9 °C 77 % 1016,8 hPa 0,0 mm 3,2 km/h (1 Bft) O-NO 69 ° 1 min 0,000 mm 3,6 UV-I 610 W/m² 8,0 °C 11,9 °C 6,4 km/h (2 Bft)
11.05.2018 09:50 12,0 °C 76 % 1016,9 hPa 0,0 mm 4,8 km/h (1 Bft) N-NO 23 ° 1 min 0,000 mm 3,5 UV-I 605 W/m² 7,9 °C 12,0 °C 9,7 km/h (2 Bft)
11.05.2018 09:51 12,1 °C 79 % 1016,9 hPa 0,0 mm 5,6 km/h (1 Bft) O 85 ° 1 min 0,000 mm 3,6 UV-I 603 W/m² 8,6 °C 12,1 °C 8,0 km/h (2 Bft)
11.05.2018 09:52 12,1 °C 75 % 1016,8 hPa 0,0 mm 6,1 km/h (2 Bft) O-NO 62 ° 1 min 0,000 mm 3,7 UV-I 610 W/m² 7,8 °C 12,1 °C 9,7 km/h (2 Bft)
11.05.2018 09:53 12,2 °C 77 % 1016,8 hPa 0,0 mm 6,2 km/h (2 Bft) O-NO 74 ° 1 min 0,000 mm 3,7 UV-I 612 W/m² 8,3 °C 12,2 °C 12,9 km/h (3 Bft)
11.05.2018 09:54 12,2 °C 75 % 1016,9 hPa 0,0 mm 9,6 km/h (2 Bft) O-NO 64 ° 1 min 0,000 mm 3,7 UV-I 608 W/m² 7,9 °C 12,2 °C 16,1 km/h (3 Bft)
11.05.2018 09:55 12,0 °C 74 % 1016,9 hPa 0,0 mm 5,8 km/h (2 Bft) O 82 ° 1 min 0,000 mm 3,7 UV-I 613 W/m² 7,5 °C 12,0 °C 12,9 km/h (3 Bft)
11.05.2018 09:56 11,9 °C 76 % 1016,8 hPa 0,0 mm 7,1 km/h (2 Bft) O-SO 108 ° 1 min 0,000 mm 3,7 UV-I 613 W/m² 7,8 °C 11,9 °C 12,9 km/h (3 Bft)
11.05.2018 09:57 12,0 °C 78 % 1016,8 hPa 0,0 mm 7,2 km/h (2 Bft) NO 53 ° 1 min 0,000 mm 3,8 UV-I 619 W/m² 8,3 °C 12,0 °C 11,3 km/h (2 Bft)
11.05.2018 09:58 12,1 °C 76 % 1016,8 hPa 0,0 mm 12,4 km/h (3 Bft) O 98 ° 1 min 0,000 mm 3,8 UV-I 621 W/m² 8,0 °C 12,1 °C 19,3 km/h (3 Bft)
11.05.2018 09:59 12,1 °C 76 % 1016,8 hPa 0,0 mm 6,9 km/h (2 Bft) O-NO 62 ° 1 min 0,000 mm 3,8 UV-I 624 W/m² 8,0 °C 12,1 °C 12,9 km/h (3 Bft)
11.05.2018 10:00 12,1 °C 75 % 1016,8 hPa 0,0 mm 6,0 km/h (2 Bft) NO 48 ° 1 min 0,000 mm 3,8 UV-I 624 W/m² 7,8 °C 12,1 °C 11,3 km/h (2 Bft)
11.05.2018 10:01 12,1 °C 75 % 1016,8 hPa 0,0 mm 8,5 km/h (2 Bft) O 80 ° 1 min 0,279 mm 3,9 UV-I 626 W/m² 7,8 °C 12,1 °C 14,5 km/h (3 Bft)
11.05.2018 10:02 12,1 °C 76 % 1016,8 hPa 0,0 mm 9,0 km/h (2 Bft) O-NO 69 ° 1 min 0,000 mm 3,8 UV-I 631 W/m² 8,0 °C 12,1 °C 16,1 km/h (3 Bft)
11.05.2018 10:03 12,0 °C 75 % 1016,8 hPa 0,0 mm 8,9 km/h (2 Bft) O 93 ° 1 min 0,000 mm 3,9 UV-I 633 W/m² 7,7 °C 12,0 °C 14,5 km/h (3 Bft)
11.05.2018 10:04 12,0 °C 75 % 1016,8 hPa 0,0 mm 5,5 km/h (1 Bft) O 90 ° 1 min 0,000 mm 3,9 UV-I 635 W/m² 7,7 °C 12,0 °C 12,9 km/h (3 Bft)
11.05.2018 10:05 12,1 °C 76 % 1016,9 hPa 0,0 mm 6,7 km/h (2 Bft) O 89 ° 1 min 0,000 mm 3,9 UV-I 638 W/m² 8,0 °C 12,1 °C 12,9 km/h (3 Bft)
11.05.2018 10:06 12,1 °C 75 % 1016,9 hPa 0,0 mm 9,2 km/h (2 Bft) NO 34 ° 1 min 0,000 mm 3,9 UV-I 636 W/m² 7,8 °C 12,1 °C 14,5 km/h (3 Bft)
11.05.2018 10:07 12,1 °C 74 % 1016,8 hPa 0,0 mm 4,6 km/h (1 Bft) O 84 ° 1 min 0,000 mm 4,0 UV-I 643 W/m² 7,6 °C 12,1 °C 9,7 km/h (2 Bft)
11.05.2018 10:08 12,1 °C 76 % 1016,8 hPa 0,0 mm 5,6 km/h (1 Bft) O-NO 78 ° 1 min 0,000 mm 4,0 UV-I 649 W/m² 8,0 °C 12,1 °C 9,7 km/h (2 Bft)
11.05.2018 10:09 12,3 °C 78 % 1016,8 hPa 0,0 mm 5,5 km/h (1 Bft) NO 54 ° 1 min 0,000 mm 4,0 UV-I 647 W/m² 8,6 °C 12,3 °C 8,0 km/h (2 Bft)
11.05.2018 10:10 12,4 °C 75 % 1016,8 hPa 0,0 mm 7,8 km/h (2 Bft) SO 131 ° 1 min 0,000 mm 4,0 UV-I 649 W/m² 8,1 °C 12,4 °C 16,1 km/h (3 Bft)
11.05.2018 10:11 12,4 °C 75 % 1016,8 hPa 0,0 mm 4,7 km/h (1 Bft) SO 135 ° 1 min 0,000 mm 4,0 UV-I 652 W/m² 8,1 °C 12,4 °C 8,0 km/h (2 Bft)
11.05.2018 10:12 12,5 °C 76 % 1016,8 hPa 0,0 mm 7,6 km/h (2 Bft) O-SO 109 ° 1 min 0,000 mm 4,1 UV-I 656 W/m² 8,4 °C 12,5 °C 14,5 km/h (3 Bft)
11.05.2018 10:13 12,4 °C 75 % 1016,8 hPa 0,0 mm 5,4 km/h (1 Bft) O-SO 107 ° 1 min 0,000 mm 4,1 UV-I 657 W/m² 8,1 °C 12,4 °C 11,3 km/h (2 Bft)
11.05.2018 10:14 12,3 °C 74 % 1016,8 hPa 0,0 mm 8,8 km/h (2 Bft) O-NO 61 ° 1 min 0,000 mm 4,1 UV-I 663 W/m² 7,8 °C 12,3 °C 16,1 km/h (3 Bft)
11.05.2018 10:15 12,2 °C 74 % 1016,7 hPa 0,0 mm 4,6 km/h (1 Bft) O-NO 69 ° 1 min 0,000 mm 4,2 UV-I 666 W/m² 7,7 °C 12,2 °C 6,4 km/h (2 Bft)
11.05.2018 10:16 12,2 °C 74 % 1016,6 hPa 0,0 mm 8,7 km/h (2 Bft) O-SO 105 ° 1 min 0,000 mm 4,1 UV-I 663 W/m² 7,7 °C 12,2 °C 12,9 km/h (3 Bft)
11.05.2018 10:17 12,3 °C 75 % 1016,7 hPa 0,0 mm 6,9 km/h (2 Bft) O-NO 57 ° 1 min 0,000 mm 4,1 UV-I 663 W/m² 8,0 °C 12,3 °C 12,9 km/h (3 Bft)
11.05.2018 10:18 12,3 °C 74 % 1016,6 hPa 0,0 mm 9,1 km/h (2 Bft) O-NO 67 ° 1 min 0,000 mm 4,2 UV-I 663 W/m² 7,8 °C 12,3 °C 12,9 km/h (3 Bft)
11.05.2018 10:19 12,3 °C 75 % 1016,6 hPa 0,0 mm 9,6 km/h (2 Bft) O-NO 71 ° 1 min 0,000 mm 4,2 UV-I 684 W/m² 8,0 °C 12,3 °C 12,9 km/h (3 Bft)
11.05.2018 10:20 12,4 °C 74 % 1016,6 hPa 0,0 mm 8,4 km/h (2 Bft) O 92 ° 1 min 0,000 mm 4,1 UV-I 677 W/m² 7,9 °C 12,4 °C 14,5 km/h (3 Bft)
11.05.2018 10:21 12,5 °C 74 % 1016,6 hPa 0,0 mm 7,8 km/h (2 Bft) NO 35 ° 1 min 0,000 mm 4,3 UV-I 679 W/m² 8,0 °C 12,5 °C 16,1 km/h (3 Bft)
11.05.2018 10:22 12,6 °C 74 % 1016,5 hPa 0,0 mm 11,3 km/h (2 Bft) O 94 ° 1 min 0,000 mm 4,3 UV-I 687 W/m² 8,1 °C 12,6 °C 19,3 km/h (3 Bft)
11.05.2018 10:23 12,6 °C 74 % 1016,6 hPa 0,0 mm 9,4 km/h (2 Bft) O-NO 62 ° 1 min 0,000 mm 4,3 UV-I 682 W/m² 8,1 °C 12,6 °C 19,3 km/h (3 Bft)
11.05.2018 10:24 12,6 °C 74 % 1016,6 hPa 0,0 mm 13,2 km/h (3 Bft) NO 49 ° 1 min 0,000 mm 4,3 UV-I 659 W/m² 8,1 °C 12,6 °C 19,3 km/h (3 Bft)
11.05.2018 10:25 12,6 °C 74 % 1016,5 hPa 0,0 mm 9,7 km/h (2 Bft) NO 51 ° 1 min 0,000 mm 4,4 UV-I 705 W/m² 8,1 °C 12,6 °C 17,7 km/h (3 Bft)
11.05.2018 10:26 12,5 °C 74 % 1016,6 hPa 0,0 mm 9,0 km/h (2 Bft) NO 40 ° 1 min 0,000 mm 4,3 UV-I 705 W/m² 8,0 °C 12,5 °C 14,5 km/h (3 Bft)
11.05.2018 10:27 12,6 °C 74 % 1016,6 hPa 0,0 mm 8,0 km/h (2 Bft) O-SO 115 ° 1 min 0,000 mm 4,4 UV-I 701 W/m² 8,1 °C 12,6 °C 16,1 km/h (3 Bft)
11.05.2018 10:28 12,5 °C 74 % 1016,6 hPa 0,0 mm 7,3 km/h (2 Bft) O 93 ° 1 min 0,000 mm 4,4 UV-I 701 W/m² 8,0 °C 12,5 °C 12,9 km/h (3 Bft)
11.05.2018 10:29 12,5 °C 75 % 1016,5 hPa 0,0 mm 7,7 km/h (2 Bft) O-NO 77 ° 1 min 0,000 mm 4,5 UV-I 703 W/m² 8,2 °C 12,5 °C 14,5 km/h (3 Bft)
11.05.2018 10:30 12,4 °C 74 % 1016,6 hPa 0,0 mm 4,8 km/h (1 Bft) NO 51 ° 1 min 0,000 mm 4,5 UV-I 712 W/m² 7,9 °C 12,4 °C 17,7 km/h (3 Bft)
11.05.2018 10:31 12,4 °C 73 % 1016,5 hPa 0,0 mm 9,6 km/h (2 Bft) O 101 ° 1 min 0,000 mm 3,2 UV-I 712 W/m² 7,7 °C 12,4 °C 17,7 km/h (3 Bft)
11.05.2018 10:32 12,4 °C 76 % 1016,5 hPa 0,0 mm 9,0 km/h (2 Bft) O-NO 67 ° 1 min 0,000 mm 4,5 UV-I 710 W/m² 8,3 °C 12,4 °C 17,7 km/h (3 Bft)
11.05.2018 10:33 12,4 °C 74 % 1016,5 hPa 0,0 mm 11,2 km/h (2 Bft) O 98 ° 1 min 0,000 mm 4,5 UV-I 710 W/m² 7,9 °C 12,4 °C 17,7 km/h (3 Bft)
11.05.2018 10:34 12,4 °C 74 % 1016,5 hPa 0,0 mm 9,9 km/h (2 Bft) O 82 ° 1 min 0,000 mm 4,6 UV-I 712 W/m² 7,9 °C 12,4 °C 16,1 km/h (3 Bft)
11.05.2018 10:35 12,4 °C 74 % 1016,5 hPa 0,0 mm 10,3 km/h (2 Bft) N-NO 28 ° 1 min 0,000 mm 4,6 UV-I 717 W/m² 7,9 °C 12,4 °C 14,5 km/h (3 Bft)
11.05.2018 10:36 12,4 °C 77 % 1016,5 hPa 0,0 mm 6,6 km/h (2 Bft) O-NO 76 ° 1 min 0,000 mm 4,6 UV-I 721 W/m² 8,5 °C 12,4 °C 11,3 km/h (2 Bft)
11.05.2018 10:37 12,5 °C 74 % 1016,5 hPa 0,0 mm 7,6 km/h (2 Bft) O-NO 67 ° 1 min 0,000 mm 4,6 UV-I 724 W/m² 8,0 °C 12,5 °C 14,5 km/h (3 Bft)
11.05.2018 10:38 12,5 °C 73 % 1016,5 hPa 0,0 mm 9,9 km/h (2 Bft) O 90 ° 1 min 0,000 mm 4,5 UV-I 626 W/m² 7,8 °C 12,5 °C 16,1 km/h (3 Bft)
11.05.2018 10:39 12,4 °C 74 % 1016,4 hPa 0,0 mm 12,7 km/h (3 Bft) O 98 ° 1 min 0,000 mm 4,6 UV-I 717 W/m² 7,9 °C 12,4 °C 19,3 km/h (3 Bft)
11.05.2018 10:40 12,4 °C 74 % 1016,4 hPa 0,0 mm 7,6 km/h (2 Bft) O-NO 67 ° 1 min 0,000 mm 4,6 UV-I 714 W/m² 7,9 °C 12,4 °C 14,5 km/h (3 Bft)
11.05.2018 10:41 12,5 °C 76 % 1016,4 hPa 0,0 mm 8,4 km/h (2 Bft) O-NO 71 ° 1 min 0,000 mm 4,7 UV-I 728 W/m² 8,4 °C 12,5 °C 12,9 km/h (3 Bft)
11.05.2018 10:42 12,5 °C 75 % 1016,4 hPa 0,0 mm 4,3 km/h (1 Bft) S 174 ° 1 min 0,000 mm 4,7 UV-I 728 W/m² 8,2 °C 12,5 °C 11,3 km/h (2 Bft)
11.05.2018 10:43 12,6 °C 75 % 1016,4 hPa 0,0 mm 5,9 km/h (2 Bft) O 101 ° 1 min 0,000 mm 4,7 UV-I 737 W/m² 8,3 °C 12,6 °C 9,7 km/h (2 Bft)
11.05.2018 10:44 12,7 °C 74 % 1016,4 hPa 0,0 mm 7,8 km/h (2 Bft) O-NO 65 ° 1 min 0,000 mm 4,7 UV-I 735 W/m² 8,2 °C 12,7 °C 11,3 km/h (2 Bft)
11.05.2018 10:45 12,8 °C 74 % 1016,4 hPa 0,0 mm 8,0 km/h (2 Bft) O-NO 57 ° 1 min 0,000 mm 4,7 UV-I 740 W/m² 8,3 °C 12,8 °C 12,9 km/h (3 Bft)
11.05.2018 10:46 12,8 °C 74 % 1016,5 hPa 0,0 mm 2,6 km/h (1 Bft) SO 145 ° 1 min 0,000 mm 4,7 UV-I 740 W/m² 8,3 °C 12,8 °C 4,8 km/h (1 Bft)
11.05.2018 10:47 12,8 °C 74 % 1016,4 hPa 0,0 mm 2,1 km/h (1 Bft) SO 140 ° 1 min 0,000 mm 4,8 UV-I 740 W/m² 8,3 °C 12,8 °C 3,2 km/h (1 Bft)
11.05.2018 10:48 12,8 °C 75 % 1016,4 hPa 0,0 mm 3,6 km/h (1 Bft) NO 49 ° 1 min 0,000 mm 3,9 UV-I 747 W/m² 8,5 °C 12,8 °C 8,0 km/h (2 Bft)
11.05.2018 10:49 12,9 °C 75 % 1016,5 hPa 0,0 mm 5,8 km/h (2 Bft) O-NO 78 ° 1 min 0,000 mm 4,8 UV-I 749 W/m² 8,6 °C 12,9 °C 9,7 km/h (2 Bft)
11.05.2018 10:50 12,9 °C 75 % 1016,5 hPa 0,0 mm 2,8 km/h (1 Bft) O-SO 116 ° 1 min 0,000 mm 4,9 UV-I 759 W/m² 8,6 °C 12,9 °C 6,4 km/h (2 Bft)
11.05.2018 10:51 12,9 °C 74 % 1016,5 hPa 0,0 mm 10,4 km/h (2 Bft) O 96 ° 1 min 0,000 mm 4,9 UV-I 766 W/m² 8,4 °C 12,9 °C 14,5 km/h (3 Bft)
11.05.2018 10:52 12,9 °C 73 % 1016,5 hPa 0,0 mm 6,4 km/h (2 Bft) NO 36 ° 1 min 0,000 mm 5,0 UV-I 770 W/m² 8,2 °C 12,9 °C 8,0 km/h (2 Bft)
11.05.2018 10:53 13,1 °C 75 % 1016,5 hPa 0,0 mm 8,0 km/h (2 Bft) O-NO 76 ° 1 min 0,000 mm 5,0 UV-I 772 W/m² 8,8 °C 13,1 °C 17,7 km/h (3 Bft)
11.05.2018 10:54 13,1 °C 73 % 1016,5 hPa 0,0 mm 7,2 km/h (2 Bft) NO 44 ° 1 min 0,000 mm 5,0 UV-I 770 W/m² 8,4 °C 13,1 °C 12,9 km/h (3 Bft)
11.05.2018 10:55 13,1 °C 74 % 1016,5 hPa 0,0 mm 8,9 km/h (2 Bft) O-SO 113 ° 1 min 0,000 mm 5,0 UV-I 765 W/m² 8,6 °C 13,1 °C 12,9 km/h (3 Bft)
11.05.2018 10:56 13,1 °C 73 % 1016,5 hPa 0,0 mm 4,8 km/h (1 Bft) N-NO 25 ° 1 min 0,000 mm 5,0 UV-I 766 W/m² 8,4 °C 13,1 °C 9,7 km/h (2 Bft)
11.05.2018 10:57 13,1 °C 74 % 1016,4 hPa 0,0 mm 8,4 km/h (2 Bft) O-SO 107 ° 1 min 0,000 mm 5,0 UV-I 765 W/m² 8,6 °C 13,1 °C 14,5 km/h (3 Bft)
11.05.2018 10:58 13,2 °C 75 % 1016,4 hPa 0,0 mm 7,9 km/h (2 Bft) O-SO 116 ° 1 min 0,000 mm 5,0 UV-I 768 W/m² 8,9 °C 13,2 °C 11,3 km/h (2 Bft)
11.05.2018 10:59 13,1 °C 73 % 1016,5 hPa 0,0 mm 7,5 km/h (2 Bft) O 90 ° 1 min 0,000 mm 5,1 UV-I 772 W/m² 8,4 °C 13,1 °C 12,9 km/h (3 Bft)
11.05.2018 11:00 13,1 °C 74 % 1016,4 hPa 0,0 mm 10,2 km/h (2 Bft) O-NO 71 ° 1 min 0,000 mm 5,1 UV-I 772 W/m² 8,6 °C 13,1 °C 17,7 km/h (3 Bft)
11.05.2018 11:01 13,1 °C 73 % 1016,4 hPa 0,0 mm 10,8 km/h (2 Bft) NO 34 ° 1 min 0,356 mm 5,1 UV-I 772 W/m² 8,4 °C 13,1 °C 16,1 km/h (3 Bft)
11.05.2018 11:02 13,1 °C 73 % 1016,4 hPa 0,0 mm 11,0 km/h (2 Bft) O-NO 72 ° 1 min 0,000 mm 5,1 UV-I 772 W/m² 8,4 °C 13,1 °C 16,1 km/h (3 Bft)
11.05.2018 11:03 13,1 °C 72 % 1016,5 hPa 0,0 mm 5,6 km/h (1 Bft) O-SO 102 ° 1 min 0,000 mm 5,1 UV-I 777 W/m² 8,2 °C 13,1 °C 9,7 km/h (2 Bft)
11.05.2018 11:04 13,1 °C 74 % 1016,4 hPa 0,0 mm 5,5 km/h (1 Bft) NO 49 ° 1 min 0,000 mm 5,1 UV-I 775 W/m² 8,6 °C 13,1 °C 11,3 km/h (2 Bft)
11.05.2018 11:05 13,2 °C 74 % 1016,3 hPa 0,0 mm 4,2 km/h (1 Bft) N-NO 24 ° 1 min 0,000 mm 5,2 UV-I 779 W/m² 8,7 °C 13,2 °C 9,7 km/h (2 Bft)
11.05.2018 11:06 13,2 °C 73 % 1016,3 hPa 0,0 mm 12,7 km/h (3 Bft) O-NO 74 ° 1 min 0,000 mm 5,2 UV-I 786 W/m² 8,5 °C 13,2 °C 19,3 km/h (3 Bft)
11.05.2018 11:07 13,2 °C 74 % 1016,3 hPa 0,0 mm 7,6 km/h (2 Bft) N-NO 32 ° 1 min 0,000 mm 5,2 UV-I 800 W/m² 8,7 °C 13,2 °C 14,5 km/h (3 Bft)
11.05.2018 11:08 13,3 °C 74 % 1016,3 hPa 0,0 mm 6,0 km/h (2 Bft) NO 47 ° 1 min 0,000 mm 5,3 UV-I 800 W/m² 8,8 °C 13,3 °C 9,7 km/h (2 Bft)
11.05.2018 11:09 13,3 °C 73 % 1016,3 hPa 0,0 mm 8,6 km/h (2 Bft) NO 44 ° 1 min 0,000 mm 5,2 UV-I 780 W/m² 8,6 °C 13,3 °C 11,3 km/h (2 Bft)
11.05.2018 11:10 13,4 °C 73 % 1016,3 hPa 0,0 mm 11,1 km/h (2 Bft) O-SO 102 ° 1 min 0,000 mm 5,2 UV-I 775 W/m² 8,7 °C 13,4 °C 17,7 km/h (3 Bft)
11.05.2018 11:11 13,4 °C 73 % 1016,3 hPa 0,0 mm 10,0 km/h (2 Bft) O-NO 65 ° 1 min 0,000 mm 5,2 UV-I 779 W/m² 8,7 °C 13,4 °C 14,5 km/h (3 Bft)
11.05.2018 11:12 13,3 °C 73 % 1016,3 hPa 0,0 mm 9,5 km/h (2 Bft) O 82 ° 1 min 0,000 mm 5,2 UV-I 775 W/m² 8,6 °C 13,3 °C 14,5 km/h (3 Bft)
11.05.2018 11:13 13,3 °C 74 % 1016,2 hPa 0,0 mm 5,1 km/h (1 Bft) NO 45 ° 1 min 0,000 mm 5,3 UV-I 789 W/m² 8,8 °C 13,3 °C 9,7 km/h (2 Bft)
11.05.2018 11:14 13,5 °C 75 % 1016,2 hPa 0,0 mm 10,3 km/h (2 Bft) O-NO 68 ° 1 min 0,000 mm 5,3 UV-I 798 W/m² 9,2 °C 13,5 °C 16,1 km/h (3 Bft)
11.05.2018 11:15 13,6 °C 74 % 1016,3 hPa 0,0 mm 6,4 km/h (2 Bft) O-NO 66 ° 1 min 0,000 mm 5,3 UV-I 791 W/m² 9,1 °C 13,6 °C 9,7 km/h (2 Bft)
11.05.2018 11:16 13,5 °C 74 % 1016,3 hPa 0,0 mm 5,4 km/h (1 Bft) O-NO 57 ° 1 min 0,000 mm 5,3 UV-I 789 W/m² 9,0 °C 13,5 °C 11,3 km/h (2 Bft)
11.05.2018 11:17 13,6 °C 73 % 1016,2 hPa 0,0 mm 8,4 km/h (2 Bft) NO 34 ° 1 min 0,000 mm 5,3 UV-I 780 W/m² 8,9 °C 13,6 °C 16,1 km/h (3 Bft)
11.05.2018 11:18 13,4 °C 72 % 1016,2 hPa 0,0 mm 8,1 km/h (2 Bft) O-NO 59 ° 1 min 0,000 mm 5,3 UV-I 715 W/m² 8,5 °C 13,4 °C 16,1 km/h (3 Bft)
11.05.2018 11:19 13,5 °C 73 % 1016,1 hPa 0,0 mm 6,9 km/h (2 Bft) NO 45 ° 1 min 0,000 mm 5,3 UV-I 791 W/m² 8,8 °C 13,5 °C 12,9 km/h (3 Bft)
11.05.2018 11:20 13,6 °C 74 % 1016,1 hPa 0,0 mm 13,5 km/h (3 Bft) O-NO 73 ° 1 min 0,000 mm 5,3 UV-I 796 W/m² 9,1 °C 13,6 °C 19,3 km/h (3 Bft)
11.05.2018 11:21 13,5 °C 73 % 1016,1 hPa 0,0 mm 5,7 km/h (1 Bft) NW 317 ° 1 min 0,000 mm 5,3 UV-I 795 W/m² 8,8 °C 13,5 °C 16,1 km/h (3 Bft)
11.05.2018 11:22 13,6 °C 75 % 1016,1 hPa 0,0 mm 2,9 km/h (1 Bft) NO 55 ° 1 min 0,000 mm 5,4 UV-I 800 W/m² 9,3 °C 13,6 °C 6,4 km/h (2 Bft)
11.05.2018 11:23 13,7 °C 75 % 1016,0 hPa 0,0 mm 10,6 km/h (2 Bft) O 98 ° 1 min 0,000 mm 5,4 UV-I 795 W/m² 9,3 °C 13,7 °C 17,7 km/h (3 Bft)
11.05.2018 11:24 13,7 °C 73 % 1016,0 hPa 0,0 mm 8,5 km/h (2 Bft) NO 50 ° 1 min 0,000 mm 5,4 UV-I 798 W/m² 8,9 °C 13,7 °C 16,1 km/h (3 Bft)
11.05.2018 11:25 13,6 °C 72 % 1016,1 hPa 0,0 mm 9,6 km/h (2 Bft) N-NO 26 ° 1 min 0,000 mm 5,4 UV-I 798 W/m² 8,6 °C 13,6 °C 14,5 km/h (3 Bft)
11.05.2018 11:26 13,6 °C 74 % 1016,0 hPa 0,0 mm 5,1 km/h (1 Bft) O 80 ° 1 min 0,000 mm 5,5 UV-I 798 W/m² 9,1 °C 13,6 °C 8,0 km/h (2 Bft)
11.05.2018 11:27 13,6 °C 73 % 1016,0 hPa 0,0 mm 8,0 km/h (2 Bft) NO 53 ° 1 min 0,000 mm 5,5 UV-I 805 W/m² 8,9 °C 13,6 °C 12,9 km/h (3 Bft)
11.05.2018 11:28 13,7 °C 75 % 1016,0 hPa 0,0 mm 9,9 km/h (2 Bft) N-NO 32 ° 1 min 0,000 mm 5,5 UV-I 803 W/m² 9,3 °C 13,7 °C 16,1 km/h (3 Bft)
11.05.2018 11:29 13,8 °C 74 % 1016,0 hPa 0,0 mm 5,9 km/h (2 Bft) O 81 ° 1 min 0,000 mm 5,5 UV-I 805 W/m² 9,2 °C 13,8 °C 9,7 km/h (2 Bft)
11.05.2018 11:30 13,8 °C 72 % 1016,0 hPa 0,0 mm 8,7 km/h (2 Bft) N-NO 33 ° 1 min 0,000 mm 5,6 UV-I 807 W/m² 8,8 °C 13,8 °C 14,5 km/h (3 Bft)
11.05.2018 11:31 13,7 °C 71 % 1016,1 hPa 0,0 mm 13,9 km/h (3 Bft) NO 42 ° 1 min 0,000 mm 5,6 UV-I 809 W/m² 8,5 °C 13,7 °C 19,3 km/h (3 Bft)
11.05.2018 11:32 13,7 °C 72 % 1016,1 hPa 0,0 mm 5,2 km/h (1 Bft) N-NO 27 ° 1 min 0,000 mm 5,6 UV-I 814 W/m² 8,7 °C 13,7 °C 9,7 km/h (2 Bft)
11.05.2018 11:33 13,7 °C 74 % 1016,1 hPa 0,0 mm 8,7 km/h (2 Bft) O 86 ° 1 min 0,000 mm 5,6 UV-I 810 W/m² 9,2 °C 13,7 °C 14,5 km/h (3 Bft)
11.05.2018 11:34 13,7 °C 73 % 1016,1 hPa 0,0 mm 7,0 km/h (2 Bft) O-NO 73 ° 1 min 0,000 mm 5,6 UV-I 819 W/m² 8,9 °C 13,7 °C 9,7 km/h (2 Bft)
11.05.2018 11:35 13,7 °C 73 % 1016,1 hPa 0,0 mm 6,7 km/h (2 Bft) NO 46 ° 1 min 0,000 mm 5,6 UV-I 812 W/m² 8,9 °C 13,7 °C 9,7 km/h (2 Bft)
11.05.2018 11:36 13,9 °C 75 % 1016,1 hPa 0,0 mm 6,3 km/h (2 Bft) O 79 ° 1 min 0,000 mm 5,6 UV-I 812 W/m² 9,5 °C 13,9 °C 11,3 km/h (2 Bft)
11.05.2018 11:37 14,1 °C 74 % 1016,1 hPa 0,0 mm 6,6 km/h (2 Bft) O-NO 74 ° 1 min 0,000 mm 5,8 UV-I 823 W/m² 9,5 °C 14,1 °C 12,9 km/h (3 Bft)
11.05.2018 11:38 14,1 °C 73 % 1016,0 hPa 0,0 mm 8,9 km/h (2 Bft) O-NO 72 ° 1 min 0,000 mm 5,8 UV-I 824 W/m² 9,3 °C 14,1 °C 12,9 km/h (3 Bft)
11.05.2018 11:39 14,0 °C 71 % 1016,1 hPa 0,0 mm 5,0 km/h (1 Bft) O-NO 65 ° 1 min 0,000 mm 5,8 UV-I 830 W/m² 8,8 °C 14,0 °C 6,4 km/h (2 Bft)
11.05.2018 11:40 14,0 °C 72 % 1016,0 hPa 0,0 mm 8,2 km/h (2 Bft) O-NO 69 ° 1 min 0,000 mm 5,8 UV-I 826 W/m² 9,0 °C 14,0 °C 14,5 km/h (3 Bft)
11.05.2018 11:41 14,1 °C 73 % 1016,0 hPa 0,0 mm 9,2 km/h (2 Bft) O 96 ° 1 min 0,000 mm 5,8 UV-I 824 W/m² 9,3 °C 14,1 °C 14,5 km/h (3 Bft)
11.05.2018 11:42 14,2 °C 72 % 1016,0 hPa 0,0 mm 5,0 km/h (1 Bft) NO 44 ° 1 min 0,000 mm 5,8 UV-I 830 W/m² 9,2 °C 14,2 °C 8,0 km/h (2 Bft)
11.05.2018 11:43 14,2 °C 72 % 1016,0 hPa 0,0 mm 5,0 km/h (1 Bft) NO 39 ° 1 min 0,000 mm 5,9 UV-I 830 W/m² 9,2 °C 14,2 °C 11,3 km/h (2 Bft)
11.05.2018 11:44 14,4 °C 76 % 1016,0 hPa 0,0 mm 5,4 km/h (1 Bft) O-NO 65 ° 1 min 0,000 mm 5,9 UV-I 831 W/m² 10,2 °C 14,4 °C 9,7 km/h (2 Bft)
11.05.2018 11:45 14,4 °C 73 % 1016,0 hPa 0,0 mm 6,8 km/h (2 Bft) NO 46 ° 1 min 0,000 mm 5,9 UV-I 828 W/m² 9,6 °C 14,4 °C 12,9 km/h (3 Bft)
11.05.2018 11:46 14,4 °C 73 % 1016,0 hPa 0,0 mm 8,2 km/h (2 Bft) NO 56 ° 1 min 0,000 mm 5,9 UV-I 830 W/m² 9,6 °C 14,4 °C 11,3 km/h (2 Bft)
11.05.2018 11:47 14,4 °C 71 % 1016,0 hPa 0,0 mm 7,3 km/h (2 Bft) S-SO 147 ° 1 min 0,000 mm 5,9 UV-I 826 W/m² 9,2 °C 14,4 °C 14,5 km/h (3 Bft)
11.05.2018 11:48 14,4 °C 73 % 1015,9 hPa 0,0 mm 8,2 km/h (2 Bft) O-NO 77 ° 1 min 0,000 mm 5,9 UV-I 835 W/m² 9,6 °C 14,4 °C 12,9 km/h (3 Bft)
11.05.2018 11:49 14,4 °C 73 % 1015,9 hPa 0,0 mm 8,2 km/h (2 Bft) O-NO 67 ° 1 min 0,000 mm 6,0 UV-I 844 W/m² 9,6 °C 14,4 °C 19,3 km/h (3 Bft)
11.05.2018 11:50 14,4 °C 73 % 1015,9 hPa 0,0 mm 8,6 km/h (2 Bft) NO 39 ° 1 min 0,000 mm 6,0 UV-I 840 W/m² 9,6 °C 14,4 °C 16,1 km/h (3 Bft)
11.05.2018 11:51 14,5 °C 72 % 1015,9 hPa 0,0 mm 7,0 km/h (2 Bft) NO 48 ° 1 min 0,000 mm 6,0 UV-I 828 W/m² 9,5 °C 14,5 °C 12,9 km/h (3 Bft)
11.05.2018 11:52 14,6 °C 73 % 1015,9 hPa 0,0 mm 5,6 km/h (1 Bft) O-NO 58 ° 1 min 0,000 mm 6,1 UV-I 856 W/m² 9,8 °C 14,6 °C 9,7 km/h (2 Bft)
11.05.2018 11:53 14,6 °C 72 % 1015,9 hPa 0,0 mm 6,4 km/h (2 Bft) O 94 ° 1 min 0,000 mm 3,9 UV-I 856 W/m² 9,6 °C 14,6 °C 12,9 km/h (3 Bft)
11.05.2018 11:54 14,6 °C 72 % 1015,9 hPa 0,0 mm 7,3 km/h (2 Bft) O-NO 61 ° 1 min 0,000 mm 6,3 UV-I 856 W/m² 9,6 °C 14,6 °C 12,9 km/h (3 Bft)
11.05.2018 11:55 14,6 °C 72 % 1015,9 hPa 0,0 mm 10,4 km/h (2 Bft) O 88 ° 1 min 0,000 mm 6,2 UV-I 837 W/m² 9,6 °C 14,6 °C 16,1 km/h (3 Bft)
11.05.2018 11:56 14,5 °C 71 % 1015,9 hPa 0,0 mm 10,1 km/h (2 Bft) N-NO 15 ° 1 min 0,000 mm 6,1 UV-I 851 W/m² 9,3 °C 14,5 °C 14,5 km/h (3 Bft)
11.05.2018 11:57 14,5 °C 71 % 1015,9 hPa 0,0 mm 7,5 km/h (2 Bft) N-NO 24 ° 1 min 0,000 mm 6,1 UV-I 847 W/m² 9,3 °C 14,5 °C 12,9 km/h (3 Bft)
11.05.2018 11:58 14,6 °C 72 % 1015,9 hPa 0,0 mm 8,8 km/h (2 Bft) O 82 ° 1 min 0,000 mm 6,1 UV-I 853 W/m² 9,6 °C 14,6 °C 12,9 km/h (3 Bft)
11.05.2018 11:59 14,6 °C 71 % 1015,8 hPa 0,0 mm 6,9 km/h (2 Bft) O 98 ° 1 min 0,000 mm 6,1 UV-I 879 W/m² 9,4 °C 14,6 °C 11,3 km/h (2 Bft)
11.05.2018 12:00 14,7 °C 72 % 1015,8 hPa 0,0 mm 8,5 km/h (2 Bft) NO 36 ° 1 min 0,432 mm 6,3 UV-I 904 W/m² 9,7 °C 14,7 °C 14,5 km/h (3 Bft)
11.05.2018 12:01 14,7 °C 71 % 1015,8 hPa 0,0 mm 8,2 km/h (2 Bft) O-NO 66 ° 1 min 0,000 mm 6,3 UV-I 891 W/m² 9,5 °C 14,7 °C 14,5 km/h (3 Bft)
11.05.2018 12:02 14,7 °C 72 % 1015,8 hPa 0,0 mm 6,4 km/h (2 Bft) N-NO 29 ° 1 min 0,000 mm 6,2 UV-I 863 W/m² 9,7 °C 14,7 °C 12,9 km/h (3 Bft)
11.05.2018 12:03 14,7 °C 72 % 1015,7 hPa 0,0 mm 7,5 km/h (2 Bft) N-NO 28 ° 1 min 0,000 mm 6,2 UV-I 854 W/m² 9,7 °C 14,7 °C 14,5 km/h (3 Bft)
11.05.2018 12:04 14,8 °C 72 % 1015,8 hPa 0,0 mm 9,5 km/h (2 Bft) O-NO 63 ° 1 min 0,000 mm 6,2 UV-I 853 W/m² 9,8 °C 14,8 °C 14,5 km/h (3 Bft)
11.05.2018 12:05 14,8 °C 70 % 1015,8 hPa 0,0 mm 12,7 km/h (3 Bft) NO 36 ° 1 min 0,000 mm 6,2 UV-I 856 W/m² 9,4 °C 14,8 °C 19,3 km/h (3 Bft)
11.05.2018 12:06 14,7 °C 71 % 1015,7 hPa 0,0 mm 14,1 km/h (3 Bft) O-NO 66 ° 1 min 0,000 mm 6,2 UV-I 856 W/m² 9,5 °C 14,7 °C 20,9 km/h (4 Bft)
11.05.2018 12:07 14,6 °C 70 % 1015,8 hPa 0,0 mm 8,7 km/h (2 Bft) NO 49 ° 1 min 0,000 mm 6,2 UV-I 858 W/m² 9,2 °C 14,6 °C 16,1 km/h (3 Bft)
11.05.2018 12:08 14,7 °C 72 % 1015,7 hPa 0,0 mm 4,0 km/h (1 Bft) O-NO 74 ° 1 min 0,000 mm 6,1 UV-I 856 W/m² 9,7 °C 14,7 °C 8,0 km/h (2 Bft)
11.05.2018 12:09 14,8 °C 73 % 1015,7 hPa 0,0 mm 4,6 km/h (1 Bft) O-NO 61 ° 1 min 0,000 mm 6,1 UV-I 858 W/m² 10,0 °C 14,8 °C 9,7 km/h (2 Bft)
11.05.2018 12:10 14,9 °C 75 % 1015,7 hPa 0,0 mm 11,7 km/h (2 Bft) O 88 ° 1 min 0,000 mm 6,2 UV-I 860 W/m² 10,5 °C 14,9 °C 17,7 km/h (3 Bft)
11.05.2018 12:11 15,0 °C 73 % 1015,7 hPa 0,0 mm 14,2 km/h (3 Bft) O-NO 77 ° 1 min 0,000 mm 6,2 UV-I 847 W/m² 10,2 °C 15,0 °C 19,3 km/h (3 Bft)
11.05.2018 12:12 14,9 °C 71 % 1015,6 hPa 0,0 mm 13,4 km/h (3 Bft) O-NO 61 ° 1 min 0,000 mm 6,1 UV-I 840 W/m² 9,7 °C 14,9 °C 20,9 km/h (4 Bft)
11.05.2018 12:13 14,8 °C 70 % 1015,7 hPa 0,0 mm 9,3 km/h (2 Bft) O-NO 58 ° 1 min 0,000 mm 6,2 UV-I 854 W/m² 9,4 °C 14,8 °C 14,5 km/h (3 Bft)
11.05.2018 12:14 14,8 °C 70 % 1015,6 hPa 0,0 mm 9,5 km/h (2 Bft) O 92 ° 1 min 0,000 mm 6,2 UV-I 856 W/m² 9,4 °C 14,8 °C 14,5 km/h (3 Bft)
11.05.2018 12:15 14,8 °C 71 % 1015,7 hPa 0,0 mm 6,8 km/h (2 Bft) O-NO 61 ° 1 min 0,000 mm 6,2 UV-I 858 W/m² 9,6 °C 14,8 °C 11,3 km/h (2 Bft)
11.05.2018 12:16 15,0 °C 73 % 1015,6 hPa 0,0 mm 9,9 km/h (2 Bft) N-NO 30 ° 1 min 0,000 mm 6,2 UV-I 861 W/m² 10,2 °C 15,0 °C 19,3 km/h (3 Bft)
11.05.2018 12:17 15,2 °C 72 % 1015,6 hPa 0,0 mm 8,1 km/h (2 Bft) SO 133 ° 1 min 0,000 mm 6,3 UV-I 858 W/m² 10,2 °C 15,2 °C 19,3 km/h (3 Bft)
11.05.2018 12:18 15,2 °C 71 % 1015,6 hPa 0,0 mm 6,8 km/h (2 Bft) O 80 ° 1 min 0,000 mm 6,2 UV-I 854 W/m² 10,0 °C 15,2 °C 17,7 km/h (3 Bft)
11.05.2018 12:19 15,1 °C 69 % 1015,6 hPa 0,0 mm 8,0 km/h (2 Bft) N-NO 26 ° 1 min 0,000 mm 6,3 UV-I 861 W/m² 9,5 °C 15,1 °C 12,9 km/h (3 Bft)
11.05.2018 12:20 15,1 °C 71 % 1015,6 hPa 0,0 mm 10,1 km/h (2 Bft) O-NO 57 ° 1 min 0,000 mm 6,3 UV-I 863 W/m² 9,9 °C 15,1 °C 14,5 km/h (3 Bft)
11.05.2018 12:21 15,1 °C 70 % 1015,6 hPa 0,2 mm 7,8 km/h (2 Bft) O-NO 73 ° 1 min 0,000 mm 6,3 UV-I 865 W/m² 9,7 °C 15,1 °C 11,3 km/h (2 Bft)
11.05.2018 12:22 15,2 °C 72 % 1015,6 hPa 0,0 mm 11,1 km/h (2 Bft) NO 46 ° 1 min 0,000 mm 6,3 UV-I 860 W/m² 10,2 °C 15,2 °C 20,9 km/h (4 Bft)
11.05.2018 12:23 15,2 °C 70 % 1015,6 hPa 0,0 mm 10,1 km/h (2 Bft) N-NO 27 ° 1 min 0,000 mm 6,3 UV-I 861 W/m² 9,8 °C 15,2 °C 17,7 km/h (3 Bft)
11.05.2018 12:24 15,2 °C 70 % 1015,6 hPa 0,0 mm 9,6 km/h (2 Bft) NO 46 ° 1 min 0,000 mm 6,3 UV-I 858 W/m² 9,8 °C 15,2 °C 16,1 km/h (3 Bft)
11.05.2018 12:25 15,3 °C 70 % 1015,6 hPa 0,0 mm 9,7 km/h (2 Bft) N-NO 27 ° 1 min 0,000 mm 6,3 UV-I 863 W/m² 9,9 °C 15,3 °C 14,5 km/h (3 Bft)
11.05.2018 12:26 15,3 °C 70 % 1015,6 hPa 0,0 mm 10,3 km/h (2 Bft) NO 39 ° 1 min 0,000 mm 6,3 UV-I 865 W/m² 9,9 °C 15,3 °C 17,7 km/h (3 Bft)
11.05.2018 12:27 15,2 °C 71 % 1015,6 hPa 0,0 mm 7,6 km/h (2 Bft) NO 41 ° 1 min 0,000 mm 6,3 UV-I 863 W/m² 10,0 °C 15,2 °C 12,9 km/h (3 Bft)
11.05.2018 12:28 15,5 °C 73 % 1015,5 hPa 0,0 mm 3,6 km/h (1 Bft) N-NW 334 ° 1 min 0,000 mm 6,3 UV-I 865 W/m² 10,7 °C 15,5 °C 9,7 km/h (2 Bft)
11.05.2018 12:29 15,6 °C 72 % 1015,5 hPa 0,0 mm 10,4 km/h (2 Bft) N 355 ° 1 min 0,000 mm 6,4 UV-I 867 W/m² 10,6 °C 15,6 °C 16,1 km/h (3 Bft)
11.05.2018 12:30 15,6 °C 71 % 1015,5 hPa 0,0 mm 11,9 km/h (2 Bft) NO 44 ° 1 min 0,000 mm 6,4 UV-I 872 W/m² 10,4 °C 15,6 °C 19,3 km/h (3 Bft)
11.05.2018 12:31 15,7 °C 71 % 1015,4 hPa 0,0 mm 9,4 km/h (2 Bft) O-NO 78 ° 1 min 0,000 mm 6,4 UV-I 872 W/m² 10,5 °C 15,7 °C 16,1 km/h (3 Bft)
11.05.2018 12:32 15,6 °C 70 % 1015,4 hPa 0,0 mm 6,9 km/h (2 Bft) O 82 ° 1 min 0,000 mm 6,5 UV-I 874 W/m² 10,1 °C 15,6 °C 11,3 km/h (2 Bft)
11.05.2018 12:33 15,7 °C 73 % 1015,4 hPa 0,0 mm 6,5 km/h (2 Bft) O-SO 110 ° 1 min 0,000 mm 6,5 UV-I 874 W/m² 10,9 °C 15,7 °C 14,5 km/h (3 Bft)
11.05.2018 12:34 15,8 °C 71 % 1015,4 hPa 0,0 mm 6,4 km/h (2 Bft) SO 143 ° 1 min 0,000 mm 6,5 UV-I 874 W/m² 10,6 °C 15,8 °C 14,5 km/h (3 Bft)
11.05.2018 12:35 15,7 °C 72 % 1015,4 hPa 0,0 mm 7,7 km/h (2 Bft) O-NO 69 ° 1 min 0,000 mm 6,5 UV-I 870 W/m² 10,7 °C 15,7 °C 14,5 km/h (3 Bft)
11.05.2018 12:36 15,8 °C 71 % 1015,5 hPa 0,0 mm 5,4 km/h (1 Bft) O 89 ° 1 min 0,000 mm 6,5 UV-I 870 W/m² 10,6 °C 15,8 °C 9,7 km/h (2 Bft)
11.05.2018 12:37 15,7 °C 70 % 1015,4 hPa 0,0 mm 5,4 km/h (1 Bft) O-NO 72 ° 1 min 0,000 mm 6,5 UV-I 874 W/m² 10,2 °C 15,7 °C 8,0 km/h (2 Bft)
11.05.2018 12:38 15,8 °C 72 % 1015,4 hPa 0,0 mm 6,4 km/h (2 Bft) N-NO 31 ° 1 min 0,000 mm 6,5 UV-I 875 W/m² 10,8 °C 15,8 °C 8,0 km/h (2 Bft)
11.05.2018 12:39 15,9 °C 70 % 1015,4 hPa 0,0 mm 7,6 km/h (2 Bft) NO 38 ° 1 min 0,000 mm 6,5 UV-I 870 W/m² 10,4 °C 15,9 °C 14,5 km/h (3 Bft)
11.05.2018 12:40 16,0 °C 70 % 1015,4 hPa 0,0 mm 11,3 km/h (2 Bft) O-NO 66 ° 1 min 0,000 mm 6,5 UV-I 870 W/m² 10,5 °C 16,0 °C 16,1 km/h (3 Bft)
11.05.2018 12:41 16,0 °C 69 % 1015,4 hPa 0,0 mm 6,7 km/h (2 Bft) NO 44 ° 1 min 0,000 mm 6,5 UV-I 875 W/m² 10,3 °C 16,0 °C 14,5 km/h (3 Bft)
11.05.2018 12:42 15,9 °C 70 % 1015,4 hPa 0,0 mm 9,8 km/h (2 Bft) N-NO 19 ° 1 min 0,000 mm 6,5 UV-I 872 W/m² 10,4 °C 15,9 °C 12,9 km/h (3 Bft)
11.05.2018 12:43 16,0 °C 71 % 1015,4 hPa 0,0 mm 7,4 km/h (2 Bft) O 89 ° 1 min 0,000 mm 6,5 UV-I 874 W/m² 10,7 °C 16,0 °C 11,3 km/h (2 Bft)
11.05.2018 12:44 16,0 °C 69 % 1015,4 hPa 0,0 mm 10,5 km/h (2 Bft) NO 36 ° 1 min 0,000 mm 6,5 UV-I 868 W/m² 10,3 °C 16,0 °C 19,3 km/h (3 Bft)
11.05.2018 12:45 15,9 °C 70 % 1015,4 hPa 0,0 mm 6,3 km/h (2 Bft) O 83 ° 1 min 0,000 mm 6,5 UV-I 872 W/m² 10,4 °C 15,9 °C 11,3 km/h (2 Bft)
11.05.2018 12:46 15,9 °C 69 % 1015,4 hPa 0,0 mm 6,4 km/h (2 Bft) O-NO 63 ° 1 min 0,000 mm 6,5 UV-I 874 W/m² 10,2 °C 15,9 °C 9,7 km/h (2 Bft)
11.05.2018 12:47 15,9 °C 69 % 1015,4 hPa 0,0 mm 11,1 km/h (2 Bft) O-NO 78 ° 1 min 0,000 mm 6,5 UV-I 870 W/m² 10,2 °C 15,9 °C 14,5 km/h (3 Bft)
11.05.2018 12:48 15,8 °C 69 % 1015,4 hPa 0,0 mm 15,9 km/h (3 Bft) O-NO 70 ° 1 min 0,000 mm 6,5 UV-I 874 W/m² 10,1 °C 15,8 °C 20,9 km/h (4 Bft)
11.05.2018 12:49 15,7 °C 71 % 1015,4 hPa 0,0 mm 7,8 km/h (2 Bft) O 80 ° 1 min 0,000 mm 6,5 UV-I 875 W/m² 10,5 °C 15,7 °C 14,5 km/h (3 Bft)
11.05.2018 12:50 15,6 °C 72 % 1015,3 hPa 0,0 mm 4,5 km/h (1 Bft) O 90 ° 1 min 0,000 mm 6,5 UV-I 874 W/m² 10,6 °C 15,6 °C 6,4 km/h (2 Bft)
11.05.2018 12:51 15,7 °C 71 % 1015,3 hPa 0,0 mm 3,8 km/h (1 Bft) NO 41 ° 1 min 0,000 mm 6,5 UV-I 874 W/m² 10,5 °C 15,7 °C 6,4 km/h (2 Bft)
11.05.2018 12:52 15,8 °C 73 % 1015,3 hPa 0,0 mm 4,7 km/h (1 Bft) O-NO 72 ° 1 min 0,000 mm 6,5 UV-I 877 W/m² 11,0 °C 15,8 °C 8,0 km/h (2 Bft)
11.05.2018 12:53 15,9 °C 72 % 1015,3 hPa 0,0 mm 13,6 km/h (3 Bft) O 94 ° 1 min 0,000 mm 6,5 UV-I 879 W/m² 10,9 °C 15,9 °C 17,7 km/h (3 Bft)
11.05.2018 12:54 15,9 °C 70 % 1015,4 hPa 0,0 mm 13,0 km/h (3 Bft) NO 48 ° 1 min 0,000 mm 6,5 UV-I 875 W/m² 10,4 °C 15,9 °C 19,3 km/h (3 Bft)
11.05.2018 12:55 16,0 °C 70 % 1015,4 hPa 0,0 mm 6,0 km/h (2 Bft) N-NO 29 ° 1 min 0,000 mm 6,5 UV-I 879 W/m² 10,5 °C 16,0 °C 9,7 km/h (2 Bft)
11.05.2018 12:56 16,1 °C 70 % 1015,3 hPa 0,0 mm 9,7 km/h (2 Bft) NO 51 ° 1 min 0,000 mm 6,5 UV-I 877 W/m² 10,6 °C 16,1 °C 14,5 km/h (3 Bft)
11.05.2018 12:57 16,0 °C 70 % 1015,3 hPa 0,0 mm 5,5 km/h (1 Bft) NO 53 ° 1 min 0,000 mm 6,4 UV-I 874 W/m² 10,5 °C 16,0 °C 8,0 km/h (2 Bft)
11.05.2018 12:58 16,0 °C 72 % 1015,3 hPa 0,0 mm 8,7 km/h (2 Bft) NO 56 ° 1 min 0,000 mm 6,4 UV-I 872 W/m² 11,0 °C 16,0 °C 17,7 km/h (3 Bft)
11.05.2018 12:59 16,0 °C 69 % 1015,3 hPa 0,0 mm 12,7 km/h (3 Bft) O 79 ° 1 min 0,000 mm 6,6 UV-I 879 W/m² 10,3 °C 16,0 °C 17,7 km/h (3 Bft)
11.05.2018 13:00 16,0 °C 70 % 1015,3 hPa 0,0 mm 10,1 km/h (2 Bft) O 89 ° 1 min 0,482 mm 6,5 UV-I 877 W/m² 10,5 °C 16,0 °C 11,3 km/h (2 Bft)
11.05.2018 13:01 15,9 °C 69 % 1015,3 hPa 0,0 mm 9,9 km/h (2 Bft) O-NO 65 ° 1 min 0,000 mm 6,5 UV-I 877 W/m² 10,2 °C 15,9 °C 17,7 km/h (3 Bft)
11.05.2018 13:02 15,8 °C 70 % 1015,2 hPa 0,0 mm 7,2 km/h (2 Bft) O-NO 70 ° 1 min 0,000 mm 6,6 UV-I 879 W/m² 10,3 °C 15,8 °C 11,3 km/h (2 Bft)
11.05.2018 13:03 15,9 °C 72 % 1015,3 hPa 0,0 mm 9,1 km/h (2 Bft) O-NO 67 ° 1 min 0,000 mm 6,6 UV-I 879 W/m² 10,9 °C 15,9 °C 16,1 km/h (3 Bft)
11.05.2018 13:04 16,0 °C 70 % 1015,3 hPa 0,0 mm 10,6 km/h (2 Bft) O-SO 112 ° 1 min 0,000 mm 6,6 UV-I 879 W/m² 10,5 °C 16,0 °C 19,3 km/h (3 Bft)
11.05.2018 13:05 16,1 °C 69 % 1015,2 hPa 0,0 mm 5,7 km/h (1 Bft) NO 41 ° 1 min 0,000 mm 6,6 UV-I 882 W/m² 10,4 °C 16,1 °C 8,0 km/h (2 Bft)
11.05.2018 13:06 16,2 °C 71 % 1015,3 hPa 0,0 mm 6,8 km/h (2 Bft) O-NO 60 ° 1 min 0,000 mm 6,6 UV-I 881 W/m² 10,9 °C 16,2 °C 11,3 km/h (2 Bft)
11.05.2018 13:07 16,2 °C 71 % 1015,3 hPa 0,0 mm 8,7 km/h (2 Bft) O 89 ° 1 min 0,000 mm 6,6 UV-I 881 W/m² 10,9 °C 16,2 °C 16,1 km/h (3 Bft)
11.05.2018 13:08 16,2 °C 70 % 1015,3 hPa 0,0 mm 5,4 km/h (1 Bft) O 82 ° 1 min 0,000 mm 6,7 UV-I 896 W/m² 10,7 °C 16,2 °C 9,7 km/h (2 Bft)
11.05.2018 13:09 16,2 °C 71 % 1015,2 hPa 0,0 mm 6,3 km/h (2 Bft) O-NO 59 ° 1 min 0,000 mm 6,7 UV-I 896 W/m² 10,9 °C 16,2 °C 14,5 km/h (3 Bft)
11.05.2018 13:10 16,3 °C 70 % 1015,3 hPa 0,0 mm 13,9 km/h (3 Bft) N-NO 21 ° 1 min 0,000 mm 6,7 UV-I 884 W/m² 10,8 °C 16,3 °C 19,3 km/h (3 Bft)
11.05.2018 13:11 16,2 °C 69 % 1015,2 hPa 0,0 mm 6,4 km/h (2 Bft) NO 49 ° 1 min 0,000 mm 6,5 UV-I 884 W/m² 10,5 °C 16,2 °C 12,9 km/h (3 Bft)
11.05.2018 13:12 16,2 °C 69 % 1015,3 hPa 0,0 mm 6,3 km/h (2 Bft) NO 42 ° 1 min 0,000 mm 6,5 UV-I 888 W/m² 10,5 °C 16,2 °C 12,9 km/h (3 Bft)
11.05.2018 13:13 16,3 °C 73 % 1015,2 hPa 0,0 mm 7,9 km/h (2 Bft) NO 56 ° 1 min 0,000 mm 6,6 UV-I 884 W/m² 11,4 °C 16,3 °C 16,1 km/h (3 Bft)
11.05.2018 13:14 16,4 °C 69 % 1015,1 hPa 0,0 mm 6,0 km/h (2 Bft) NO 39 ° 1 min 0,000 mm 6,4 UV-I 867 W/m² 10,7 °C 16,4 °C 12,9 km/h (3 Bft)
11.05.2018 13:15 16,6 °C 71 % 1015,2 hPa 0,0 mm 4,5 km/h (1 Bft) O-NO 77 ° 1 min 0,000 mm 6,5 UV-I 872 W/m² 11,3 °C 16,6 °C 8,0 km/h (2 Bft)
11.05.2018 13:16 16,6 °C 68 % 1015,1 hPa 0,0 mm 9,0 km/h (2 Bft) N-NO 13 ° 1 min 0,000 mm 6,5 UV-I 882 W/m² 10,7 °C 16,6 °C 16,1 km/h (3 Bft)
11.05.2018 13:17 16,7 °C 69 % 1015,1 hPa 0,0 mm 7,2 km/h (2 Bft) NO 42 ° 1 min 0,000 mm 6,5 UV-I 879 W/m² 11,0 °C 16,7 °C 12,9 km/h (3 Bft)
11.05.2018 13:18 16,7 °C 69 % 1015,1 hPa 0,0 mm 7,0 km/h (2 Bft) N 355 ° 1 min 0,000 mm 6,6 UV-I 879 W/m² 11,0 °C 16,7 °C 12,9 km/h (3 Bft)
11.05.2018 13:19 16,6 °C 68 % 1015,1 hPa 0,0 mm 9,7 km/h (2 Bft) N-NO 26 ° 1 min 0,000 mm 6,6 UV-I 877 W/m² 10,7 °C 16,6 °C 14,5 km/h (3 Bft)
11.05.2018 13:20 16,6 °C 69 % 1015,2 hPa 0,0 mm 10,2 km/h (2 Bft) N-NO 21 ° 1 min 0,000 mm 6,6 UV-I 879 W/m² 10,9 °C 16,6 °C 14,5 km/h (3 Bft)
11.05.2018 13:21 16,6 °C 69 % 1015,1 hPa 0,0 mm 5,9 km/h (2 Bft) NO 38 ° 1 min 0,000 mm 6,5 UV-I 881 W/m² 10,9 °C 16,6 °C 11,3 km/h (2 Bft)
11.05.2018 13:22 16,7 °C 67 % 1015,1 hPa 0,0 mm 3,6 km/h (1 Bft) NO 36 ° 1 min 0,000 mm 6,6 UV-I 879 W/m² 10,5 °C 16,7 °C 6,4 km/h (2 Bft)
11.05.2018 13:23 16,6 °C 67 % 1015,1 hPa 0,0 mm 5,2 km/h (1 Bft) O-NO 76 ° 1 min 0,000 mm 6,6 UV-I 877 W/m² 10,4 °C 16,6 °C 9,7 km/h (2 Bft)
11.05.2018 13:24 16,7 °C 68 % 1015,1 hPa 0,0 mm 4,5 km/h (1 Bft) O-NO 75 ° 1 min 0,000 mm 6,5 UV-I 877 W/m² 10,8 °C 16,7 °C 6,4 km/h (2 Bft)
11.05.2018 13:25 16,8 °C 69 % 1015,1 hPa 0,0 mm 6,2 km/h (2 Bft) NO 46 ° 1 min 0,000 mm 6,5 UV-I 879 W/m² 11,1 °C 16,8 °C 9,7 km/h (2 Bft)
11.05.2018 13:26 16,8 °C 68 % 1015,1 hPa 0,0 mm 7,4 km/h (2 Bft) O 84 ° 1 min 0,000 mm 6,6 UV-I 882 W/m² 10,9 °C 16,8 °C 12,9 km/h (3 Bft)
11.05.2018 13:27 16,8 °C 68 % 1015,0 hPa 0,0 mm 10,5 km/h (2 Bft) O-NO 61 ° 1 min 0,000 mm 6,6 UV-I 881 W/m² 10,9 °C 16,8 °C 16,1 km/h (3 Bft)
11.05.2018 13:28 16,8 °C 69 % 1015,0 hPa 0,0 mm 14,1 km/h (3 Bft) O 91 ° 1 min 0,000 mm 6,6 UV-I 879 W/m² 11,1 °C 16,8 °C 22,5 km/h (4 Bft)
11.05.2018 13:29 16,7 °C 68 % 1015,1 hPa 0,0 mm 9,7 km/h (2 Bft) NO 54 ° 1 min 0,000 mm 6,5 UV-I 879 W/m² 10,8 °C 16,7 °C 14,5 km/h (3 Bft)
11.05.2018 13:30 16,6 °C 69 % 1015,1 hPa 0,0 mm 8,4 km/h (2 Bft) W 280 ° 1 min 0,000 mm 6,5 UV-I 875 W/m² 10,9 °C 16,6 °C 16,1 km/h (3 Bft)
11.05.2018 13:31 16,6 °C 71 % 1015,0 hPa 0,0 mm 8,5 km/h (2 Bft) N-NO 16 ° 1 min 0,000 mm 6,5 UV-I 877 W/m² 11,3 °C 16,6 °C 12,9 km/h (3 Bft)
11.05.2018 13:32 16,7 °C 70 % 1015,0 hPa 0,0 mm 5,8 km/h (2 Bft) N-NW 333 ° 1 min 0,000 mm 6,5 UV-I 877 W/m² 11,2 °C 16,7 °C 8,0 km/h (2 Bft)
11.05.2018 13:33 16,7 °C 69 % 1015,0 hPa 0,0 mm 7,1 km/h (2 Bft) NO 36 ° 1 min 0,000 mm 6,5 UV-I 881 W/m² 11,0 °C 16,7 °C 16,1 km/h (3 Bft)
11.05.2018 13:34 16,8 °C 69 % 1015,0 hPa 0,0 mm 10,1 km/h (2 Bft) O-NO 64 ° 1 min 0,000 mm 6,4 UV-I 874 W/m² 11,1 °C 16,8 °C 17,7 km/h (3 Bft)
11.05.2018 13:35 16,8 °C 68 % 1015,1 hPa 0,0 mm 14,1 km/h (3 Bft) O 86 ° 1 min 0,000 mm 6,5 UV-I 882 W/m² 10,9 °C 16,8 °C 19,3 km/h (3 Bft)
11.05.2018 13:36 16,7 °C 67 % 1015,0 hPa 0,0 mm 8,0 km/h (2 Bft) O-NO 78 ° 1 min 0,000 mm 6,5 UV-I 879 W/m² 10,5 °C 16,7 °C 17,7 km/h (3 Bft)
11.05.2018 13:37 16,7 °C 69 % 1015,0 hPa 0,0 mm 8,8 km/h (2 Bft) O-NO 70 ° 1 min 0,000 mm 6,5 UV-I 874 W/m² 11,0 °C 16,7 °C 16,1 km/h (3 Bft)
11.05.2018 13:38 16,8 °C 68 % 1015,0 hPa 0,0 mm 7,5 km/h (2 Bft) O-NO 69 ° 1 min 0,000 mm 6,5 UV-I 875 W/m² 10,9 °C 16,8 °C 11,3 km/h (2 Bft)
11.05.2018 13:39 16,8 °C 69 % 1015,0 hPa 0,0 mm 15,4 km/h (3 Bft) O-SO 112 ° 1 min 0,000 mm 6,5 UV-I 870 W/m² 11,1 °C 16,8 °C 22,5 km/h (4 Bft)
11.05.2018 13:40 16,7 °C 69 % 1015,0 hPa 0,0 mm 7,1 km/h (2 Bft) O-SO 105 ° 1 min 0,000 mm 6,4 UV-I 882 W/m² 11,0 °C 16,7 °C 12,9 km/h (3 Bft)
11.05.2018 13:41 16,8 °C 70 % 1015,0 hPa 0,0 mm 11,6 km/h (2 Bft) O-NO 61 ° 1 min 0,000 mm 6,3 UV-I 867 W/m² 11,3 °C 16,8 °C 14,5 km/h (3 Bft)
11.05.2018 13:42 16,8 °C 68 % 1015,0 hPa 0,0 mm 7,5 km/h (2 Bft) N-NO 13 ° 1 min 0,000 mm 6,4 UV-I 870 W/m² 10,9 °C 16,8 °C 14,5 km/h (3 Bft)
11.05.2018 13:43 16,9 °C 69 % 1015,0 hPa 0,0 mm 4,6 km/h (1 Bft) O-NO 69 ° 1 min 0,000 mm 6,4 UV-I 868 W/m² 11,2 °C 16,9 °C 6,4 km/h (2 Bft)
11.05.2018 13:44 17,1 °C 69 % 1015,0 hPa 0,0 mm 7,2 km/h (2 Bft) NO 46 ° 1 min 0,000 mm 6,4 UV-I 867 W/m² 11,4 °C 17,1 °C 12,9 km/h (3 Bft)
11.05.2018 13:45 17,1 °C 67 % 1015,0 hPa 0,0 mm 10,7 km/h (2 Bft) NO 50 ° 1 min 0,000 mm 6,4 UV-I 870 W/m² 10,9 °C 17,1 °C 16,1 km/h (3 Bft)
11.05.2018 13:46 17,1 °C 66 % 1015,1 hPa 0,0 mm 7,8 km/h (2 Bft) NO 53 ° 1 min 0,000 mm 6,4 UV-I 870 W/m² 10,7 °C 17,1 °C 9,7 km/h (2 Bft)
11.05.2018 13:47 16,9 °C 66 % 1015,0 hPa 0,0 mm 4,1 km/h (1 Bft) O-NO 61 ° 1 min 0,000 mm 6,5 UV-I 875 W/m² 10,5 °C 16,9 °C 8,0 km/h (2 Bft)
11.05.2018 13:48 16,8 °C 67 % 1015,0 hPa 0,0 mm 4,1 km/h (1 Bft) N 360 ° 1 min 0,000 mm 6,4 UV-I 872 W/m² 10,6 °C 16,8 °C 8,0 km/h (2 Bft)
11.05.2018 13:49 17,0 °C 69 % 1015,0 hPa 0,0 mm 3,8 km/h (1 Bft) N-NO 22 ° 1 min 0,000 mm 6,4 UV-I 870 W/m² 11,3 °C 17,0 °C 8,0 km/h (2 Bft)
11.05.2018 13:50 17,0 °C 68 % 1015,0 hPa 0,0 mm 5,7 km/h (1 Bft) O-NO 69 ° 1 min 0,000 mm 6,4 UV-I 874 W/m² 11,0 °C 17,0 °C 17,7 km/h (3 Bft)
11.05.2018 13:51 17,1 °C 67 % 1015,0 hPa 0,0 mm 8,4 km/h (2 Bft) NO 48 ° 1 min 0,000 mm 6,3 UV-I 777 W/m² 10,9 °C 17,1 °C 14,5 km/h (3 Bft)
11.05.2018 13:52 17,0 °C 67 % 1015,1 hPa 0,0 mm 4,5 km/h (1 Bft) NO 49 ° 1 min 0,000 mm 6,4 UV-I 777 W/m² 10,8 °C 17,0 °C 9,7 km/h (2 Bft)
11.05.2018 13:53 17,0 °C 67 % 1014,9 hPa 0,0 mm 9,5 km/h (2 Bft) NO 36 ° 1 min 0,000 mm 6,4 UV-I 777 W/m² 10,8 °C 17,0 °C 14,5 km/h (3 Bft)
11.05.2018 13:54 17,0 °C 68 % 1014,9 hPa 0,0 mm 3,4 km/h (1 Bft) O-NO 78 ° 1 min 0,000 mm 5,5 UV-I 777 W/m² 11,0 °C 17,0 °C 6,4 km/h (2 Bft)
11.05.2018 13:55 17,0 °C 68 % 1014,9 hPa 0,0 mm 10,9 km/h (2 Bft) O 85 ° 1 min 0,000 mm 6,5 UV-I 889 W/m² 11,0 °C 17,0 °C 20,9 km/h (4 Bft)
11.05.2018 13:56 17,1 °C 71 % 1014,9 hPa 0,0 mm 7,4 km/h (2 Bft) N-NO 14 ° 1 min 0,000 mm 6,5 UV-I 895 W/m² 11,8 °C 17,1 °C 14,5 km/h (3 Bft)
11.05.2018 13:57 17,1 °C 68 % 1014,9 hPa 0,0 mm 12,0 km/h (2 Bft) O-NO 59 ° 1 min 0,000 mm 6,4 UV-I 896 W/m² 11,1 °C 17,1 °C 19,3 km/h (3 Bft)
11.05.2018 13:58 17,2 °C 68 % 1014,9 hPa 0,0 mm 14,4 km/h (3 Bft) O 88 ° 1 min 0,000 mm 6,5 UV-I 893 W/m² 11,2 °C 17,2 °C 20,9 km/h (4 Bft)
11.05.2018 13:59 17,2 °C 69 % 1014,9 hPa 0,0 mm 7,1 km/h (2 Bft) NO 53 ° 1 min 0,000 mm 6,3 UV-I 877 W/m² 11,5 °C 17,2 °C 12,9 km/h (3 Bft)
11.05.2018 14:00 17,2 °C 69 % 1014,9 hPa 0,0 mm 5,8 km/h (2 Bft) N-NW 346 ° 1 min 0,000 mm 6,4 UV-I 877 W/m² 11,5 °C 17,2 °C 12,9 km/h (3 Bft)
11.05.2018 14:01 17,3 °C 70 % 1014,8 hPa 0,0 mm 3,6 km/h (1 Bft) NO 54 ° 1 min 0,508 mm 6,4 UV-I 881 W/m² 11,8 °C 17,3 °C 6,4 km/h (2 Bft)
11.05.2018 14:02 17,4 °C 69 % 1014,8 hPa 0,0 mm 8,5 km/h (2 Bft) O 90 ° 1 min 0,000 mm 6,4 UV-I 889 W/m² 11,7 °C 17,4 °C 14,5 km/h (3 Bft)
11.05.2018 14:03 17,4 °C 66 % 1014,8 hPa 0,0 mm 6,4 km/h (2 Bft) O 92 ° 1 min 0,000 mm 6,3 UV-I 889 W/m² 11,0 °C 17,4 °C 16,1 km/h (3 Bft)
11.05.2018 14:04 17,3 °C 66 % 1014,8 hPa 0,0 mm 6,6 km/h (2 Bft) O-NO 62 ° 1 min 0,000 mm 6,2 UV-I 823 W/m² 10,9 °C 17,3 °C 9,7 km/h (2 Bft)
11.05.2018 14:05 17,2 °C 68 % 1014,8 hPa 0,0 mm 7,1 km/h (2 Bft) O-SO 105 ° 1 min 0,000 mm 6,3 UV-I 867 W/m² 11,2 °C 17,2 °C 11,3 km/h (2 Bft)
11.05.2018 14:06 17,2 °C 68 % 1014,8 hPa 0,0 mm 5,8 km/h (2 Bft) N-NW 329 ° 1 min 0,000 mm 6,4 UV-I 875 W/m² 11,2 °C 17,2 °C 12,9 km/h (3 Bft)
11.05.2018 14:07 17,3 °C 68 % 1014,8 hPa 0,0 mm 6,1 km/h (2 Bft) N-NO 23 ° 1 min 0,000 mm 6,4 UV-I 879 W/m² 11,3 °C 17,3 °C 9,7 km/h (2 Bft)
11.05.2018 14:08 17,4 °C 68 % 1014,8 hPa 0,0 mm 9,7 km/h (2 Bft) NO 46 ° 1 min 0,000 mm 6,2 UV-I 874 W/m² 11,4 °C 17,4 °C 19,3 km/h (3 Bft)
11.05.2018 14:09 17,5 °C 66 % 1014,9 hPa 0,0 mm 8,9 km/h (2 Bft) N-NO 28 ° 1 min 0,000 mm 6,3 UV-I 879 W/m² 11,1 °C 17,5 °C 17,7 km/h (3 Bft)
11.05.2018 14:10 17,6 °C 69 % 1014,8 hPa 0,0 mm 4,0 km/h (1 Bft) O-NO 69 ° 1 min 0,000 mm 6,3 UV-I 868 W/m² 11,8 °C 17,6 °C 8,0 km/h (2 Bft)
11.05.2018 14:11 17,5 °C 66 % 1014,8 hPa 0,0 mm 4,3 km/h (1 Bft) N-NO 31 ° 1 min 0,000 mm 6,2 UV-I 860 W/m² 11,1 °C 17,5 °C 9,7 km/h (2 Bft)
11.05.2018 14:12 17,6 °C 66 % 1014,8 hPa 0,0 mm 8,0 km/h (2 Bft) O 79 ° 1 min 0,000 mm 6,3 UV-I 872 W/m² 11,2 °C 17,6 °C 12,9 km/h (3 Bft)
11.05.2018 14:13 17,5 °C 65 % 1014,8 hPa 0,0 mm 8,0 km/h (2 Bft) O-NO 57 ° 1 min 0,000 mm 6,2 UV-I 870 W/m² 10,8 °C 17,5 °C 12,9 km/h (3 Bft)
11.05.2018 14:14 17,4 °C 66 % 1014,8 hPa 0,0 mm 4,6 km/h (1 Bft) W-NW 303 ° 1 min 0,000 mm 6,2 UV-I 851 W/m² 11,0 °C 17,4 °C 14,5 km/h (3 Bft)
11.05.2018 14:15 17,4 °C 67 % 1014,8 hPa 0,0 mm 7,5 km/h (2 Bft) O 86 ° 1 min 0,000 mm 6,1 UV-I 853 W/m² 11,2 °C 17,4 °C 14,5 km/h (3 Bft)
11.05.2018 14:16 17,4 °C 67 % 1014,7 hPa 0,0 mm 15,4 km/h (3 Bft) NO 55 ° 1 min 0,000 mm 6,3 UV-I 860 W/m² 11,2 °C 17,4 °C 17,7 km/h (3 Bft)
11.05.2018 14:17 17,5 °C 68 % 1014,8 hPa 0,0 mm 6,0 km/h (2 Bft) NO 55 ° 1 min 0,000 mm 6,3 UV-I 858 W/m² 11,5 °C 17,5 °C 11,3 km/h (2 Bft)
11.05.2018 14:18 17,6 °C 68 % 1014,7 hPa 0,0 mm 7,5 km/h (2 Bft) NO 34 ° 1 min 0,000 mm 6,2 UV-I 858 W/m² 11,6 °C 17,6 °C 12,9 km/h (3 Bft)
11.05.2018 14:19 17,6 °C 66 % 1014,7 hPa 0,0 mm 7,7 km/h (2 Bft) O 82 ° 1 min 0,000 mm 6,2 UV-I 854 W/m² 11,2 °C 17,6 °C 11,3 km/h (2 Bft)
11.05.2018 14:20 17,6 °C 67 % 1014,8 hPa 0,0 mm 4,8 km/h (1 Bft) O-SO 105 ° 1 min 0,000 mm 6,0 UV-I 835 W/m² 11,4 °C 17,6 °C 8,0 km/h (2 Bft)
11.05.2018 14:21 17,6 °C 66 % 1014,7 hPa 0,0 mm 5,3 km/h (1 Bft) N-NW 328 ° 1 min 0,000 mm 6,1 UV-I 858 W/m² 11,2 °C 17,6 °C 8,0 km/h (2 Bft)
11.05.2018 14:22 17,7 °C 69 % 1014,7 hPa 0,0 mm 4,3 km/h (1 Bft) N-NW 327 ° 1 min 0,000 mm 6,1 UV-I 879 W/m² 11,9 °C 17,7 °C 8,0 km/h (2 Bft)
11.05.2018 14:23 17,8 °C 68 % 1014,8 hPa 0,0 mm 1,7 km/h (1 Bft) N-NW 327 ° 1 min 0,000 mm 4,2 UV-I 879 W/m² 11,8 °C 17,8 °C 3,2 km/h (1 Bft)
11.05.2018 14:24 17,9 °C 66 % 1014,7 hPa 0,0 mm 5,0 km/h (1 Bft) NW 323 ° 1 min 0,000 mm 3,7 UV-I 378 W/m² 11,5 °C 17,9 °C 9,7 km/h (2 Bft)
11.05.2018 14:25 17,8 °C 66 % 1014,7 hPa 0,0 mm 9,2 km/h (2 Bft) N 349 ° 1 min 0,000 mm 3,5 UV-I 378 W/m² 11,4 °C 17,8 °C 16,1 km/h (3 Bft)
11.05.2018 14:26 17,7 °C 66 % 1014,7 hPa 0,0 mm 9,0 km/h (2 Bft) N 360 ° 1 min 0,000 mm 6,3 UV-I 891 W/m² 11,3 °C 17,7 °C 12,9 km/h (3 Bft)
11.05.2018 14:27 17,8 °C 67 % 1014,8 hPa 0,0 mm 7,9 km/h (2 Bft) NO 34 ° 1 min 0,000 mm 6,1 UV-I 867 W/m² 11,6 °C 17,8 °C 12,9 km/h (3 Bft)
11.05.2018 14:28 17,8 °C 66 % 1014,8 hPa 0,0 mm 8,6 km/h (2 Bft) N-NO 17 ° 1 min 0,000 mm 6,1 UV-I 861 W/m² 11,4 °C 17,8 °C 11,3 km/h (2 Bft)
11.05.2018 14:29 17,8 °C 67 % 1014,8 hPa 0,0 mm 6,6 km/h (2 Bft) NO 36 ° 1 min 0,000 mm 6,1 UV-I 860 W/m² 11,6 °C 17,8 °C 11,3 km/h (2 Bft)
11.05.2018 14:30 17,9 °C 68 % 1014,8 hPa 0,0 mm 9,0 km/h (2 Bft) O 88 ° 1 min 0,000 mm 6,1 UV-I 856 W/m² 11,9 °C 17,9 °C 16,1 km/h (3 Bft)
11.05.2018 14:31 17,9 °C 65 % 1014,8 hPa 0,0 mm 8,8 km/h (2 Bft) O 84 ° 1 min 0,000 mm 6,0 UV-I 847 W/m² 11,2 °C 17,9 °C 14,5 km/h (3 Bft)
11.05.2018 14:32 17,9 °C 66 % 1014,7 hPa 0,0 mm 9,3 km/h (2 Bft) O-NO 67 ° 1 min 0,000 mm 6,0 UV-I 863 W/m² 11,5 °C 17,9 °C 11,3 km/h (2 Bft)
11.05.2018 14:33 17,8 °C 64 % 1014,8 hPa 0,0 mm 5,8 km/h (2 Bft) O 96 ° 1 min 0,000 mm 5,9 UV-I 863 W/m² 10,9 °C 17,8 °C 11,3 km/h (2 Bft)
11.05.2018 14:34 17,7 °C 65 % 1014,7 hPa 0,0 mm 6,8 km/h (2 Bft) O-SO 109 ° 1 min 0,000 mm 6,0 UV-I 854 W/m² 11,0 °C 17,7 °C 11,3 km/h (2 Bft)
11.05.2018 14:35 17,7 °C 66 % 1014,7 hPa 0,0 mm 4,0 km/h (1 Bft) N-NO 26 ° 1 min 0,000 mm 6,0 UV-I 870 W/m² 11,3 °C 17,7 °C 6,4 km/h (2 Bft)
11.05.2018 14:36 17,7 °C 66 % 1014,7 hPa 0,0 mm 5,9 km/h (2 Bft) N-NO 16 ° 1 min 0,000 mm 6,0 UV-I 877 W/m² 11,3 °C 17,7 °C 12,9 km/h (3 Bft)
11.05.2018 14:37 17,8 °C 66 % 1014,6 hPa 0,0 mm 9,0 km/h (2 Bft) NO 40 ° 1 min 0,000 mm 6,0 UV-I 838 W/m² 11,4 °C 17,8 °C 16,1 km/h (3 Bft)
11.05.2018 14:38 17,8 °C 65 % 1014,7 hPa 0,0 mm 8,0 km/h (2 Bft) N-NW 342 ° 1 min 0,000 mm 6,0 UV-I 837 W/m² 11,1 °C 17,8 °C 12,9 km/h (3 Bft)
11.05.2018 14:39 17,9 °C 66 % 1014,7 hPa 0,0 mm 5,8 km/h (2 Bft) N 355 ° 1 min 0,000 mm 5,9 UV-I 833 W/m² 11,5 °C 17,9 °C 8,0 km/h (2 Bft)
11.05.2018 14:40 18,1 °C 67 % 1014,6 hPa 0,0 mm 4,6 km/h (1 Bft) NO 40 ° 1 min 0,000 mm 5,9 UV-I 830 W/m² 11,9 °C 18,1 °C 8,0 km/h (2 Bft)
11.05.2018 14:41 18,2 °C 65 % 1014,7 hPa 0,0 mm 6,0 km/h (2 Bft) O-NO 65 ° 1 min 0,000 mm 5,8 UV-I 823 W/m² 11,5 °C 18,2 °C 11,3 km/h (2 Bft)
11.05.2018 14:42 18,1 °C 65 % 1014,7 hPa 0,0 mm 7,0 km/h (2 Bft) O-NO 61 ° 1 min 0,000 mm 5,9 UV-I 830 W/m² 11,4 °C 18,1 °C 9,7 km/h (2 Bft)
11.05.2018 14:43 18,1 °C 65 % 1014,6 hPa 0,0 mm 3,0 km/h (1 Bft) NO 34 ° 1 min 0,000 mm 5,8 UV-I 824 W/m² 11,4 °C 18,1 °C 8,0 km/h (2 Bft)
11.05.2018 14:44 18,1 °C 66 % 1014,6 hPa 0,0 mm 6,0 km/h (2 Bft) N-NO 29 ° 1 min 0,000 mm 5,8 UV-I 819 W/m² 11,6 °C 18,1 °C 12,9 km/h (3 Bft)
11.05.2018 14:45 18,2 °C 68 % 1014,6 hPa 0,0 mm 8,0 km/h (2 Bft) N-NO 29 ° 1 min 0,000 mm 5,7 UV-I 814 W/m² 12,2 °C 18,2 °C 16,1 km/h (3 Bft)
11.05.2018 14:46 18,2 °C 65 % 1014,7 hPa 0,0 mm 7,1 km/h (2 Bft) NO 46 ° 1 min 0,000 mm 5,7 UV-I 817 W/m² 11,5 °C 18,2 °C 14,5 km/h (3 Bft)
11.05.2018 14:47 18,1 °C 63 % 1014,7 hPa 0,0 mm 9,3 km/h (2 Bft) N 5 ° 1 min 0,000 mm 5,9 UV-I 840 W/m² 10,9 °C 18,1 °C 14,5 km/h (3 Bft)
11.05.2018 14:48 18,2 °C 64 % 1014,6 hPa 0,0 mm 7,0 km/h (2 Bft) N 9 ° 1 min 0,000 mm 5,9 UV-I 847 W/m² 11,3 °C 18,2 °C 9,7 km/h (2 Bft)
11.05.2018 14:49 18,2 °C 67 % 1014,5 hPa 0,0 mm 6,7 km/h (2 Bft) O 82 ° 1 min 0,000 mm 5,9 UV-I 844 W/m² 12,0 °C 18,2 °C 12,9 km/h (3 Bft)
11.05.2018 14:50 18,1 °C 64 % 1014,6 hPa 0,0 mm 3,6 km/h (1 Bft) N-NO 26 ° 1 min 0,000 mm 5,8 UV-I 842 W/m² 11,2 °C 18,1 °C 4,8 km/h (1 Bft)
11.05.2018 14:51 18,2 °C 65 % 1014,5 hPa 0,0 mm 4,8 km/h (1 Bft) NO 55 ° 1 min 0,000 mm 5,8 UV-I 835 W/m² 11,5 °C 18,2 °C 8,0 km/h (2 Bft)
11.05.2018 14:52 18,3 °C 65 % 1014,5 hPa 0,0 mm 7,6 km/h (2 Bft) O 83 ° 1 min 0,000 mm 5,7 UV-I 828 W/m² 11,6 °C 18,3 °C 14,5 km/h (3 Bft)
11.05.2018 14:53 18,2 °C 65 % 1014,6 hPa 0,0 mm 4,7 km/h (1 Bft) N-NO 28 ° 1 min 0,000 mm 5,7 UV-I 821 W/m² 11,5 °C 18,2 °C 11,3 km/h (2 Bft)
11.05.2018 14:54 18,3 °C 65 % 1014,6 hPa 0,0 mm 5,7 km/h (1 Bft) O 84 ° 1 min 0,000 mm 5,7 UV-I 817 W/m² 11,6 °C 18,3 °C 11,3 km/h (2 Bft)
11.05.2018 14:55 18,3 °C 67 % 1014,6 hPa 0,0 mm 6,7 km/h (2 Bft) O 86 ° 1 min 0,000 mm 5,7 UV-I 812 W/m² 12,1 °C 18,3 °C 12,9 km/h (3 Bft)
11.05.2018 14:56 18,3 °C 65 % 1014,5 hPa 0,0 mm 8,7 km/h (2 Bft) SO 126 ° 1 min 0,000 mm 5,7 UV-I 814 W/m² 11,6 °C 18,3 °C 12,9 km/h (3 Bft)
11.05.2018 14:57 18,2 °C 63 % 1014,5 hPa 0,0 mm 5,8 km/h (2 Bft) N 350 ° 1 min 0,000 mm 5,6 UV-I 809 W/m² 11,0 °C 18,2 °C 9,7 km/h (2 Bft)
11.05.2018 14:58 18,2 °C 66 % 1014,5 hPa 0,0 mm 11,5 km/h (2 Bft) N 350 ° 1 min 0,000 mm 5,6 UV-I 807 W/m² 11,7 °C 18,2 °C 16,1 km/h (3 Bft)
11.05.2018 14:59 18,2 °C 65 % 1014,5 hPa 0,0 mm 7,1 km/h (2 Bft) N-NW 343 ° 1 min 0,000 mm 5,6 UV-I 807 W/m² 11,5 °C 18,2 °C 9,7 km/h (2 Bft)
11.05.2018 15:00 18,3 °C 65 % 1014,5 hPa 0,0 mm 6,1 km/h (2 Bft) N 11 ° 1 min 0,000 mm 5,6 UV-I 807 W/m² 11,6 °C 18,3 °C 14,5 km/h (3 Bft)
11.05.2018 15:01 18,3 °C 65 % 1014,4 hPa 0,0 mm 11,8 km/h (2 Bft) NW 324 ° 1 min 0,483 mm 5,6 UV-I 805 W/m² 11,6 °C 18,3 °C 16,1 km/h (3 Bft)
11.05.2018 15:02 18,4 °C 64 % 1014,4 hPa 0,0 mm 13,8 km/h (3 Bft) N-NW 341 ° 1 min 0,000 mm 5,6 UV-I 805 W/m² 11,5 °C 18,4 °C 17,7 km/h (3 Bft)
11.05.2018 15:03 18,4 °C 65 % 1014,4 hPa 0,0 mm 7,4 km/h (2 Bft) N 9 ° 1 min 0,000 mm 5,5 UV-I 802 W/m² 11,7 °C 18,4 °C 9,7 km/h (2 Bft)
11.05.2018 15:04 18,6 °C 66 % 1014,5 hPa 0,0 mm 6,6 km/h (2 Bft) N-NW 332 ° 1 min 0,000 mm 5,5 UV-I 802 W/m² 12,1 °C 18,6 °C 14,5 km/h (3 Bft)
11.05.2018 15:05 18,6 °C 64 % 1014,4 hPa 0,0 mm 6,5 km/h (2 Bft) O-NO 60 ° 1 min 0,000 mm 5,5 UV-I 800 W/m² 11,7 °C 18,6 °C 11,3 km/h (2 Bft)
11.05.2018 15:06 18,7 °C 65 % 1014,4 hPa 0,0 mm 9,5 km/h (2 Bft) NO 46 ° 1 min 0,000 mm 5,5 UV-I 802 W/m² 12,0 °C 18,7 °C 16,1 km/h (3 Bft)
11.05.2018 15:07 18,8 °C 64 % 1014,4 hPa 0,0 mm 8,4 km/h (2 Bft) N-NO 27 ° 1 min 0,000 mm 5,5 UV-I 791 W/m² 11,8 °C 18,8 °C 14,5 km/h (3 Bft)
11.05.2018 15:08 18,7 °C 62 % 1014,5 hPa 0,0 mm 10,7 km/h (2 Bft) N-NO 13 ° 1 min 0,000 mm 5,4 UV-I 793 W/m² 11,3 °C 18,7 °C 16,1 km/h (3 Bft)
11.05.2018 15:09 18,7 °C 62 % 1014,4 hPa 0,0 mm 11,6 km/h (2 Bft) N 360 ° 1 min 0,000 mm 5,5 UV-I 795 W/m² 11,3 °C 18,7 °C 16,1 km/h (3 Bft)
11.05.2018 15:10 18,6 °C 63 % 1014,4 hPa 0,0 mm 6,2 km/h (2 Bft) N-NO 33 ° 1 min 0,000 mm 5,4 UV-I 795 W/m² 11,4 °C 18,6 °C 11,3 km/h (2 Bft)
11.05.2018 15:11 18,6 °C 63 % 1014,4 hPa 0,0 mm 7,4 km/h (2 Bft) N 9 ° 1 min 0,000 mm 5,4 UV-I 789 W/m² 11,4 °C 18,6 °C 12,9 km/h (3 Bft)
11.05.2018 15:12 18,7 °C 64 % 1014,3 hPa 0,0 mm 7,0 km/h (2 Bft) N-NW 348 ° 1 min 0,000 mm 5,3 UV-I 788 W/m² 11,7 °C 18,7 °C 11,3 km/h (2 Bft)
11.05.2018 15:13 18,9 °C 63 % 1014,4 hPa 0,0 mm 3,0 km/h (1 Bft) NO 48 ° 1 min 0,000 mm 5,3 UV-I 788 W/m² 11,7 °C 18,9 °C 6,4 km/h (2 Bft)
11.05.2018 15:14 18,9 °C 64 % 1014,4 hPa 0,0 mm 4,9 km/h (1 Bft) O-NO 67 ° 1 min 0,000 mm 5,3 UV-I 789 W/m² 11,9 °C 18,9 °C 8,0 km/h (2 Bft)
11.05.2018 15:15 18,9 °C 63 % 1014,3 hPa 0,0 mm 5,8 km/h (2 Bft) N 9 ° 1 min 0,000 mm 5,4 UV-I 810 W/m² 11,7 °C 18,9 °C 9,7 km/h (2 Bft)
11.05.2018 15:16 19,0 °C 64 % 1014,3 hPa 0,0 mm 5,3 km/h (1 Bft) N 360 ° 1 min 0,000 mm 5,3 UV-I 810 W/m² 12,0 °C 19,0 °C 8,0 km/h (2 Bft)
11.05.2018 15:17 19,1 °C 62 % 1014,3 hPa 0,0 mm 8,0 km/h (2 Bft) N 360 ° 1 min 0,000 mm 5,3 UV-I 810 W/m² 11,6 °C 19,1 °C 12,9 km/h (3 Bft)
11.05.2018 15:18 19,0 °C 64 % 1014,3 hPa 0,0 mm 5,3 km/h (1 Bft) N-NO 13 ° 1 min 0,000 mm 4,5 UV-I 810 W/m² 12,0 °C 19,0 °C 9,7 km/h (2 Bft)
11.05.2018 15:19 19,0 °C 63 % 1014,3 hPa 0,0 mm 7,9 km/h (2 Bft) O 101 ° 1 min 0,000 mm 4,9 UV-I 631 W/m² 11,8 °C 19,0 °C 12,9 km/h (3 Bft)
11.05.2018 15:20 18,9 °C 64 % 1014,3 hPa 0,0 mm 3,8 km/h (1 Bft) NO 38 ° 1 min 0,000 mm 5,3 UV-I 809 W/m² 11,9 °C 18,9 °C 11,3 km/h (2 Bft)
11.05.2018 15:21 18,8 °C 63 % 1014,3 hPa 0,0 mm 10,5 km/h (2 Bft) N-NO 26 ° 1 min 0,000 mm 3,5 UV-I 809 W/m² 11,6 °C 18,8 °C 14,5 km/h (3 Bft)
11.05.2018 15:22 18,7 °C 61 % 1014,4 hPa 0,0 mm 4,8 km/h (1 Bft) N-NO 29 ° 1 min 0,000 mm 2,6 UV-I 809 W/m² 11,0 °C 18,7 °C 9,7 km/h (2 Bft)
11.05.2018 15:23 18,6 °C 61 % 1014,4 hPa 0,0 mm 8,0 km/h (2 Bft) N 5 ° 0 min 0,000 mm 2,8 UV-I 156 W/m² 10,9 °C 18,6 °C 14,5 km/h (3 Bft)
11.05.2018 15:24 18,4 °C 62 % 1014,3 hPa 0,0 mm 4,8 km/h (1 Bft) N-NO 33 ° 0 min 0,000 mm 5,0 UV-I 156 W/m² 11,0 °C 18,4 °C 9,7 km/h (2 Bft)
11.05.2018 15:25 18,4 °C 63 % 1014,3 hPa 0,0 mm 9,7 km/h (2 Bft) O-NO 77 ° 1 min 0,000 mm 5,1 UV-I 775 W/m² 11,2 °C 18,4 °C 16,1 km/h (3 Bft)
11.05.2018 15:26 18,4 °C 63 % 1014,3 hPa 0,0 mm 5,3 km/h (1 Bft) N-NO 14 ° 1 min 0,000 mm 5,1 UV-I 766 W/m² 11,2 °C 18,4 °C 8,0 km/h (2 Bft)
11.05.2018 15:27 18,5 °C 64 % 1014,3 hPa 0,0 mm 3,0 km/h (1 Bft) N-NO 12 ° 1 min 0,000 mm 5,0 UV-I 763 W/m² 11,6 °C 18,5 °C 6,4 km/h (2 Bft)
11.05.2018 15:28 18,7 °C 65 % 1014,3 hPa 0,0 mm 5,2 km/h (1 Bft) N 350 ° 1 min 0,000 mm 5,0 UV-I 759 W/m² 12,0 °C 18,7 °C 6,4 km/h (2 Bft)
11.05.2018 15:29 18,8 °C 63 % 1014,3 hPa 0,0 mm 3,5 km/h (1 Bft) NO 43 ° 1 min 0,000 mm 4,0 UV-I 756 W/m² 11,6 °C 18,8 °C 4,8 km/h (1 Bft)
11.05.2018 15:30 18,8 °C 63 % 1014,3 hPa 0,0 mm 6,3 km/h (2 Bft) N-NO 15 ° 1 min 0,000 mm 3,5 UV-I 615 W/m² 11,6 °C 18,8 °C 12,9 km/h (3 Bft)
11.05.2018 15:31 18,7 °C 63 % 1014,3 hPa 0,0 mm 6,4 km/h (2 Bft) N-NO 19 ° 1 min 0,000 mm 5,0 UV-I 615 W/m² 11,5 °C 18,7 °C 11,3 km/h (2 Bft)
11.05.2018 15:32 18,8 °C 65 % 1014,3 hPa 0,0 mm 3,0 km/h (1 Bft) N 360 ° 1 min 0,000 mm 5,0 UV-I 761 W/m² 12,1 °C 18,8 °C 6,4 km/h (2 Bft)
11.05.2018 15:33 18,8 °C 64 % 1014,2 hPa 0,0 mm 3,1 km/h (1 Bft) N 10 ° 1 min 0,000 mm 4,9 UV-I 761 W/m² 11,8 °C 18,8 °C 4,8 km/h (1 Bft)
11.05.2018 15:34 18,7 °C 65 % 1014,3 hPa 0,0 mm 5,2 km/h (1 Bft) N 355 ° 1 min 0,000 mm 4,9 UV-I 758 W/m² 12,0 °C 18,7 °C 8,0 km/h (2 Bft)
11.05.2018 15:35 18,8 °C 64 % 1014,2 hPa 0,0 mm 4,3 km/h (1 Bft) N-NO 23 ° 1 min 0,000 mm 4,9 UV-I 759 W/m² 11,8 °C 18,8 °C 6,4 km/h (2 Bft)
11.05.2018 15:36 18,8 °C 63 % 1014,2 hPa 0,0 mm 5,8 km/h (2 Bft) O 79 ° 1 min 0,000 mm 4,9 UV-I 756 W/m² 11,6 °C 18,8 °C 12,9 km/h (3 Bft)
11.05.2018 15:37 18,9 °C 63 % 1014,3 hPa 0,0 mm 7,2 km/h (2 Bft) O 79 ° 1 min 0,000 mm 4,7 UV-I 733 W/m² 11,7 °C 18,9 °C 12,9 km/h (3 Bft)
11.05.2018 15:38 18,8 °C 62 % 1014,2 hPa 0,0 mm 7,3 km/h (2 Bft) O 88 ° 1 min 0,000 mm 4,7 UV-I 735 W/m² 11,4 °C 18,8 °C 11,3 km/h (2 Bft)
11.05.2018 15:39 18,8 °C 63 % 1014,2 hPa 0,0 mm 5,6 km/h (1 Bft) O-NO 74 ° 1 min 0,000 mm 4,8 UV-I 738 W/m² 11,6 °C 18,8 °C 11,3 km/h (2 Bft)
11.05.2018 15:40 18,8 °C 62 % 1014,2 hPa 0,0 mm 8,1 km/h (2 Bft) O 89 ° 1 min 0,000 mm 4,8 UV-I 744 W/m² 11,4 °C 18,8 °C 11,3 km/h (2 Bft)
11.05.2018 15:41 18,8 °C 63 % 1014,2 hPa 0,0 mm 6,1 km/h (2 Bft) O-NO 67 ° 1 min 0,000 mm 4,8 UV-I 745 W/m² 11,6 °C 18,8 °C 8,0 km/h (2 Bft)
11.05.2018 15:42 18,7 °C 61 % 1014,2 hPa 0,0 mm 4,2 km/h (1 Bft) O-NO 57 ° 1 min 0,000 mm 4,8 UV-I 744 W/m² 11,0 °C 18,7 °C 8,0 km/h (2 Bft)
11.05.2018 15:43 18,6 °C 64 % 1014,2 hPa 0,0 mm 4,2 km/h (1 Bft) NO 46 ° 1 min 0,000 mm 4,6 UV-I 752 W/m² 11,7 °C 18,6 °C 6,4 km/h (2 Bft)
11.05.2018 15:44 18,6 °C 64 % 1014,2 hPa 0,0 mm 3,6 km/h (1 Bft) NO 34 ° 1 min 0,000 mm 3,1 UV-I 752 W/m² 11,7 °C 18,6 °C 6,4 km/h (2 Bft)
11.05.2018 15:45 18,6 °C 66 % 1014,2 hPa 0,0 mm 5,2 km/h (1 Bft) O-NO 61 ° 1 min 0,000 mm 3,6 UV-I 411 W/m² 12,1 °C 18,6 °C 8,0 km/h (2 Bft)
11.05.2018 15:46 18,7 °C 63 % 1014,2 hPa 0,0 mm 8,4 km/h (2 Bft) O-NO 61 ° 1 min 0,000 mm 4,7 UV-I 411 W/m² 11,5 °C 18,7 °C 12,9 km/h (3 Bft)
11.05.2018 15:47 18,7 °C 64 % 1014,2 hPa 0,0 mm 9,5 km/h (2 Bft) O-NO 71 ° 1 min 0,000 mm 4,7 UV-I 745 W/m² 11,7 °C 18,7 °C 14,5 km/h (3 Bft)
11.05.2018 15:48 18,7 °C 63 % 1014,2 hPa 0,0 mm 10,6 km/h (2 Bft) O-NO 64 ° 1 min 0,000 mm 4,5 UV-I 722 W/m² 11,5 °C 18,7 °C 14,5 km/h (3 Bft)
11.05.2018 15:49 18,7 °C 63 % 1014,3 hPa 0,0 mm 7,4 km/h (2 Bft) O 84 ° 1 min 0,000 mm 4,6 UV-I 728 W/m² 11,5 °C 18,7 °C 11,3 km/h (2 Bft)
11.05.2018 15:50 18,6 °C 63 % 1014,2 hPa 0,0 mm 4,5 km/h (1 Bft) O-SO 105 ° 1 min 0,000 mm 4,6 UV-I 738 W/m² 11,4 °C 18,6 °C 11,3 km/h (2 Bft)
11.05.2018 15:51 18,6 °C 65 % 1014,2 hPa 0,0 mm 1,7 km/h (1 Bft) NO 38 ° 1 min 0,000 mm 4,7 UV-I 756 W/m² 11,9 °C 18,6 °C 3,2 km/h (1 Bft)
11.05.2018 15:52 18,6 °C 65 % 1014,2 hPa 0,0 mm 5,0 km/h (1 Bft) NO 40 ° 1 min 0,000 mm 4,7 UV-I 782 W/m² 11,9 °C 18,6 °C 11,3 km/h (2 Bft)
11.05.2018 15:53 18,7 °C 65 % 1014,2 hPa 0,0 mm 7,6 km/h (2 Bft) NO 41 ° 1 min 0,000 mm 4,7 UV-I 782 W/m² 12,0 °C 18,7 °C 11,3 km/h (2 Bft)
11.05.2018 15:54 18,8 °C 65 % 1014,2 hPa 0,0 mm 5,6 km/h (1 Bft) N 355 ° 1 min 0,000 mm 3,8 UV-I 339 W/m² 12,1 °C 18,8 °C 8,0 km/h (2 Bft)
11.05.2018 15:55 18,8 °C 63 % 1014,2 hPa 0,0 mm 11,0 km/h (2 Bft) O-NO 65 ° 1 min 0,000 mm 4,4 UV-I 339 W/m² 11,6 °C 18,8 °C 16,1 km/h (3 Bft)
11.05.2018 15:56 18,8 °C 63 % 1014,2 hPa 0,0 mm 7,6 km/h (2 Bft) N-NO 20 ° 1 min 0,000 mm 4,2 UV-I 339 W/m² 11,6 °C 18,8 °C 9,7 km/h (2 Bft)
11.05.2018 15:57 18,8 °C 63 % 1014,2 hPa 0,0 mm 8,3 km/h (2 Bft) N-NW 343 ° 1 min 0,000 mm 2,6 UV-I 339 W/m² 11,6 °C 18,8 °C 14,5 km/h (3 Bft)
11.05.2018 15:58 18,8 °C 63 % 1014,2 hPa 0,0 mm 10,2 km/h (2 Bft) O-NO 71 ° 0 min 0,000 mm 2,8 UV-I 183 W/m² 11,6 °C 18,8 °C 14,5 km/h (3 Bft)
11.05.2018 15:59 18,7 °C 64 % 1014,2 hPa 0,0 mm 7,8 km/h (2 Bft) O-NO 71 ° 0 min 0,000 mm 3,3 UV-I 183 W/m² 11,7 °C 18,7 °C 11,3 km/h (2 Bft)
11.05.2018 16:00 18,6 °C 65 % 1014,1 hPa 0,0 mm 7,6 km/h (2 Bft) NO 41 ° 0 min 0,000 mm 4,6 UV-I 183 W/m² 11,9 °C 18,6 °C 14,5 km/h (3 Bft)
11.05.2018 16:01 18,7 °C 64 % 1014,1 hPa 0,0 mm 8,3 km/h (2 Bft) NO 49 ° 0 min 0,406 mm 2,8 UV-I 183 W/m² 11,7 °C 18,7 °C 11,3 km/h (2 Bft)
11.05.2018 16:02 18,8 °C 64 % 1014,1 hPa 0,0 mm 6,1 km/h (2 Bft) N 360 ° 0 min 0,000 mm 2,8 UV-I 179 W/m² 11,8 °C 18,8 °C 8,0 km/h (2 Bft)
11.05.2018 16:03 18,8 °C 68 % 1014,1 hPa 0,0 mm 3,0 km/h (1 Bft) O-NO 72 ° 0 min 0,000 mm 2,6 UV-I 149 W/m² 12,8 °C 18,8 °C 8,0 km/h (2 Bft)
11.05.2018 16:04 18,9 °C 68 % 1014,1 hPa 0,0 mm 6,7 km/h (2 Bft) O-NO 57 ° 0 min 0,000 mm 2,7 UV-I 160 W/m² 12,9 °C 18,9 °C 11,3 km/h (2 Bft)
11.05.2018 16:05 18,8 °C 62 % 1014,1 hPa 0,0 mm 7,2 km/h (2 Bft) NO 53 ° 0 min 0,000 mm 2,5 UV-I 165 W/m² 11,4 °C 18,8 °C 11,3 km/h (2 Bft)
11.05.2018 16:06 18,8 °C 64 % 1014,1 hPa 0,0 mm 7,1 km/h (2 Bft) N-NO 28 ° 0 min 0,000 mm 2,5 UV-I 199 W/m² 11,8 °C 18,8 °C 11,3 km/h (2 Bft)
11.05.2018 16:07 18,8 °C 64 % 1014,1 hPa 0,0 mm 4,2 km/h (1 Bft) N-NW 327 ° 0 min 0,000 mm 2,6 UV-I 162 W/m² 11,8 °C 18,8 °C 4,8 km/h (1 Bft)
11.05.2018 16:08 18,8 °C 64 % 1014,1 hPa 0,0 mm 8,7 km/h (2 Bft) NW 325 ° 0 min 0,000 mm 2,7 UV-I 176 W/m² 11,8 °C 18,8 °C 14,5 km/h (3 Bft)
11.05.2018 16:09 18,8 °C 64 % 1014,1 hPa 0,0 mm 6,3 km/h (2 Bft) N 360 ° 0 min 0,000 mm 2,6 UV-I 151 W/m² 11,8 °C 18,8 °C 9,7 km/h (2 Bft)
11.05.2018 16:10 18,9 °C 64 % 1014,1 hPa 0,0 mm 7,0 km/h (2 Bft) N-NO 29 ° 0 min 0,000 mm 2,4 UV-I 142 W/m² 11,9 °C 18,9 °C 12,9 km/h (3 Bft)
11.05.2018 16:11 18,9 °C 63 % 1014,1 hPa 0,0 mm 5,2 km/h (1 Bft) O 84 ° 0 min 0,000 mm 2,3 UV-I 123 W/m² 11,7 °C 18,9 °C 8,0 km/h (2 Bft)
11.05.2018 16:12 18,9 °C 62 % 1014,1 hPa 0,0 mm 7,5 km/h (2 Bft) O-NO 71 ° 0 min 0,000 mm 2,2 UV-I 116 W/m² 11,5 °C 18,9 °C 11,3 km/h (2 Bft)
11.05.2018 16:13 18,9 °C 63 % 1014,1 hPa 0,0 mm 7,8 km/h (2 Bft) O-NO 61 ° 0 min 0,000 mm 2,2 UV-I 105 W/m² 11,7 °C 18,9 °C 12,9 km/h (3 Bft)
11.05.2018 16:14 18,8 °C 63 % 1014,1 hPa 0,0 mm 3,7 km/h (1 Bft) O-NO 67 ° 0 min 0,000 mm 2,2 UV-I 111 W/m² 11,6 °C 18,8 °C 12,9 km/h (3 Bft)
11.05.2018 16:15 18,6 °C 62 % 1014,1 hPa 0,0 mm 2,1 km/h (1 Bft) O-NO 67 ° 0 min 0,000 mm 2,2 UV-I 114 W/m² 11,2 °C 18,6 °C 4,8 km/h (1 Bft)
11.05.2018 16:16 18,6 °C 64 % 1014,2 hPa 0,0 mm 4,5 km/h (1 Bft) N 351 ° 0 min 0,000 mm 2,2 UV-I 127 W/m² 11,7 °C 18,6 °C 12,9 km/h (3 Bft)
11.05.2018 16:17 18,6 °C 65 % 1014,2 hPa 0,0 mm 7,7 km/h (2 Bft) N 11 ° 0 min 0,000 mm 2,3 UV-I 165 W/m² 11,9 °C 18,6 °C 14,5 km/h (3 Bft)
11.05.2018 16:18 18,6 °C 63 % 1014,2 hPa 0,0 mm 8,5 km/h (2 Bft) NO 40 ° 0 min 0,000 mm 2,2 UV-I 163 W/m² 11,4 °C 18,6 °C 14,5 km/h (3 Bft)
11.05.2018 16:19 18,6 °C 62 % 1014,2 hPa 0,0 mm 4,8 km/h (1 Bft) N-NO 21 ° 0 min 0,000 mm 2,2 UV-I 167 W/m² 11,2 °C 18,6 °C 11,3 km/h (2 Bft)
11.05.2018 16:20 18,4 °C 62 % 1014,1 hPa 0,0 mm 3,0 km/h (1 Bft) N-NO 21 ° 0 min 0,000 mm 2,2 UV-I 176 W/m² 11,0 °C 18,4 °C 4,8 km/h (1 Bft)
11.05.2018 16:21 18,4 °C 63 % 1014,2 hPa 0,0 mm 5,7 km/h (1 Bft) N 355 ° 0 min 0,000 mm 2,3 UV-I 176 W/m² 11,2 °C 18,4 °C 9,7 km/h (2 Bft)
11.05.2018 16:22 18,4 °C 64 % 1014,2 hPa 0,0 mm 4,9 km/h (1 Bft) N-NW 346 ° 0 min 0,000 mm 2,3 UV-I 165 W/m² 11,5 °C 18,4 °C 8,0 km/h (2 Bft)
11.05.2018 16:23 18,4 °C 67 % 1014,1 hPa 0,0 mm 2,5 km/h (1 Bft) NW 323 ° 0 min 0,000 mm 2,2 UV-I 149 W/m² 12,2 °C 18,4 °C 6,4 km/h (2 Bft)
11.05.2018 16:24 18,5 °C 63 % 1014,1 hPa 0,0 mm 3,9 km/h (1 Bft) NW 317 ° 0 min 0,000 mm 2,2 UV-I 135 W/m² 11,3 °C 18,5 °C 4,8 km/h (1 Bft)
11.05.2018 16:25 18,4 °C 64 % 1014,1 hPa 0,0 mm 6,4 km/h (2 Bft) N 349 ° 0 min 0,000 mm 2,2 UV-I 135 W/m² 11,5 °C 18,4 °C 12,9 km/h (3 Bft)
11.05.2018 16:26 18,6 °C 65 % 1014,1 hPa 0,0 mm 9,0 km/h (2 Bft) NW 326 ° 0 min 0,000 mm 2,2 UV-I 142 W/m² 11,9 °C 18,6 °C 12,9 km/h (3 Bft)
11.05.2018 16:27 18,6 °C 64 % 1014,1 hPa 0,0 mm 10,1 km/h (2 Bft) NW 317 ° 0 min 0,000 mm 2,2 UV-I 151 W/m² 11,7 °C 18,6 °C 12,9 km/h (3 Bft)
11.05.2018 16:28 18,5 °C 63 % 1014,0 hPa 0,0 mm 6,4 km/h (2 Bft) N-NW 335 ° 0 min 0,000 mm 2,2 UV-I 149 W/m² 11,3 °C 18,5 °C 8,0 km/h (2 Bft)
11.05.2018 16:29 18,4 °C 64 % 1014,1 hPa 0,0 mm 4,9 km/h (1 Bft) N-NO 18 ° 0 min 0,000 mm 2,2 UV-I 176 W/m² 11,5 °C 18,4 °C 8,0 km/h (2 Bft)
11.05.2018 16:30 18,6 °C 65 % 1014,1 hPa 0,0 mm 3,6 km/h (1 Bft) N-NO 16 ° 0 min 0,000 mm 2,3 UV-I 183 W/m² 11,9 °C 18,6 °C 8,0 km/h (2 Bft)
11.05.2018 16:31 18,7 °C 64 % 1014,1 hPa 0,0 mm 7,8 km/h (2 Bft) N-NW 336 ° 0 min 0,000 mm 2,2 UV-I 171 W/m² 11,7 °C 18,7 °C 12,9 km/h (3 Bft)
11.05.2018 16:32 18,8 °C 62 % 1014,1 hPa 0,0 mm 8,2 km/h (2 Bft) N 360 ° 0 min 0,000 mm 2,1 UV-I 149 W/m² 11,4 °C 18,8 °C 14,5 km/h (3 Bft)
11.05.2018 16:33 18,8 °C 63 % 1014,1 hPa 0,0 mm 0,7 km/h (0 Bft) N 360 ° 0 min 0,000 mm 2,0 UV-I 120 W/m² 11,6 °C 18,8 °C 3,2 km/h (1 Bft)
11.05.2018 16:34 18,8 °C 62 % 1014,1 hPa 0,0 mm 3,3 km/h (1 Bft) NO 41 ° 0 min 0,000 mm 1,9 UV-I 102 W/m² 11,4 °C 18,8 °C 6,4 km/h (2 Bft)
11.05.2018 16:35 18,8 °C 63 % 1014,1 hPa 0,0 mm 5,0 km/h (1 Bft) N-NO 26 ° 0 min 0,000 mm 1,9 UV-I 104 W/m² 11,6 °C 18,8 °C 6,4 km/h (2 Bft)
11.05.2018 16:36 18,8 °C 65 % 1014,1 hPa 0,0 mm 5,6 km/h (1 Bft) NO 38 ° 0 min 0,000 mm 2,0 UV-I 114 W/m² 12,1 °C 18,8 °C 14,5 km/h (3 Bft)
11.05.2018 16:37 18,7 °C 63 % 1014,1 hPa 0,0 mm 7,3 km/h (2 Bft) NO 51 ° 0 min 0,000 mm 2,0 UV-I 116 W/m² 11,5 °C 18,7 °C 9,7 km/h (2 Bft)
11.05.2018 16:38 18,6 °C 61 % 1014,1 hPa 0,0 mm 6,7 km/h (2 Bft) N-NO 15 ° 0 min 0,000 mm 2,0 UV-I 118 W/m² 10,9 °C 18,6 °C 11,3 km/h (2 Bft)
11.05.2018 16:39 18,6 °C 63 % 1014,1 hPa 0,0 mm 5,0 km/h (1 Bft) N 5 ° 0 min 0,000 mm 2,0 UV-I 111 W/m² 11,4 °C 18,6 °C 6,4 km/h (2 Bft)
11.05.2018 16:40 18,5 °C 62 % 1014,1 hPa 0,0 mm 4,7 km/h (1 Bft) NW 315 ° 0 min 0,000 mm 2,0 UV-I 109 W/m² 11,1 °C 18,5 °C 8,0 km/h (2 Bft)
11.05.2018 16:41 18,5 °C 64 % 1014,1 hPa 0,0 mm 5,5 km/h (1 Bft) N-NO 24 ° 0 min 0,000 mm 1,9 UV-I 95 W/m² 11,6 °C 18,5 °C 8,0 km/h (2 Bft)
11.05.2018 16:42 18,4 °C 64 % 1014,0 hPa 0,0 mm 7,5 km/h (2 Bft) NO 35 ° 0 min 0,000 mm 1,9 UV-I 97 W/m² 11,5 °C 18,4 °C 14,5 km/h (3 Bft)
11.05.2018 16:43 18,4 °C 62 % 1014,1 hPa 0,0 mm 8,2 km/h (2 Bft) NO 47 ° 0 min 0,000 mm 1,9 UV-I 97 W/m² 11,0 °C 18,4 °C 12,9 km/h (3 Bft)
11.05.2018 16:44 18,4 °C 63 % 1014,1 hPa 0,0 mm 3,9 km/h (1 Bft) N-NO 30 ° 0 min 0,000 mm 1,9 UV-I 90 W/m² 11,2 °C 18,4 °C 8,0 km/h (2 Bft)
11.05.2018 16:45 18,4 °C 62 % 1014,1 hPa 0,0 mm 4,9 km/h (1 Bft) N-NO 12 ° 0 min 0,000 mm 1,9 UV-I 93 W/m² 11,0 °C 18,4 °C 11,3 km/h (2 Bft)
11.05.2018 16:46 18,4 °C 63 % 1014,1 hPa 0,0 mm 5,2 km/h (1 Bft) N-NO 13 ° 0 min 0,000 mm 1,9 UV-I 97 W/m² 11,2 °C 18,4 °C 11,3 km/h (2 Bft)
11.05.2018 16:47 18,4 °C 64 % 1014,0 hPa 0,0 mm 4,1 km/h (1 Bft) NO 46 ° 0 min 0,000 mm 1,9 UV-I 97 W/m² 11,5 °C 18,4 °C 6,4 km/h (2 Bft)
11.05.2018 16:48 18,4 °C 63 % 1014,0 hPa 0,0 mm 5,2 km/h (1 Bft) NO 36 ° 0 min 0,000 mm 1,9 UV-I 95 W/m² 11,2 °C 18,4 °C 8,0 km/h (2 Bft)
11.05.2018 16:49 18,5 °C 64 % 1014,0 hPa 0,0 mm 5,6 km/h (1 Bft) NO 56 ° 0 min 0,000 mm 1,8 UV-I 86 W/m² 11,6 °C 18,5 °C 8,0 km/h (2 Bft)
11.05.2018 16:50 18,5 °C 63 % 1014,1 hPa 0,0 mm 7,9 km/h (2 Bft) NO 38 ° 0 min 0,000 mm 1,8 UV-I 83 W/m² 11,3 °C 18,5 °C 11,3 km/h (2 Bft)
11.05.2018 16:51 18,6 °C 63 % 1014,0 hPa 0,0 mm 6,3 km/h (2 Bft) NO 44 ° 0 min 0,000 mm 1,8 UV-I 83 W/m² 11,4 °C 18,6 °C 8,0 km/h (2 Bft)
11.05.2018 16:52 18,6 °C 63 % 1014,0 hPa 0,0 mm 9,2 km/h (2 Bft) O 96 ° 0 min 0,000 mm 1,8 UV-I 84 W/m² 11,4 °C 18,6 °C 14,5 km/h (3 Bft)
11.05.2018 16:53 18,6 °C 63 % 1014,0 hPa 0,0 mm 6,4 km/h (2 Bft) O-SO 122 ° 0 min 0,000 mm 1,8 UV-I 86 W/m² 11,4 °C 18,6 °C 8,0 km/h (2 Bft)
11.05.2018 16:54 18,6 °C 62 % 1014,0 hPa 0,0 mm 4,2 km/h (1 Bft) O 81 ° 0 min 0,000 mm 1,8 UV-I 95 W/m² 11,2 °C 18,6 °C 8,0 km/h (2 Bft)
11.05.2018 16:55 18,6 °C 62 % 1014,1 hPa 0,0 mm 4,6 km/h (1 Bft) O 79 ° 0 min 0,000 mm 1,8 UV-I 95 W/m² 11,2 °C 18,6 °C 8,0 km/h (2 Bft)
11.05.2018 16:56 18,6 °C 62 % 1014,0 hPa 0,0 mm 8,5 km/h (2 Bft) O 92 ° 0 min 0,000 mm 1,8 UV-I 97 W/m² 11,2 °C 18,6 °C 11,3 km/h (2 Bft)
11.05.2018 16:57 18,6 °C 63 % 1014,0 hPa 0,0 mm 5,8 km/h (2 Bft) O-NO 72 ° 0 min 0,000 mm 1,8 UV-I 102 W/m² 11,4 °C 18,6 °C 8,0 km/h (2 Bft)
11.05.2018 16:58 18,6 °C 63 % 1014,0 hPa 0,0 mm 3,8 km/h (1 Bft) O 85 ° 0 min 0,000 mm 1,8 UV-I 109 W/m² 11,4 °C 18,6 °C 6,4 km/h (2 Bft)
11.05.2018 16:59 18,6 °C 63 % 1014,0 hPa 0,0 mm 3,7 km/h (1 Bft) NO 47 ° 0 min 0,000 mm 1,8 UV-I 111 W/m² 11,4 °C 18,6 °C 6,4 km/h (2 Bft)
11.05.2018 17:00 18,6 °C 63 % 1014,0 hPa 0,0 mm 2,4 km/h (1 Bft) O-NO 63 ° 0 min 0,000 mm 1,8 UV-I 107 W/m² 11,4 °C 18,6 °C 4,8 km/h (1 Bft)
11.05.2018 17:01 18,7 °C 64 % 1014,0 hPa 0,0 mm 5,0 km/h (1 Bft) NO 40 ° 0 min 0,102 mm 1,8 UV-I 104 W/m² 11,7 °C 18,7 °C 6,4 km/h (2 Bft)
11.05.2018 17:02 18,7 °C 62 % 1014,0 hPa 0,0 mm 6,0 km/h (2 Bft) N-NO 32 ° 0 min 0,000 mm 1,8 UV-I 98 W/m² 11,3 °C 18,7 °C 8,0 km/h (2 Bft)
11.05.2018 17:03 18,7 °C 62 % 1014,0 hPa 0,0 mm 2,4 km/h (1 Bft) O 79 ° 0 min 0,000 mm 1,8 UV-I 98 W/m² 11,3 °C 18,7 °C 6,4 km/h (2 Bft)
11.05.2018 17:04 18,7 °C 62 % 1014,1 hPa 0,0 mm 5,0 km/h (1 Bft) O 79 ° 0 min 0,000 mm 1,7 UV-I 88 W/m² 11,3 °C 18,7 °C 8,0 km/h (2 Bft)
11.05.2018 17:05 18,6 °C 62 % 1014,0 hPa 0,0 mm 2,5 km/h (1 Bft) N-NO 33 ° 0 min 0,000 mm 1,7 UV-I 86 W/m² 11,2 °C 18,6 °C 6,4 km/h (2 Bft)
11.05.2018 17:06 18,6 °C 62 % 1014,1 hPa 0,0 mm 6,2 km/h (2 Bft) N 9 ° 0 min 0,000 mm 1,7 UV-I 88 W/m² 11,2 °C 18,6 °C 11,3 km/h (2 Bft)
11.05.2018 17:07 18,7 °C 62 % 1014,0 hPa 0,0 mm 4,9 km/h (1 Bft) N 350 ° 0 min 0,000 mm 1,7 UV-I 91 W/m² 11,3 °C 18,7 °C 9,7 km/h (2 Bft)
11.05.2018 17:08 18,7 °C 62 % 1014,0 hPa 0,0 mm 0,8 km/h (0 Bft) N-NO 28 ° 0 min 0,000 mm 1,7 UV-I 95 W/m² 11,3 °C 18,7 °C 3,2 km/h (1 Bft)
11.05.2018 17:09 18,7 °C 62 % 1014,0 hPa 0,0 mm 2,1 km/h (1 Bft) NO 50 ° 0 min 0,000 mm 1,7 UV-I 100 W/m² 11,3 °C 18,7 °C 4,8 km/h (1 Bft)
11.05.2018 17:10 18,7 °C 61 % 1014,0 hPa 0,0 mm 3,0 km/h (1 Bft) NO 34 ° 0 min 0,000 mm 1,7 UV-I 95 W/m² 11,0 °C 18,7 °C 4,8 km/h (1 Bft)
11.05.2018 17:11 18,6 °C 62 % 1014,0 hPa 0,0 mm 4,8 km/h (1 Bft) N-NO 22 ° 0 min 0,000 mm 1,7 UV-I 98 W/m² 11,2 °C 18,6 °C 6,4 km/h (2 Bft)
11.05.2018 17:12 18,7 °C 62 % 1014,0 hPa 0,0 mm 6,4 km/h (2 Bft) N 350 ° 0 min 0,000 mm 1,7 UV-I 102 W/m² 11,3 °C 18,7 °C 9,7 km/h (2 Bft)
11.05.2018 17:13 18,6 °C 61 % 1014,0 hPa 0,0 mm 4,0 km/h (1 Bft) N 9 ° 0 min 0,000 mm 1,7 UV-I 105 W/m² 10,9 °C 18,6 °C 8,0 km/h (2 Bft)
11.05.2018 17:14 18,6 °C 64 % 1014,0 hPa 0,0 mm 5,1 km/h (1 Bft) NW 311 ° 0 min 0,000 mm 1,7 UV-I 105 W/m² 11,7 °C 18,6 °C 8,0 km/h (2 Bft)
11.05.2018 17:15 18,6 °C 64 % 1014,0 hPa 0,0 mm 6,7 km/h (2 Bft) NO 44 ° 0 min 0,000 mm 1,7 UV-I 105 W/m² 11,7 °C 18,6 °C 8,0 km/h (2 Bft)
11.05.2018 17:16 18,6 °C 64 % 1014,0 hPa 0,0 mm 2,7 km/h (1 Bft) NO 38 ° 0 min 0,000 mm 1,6 UV-I 113 W/m² 11,7 °C 18,6 °C 6,4 km/h (2 Bft)
11.05.2018 17:17 18,6 °C 62 % 1014,0 hPa 0,0 mm 3,9 km/h (1 Bft) NO 38 ° 0 min 0,000 mm 1,6 UV-I 114 W/m² 11,2 °C 18,6 °C 9,7 km/h (2 Bft)
11.05.2018 17:18 18,6 °C 62 % 1014,0 hPa 0,0 mm 4,6 km/h (1 Bft) NO 56 ° 0 min 0,000 mm 1,6 UV-I 116 W/m² 11,2 °C 18,6 °C 6,4 km/h (2 Bft)
11.05.2018 17:19 18,6 °C 62 % 1014,0 hPa 0,0 mm 5,2 km/h (1 Bft) O 82 ° 0 min 0,000 mm 1,6 UV-I 120 W/m² 11,2 °C 18,6 °C 8,0 km/h (2 Bft)
11.05.2018 17:20 18,6 °C 63 % 1014,0 hPa 0,0 mm 8,0 km/h (2 Bft) O-NO 78 ° 0 min 0,000 mm 1,7 UV-I 125 W/m² 11,4 °C 18,6 °C 12,9 km/h (3 Bft)
11.05.2018 17:21 18,6 °C 62 % 1014,0 hPa 0,0 mm 3,6 km/h (1 Bft) O-NO 70 ° 0 min 0,000 mm 1,6 UV-I 128 W/m² 11,2 °C 18,6 °C 6,4 km/h (2 Bft)
11.05.2018 17:22 18,5 °C 63 % 1013,9 hPa 0,0 mm 7,8 km/h (2 Bft) O 89 ° 0 min 0,000 mm 1,6 UV-I 141 W/m² 11,3 °C 18,5 °C 9,7 km/h (2 Bft)
11.05.2018 17:23 18,5 °C 62 % 1014,0 hPa 0,0 mm 4,0 km/h (1 Bft) O 95 ° 0 min 0,000 mm 1,6 UV-I 146 W/m² 11,1 °C 18,5 °C 6,4 km/h (2 Bft)
11.05.2018 17:24 18,4 °C 62 % 1014,0 hPa 0,0 mm 1,9 km/h (1 Bft) NO 52 ° 0 min 0,000 mm 1,7 UV-I 151 W/m² 11,0 °C 18,4 °C 8,0 km/h (2 Bft)
11.05.2018 17:25 18,5 °C 62 % 1014,1 hPa 0,0 mm 5,2 km/h (1 Bft) NO 50 ° 0 min 0,000 mm 1,7 UV-I 156 W/m² 11,1 °C 18,5 °C 8,0 km/h (2 Bft)
11.05.2018 17:26 18,5 °C 62 % 1013,9 hPa 0,0 mm 5,9 km/h (2 Bft) N-NW 333 ° 0 min 0,000 mm 1,7 UV-I 162 W/m² 11,1 °C 18,5 °C 8,0 km/h (2 Bft)
11.05.2018 17:27 18,7 °C 63 % 1014,0 hPa 0,0 mm 4,2 km/h (1 Bft) N-NO 29 ° 0 min 0,000 mm 1,7 UV-I 171 W/m² 11,5 °C 18,7 °C 8,0 km/h (2 Bft)
11.05.2018 17:28 18,8 °C 63 % 1014,0 hPa 0,0 mm 5,0 km/h (1 Bft) N 5 ° 0 min 0,000 mm 1,7 UV-I 172 W/m² 11,6 °C 18,8 °C 8,0 km/h (2 Bft)
11.05.2018 17:29 18,8 °C 61 % 1014,0 hPa 0,0 mm 2,5 km/h (1 Bft) N 360 ° 0 min 0,000 mm 1,7 UV-I 174 W/m² 11,1 °C 18,8 °C 3,2 km/h (1 Bft)
11.05.2018 17:30 18,8 °C 62 % 1013,9 hPa 0,0 mm 2,5 km/h (1 Bft) N 360 ° 0 min 0,000 mm 1,6 UV-I 172 W/m² 11,4 °C 18,8 °C 4,8 km/h (1 Bft)
11.05.2018 17:31 18,8 °C 62 % 1014,0 hPa 0,0 mm 4,5 km/h (1 Bft) N-NW 329 ° 0 min 0,000 mm 1,6 UV-I 178 W/m² 11,4 °C 18,8 °C 6,4 km/h (2 Bft)
11.05.2018 17:32 18,8 °C 61 % 1013,9 hPa 0,0 mm 0,8 km/h (0 Bft) N-NW 329 ° 0 min 0,000 mm 1,6 UV-I 185 W/m² 11,1 °C 18,8 °C 3,2 km/h (1 Bft)
11.05.2018 17:33 18,8 °C 61 % 1014,0 hPa 0,0 mm 0,5 km/h (0 Bft) N 5 ° 0 min 0,000 mm 1,6 UV-I 179 W/m² 11,1 °C 18,8 °C 1,6 km/h (1 Bft)
11.05.2018 17:34 18,8 °C 62 % 1014,0 hPa 0,0 mm 10,1 km/h (2 Bft) NO 55 ° 0 min 0,000 mm 1,6 UV-I 167 W/m² 11,4 °C 18,8 °C 16,1 km/h (3 Bft)
11.05.2018 17:35 18,8 °C 61 % 1014,0 hPa 0,0 mm 5,1 km/h (1 Bft) O-NO 57 ° 0 min 0,000 mm 1,5 UV-I 162 W/m² 11,1 °C 18,8 °C 11,3 km/h (2 Bft)
11.05.2018 17:36 18,8 °C 63 % 1013,9 hPa 0,0 mm 5,2 km/h (1 Bft) N-NO 25 ° 0 min 0,000 mm 1,5 UV-I 163 W/m² 11,6 °C 18,8 °C 9,7 km/h (2 Bft)
11.05.2018 17:37 18,8 °C 63 % 1013,9 hPa 0,0 mm 6,8 km/h (2 Bft) O-NO 61 ° 0 min 0,000 mm 1,5 UV-I 174 W/m² 11,6 °C 18,8 °C 12,9 km/h (3 Bft)
11.05.2018 17:38 18,8 °C 63 % 1014,0 hPa 0,0 mm 4,3 km/h (1 Bft) NO 53 ° 0 min 0,000 mm 1,6 UV-I 190 W/m² 11,6 °C 18,8 °C 8,0 km/h (2 Bft)
11.05.2018 17:39 18,8 °C 63 % 1014,0 hPa 0,0 mm 4,6 km/h (1 Bft) NO 49 ° 0 min 0,000 mm 1,6 UV-I 206 W/m² 11,6 °C 18,8 °C 8,0 km/h (2 Bft)
11.05.2018 17:40 18,9 °C 63 % 1014,0 hPa 0,0 mm 2,8 km/h (1 Bft) N 9 ° 0 min 0,000 mm 1,6 UV-I 211 W/m² 11,7 °C 18,9 °C 6,4 km/h (2 Bft)
11.05.2018 17:41 18,9 °C 63 % 1013,9 hPa 0,0 mm 3,1 km/h (1 Bft) N 355 ° 0 min 0,000 mm 1,6 UV-I 218 W/m² 11,7 °C 18,9 °C 6,4 km/h (2 Bft)
11.05.2018 17:42 19,1 °C 65 % 1014,0 hPa 0,0 mm 3,9 km/h (1 Bft) N-NO 26 ° 0 min 0,000 mm 1,6 UV-I 221 W/m² 12,4 °C 19,1 °C 8,0 km/h (2 Bft)
11.05.2018 17:43 19,2 °C 62 % 1013,9 hPa 0,0 mm 4,0 km/h (1 Bft) NO 55 ° 0 min 0,000 mm 1,5 UV-I 213 W/m² 11,7 °C 19,2 °C 9,7 km/h (2 Bft)
11.05.2018 17:44 19,1 °C 62 % 1013,9 hPa 0,0 mm 5,2 km/h (1 Bft) O-NO 59 ° 0 min 0,000 mm 1,5 UV-I 204 W/m² 11,6 °C 19,1 °C 9,7 km/h (2 Bft)
11.05.2018 17:45 19,1 °C 62 % 1013,9 hPa 0,0 mm 0,9 km/h (0 Bft) O-NO 59 ° 0 min 0,000 mm 1,5 UV-I 197 W/m² 11,6 °C 19,1 °C 4,8 km/h (1 Bft)
11.05.2018 17:46 19,1 °C 61 % 1013,9 hPa 0,0 mm 1,3 km/h (1 Bft) NO 41 ° 0 min 0,000 mm 1,4 UV-I 204 W/m² 11,4 °C 19,1 °C 4,8 km/h (1 Bft)
11.05.2018 17:47 19,2 °C 62 % 1013,9 hPa 0,0 mm 5,2 km/h (1 Bft) N-NO 13 ° 0 min 0,000 mm 1,4 UV-I 202 W/m² 11,7 °C 19,2 °C 8,0 km/h (2 Bft)
11.05.2018 17:48 19,2 °C 62 % 1013,9 hPa 0,0 mm 2,6 km/h (1 Bft) NO 46 ° 0 min 0,000 mm 1,4 UV-I 207 W/m² 11,7 °C 19,2 °C 4,8 km/h (1 Bft)
11.05.2018 17:49 19,2 °C 61 % 1013,9 hPa 0,0 mm 3,5 km/h (1 Bft) N-NO 20 ° 0 min 0,000 mm 1,5 UV-I 209 W/m² 11,5 °C 19,2 °C 4,8 km/h (1 Bft)
11.05.2018 17:50 19,3 °C 62 % 1013,9 hPa 0,0 mm 3,4 km/h (1 Bft) N-NO 22 ° 0 min 0,000 mm 1,5 UV-I 220 W/m² 11,8 °C 19,3 °C 6,4 km/h (2 Bft)
11.05.2018 17:51 19,4 °C 63 % 1013,9 hPa 0,0 mm 8,1 km/h (2 Bft) O 90 ° 0 min 0,000 mm 1,5 UV-I 234 W/m² 12,2 °C 19,4 °C 11,3 km/h (2 Bft)
11.05.2018 17:52 19,3 °C 61 % 1013,9 hPa 0,0 mm 5,5 km/h (1 Bft) O-NO 65 ° 0 min 0,000 mm 1,5 UV-I 246 W/m² 11,6 °C 19,3 °C 8,0 km/h (2 Bft)
11.05.2018 17:53 19,3 °C 61 % 1013,9 hPa 0,0 mm 6,3 km/h (2 Bft) N 5 ° 0 min 0,000 mm 1,5 UV-I 248 W/m² 11,6 °C 19,3 °C 9,7 km/h (2 Bft)
11.05.2018 17:54 19,3 °C 61 % 1013,9 hPa 0,0 mm 8,8 km/h (2 Bft) O 85 ° 0 min 0,000 mm 1,5 UV-I 250 W/m² 11,6 °C 19,3 °C 14,5 km/h (3 Bft)
11.05.2018 17:55 19,3 °C 63 % 1013,9 hPa 0,0 mm 6,5 km/h (2 Bft) S-SO 155 ° 0 min 0,000 mm 1,5 UV-I 248 W/m² 12,1 °C 19,3 °C 12,9 km/h (3 Bft)
11.05.2018 17:56 19,3 °C 61 % 1013,9 hPa 0,0 mm 6,3 km/h (2 Bft) O-NO 60 ° 0 min 0,000 mm 1,4 UV-I 248 W/m² 11,6 °C 19,3 °C 11,3 km/h (2 Bft)
11.05.2018 17:57 19,3 °C 61 % 1013,9 hPa 0,0 mm 7,2 km/h (2 Bft) O-NO 71 ° 0 min 0,000 mm 1,4 UV-I 264 W/m² 11,6 °C 19,3 °C 11,3 km/h (2 Bft)
11.05.2018 17:58 19,3 °C 63 % 1013,9 hPa 0,0 mm 7,2 km/h (2 Bft) O 94 ° 0 min 0,000 mm 1,4 UV-I 229 W/m² 12,1 °C 19,3 °C 11,3 km/h (2 Bft)
11.05.2018 17:59 19,2 °C 61 % 1013,9 hPa 0,0 mm 2,2 km/h (1 Bft) SO 146 ° 0 min 0,000 mm 1,4 UV-I 220 W/m² 11,5 °C 19,2 °C 4,8 km/h (1 Bft)
11.05.2018 18:00 19,1 °C 62 % 1013,9 hPa 0,0 mm 3,4 km/h (1 Bft) O-NO 71 ° 0 min 0,000 mm 1,3 UV-I 213 W/m² 11,6 °C 19,1 °C 6,4 km/h (2 Bft)
11.05.2018 18:01 19,0 °C 61 % 1013,9 hPa 0,0 mm 6,4 km/h (2 Bft) O-NO 77 ° 0 min 0,127 mm 1,3 UV-I 248 W/m² 11,3 °C 19,0 °C 11,3 km/h (2 Bft)
11.05.2018 18:02 19,0 °C 63 % 1013,8 hPa 0,0 mm 5,4 km/h (1 Bft) NO 35 ° 0 min 0,000 mm 1,3 UV-I 243 W/m² 11,8 °C 19,0 °C 8,0 km/h (2 Bft)
11.05.2018 18:03 19,0 °C 62 % 1014,0 hPa 0,0 mm 6,0 km/h (2 Bft) O 85 ° 0 min 0,000 mm 1,2 UV-I 183 W/m² 11,6 °C 19,0 °C 9,7 km/h (2 Bft)
11.05.2018 18:04 19,0 °C 60 % 1013,9 hPa 0,0 mm 3,8 km/h (1 Bft) O 79 ° 0 min 0,000 mm 1,2 UV-I 186 W/m² 11,1 °C 19,0 °C 8,0 km/h (2 Bft)
11.05.2018 18:05 18,9 °C 61 % 1013,9 hPa 0,0 mm 10,7 km/h (2 Bft) O-NO 66 ° 0 min 0,000 mm 1,2 UV-I 188 W/m² 11,2 °C 18,9 °C 14,5 km/h (3 Bft)
11.05.2018 18:06 18,9 °C 62 % 1014,0 hPa 0,0 mm 6,0 km/h (2 Bft) N 5 ° 0 min 0,000 mm 1,2 UV-I 185 W/m² 11,5 °C 18,9 °C 11,3 km/h (2 Bft)
11.05.2018 18:07 18,8 °C 63 % 1014,0 hPa 0,0 mm 4,5 km/h (1 Bft) NO 46 ° 0 min 0,000 mm 1,1 UV-I 179 W/m² 11,6 °C 18,8 °C 8,0 km/h (2 Bft)
11.05.2018 18:08 18,8 °C 62 % 1014,0 hPa 0,0 mm 2,8 km/h (1 Bft) NO 53 ° 0 min 0,000 mm 1,1 UV-I 160 W/m² 11,4 °C 18,8 °C 4,8 km/h (1 Bft)
11.05.2018 18:09 18,8 °C 61 % 1014,0 hPa 0,0 mm 2,8 km/h (1 Bft) NO 49 ° 0 min 0,000 mm 1,1 UV-I 156 W/m² 11,1 °C 18,8 °C 4,8 km/h (1 Bft)
11.05.2018 18:10 18,8 °C 62 % 1014,0 hPa 0,0 mm 4,0 km/h (1 Bft) O-NO 69 ° 0 min 0,000 mm 1,0 UV-I 151 W/m² 11,4 °C 18,8 °C 8,0 km/h (2 Bft)
11.05.2018 18:11 18,7 °C 62 % 1014,0 hPa 0,0 mm 4,4 km/h (1 Bft) NO 43 ° 0 min 0,000 mm 1,0 UV-I 149 W/m² 11,3 °C 18,7 °C 8,0 km/h (2 Bft)
11.05.2018 18:12 18,7 °C 61 % 1014,0 hPa 0,0 mm 6,0 km/h (2 Bft) NO 55 ° 0 min 0,000 mm 1,0 UV-I 149 W/m² 11,0 °C 18,7 °C 8,0 km/h (2 Bft)
11.05.2018 18:13 18,7 °C 61 % 1014,0 hPa 0,0 mm 3,6 km/h (1 Bft) O-NO 63 ° 0 min 0,000 mm 1,0 UV-I 155 W/m² 11,0 °C 18,7 °C 4,8 km/h (1 Bft)
11.05.2018 18:14 18,6 °C 61 % 1014,0 hPa 0,0 mm 1,8 km/h (1 Bft) NO 37 ° 0 min 0,000 mm 0,9 UV-I 162 W/m² 10,9 °C 18,6 °C 3,2 km/h (1 Bft)
11.05.2018 18:15 18,7 °C 63 % 1013,9 hPa 0,0 mm 4,2 km/h (1 Bft) N 355 ° 0 min 0,000 mm 0,9 UV-I 160 W/m² 11,5 °C 18,7 °C 6,4 km/h (2 Bft)
11.05.2018 18:16 18,7 °C 62 % 1014,0 hPa 0,0 mm 5,9 km/h (2 Bft) N-NO 13 ° 0 min 0,000 mm 0,9 UV-I 162 W/m² 11,3 °C 18,7 °C 8,0 km/h (2 Bft)
11.05.2018 18:17 18,8 °C 61 % 1014,0 hPa 0,0 mm 3,8 km/h (1 Bft) N-NO 13 ° 0 min 0,000 mm 0,9 UV-I 155 W/m² 11,1 °C 18,8 °C 4,8 km/h (1 Bft)
11.05.2018 18:18 18,8 °C 63 % 1014,0 hPa 0,0 mm 2,2 km/h (1 Bft) N-NO 13 ° 0 min 0,000 mm 0,9 UV-I 144 W/m² 11,6 °C 18,8 °C 4,8 km/h (1 Bft)
11.05.2018 18:19 18,8 °C 63 % 1014,0 hPa 0,0 mm 3,9 km/h (1 Bft) N-NW 333 ° 0 min 0,000 mm 0,8 UV-I 134 W/m² 11,6 °C 18,8 °C 8,0 km/h (2 Bft)
11.05.2018 18:20 18,8 °C 62 % 1014,0 hPa 0,0 mm 3,0 km/h (1 Bft) O-NO 76 ° 0 min 0,000 mm 0,8 UV-I 128 W/m² 11,4 °C 18,8 °C 6,4 km/h (2 Bft)
11.05.2018 18:21 18,8 °C 63 % 1014,0 hPa 0,0 mm 5,7 km/h (1 Bft) O 92 ° 0 min 0,000 mm 0,8 UV-I 127 W/m² 11,6 °C 18,8 °C 9,7 km/h (2 Bft)
11.05.2018 18:22 18,7 °C 62 % 1014,0 hPa 0,0 mm 3,3 km/h (1 Bft) O-NO 59 ° 0 min 0,000 mm 0,8 UV-I 125 W/m² 11,3 °C 18,7 °C 6,4 km/h (2 Bft)
11.05.2018 18:23 18,7 °C 62 % 1014,0 hPa 0,0 mm 2,4 km/h (1 Bft) O-NO 67 ° 0 min 0,000 mm 0,8 UV-I 125 W/m² 11,3 °C 18,7 °C 4,8 km/h (1 Bft)
11.05.2018 18:24 18,7 °C 62 % 1014,0 hPa 0,0 mm 2,5 km/h (1 Bft) O-NO 74 ° 0 min 0,000 mm 0,8 UV-I 127 W/m² 11,3 °C 18,7 °C 4,8 km/h (1 Bft)
11.05.2018 18:25 18,7 °C 63 % 1014,0 hPa 0,0 mm 5,6 km/h (1 Bft) NO 47 ° 0 min 0,000 mm 0,8 UV-I 128 W/m² 11,5 °C 18,7 °C 9,7 km/h (2 Bft)
11.05.2018 18:26 18,7 °C 62 % 1014,0 hPa 0,0 mm 6,6 km/h (2 Bft) O-NO 69 ° 0 min 0,000 mm 0,8 UV-I 125 W/m² 11,3 °C 18,7 °C 12,9 km/h (3 Bft)
11.05.2018 18:27 18,7 °C 62 % 1014,0 hPa 0,0 mm 4,7 km/h (1 Bft) O-NO 73 ° 0 min 0,000 mm 0,7 UV-I 121 W/m² 11,3 °C 18,7 °C 6,4 km/h (2 Bft)
11.05.2018 18:28 18,7 °C 62 % 1014,1 hPa 0,0 mm 4,2 km/h (1 Bft) NO 49 ° 0 min 0,000 mm 0,7 UV-I 120 W/m² 11,3 °C 18,7 °C 6,4 km/h (2 Bft)
11.05.2018 18:29 18,7 °C 62 % 1014,1 hPa 0,0 mm 4,9 km/h (1 Bft) O-NO 65 ° 0 min 0,000 mm 0,7 UV-I 116 W/m² 11,3 °C 18,7 °C 8,0 km/h (2 Bft)
11.05.2018 18:30 18,7 °C 61 % 1014,0 hPa 0,0 mm 5,0 km/h (1 Bft) O-NO 58 ° 0 min 0,000 mm 0,7 UV-I 114 W/m² 11,0 °C 18,7 °C 8,0 km/h (2 Bft)
11.05.2018 18:31 18,7 °C 62 % 1013,9 hPa 0,0 mm 5,0 km/h (1 Bft) N 5 ° 0 min 0,000 mm 0,7 UV-I 113 W/m² 11,3 °C 18,7 °C 11,3 km/h (2 Bft)
11.05.2018 18:32 18,7 °C 62 % 1014,1 hPa 0,0 mm 5,4 km/h (1 Bft) O-NO 57 ° 0 min 0,000 mm 0,6 UV-I 105 W/m² 11,3 °C 18,7 °C 6,4 km/h (2 Bft)
11.05.2018 18:33 18,7 °C 62 % 1014,1 hPa 0,0 mm 4,8 km/h (1 Bft) O 81 ° 0 min 0,000 mm 0,6 UV-I 104 W/m² 11,3 °C 18,7 °C 6,4 km/h (2 Bft)
11.05.2018 18:34 18,7 °C 63 % 1014,1 hPa 0,0 mm 6,9 km/h (2 Bft) O-NO 69 ° 0 min 0,000 mm 0,6 UV-I 100 W/m² 11,5 °C 18,7 °C 8,0 km/h (2 Bft)
11.05.2018 18:35 18,7 °C 62 % 1014,1 hPa 0,0 mm 4,6 km/h (1 Bft) NO 53 ° 0 min 0,000 mm 0,6 UV-I 98 W/m² 11,3 °C 18,7 °C 8,0 km/h (2 Bft)
11.05.2018 18:36 18,6 °C 62 % 1014,1 hPa 0,0 mm 4,1 km/h (1 Bft) O 79 ° 0 min 0,000 mm 0,5 UV-I 97 W/m² 11,2 °C 18,6 °C 6,4 km/h (2 Bft)
11.05.2018 18:37 18,5 °C 63 % 1014,1 hPa 0,0 mm 3,8 km/h (1 Bft) O-NO 69 ° 0 min 0,000 mm 0,5 UV-I 95 W/m² 11,3 °C 18,5 °C 8,0 km/h (2 Bft)
11.05.2018 18:38 18,4 °C 64 % 1014,0 hPa 0,0 mm 6,9 km/h (2 Bft) O 99 ° 0 min 0,000 mm 0,5 UV-I 93 W/m² 11,5 °C 18,4 °C 11,3 km/h (2 Bft)
11.05.2018 18:39 18,4 °C 64 % 1014,0 hPa 0,0 mm 1,7 km/h (1 Bft) O 99 ° 0 min 0,000 mm 0,5 UV-I 93 W/m² 11,5 °C 18,4 °C 3,2 km/h (1 Bft)
11.05.2018 18:40 18,3 °C 63 % 1014,1 hPa 0,0 mm 0,7 km/h (0 Bft) O 99 ° 0 min 0,000 mm 0,5 UV-I 93 W/m² 11,1 °C 18,3 °C 3,2 km/h (1 Bft)
11.05.2018 18:41 18,3 °C 64 % 1014,0 hPa 0,0 mm 0,8 km/h (0 Bft) O 99 ° 0 min 0,000 mm 0,5 UV-I 91 W/m² 11,4 °C 18,3 °C 3,2 km/h (1 Bft)
11.05.2018 18:42 18,3 °C 64 % 1014,0 hPa 0,0 mm 0,6 km/h (0 Bft) O 99 ° 0 min 0,000 mm 0,0 UV-I 91 W/m² 11,4 °C 18,3 °C 1,6 km/h (1 Bft)
11.05.2018 18:43 18,2 °C 64 % 1014,0 hPa 0,0 mm 0,7 km/h (0 Bft) O 99 ° 0 min 0,000 mm 0,0 UV-I 91 W/m² 11,3 °C 18,2 °C 1,6 km/h (1 Bft)
11.05.2018 18:44 18,2 °C 64 % 1014,0 hPa 0,0 mm 1,4 km/h (1 Bft) O 99 ° 0 min 0,000 mm 0,0 UV-I 91 W/m² 11,3 °C 18,2 °C 3,2 km/h (1 Bft)
11.05.2018 18:45 18,2 °C 66 % 1014,1 hPa 0,0 mm 2,3 km/h (1 Bft) NO 48 ° 0 min 0,000 mm 0,0 UV-I 91 W/m² 11,7 °C 18,2 °C 4,8 km/h (1 Bft)
11.05.2018 18:46 18,1 °C 66 % 1014,0 hPa 0,0 mm 2,3 km/h (1 Bft) NO 49 ° 0 min 0,000 mm 0,0 UV-I 90 W/m² 11,6 °C 18,1 °C 4,8 km/h (1 Bft)
11.05.2018 18:47 18,1 °C 66 % 1014,0 hPa 0,0 mm 3,2 km/h (1 Bft) O-NO 63 ° 0 min 0,000 mm 0,0 UV-I 91 W/m² 11,6 °C 18,1 °C 4,8 km/h (1 Bft)
11.05.2018 18:48 18,1 °C 67 % 1014,1 hPa 0,0 mm 1,5 km/h (1 Bft) O-NO 73 ° 0 min 0,000 mm 0,0 UV-I 90 W/m² 11,9 °C 18,1 °C 3,2 km/h (1 Bft)
11.05.2018 18:49 18,1 °C 66 % 1014,0 hPa 0,0 mm 2,4 km/h (1 Bft) O-NO 70 ° 0 min 0,000 mm 0,0 UV-I 88 W/m² 11,6 °C 18,1 °C 4,8 km/h (1 Bft)
11.05.2018 18:50 18,2 °C 65 % 1014,0 hPa 0,0 mm 2,3 km/h (1 Bft) O-NO 70 ° 0 min 0,000 mm 0,0 UV-I 84 W/m² 11,5 °C 18,2 °C 3,2 km/h (1 Bft)
11.05.2018 18:51 18,3 °C 66 % 1014,1 hPa 0,0 mm 2,0 km/h (1 Bft) O-NO 67 ° 0 min 0,000 mm 0,0 UV-I 83 W/m² 11,8 °C 18,3 °C 4,8 km/h (1 Bft)
11.05.2018 18:52 18,3 °C 63 % 1014,0 hPa 0,0 mm 2,5 km/h (1 Bft) O-NO 67 ° 0 min 0,000 mm 0,0 UV-I 84 W/m² 11,1 °C 18,3 °C 4,8 km/h (1 Bft)
11.05.2018 18:53 18,3 °C 68 % 1014,1 hPa 0,0 mm 3,0 km/h (1 Bft) O-NO 67 ° 0 min 0,000 mm 0,0 UV-I 91 W/m² 12,3 °C 18,3 °C 4,8 km/h (1 Bft)
11.05.2018 18:54 18,2 °C 69 % 1014,1 hPa 0,0 mm 0,3 km/h (0 Bft) O-NO 67 ° 0 min 0,000 mm 0,0 UV-I 104 W/m² 12,4 °C 18,2 °C 1,6 km/h (1 Bft)
11.05.2018 18:55 18,2 °C 66 % 1014,1 hPa 0,0 mm 0,7 km/h (0 Bft) O-NO 67 ° 0 min 0,000 mm 0,0 UV-I 130 W/m² 11,7 °C 18,2 °C 1,6 km/h (1 Bft)
11.05.2018 18:56 18,2 °C 65 % 1014,1 hPa 0,0 mm 0,0 km/h (0 Bft) O-NO 67 ° 0 min 0,000 mm 0,0 UV-I 125 W/m² 11,5 °C 18,2 °C 0,0 km/h (0 Bft)
11.05.2018 18:57 18,2 °C 66 % 1014,1 hPa 0,0 mm 0,0 km/h (0 Bft) O-NO 67 ° 0 min 0,000 mm 0,0 UV-I 90 W/m² 11,7 °C 18,2 °C 0,0 km/h (0 Bft)
11.05.2018 18:58 18,1 °C 67 % 1014,0 hPa 0,0 mm 0,6 km/h (0 Bft) O-NO 67 ° 0 min 0,000 mm 0,0 UV-I 79 W/m² 11,9 °C 18,1 °C 1,6 km/h (1 Bft)
11.05.2018 18:59 18,1 °C 66 % 1014,0 hPa 0,0 mm 3,3 km/h (1 Bft) O-NO 74 ° 0 min 0,000 mm 0,0 UV-I 77 W/m² 11,6 °C 18,1 °C 4,8 km/h (1 Bft)
11.05.2018 19:00 18,1 °C 69 % 1014,0 hPa 0,0 mm 3,4 km/h (1 Bft) O 82 ° 0 min 0,000 mm 0,0 UV-I 84 W/m² 12,3 °C 18,1 °C 4,8 km/h (1 Bft)
11.05.2018 19:01 18,0 °C 70 % 1014,0 hPa 0,0 mm 1,5 km/h (1 Bft) O 82 ° 0 min 0,102 mm 0,0 UV-I 95 W/m² 12,4 °C 18,0 °C 3,2 km/h (1 Bft)
11.05.2018 19:02 17,9 °C 68 % 1014,0 hPa 0,0 mm 3,4 km/h (1 Bft) O 98 ° 0 min 0,000 mm 0,0 UV-I 113 W/m² 11,9 °C 17,9 °C 6,4 km/h (2 Bft)
11.05.2018 19:03 18,0 °C 66 % 1014,0 hPa 0,0 mm 3,7 km/h (1 Bft) NO 55 ° 0 min 0,000 mm 0,0 UV-I 98 W/m² 11,6 °C 18,0 °C 4,8 km/h (1 Bft)
11.05.2018 19:04 18,1 °C 67 % 1014,0 hPa 0,0 mm 4,2 km/h (1 Bft) O-SO 112 ° 0 min 0,000 mm 0,0 UV-I 116 W/m² 11,9 °C 18,1 °C 4,8 km/h (1 Bft)
11.05.2018 19:05 18,1 °C 66 % 1014,0 hPa 0,0 mm 3,7 km/h (1 Bft) O-NO 76 ° 0 min 0,000 mm 0,0 UV-I 113 W/m² 11,6 °C 18,1 °C 6,4 km/h (2 Bft)
11.05.2018 19:06 18,1 °C 69 % 1014,0 hPa 0,0 mm 2,1 km/h (1 Bft) O-NO 76 ° 0 min 0,000 mm 0,0 UV-I 95 W/m² 12,3 °C 18,1 °C 3,2 km/h (1 Bft)
11.05.2018 19:07 18,1 °C 66 % 1014,0 hPa 0,0 mm 4,1 km/h (1 Bft) O-NO 69 ° 0 min 0,000 mm 0,0 UV-I 90 W/m² 11,6 °C 18,1 °C 6,4 km/h (2 Bft)
11.05.2018 19:08 18,1 °C 67 % 1014,0 hPa 0,0 mm 4,0 km/h (1 Bft) O-NO 71 ° 0 min 0,000 mm 0,0 UV-I 91 W/m² 11,9 °C 18,1 °C 6,4 km/h (2 Bft)
11.05.2018 19:09 18,1 °C 67 % 1014,0 hPa 0,0 mm 0,8 km/h (0 Bft) O-NO 71 ° 0 min 0,000 mm 0,0 UV-I 88 W/m² 11,9 °C 18,1 °C 3,2 km/h (1 Bft)
11.05.2018 19:10 18,0 °C 69 % 1014,0 hPa 0,0 mm 3,1 km/h (1 Bft) O-NO 73 ° 0 min 0,000 mm 0,0 UV-I 90 W/m² 12,2 °C 18,0 °C 4,8 km/h (1 Bft)
11.05.2018 19:11 17,9 °C 69 % 1013,9 hPa 0,0 mm 0,7 km/h (0 Bft) O-NO 73 ° 0 min 0,000 mm 0,0 UV-I 90 W/m² 12,1 °C 17,9 °C 3,2 km/h (1 Bft)
11.05.2018 19:12 18,0 °C 68 % 1014,0 hPa 0,0 mm 0,1 km/h (0 Bft) O-NO 73 ° 0 min 0,000 mm 0,0 UV-I 88 W/m² 12,0 °C 18,0 °C 1,6 km/h (1 Bft)
11.05.2018 19:13 18,0 °C 68 % 1013,9 hPa 0,0 mm 2,1 km/h (1 Bft) O-NO 73 ° 0 min 0,000 mm 0,0 UV-I 86 W/m² 12,0 °C 18,0 °C 4,8 km/h (1 Bft)
11.05.2018 19:14 17,9 °C 69 % 1013,9 hPa 0,0 mm 0,0 km/h (0 Bft) O-NO 73 ° 0 min 0,000 mm 0,0 UV-I 84 W/m² 12,1 °C 17,9 °C 0,0 km/h (0 Bft)
11.05.2018 19:15 17,9 °C 68 % 1014,0 hPa 0,0 mm 0,7 km/h (0 Bft) O 80 ° 0 min 0,000 mm 0,0 UV-I 83 W/m² 11,9 °C 17,9 °C 1,6 km/h (1 Bft)
11.05.2018 19:16 17,9 °C 68 % 1013,9 hPa 0,0 mm 0,2 km/h (0 Bft) O 80 ° 0 min 0,000 mm 0,0 UV-I 81 W/m² 11,9 °C 17,9 °C 3,2 km/h (1 Bft)
11.05.2018 19:17 17,9 °C 67 % 1013,9 hPa 0,0 mm 3,1 km/h (1 Bft) O-NO 68 ° 0 min 0,000 mm 0,0 UV-I 81 W/m² 11,7 °C 17,9 °C 4,8 km/h (1 Bft)
11.05.2018 19:18 17,9 °C 69 % 1013,9 hPa 0,0 mm 2,7 km/h (1 Bft) O-NO 70 ° 0 min 0,000 mm 0,0 UV-I 79 W/m² 12,1 °C 17,9 °C 4,8 km/h (1 Bft)
11.05.2018 19:19 17,9 °C 67 % 1013,9 hPa 0,0 mm 2,8 km/h (1 Bft) O-NO 70 ° 0 min 0,000 mm 0,0 UV-I 76 W/m² 11,7 °C 17,9 °C 4,8 km/h (1 Bft)
11.05.2018 19:20 17,8 °C 69 % 1013,9 hPa 0,0 mm 1,1 km/h (1 Bft) O-NO 71 ° 0 min 0,000 mm 0,0 UV-I 74 W/m² 12,0 °C 17,8 °C 3,2 km/h (1 Bft)
11.05.2018 19:21 17,8 °C 68 % 1014,0 hPa 0,0 mm 2,7 km/h (1 Bft) O-NO 71 ° 0 min 0,000 mm 0,0 UV-I 74 W/m² 11,8 °C 17,8 °C 4,8 km/h (1 Bft)
11.05.2018 19:22 17,8 °C 68 % 1014,0 hPa 0,0 mm 0,9 km/h (0 Bft) O-NO 71 ° 0 min 0,000 mm 0,0 UV-I 74 W/m² 11,8 °C 17,8 °C 1,6 km/h (1 Bft)
11.05.2018 19:23 17,8 °C 68 % 1014,0 hPa 0,0 mm 0,0 km/h (0 Bft) O-NO 71 ° 0 min 0,000 mm 0,0 UV-I 74 W/m² 11,8 °C 17,8 °C 0,0 km/h (0 Bft)
11.05.2018 19:24 17,8 °C 71 % 1014,0 hPa 0,0 mm 0,0 km/h (0 Bft) O-NO 71 ° 0 min 0,000 mm 0,0 UV-I 74 W/m² 12,5 °C 17,8 °C 0,0 km/h (0 Bft)
11.05.2018 19:25 17,7 °C 70 % 1014,0 hPa 0,0 mm 0,1 km/h (0 Bft) O-NO 71 ° 0 min 0,000 mm 0,0 UV-I 77 W/m² 12,2 °C 17,7 °C 1,6 km/h (1 Bft)
11.05.2018 19:26 17,6 °C 71 % 1014,0 hPa 0,0 mm 1,8 km/h (1 Bft) O-NO 71 ° 0 min 0,000 mm 0,0 UV-I 79 W/m² 12,3 °C 17,6 °C 3,2 km/h (1 Bft)
11.05.2018 19:27 17,5 °C 69 % 1014,0 hPa 0,0 mm 0,9 km/h (0 Bft) O-NO 71 ° 0 min 0,000 mm 0,0 UV-I 84 W/m² 11,7 °C 17,5 °C 1,6 km/h (1 Bft)
11.05.2018 19:28 17,5 °C 69 % 1014,0 hPa 0,0 mm 1,3 km/h (1 Bft) O-NO 71 ° 0 min 0,000 mm 0,0 UV-I 83 W/m² 11,7 °C 17,5 °C 3,2 km/h (1 Bft)
11.05.2018 19:29 17,5 °C 70 % 1014,0 hPa 0,0 mm 0,5 km/h (0 Bft) O-NO 71 ° 0 min 0,000 mm 0,0 UV-I 81 W/m² 12,0 °C 17,5 °C 3,2 km/h (1 Bft)
11.05.2018 19:30 17,5 °C 69 % 1014,0 hPa 0,0 mm 0,6 km/h (0 Bft) O-NO 71 ° 0 min 0,000 mm 0,0 UV-I 84 W/m² 11,7 °C 17,5 °C 1,6 km/h (1 Bft)
11.05.2018 19:31 17,5 °C 71 % 1014,0 hPa 0,0 mm 0,5 km/h (0 Bft) O-NO 71 ° 0 min 0,000 mm 0,0 UV-I 91 W/m² 12,2 °C 17,5 °C 1,6 km/h (1 Bft)
11.05.2018 19:32 17,4 °C 72 % 1014,0 hPa 0,0 mm 0,1 km/h (0 Bft) O-NO 71 ° 0 min 0,000 mm 0,0 UV-I 98 W/m² 12,3 °C 17,4 °C 1,6 km/h (1 Bft)
11.05.2018 19:33 17,4 °C 70 % 1014,0 hPa 0,0 mm 0,0 km/h (0 Bft) O-NO 71 ° 0 min 0,000 mm 0,0 UV-I 105 W/m² 11,9 °C 17,4 °C 0,0 km/h (0 Bft)
11.05.2018 19:34 17,5 °C 71 % 1014,0 hPa 0,0 mm 0,1 km/h (0 Bft) O-NO 71 ° 0 min 0,000 mm 0,0 UV-I 102 W/m² 12,2 °C 17,5 °C 1,6 km/h (1 Bft)
11.05.2018 19:35 17,5 °C 73 % 1014,0 hPa 0,0 mm 1,2 km/h (1 Bft) O-NO 71 ° 0 min 0,000 mm 0,0 UV-I 98 W/m² 12,6 °C 17,5 °C 3,2 km/h (1 Bft)
11.05.2018 19:36 17,4 °C 71 % 1014,1 hPa 0,0 mm 0,0 km/h (0 Bft) O-NO 71 ° 0 min 0,000 mm 0,0 UV-I 93 W/m² 12,1 °C 17,4 °C 0,0 km/h (0 Bft)
11.05.2018 19:37 17,4 °C 72 % 1014,1 hPa 0,0 mm 0,0 km/h (0 Bft) O-NO 71 ° 0 min 0,000 mm 0,0 UV-I 93 W/m² 12,3 °C 17,4 °C 0,0 km/h (0 Bft)
11.05.2018 19:38 17,4 °C 71 % 1014,0 hPa 0,0 mm 0,0 km/h (0 Bft) O-NO 71 ° 0 min 0,000 mm 0,0 UV-I 93 W/m² 12,1 °C 17,4 °C 0,0 km/h (0 Bft)
11.05.2018 19:39 17,4 °C 71 % 1014,1 hPa 0,0 mm 0,0 km/h (0 Bft) O-NO 71 ° 0 min 0,000 mm 0,0 UV-I 84 W/m² 12,1 °C 17,4 °C 0,0 km/h (0 Bft)
11.05.2018 19:40 17,3 °C 70 % 1014,1 hPa 0,0 mm 0,0 km/h (0 Bft) O-NO 71 ° 0 min 0,000 mm 0,0 UV-I 76 W/m² 11,8 °C 17,3 °C 0,0 km/h (0 Bft)
11.05.2018 19:41 17,3 °C 70 % 1014,1 hPa 0,0 mm 0,0 km/h (0 Bft) O-NO 71 ° 0 min 0,000 mm 0,0 UV-I 72 W/m² 11,8 °C 17,3 °C 0,0 km/h (0 Bft)
11.05.2018 19:42 17,3 °C 72 % 1014,1 hPa 0,0 mm 0,0 km/h (0 Bft) O-NO 71 ° 0 min 0,000 mm 0,0 UV-I 74 W/m² 12,2 °C 17,3 °C 0,0 km/h (0 Bft)
11.05.2018 19:43 17,3 °C 70 % 1014,1 hPa 0,0 mm 0,0 km/h (0 Bft) O-NO 71 ° 0 min 0,000 mm 0,0 UV-I 74 W/m² 11,8 °C 17,3 °C 0,0 km/h (0 Bft)
11.05.2018 19:44 17,3 °C 72 % 1014,1 hPa 0,0 mm 0,6 km/h (0 Bft) O-NO 71 ° 0 min 0,000 mm 0,0 UV-I 69 W/m² 12,2 °C 17,3 °C 1,6 km/h (1 Bft)
11.05.2018 19:45 17,2 °C 71 % 1014,1 hPa 0,0 mm 1,5 km/h (1 Bft) O-NO 71 ° 0 min 0,000 mm 0,0 UV-I 67 W/m² 11,9 °C 17,2 °C 3,2 km/h (1 Bft)
11.05.2018 19:46 17,2 °C 74 % 1014,1 hPa 0,0 mm 0,0 km/h (0 Bft) O-NO 71 ° 0 min 0,000 mm 0,0 UV-I 69 W/m² 12,5 °C 17,2 °C 0,0 km/h (0 Bft)
11.05.2018 19:47 17,1 °C 72 % 1014,2 hPa 0,0 mm 0,0 km/h (0 Bft) O-NO 71 ° 0 min 0,000 mm 0,0 UV-I 72 W/m² 12,0 °C 17,1 °C 0,0 km/h (0 Bft)
11.05.2018 19:48 17,1 °C 71 % 1014,1 hPa 0,0 mm 0,0 km/h (0 Bft) O-NO 71 ° 0 min 0,000 mm 0,0 UV-I 69 W/m² 11,8 °C 17,1 °C 0,0 km/h (0 Bft)
11.05.2018 19:49 17,1 °C 70 % 1014,2 hPa 0,0 mm 0,0 km/h (0 Bft) O-NO 71 ° 0 min 0,000 mm 0,0 UV-I 72 W/m² 11,6 °C 17,1 °C 0,0 km/h (0 Bft)
11.05.2018 19:50 17,0 °C 72 % 1014,1 hPa 0,0 mm 0,0 km/h (0 Bft) O-NO 71 ° 0 min 0,000 mm 0,0 UV-I 74 W/m² 11,9 °C 17,0 °C 0,0 km/h (0 Bft)
11.05.2018 19:51 16,9 °C 72 % 1014,1 hPa 0,0 mm 0,0 km/h (0 Bft) O-NO 71 ° 0 min 0,000 mm 0,0 UV-I 74 W/m² 11,8 °C 16,9 °C 0,0 km/h (0 Bft)
11.05.2018 19:52 16,9 °C 73 % 1014,1 hPa 0,0 mm 0,0 km/h (0 Bft) O-NO 71 ° 0 min 0,000 mm 0,0 UV-I 76 W/m² 12,0 °C 16,9 °C 0,0 km/h (0 Bft)
11.05.2018 19:53 16,9 °C 73 % 1014,2 hPa 0,0 mm 0,0 km/h (0 Bft) O-NO 71 ° 0 min 0,000 mm 0,0 UV-I 77 W/m² 12,0 °C 16,9 °C 0,0 km/h (0 Bft)
11.05.2018 19:54 16,9 °C 73 % 1014,2 hPa 0,0 mm 0,0 km/h (0 Bft) O-NO 71 ° 0 min 0,000 mm 0,0 UV-I 76 W/m² 12,0 °C 16,9 °C 0,0 km/h (0 Bft)
11.05.2018 19:55 16,9 °C 73 % 1014,2 hPa 0,0 mm 0,0 km/h (0 Bft) O-NO 71 ° 0 min 0,000 mm 0,0 UV-I 77 W/m² 12,0 °C 16,9 °C 0,0 km/h (0 Bft)
11.05.2018 19:56 16,9 °C 71 % 1014,1 hPa 0,0 mm 0,0 km/h (0 Bft) O-NO 71 ° 0 min 0,000 mm 0,0 UV-I 76 W/m² 11,6 °C 16,9 °C 0,0 km/h (0 Bft)
11.05.2018 19:57 16,9 °C 74 % 1014,1 hPa 0,0 mm 0,0 km/h (0 Bft) O-NO 71 ° 0 min 0,000 mm 0,0 UV-I 76 W/m² 12,2 °C 16,9 °C 0,0 km/h (0 Bft)
11.05.2018 19:58 16,8 °C 73 % 1014,1 hPa 0,0 mm 0,0 km/h (0 Bft) O-NO 71 ° 0 min 0,000 mm 0,0 UV-I 74 W/m² 11,9 °C 16,8 °C 0,0 km/h (0 Bft)
11.05.2018 19:59 16,7 °C 74 % 1014,2 hPa 0,0 mm 0,0 km/h (0 Bft) O-NO 71 ° 0 min 0,000 mm 0,0 UV-I 72 W/m² 12,0 °C 16,7 °C 0,0 km/h (0 Bft)
11.05.2018 20:00 16,7 °C 72 % 1014,1 hPa 0,0 mm 0,0 km/h (0 Bft) O-NO 71 ° 0 min 0,000 mm 0,0 UV-I 70 W/m² 11,6 °C 16,7 °C 0,0 km/h (0 Bft)
11.05.2018 20:01 16,7 °C 73 % 1014,2 hPa 0,0 mm 0,0 km/h (0 Bft) O-NO 71 ° 0 min 0,050 mm 0,0 UV-I 69 W/m² 11,8 °C 16,7 °C 0,0 km/h (0 Bft)
11.05.2018 20:02 16,7 °C 73 % 1014,2 hPa 0,0 mm 0,0 km/h (0 Bft) O-NO 71 ° 0 min 0,000 mm 0,0 UV-I 69 W/m² 11,8 °C 16,7 °C 0,0 km/h (0 Bft)
11.05.2018 20:03 16,7 °C 74 % 1014,2 hPa 0,0 mm 0,0 km/h (0 Bft) O-NO 71 ° 0 min 0,000 mm 0,0 UV-I 67 W/m² 12,0 °C 16,7 °C 0,0 km/h (0 Bft)
11.05.2018 20:04 16,7 °C 72 % 1014,2 hPa 0,0 mm 0,0 km/h (0 Bft) O-NO 71 ° 0 min 0,000 mm 0,0 UV-I 65 W/m² 11,6 °C 16,7 °C 0,0 km/h (0 Bft)
11.05.2018 20:05 16,7 °C 73 % 1014,2 hPa 0,0 mm 0,0 km/h (0 Bft) O-NO 71 ° 0 min 0,000 mm 0,0 UV-I 65 W/m² 11,8 °C 16,7 °C 0,0 km/h (0 Bft)
11.05.2018 20:06 16,7 °C 72 % 1014,3 hPa 0,0 mm 0,0 km/h (0 Bft) O-NO 71 ° 0 min 0,000 mm 0,0 UV-I 62 W/m² 11,6 °C 16,7 °C 0,0 km/h (0 Bft)
11.05.2018 20:07 16,8 °C 71 % 1014,3 hPa 0,0 mm 0,0 km/h (0 Bft) O-NO 71 ° 0 min 0,000 mm 0,0 UV-I 62 W/m² 11,5 °C 16,8 °C 0,0 km/h (0 Bft)
11.05.2018 20:08 16,8 °C 74 % 1014,3 hPa 0,0 mm 1,0 km/h (0 Bft) O-NO 71 ° 0 min 0,000 mm 0,0 UV-I 60 W/m² 12,1 °C 16,8 °C 3,2 km/h (1 Bft)
11.05.2018 20:09 16,8 °C 74 % 1014,3 hPa 0,0 mm 0,1 km/h (0 Bft) O-NO 71 ° 0 min 0,000 mm 0,0 UV-I 58 W/m² 12,1 °C 16,8 °C 1,6 km/h (1 Bft)
11.05.2018 20:10 16,8 °C 74 % 1014,2 hPa 0,0 mm 0,0 km/h (0 Bft) O-NO 71 ° 0 min 0,000 mm 0,0 UV-I 56 W/m² 12,1 °C 16,8 °C 0,0 km/h (0 Bft)
11.05.2018 20:11 16,8 °C 74 % 1014,3 hPa 0,0 mm 0,0 km/h (0 Bft) O-NO 71 ° 0 min 0,000 mm 0,0 UV-I 51 W/m² 12,1 °C 16,8 °C 0,0 km/h (0 Bft)
11.05.2018 20:12 16,7 °C 75 % 1014,3 hPa 0,0 mm 0,0 km/h (0 Bft) O-NO 71 ° 0 min 0,000 mm 0,0 UV-I 49 W/m² 12,2 °C 16,7 °C 0,0 km/h (0 Bft)
11.05.2018 20:13 16,7 °C 74 % 1014,3 hPa 0,0 mm 0,0 km/h (0 Bft) O-NO 71 ° 0 min 0,000 mm 0,0 UV-I 47 W/m² 12,0 °C 16,7 °C 0,0 km/h (0 Bft)
11.05.2018 20:14 16,7 °C 75 % 1014,2 hPa 0,0 mm 0,0 km/h (0 Bft) O-NO 71 ° 0 min 0,000 mm 0,0 UV-I 46 W/m² 12,2 °C 16,7 °C 0,0 km/h (0 Bft)
11.05.2018 20:15 16,7 °C 75 % 1014,2 hPa 0,0 mm 0,0 km/h (0 Bft) O-NO 71 ° 0 min 0,000 mm 0,0 UV-I 44 W/m² 12,2 °C 16,7 °C 0,0 km/h (0 Bft)
11.05.2018 20:16 16,6 °C 74 % 1014,2 hPa 0,0 mm 0,0 km/h (0 Bft) O-NO 71 ° 0 min 0,000 mm 0,0 UV-I 42 W/m² 11,9 °C 16,6 °C 0,0 km/h (0 Bft)
11.05.2018 20:17 16,7 °C 73 % 1014,3 hPa 0,0 mm 0,0 km/h (0 Bft) O-NO 71 ° 0 min 0,000 mm 0,0 UV-I 39 W/m² 11,8 °C 16,7 °C 0,0 km/h (0 Bft)
11.05.2018 20:18 16,7 °C 73 % 1014,3 hPa 0,0 mm 0,0 km/h (0 Bft) O-NO 71 ° 0 min 0,000 mm 0,0 UV-I 35 W/m² 11,8 °C 16,7 °C 0,0 km/h (0 Bft)
11.05.2018 20:19 16,6 °C 75 % 1014,3 hPa 0,0 mm 0,0 km/h (0 Bft) O-NO 71 ° 0 min 0,000 mm 0,0 UV-I 35 W/m² 12,1 °C 16,6 °C 0,0 km/h (0 Bft)
11.05.2018 20:20 16,6 °C 75 % 1014,3 hPa 0,0 mm 0,0 km/h (0 Bft) O-NO 71 ° 0 min 0,000 mm 0,0 UV-I 33 W/m² 12,1 °C 16,6 °C 0,0 km/h (0 Bft)
11.05.2018 20:21 16,4 °C 75 % 1014,3 hPa 0,0 mm 0,0 km/h (0 Bft) O-NO 71 ° 0 min 0,000 mm 0,0 UV-I 32 W/m² 12,0 °C 16,4 °C 0,0 km/h (0 Bft)
11.05.2018 20:22 16,4 °C 75 % 1014,3 hPa 0,0 mm 0,0 km/h (0 Bft) O-NO 71 ° 0 min 0,000 mm 0,0 UV-I 32 W/m² 12,0 °C 16,4 °C 0,0 km/h (0 Bft)
11.05.2018 20:23 16,3 °C 76 % 1014,3 hPa 0,0 mm 0,2 km/h (0 Bft) O-NO 71 ° 0 min 0,000 mm 0,0 UV-I 30 W/m² 12,1 °C 16,3 °C 1,6 km/h (1 Bft)
11.05.2018 20:24 16,3 °C 76 % 1014,3 hPa 0,0 mm 0,0 km/h (0 Bft) O-NO 71 ° 0 min 0,000 mm 0,0 UV-I 28 W/m² 12,1 °C 16,3 °C 0,0 km/h (0 Bft)
11.05.2018 20:25 16,2 °C 77 % 1014,3 hPa 0,0 mm 0,0 km/h (0 Bft) O-NO 71 ° 0 min 0,000 mm 0,0 UV-I 28 W/m² 12,2 °C 16,2 °C 0,0 km/h (0 Bft)
11.05.2018 20:26 16,1 °C 78 % 1014,3 hPa 0,0 mm 0,0 km/h (0 Bft) O-NO 71 ° 0 min 0,000 mm 0,0 UV-I 26 W/m² 12,3 °C 16,1 °C 0,0 km/h (0 Bft)
11.05.2018 20:27 15,9 °C 79 % 1014,3 hPa 0,0 mm 0,0 km/h (0 Bft) O-NO 71 ° 0 min 0,000 mm 0,0 UV-I 25 W/m² 12,3 °C 15,9 °C 0,0 km/h (0 Bft)
11.05.2018 20:28 15,8 °C 79 % 1014,3 hPa 0,0 mm 0,5 km/h (0 Bft) O-NO 71 ° 0 min 0,000 mm 0,0 UV-I 25 W/m² 12,2 °C 15,8 °C 1,6 km/h (1 Bft)
11.05.2018 20:29 15,7 °C 79 % 1014,3 hPa 0,0 mm 0,2 km/h (0 Bft) O-NO 71 ° 0 min 0,000 mm 0,0 UV-I 21 W/m² 12,1 °C 15,7 °C 1,6 km/h (1 Bft)
11.05.2018 20:30 15,7 °C 79 % 1014,3 hPa 0,0 mm 0,0 km/h (0 Bft) O-NO 71 ° 0 min 0,000 mm 0,0 UV-I 21 W/m² 12,1 °C 15,7 °C 0,0 km/h (0 Bft)
11.05.2018 20:31 15,7 °C 79 % 1014,3 hPa 0,0 mm 0,1 km/h (0 Bft) O-NO 71 ° 0 min 0,000 mm 0,0 UV-I 19 W/m² 12,1 °C 15,7 °C 1,6 km/h (1 Bft)
11.05.2018 20:32 15,8 °C 79 % 1014,3 hPa 0,0 mm 0,0 km/h (0 Bft) O-NO 71 ° 0 min 0,000 mm 0,0 UV-I 18 W/m² 12,2 °C 15,8 °C 0,0 km/h (0 Bft)
11.05.2018 20:33 15,8 °C 78 % 1014,3 hPa 0,0 mm 0,0 km/h (0 Bft) O-NO 71 ° 0 min 0,000 mm 0,0 UV-I 18 W/m² 12,0 °C 15,8 °C 0,0 km/h (0 Bft)
11.05.2018 20:34 15,8 °C 78 % 1014,3 hPa 0,0 mm 0,7 km/h (0 Bft) O-NO 71 ° 0 min 0,000 mm 0,0 UV-I 16 W/m² 12,0 °C 15,8 °C 3,2 km/h (1 Bft)
11.05.2018 20:35 15,7 °C 78 % 1014,3 hPa 0,0 mm 1,1 km/h (1 Bft) O-NO 71 ° 0 min 0,000 mm 0,0 UV-I 14 W/m² 11,9 °C 15,7 °C 3,2 km/h (1 Bft)
11.05.2018 20:36 15,7 °C 79 % 1014,3 hPa 0,0 mm 1,0 km/h (0 Bft) O-NO 71 ° 0 min 0,000 mm 0,0 UV-I 14 W/m² 12,1 °C 15,7 °C 1,6 km/h (1 Bft)
11.05.2018 20:37 15,7 °C 79 % 1014,3 hPa 0,0 mm 2,5 km/h (1 Bft) O-NO 71 ° 0 min 0,000 mm 0,0 UV-I 12 W/m² 12,1 °C 15,7 °C 3,2 km/h (1 Bft)
11.05.2018 20:38 15,6 °C 79 % 1014,4 hPa 0,0 mm 2,1 km/h (1 Bft) O-NO 71 ° 0 min 0,000 mm 0,0 UV-I 12 W/m² 12,0 °C 15,6 °C 3,2 km/h (1 Bft)
11.05.2018 20:39 15,5 °C 79 % 1014,3 hPa 0,0 mm 2,0 km/h (1 Bft) O-NO 71 ° 0 min 0,000 mm 0,0 UV-I 11 W/m² 11,9 °C 15,5 °C 4,8 km/h (1 Bft)
11.05.2018 20:40 15,4 °C 80 % 1014,4 hPa 0,0 mm 1,4 km/h (1 Bft) O-NO 71 ° 0 min 0,000 mm 0,0 UV-I 11 W/m² 12,0 °C 15,4 °C 3,2 km/h (1 Bft)
11.05.2018 20:41 15,3 °C 80 % 1014,4 hPa 0,0 mm 1,6 km/h (1 Bft) O-NO 71 ° 0 min 0,000 mm 0,0 UV-I 9 W/m² 11,9 °C 15,3 °C 3,2 km/h (1 Bft)
11.05.2018 20:42 15,3 °C 80 % 1014,3 hPa 0,0 mm 1,4 km/h (1 Bft) O-NO 71 ° 0 min 0,000 mm 0,0 UV-I 9 W/m² 11,9 °C 15,3 °C 3,2 km/h (1 Bft)
11.05.2018 20:43 15,3 °C 80 % 1014,4 hPa 0,0 mm 0,9 km/h (0 Bft) O-NO 71 ° 0 min 0,000 mm 0,0 UV-I 7 W/m² 11,9 °C 15,3 °C 3,2 km/h (1 Bft)
11.05.2018 20:44 15,3 °C 80 % 1014,4 hPa 0,0 mm 0,0 km/h (0 Bft) O-NO 71 ° 0 min 0,000 mm 0,0 UV-I 7 W/m² 11,9 °C 15,3 °C 0,0 km/h (0 Bft)
11.05.2018 20:45 15,2 °C 80 % 1014,4 hPa 0,0 mm 1,0 km/h (0 Bft) O-NO 71 ° 0 min 0,000 mm 0,0 UV-I 5 W/m² 11,8 °C 15,2 °C 1,6 km/h (1 Bft)
11.05.2018 20:46 15,2 °C 80 % 1014,4 hPa 0,0 mm 1,5 km/h (1 Bft) O-NO 71 ° 0 min 0,000 mm 0,0 UV-I 5 W/m² 11,8 °C 15,2 °C 3,2 km/h (1 Bft)
11.05.2018 20:47 15,2 °C 80 % 1014,4 hPa 0,0 mm 1,7 km/h (1 Bft) O-NO 71 ° 0 min 0,000 mm 0,0 UV-I 5 W/m² 11,8 °C 15,2 °C 3,2 km/h (1 Bft)
11.05.2018 20:48 15,2 °C 80 % 1014,4 hPa 0,0 mm 2,4 km/h (1 Bft) O-NO 71 ° 0 min 0,000 mm 0,0 UV-I 0 W/m² 11,8 °C 15,2 °C 3,2 km/h (1 Bft)
11.05.2018 20:49 15,1 °C 80 % 1014,5 hPa 0,0 mm 2,3 km/h (1 Bft) O-NO 71 ° 0 min 0,000 mm 0,0 UV-I 0 W/m² 11,7 °C 15,1 °C 3,2 km/h (1 Bft)
11.05.2018 20:50 15,1 °C 80 % 1014,5 hPa 0,0 mm 3,0 km/h (1 Bft) O-NO 71 ° 0 min 0,000 mm 0,0 UV-I 0 W/m² 11,7 °C 15,1 °C 3,2 km/h (1 Bft)
11.05.2018 20:51 14,9 °C 80 % 1014,5 hPa 0,0 mm 2,9 km/h (1 Bft) O-NO 71 ° 0 min 0,000 mm 0,0 UV-I 0 W/m² 11,5 °C 14,9 °C 3,2 km/h (1 Bft)
11.05.2018 20:52 14,8 °C 81 % 1014,5 hPa 0,0 mm 3,5 km/h (1 Bft) O-NO 71 ° 0 min 0,000 mm 0,0 UV-I 0 W/m² 11,6 °C 14,8 °C 4,8 km/h (1 Bft)
11.05.2018 20:53 14,7 °C 81 % 1014,5 hPa 0,0 mm 3,8 km/h (1 Bft) O-NO 71 ° 0 min 0,000 mm 0,0 UV-I 0 W/m² 11,5 °C 14,7 °C 4,8 km/h (1 Bft)
11.05.2018 20:54 14,7 °C 82 % 1014,5 hPa 0,0 mm 3,2 km/h (1 Bft) O-NO 71 ° 0 min 0,000 mm 0,0 UV-I 0 W/m² 11,7 °C 14,7 °C 4,8 km/h (1 Bft)
11.05.2018 20:55 14,6 °C 82 % 1014,5 hPa 0,0 mm 1,7 km/h (1 Bft) O-NO 71 ° 0 min 0,000 mm 0,0 UV-I 0 W/m² 11,6 °C 14,6 °C 3,2 km/h (1 Bft)
11.05.2018 20:56 14,6 °C 82 % 1014,5 hPa 0,0 mm 2,5 km/h (1 Bft) O-NO 71 ° 0 min 0,000 mm 0,0 UV-I 0 W/m² 11,6 °C 14,6 °C 3,2 km/h (1 Bft)
11.05.2018 20:57 14,5 °C 82 % 1014,5 hPa 0,0 mm 1,5 km/h (1 Bft) O-NO 71 ° 0 min 0,000 mm 0,0 UV-I 0 W/m² 11,5 °C 14,5 °C 3,2 km/h (1 Bft)
11.05.2018 20:58 14,3 °C 82 % 1014,6 hPa 0,0 mm 0,0 km/h (0 Bft) O-NO 71 ° 0 min 0,000 mm 0,0 UV-I 0 W/m² 11,3 °C 14,3 °C 0,0 km/h (0 Bft)
11.05.2018 20:59 14,2 °C 82 % 1014,6 hPa 0,0 mm 0,0 km/h (0 Bft) O-NO 71 ° 0 min 0,000 mm 0,0 UV-I 0 W/m² 11,2 °C 14,2 °C 0,0 km/h (0 Bft)
11.05.2018 21:00 14,0 °C 83 % 1014,6 hPa 0,0 mm 0,0 km/h (0 Bft) O-NO 71 ° 0 min 0,000 mm 0,0 UV-I 0 W/m² 11,2 °C 14,0 °C 0,0 km/h (0 Bft)
11.05.2018 21:01 13,9 °C 84 % 1014,6 hPa 0,0 mm 0,0 km/h (0 Bft) O-NO 71 ° 0 min 0,026 mm 0,0 UV-I 0 W/m² 11,2 °C 13,9 °C 0,0 km/h (0 Bft)
11.05.2018 21:02 13,9 °C 84 % 1014,6 hPa 0,0 mm 0,0 km/h (0 Bft) O-NO 71 ° 0 min 0,000 mm 0,0 UV-I 0 W/m² 11,2 °C 13,9 °C 0,0 km/h (0 Bft)
11.05.2018 21:03 14,0 °C 84 % 1014,6 hPa 0,0 mm 0,0 km/h (0 Bft) O-NO 71 ° 0 min 0,000 mm 0,0 UV-I 0 W/m² 11,3 °C 14,0 °C 0,0 km/h (0 Bft)
11.05.2018 21:04 14,1 °C 84 % 1014,6 hPa 0,0 mm 0,7 km/h (0 Bft) O-NO 71 ° 0 min 0,000 mm 0,0 UV-I 0 W/m² 11,4 °C 14,1 °C 3,2 km/h (1 Bft)
11.05.2018 21:05 14,2 °C 84 % 1014,6 hPa 0,0 mm 2,5 km/h (1 Bft) O-NO 71 ° 0 min 0,000 mm 0,0 UV-I 0 W/m² 11,5 °C 14,2 °C 3,2 km/h (1 Bft)
11.05.2018 21:06 14,2 °C 83 % 1014,6 hPa 0,0 mm 1,9 km/h (1 Bft) O-NO 71 ° 0 min 0,000 mm 0,0 UV-I 0 W/m² 11,4 °C 14,2 °C 3,2 km/h (1 Bft)
11.05.2018 21:07 14,2 °C 83 % 1014,6 hPa 0,0 mm 2,0 km/h (1 Bft) O-NO 71 ° 0 min 0,000 mm 0,0 UV-I 0 W/m² 11,4 °C 14,2 °C 3,2 km/h (1 Bft)
11.05.2018 21:08 14,2 °C 82 % 1014,6 hPa 0,0 mm 1,0 km/h (0 Bft) O-NO 71 ° 0 min 0,000 mm 0,0 UV-I 0 W/m² 11,2 °C 14,2 °C 1,6 km/h (1 Bft)
11.05.2018 21:09 14,1 °C 83 % 1014,7 hPa 0,0 mm 0,9 km/h (0 Bft) O-NO 71 ° 0 min 0,000 mm 0,0 UV-I 0 W/m² 11,3 °C 14,1 °C 1,6 km/h (1 Bft)
11.05.2018 21:10 14,1 °C 83 % 1014,7 hPa 0,0 mm 0,0 km/h (0 Bft) O-NO 71 ° 0 min 0,000 mm 0,0 UV-I 0 W/m² 11,3 °C 14,1 °C 0,0 km/h (0 Bft)
11.05.2018 21:11 14,1 °C 83 % 1014,7 hPa 0,0 mm 0,1 km/h (0 Bft) O-NO 71 ° 0 min 0,000 mm 0,0 UV-I 0 W/m² 11,3 °C 14,1 °C 1,6 km/h (1 Bft)
11.05.2018 21:12 14,0 °C 83 % 1014,7 hPa 0,0 mm 0,8 km/h (0 Bft) O-NO 71 ° 0 min 0,000 mm 0,0 UV-I 0 W/m² 11,2 °C 14,0 °C 1,6 km/h (1 Bft)
11.05.2018 21:13 13,9 °C 83 % 1014,7 hPa 0,0 mm 0,0 km/h (0 Bft) O-NO 71 ° 0 min 0,000 mm 0,0 UV-I 0 W/m² 11,1 °C 13,9 °C 0,0 km/h (0 Bft)
11.05.2018 21:14 14,0 °C 83 % 1014,7 hPa 0,0 mm 0,0 km/h (0 Bft) O-NO 71 ° 0 min 0,000 mm 0,0 UV-I 0 W/m² 11,2 °C 14,0 °C 0,0 km/h (0 Bft)
11.05.2018 21:15 13,9 °C 83 % 1014,7 hPa 0,0 mm 0,0 km/h (0 Bft) O-NO 71 ° 0 min 0,000 mm 0,0 UV-I 0 W/m² 11,1 °C 13,9 °C 0,0 km/h (0 Bft)
11.05.2018 21:16 13,9 °C 83 % 1014,8 hPa 0,0 mm 0,0 km/h (0 Bft) O-NO 71 ° 0 min 0,000 mm 0,0 UV-I 0 W/m² 11,1 °C 13,9 °C 0,0 km/h (0 Bft)
11.05.2018 21:17 13,8 °C 83 % 1014,8 hPa 0,0 mm 0,0 km/h (0 Bft) O-NO 71 ° 0 min 0,000 mm 0,0 UV-I 0 W/m² 11,0 °C 13,8 °C 0,0 km/h (0 Bft)
11.05.2018 21:18 13,8 °C 83 % 1014,8 hPa 0,0 mm 0,0 km/h (0 Bft) O-NO 71 ° 0 min 0,000 mm 0,0 UV-I 0 W/m² 11,0 °C 13,8 °C 0,0 km/h (0 Bft)
11.05.2018 21:19 13,7 °C 84 % 1014,8 hPa 0,0 mm 0,0 km/h (0 Bft) O-NO 71 ° 0 min 0,000 mm 0,0 UV-I 0 W/m² 11,0 °C 13,7 °C 0,0 km/h (0 Bft)
11.05.2018 21:20 13,7 °C 84 % 1014,8 hPa 0,0 mm 0,0 km/h (0 Bft) O-NO 71 ° 0 min 0,000 mm 0,0 UV-I 0 W/m² 11,0 °C 13,7 °C 0,0 km/h (0 Bft)
11.05.2018 21:21 13,6 °C 84 % 1014,8 hPa 0,0 mm 0,0 km/h (0 Bft) O-NO 71 ° 0 min 0,000 mm 0,0 UV-I 0 W/m² 10,9 °C 13,6 °C 0,0 km/h (0 Bft)
11.05.2018 21:22 13,5 °C 85 % 1014,8 hPa 0,0 mm 0,0 km/h (0 Bft) O-NO 71 ° 0 min 0,000 mm 0,0 UV-I 0 W/m² 11,0 °C 13,5 °C 0,0 km/h (0 Bft)
11.05.2018 21:23 13,4 °C 85 % 1014,9 hPa 0,0 mm 0,0 km/h (0 Bft) O-NO 71 ° 0 min 0,000 mm 0,0 UV-I 0 W/m² 10,9 °C 13,4 °C 0,0 km/h (0 Bft)
11.05.2018 21:24 13,4 °C 85 % 1014,9 hPa 0,0 mm 0,0 km/h (0 Bft) O-NO 71 ° 0 min 0,000 mm 0,0 UV-I 0 W/m² 10,9 °C 13,4 °C 0,0 km/h (0 Bft)
11.05.2018 21:25 13,3 °C 85 % 1014,9 hPa 0,0 mm 0,0 km/h (0 Bft) O-NO 71 ° 0 min 0,000 mm 0,0 UV-I 0 W/m² 10,8 °C 13,3 °C 0,0 km/h (0 Bft)
11.05.2018 21:26 13,3 °C 86 % 1014,9 hPa 0,0 mm 0,0 km/h (0 Bft) O-NO 71 ° 0 min 0,000 mm 0,0 UV-I 0 W/m² 11,0 °C 13,3 °C 0,0 km/h (0 Bft)
11.05.2018 21:27 13,3 °C 86 % 1014,9 hPa 0,0 mm 0,0 km/h (0 Bft) O-NO 71 ° 0 min 0,000 mm 0,0 UV-I 0 W/m² 11,0 °C 13,3 °C 0,0 km/h (0 Bft)
11.05.2018 21:28 13,3 °C 86 % 1014,9 hPa 0,0 mm 0,0 km/h (0 Bft) O-NO 71 ° 0 min 0,000 mm 0,0 UV-I 0 W/m² 11,0 °C 13,3 °C 0,0 km/h (0 Bft)
11.05.2018 21:29 13,4 °C 86 % 1014,9 hPa 0,0 mm 0,0 km/h (0 Bft) O-NO 71 ° 0 min 0,000 mm 0,0 UV-I 0 W/m² 11,1 °C 13,4 °C 0,0 km/h (0 Bft)
11.05.2018 21:30 13,4 °C 86 % 1014,9 hPa 0,0 mm 0,0 km/h (0 Bft) O-NO 71 ° 0 min 0,000 mm 0,0 UV-I 0 W/m² 11,1 °C 13,4 °C 0,0 km/h (0 Bft)
11.05.2018 21:31 13,5 °C 86 % 1014,9 hPa 0,0 mm 0,0 km/h (0 Bft) O-NO 71 ° 0 min 0,000 mm 0,0 UV-I 0 W/m² 11,2 °C 13,5 °C 0,0 km/h (0 Bft)
11.05.2018 21:32 13,5 °C 85 % 1014,9 hPa 0,0 mm 0,0 km/h (0 Bft) O-NO 71 ° 0 min 0,000 mm 0,0 UV-I 0 W/m² 11,0 °C 13,5 °C 0,0 km/h (0 Bft)
11.05.2018 21:33 13,6 °C 86 % 1014,9 hPa 0,0 mm 0,0 km/h (0 Bft) O-NO 71 ° 0 min 0,000 mm 0,0 UV-I 0 W/m² 11,3 °C 13,6 °C 0,0 km/h (0 Bft)
11.05.2018 21:34 13,6 °C 85 % 1014,9 hPa 0,0 mm 0,0 km/h (0 Bft) O-NO 71 ° 0 min 0,000 mm 0,0 UV-I 0 W/m² 11,1 °C 13,6 °C 0,0 km/h (0 Bft)
11.05.2018 21:35 13,4 °C 85 % 1015,0 hPa 0,0 mm 0,0 km/h (0 Bft) O-NO 71 ° 0 min 0,000 mm 0,0 UV-I 0 W/m² 10,9 °C 13,4 °C 0,0 km/h (0 Bft)
11.05.2018 21:36 13,4 °C 86 % 1015,0 hPa 0,0 mm 0,0 km/h (0 Bft) O-NO 71 ° 0 min 0,000 mm 0,0 UV-I 0 W/m² 11,1 °C 13,4 °C 0,0 km/h (0 Bft)
11.05.2018 21:37 13,5 °C 86 % 1015,0 hPa 0,0 mm 0,0 km/h (0 Bft) O-NO 71 ° 0 min 0,000 mm 0,0 UV-I 0 W/m² 11,2 °C 13,5 °C 0,0 km/h (0 Bft)
11.05.2018 21:38 13,5 °C 86 % 1014,9 hPa 0,0 mm 0,0 km/h (0 Bft) O-NO 71 ° 0 min 0,000 mm 0,0 UV-I 0 W/m² 11,2 °C 13,5 °C 0,0 km/h (0 Bft)
11.05.2018 21:39 13,5 °C 86 % 1015,0 hPa 0,0 mm 0,0 km/h (0 Bft) O-NO 71 ° 0 min 0,000 mm 0,0 UV-I 0 W/m² 11,2 °C 13,5 °C 0,0 km/h (0 Bft)
11.05.2018 21:40 13,5 °C 86 % 1015,0 hPa 0,0 mm 0,0 km/h (0 Bft) O-NO 71 ° 0 min 0,000 mm 0,0 UV-I 0 W/m² 11,2 °C 13,5 °C 0,0 km/h (0 Bft)
11.05.2018 21:41 13,4 °C 86 % 1015,0 hPa 0,0 mm 0,0 km/h (0 Bft) O-NO 71 ° 0 min 0,000 mm 0,0 UV-I 0 W/m² 11,1 °C 13,4 °C 0,0 km/h (0 Bft)
11.05.2018 21:42 13,4 °C 86 % 1015,0 hPa 0,0 mm 0,0 km/h (0 Bft) O-NO 71 ° 0 min 0,000 mm 0,0 UV-I 0 W/m² 11,1 °C 13,4 °C 0,0 km/h (0 Bft)
11.05.2018 21:43 13,3 °C 86 % 1015,1 hPa 0,0 mm 0,0 km/h (0 Bft) O-NO 71 ° 0 min 0,000 mm 0,0 UV-I 0 W/m² 11,0 °C 13,3 °C 0,0 km/h (0 Bft)
11.05.2018 21:44 13,3 °C 86 % 1015,1 hPa 0,0 mm 0,0 km/h (0 Bft) O-NO 71 ° 0 min 0,000 mm 0,0 UV-I 0 W/m² 11,0 °C 13,3 °C 0,0 km/h (0 Bft)
11.05.2018 21:45 13,2 °C 86 % 1015,1 hPa 0,0 mm 0,0 km/h (0 Bft) O-NO 71 ° 0 min 0,000 mm 0,0 UV-I 0 W/m² 10,9 °C 13,2 °C 0,0 km/h (0 Bft)
11.05.2018 21:46 13,2 °C 86 % 1015,1 hPa 0,0 mm 0,0 km/h (0 Bft) O-NO 71 ° 0 min 0,000 mm 0,0 UV-I 0 W/m² 10,9 °C 13,2 °C 0,0 km/h (0 Bft)
11.05.2018 21:47 13,2 °C 86 % 1015,1 hPa 0,0 mm 0,0 km/h (0 Bft) O-NO 71 ° 0 min 0,000 mm 0,0 UV-I 0 W/m² 10,9 °C 13,2 °C 0,0 km/h (0 Bft)
11.05.2018 21:48 13,3 °C 87 % 1015,2 hPa 0,0 mm 0,0 km/h (0 Bft) O-NO 71 ° 0 min 0,000 mm 0,0 UV-I 0 W/m² 11,2 °C 13,3 °C 0,0 km/h (0 Bft)
11.05.2018 21:49 13,3 °C 86 % 1015,1 hPa 0,0 mm 0,0 km/h (0 Bft) O-NO 71 ° 0 min 0,000 mm 0,0 UV-I 0 W/m² 11,0 °C 13,3 °C 0,0 km/h (0 Bft)
11.05.2018 21:50 13,3 °C 86 % 1015,1 hPa 0,0 mm 0,0 km/h (0 Bft) O-NO 71 ° 0 min 0,000 mm 0,0 UV-I 0 W/m² 11,0 °C 13,3 °C 0,0 km/h (0 Bft)
11.05.2018 21:51 13,4 °C 86 % 1015,2 hPa 0,0 mm 0,0 km/h (0 Bft) O-NO 71 ° 0 min 0,000 mm 0,0 UV-I 0 W/m² 11,1 °C 13,4 °C 0,0 km/h (0 Bft)
11.05.2018 21:52 13,4 °C 86 % 1015,2 hPa 0,0 mm 0,0 km/h (0 Bft) O-NO 71 ° 0 min 0,000 mm 0,0 UV-I 0 W/m² 11,1 °C 13,4 °C 0,0 km/h (0 Bft)
11.05.2018 21:53 13,4 °C 86 % 1015,2 hPa 0,0 mm 0,0 km/h (0 Bft) O-NO 71 ° 0 min 0,000 mm 0,0 UV-I 0 W/m² 11,1 °C 13,4 °C 0,0 km/h (0 Bft)
11.05.2018 21:54 13,4 °C 86 % 1015,2 hPa 0,0 mm 0,0 km/h (0 Bft) O-NO 71 ° 0 min 0,000 mm 0,0 UV-I 0 W/m² 11,1 °C 13,4 °C 0,0 km/h (0 Bft)
11.05.2018 21:55 13,4 °C 86 % 1015,2 hPa 0,0 mm 0,0 km/h (0 Bft) O-NO 71 ° 0 min 0,000 mm 0,0 UV-I 0 W/m² 11,1 °C 13,4 °C 0,0 km/h (0 Bft)
11.05.2018 21:56 13,3 °C 86 % 1015,2 hPa 0,0 mm 0,0 km/h (0 Bft) O-NO 71 ° 0 min 0,000 mm 0,0 UV-I 0 W/m² 11,0 °C 13,3 °C 0,0 km/h (0 Bft)
11.05.2018 21:57 13,3 °C 86 % 1015,1 hPa 0,0 mm 0,0 km/h (0 Bft) O-NO 71 ° 0 min 0,000 mm 0,0 UV-I 0 W/m² 11,0 °C 13,3 °C 0,0 km/h (0 Bft)
11.05.2018 21:58 13,3 °C 86 % 1015,2 hPa 0,0 mm 0,0 km/h (0 Bft) O-NO 71 ° 0 min 0,000 mm 0,0 UV-I 0 W/m² 11,0 °C 13,3 °C 0,0 km/h (0 Bft)
11.05.2018 21:59 13,3 °C 87 % 1015,2 hPa 0,0 mm 0,0 km/h (0 Bft) O-NO 71 ° 0 min 0,000 mm 0,0 UV-I 0 W/m² 11,2 °C 13,3 °C 0,0 km/h (0 Bft)
11.05.2018 22:00 13,3 °C 86 % 1015,2 hPa 0,0 mm 0,0 km/h (0 Bft) O-NO 71 ° 0 min 0,000 mm 0,0 UV-I 0 W/m² 11,0 °C 13,3 °C 0,0 km/h (0 Bft)
11.05.2018 22:01 13,3 °C 87 % 1015,2 hPa 0,0 mm 0,0 km/h (0 Bft) O-NO 71 ° 0 min 0,000 mm 0,0 UV-I 0 W/m² 11,2 °C 13,3 °C 0,0 km/h (0 Bft)
11.05.2018 22:02 13,4 °C 87 % 1015,2 hPa 0,0 mm 0,0 km/h (0 Bft) O-NO 71 ° 0 min 0,000 mm 0,0 UV-I 0 W/m² 11,3 °C 13,4 °C 0,0 km/h (0 Bft)
11.05.2018 22:03 13,6 °C 87 % 1015,2 hPa 0,0 mm 0,0 km/h (0 Bft) O-NO 71 ° 0 min 0,000 mm 0,0 UV-I 0 W/m² 11,5 °C 13,6 °C 0,0 km/h (0 Bft)
11.05.2018 22:04 13,6 °C 86 % 1015,2 hPa 0,0 mm 0,0 km/h (0 Bft) O-NO 71 ° 0 min 0,000 mm 0,0 UV-I 0 W/m² 11,3 °C 13,6 °C 0,0 km/h (0 Bft)
11.05.2018 22:05 13,6 °C 86 % 1015,2 hPa 0,0 mm 0,0 km/h (0 Bft) O-NO 71 ° 0 min 0,000 mm 0,0 UV-I 0 W/m² 11,3 °C 13,6 °C 0,0 km/h (0 Bft)
11.05.2018 22:06 13,6 °C 86 % 1015,2 hPa 0,0 mm 0,0 km/h (0 Bft) O-NO 71 ° 0 min 0,000 mm 0,0 UV-I 0 W/m² 11,3 °C 13,6 °C 0,0 km/h (0 Bft)
11.05.2018 22:07 13,7 °C 86 % 1015,2 hPa 0,0 mm 0,0 km/h (0 Bft) O-NO 71 ° 0 min 0,000 mm 0,0 UV-I 0 W/m² 11,4 °C 13,7 °C 0,0 km/h (0 Bft)
11.05.2018 22:08 13,7 °C 86 % 1015,2 hPa 0,0 mm 0,0 km/h (0 Bft) O-NO 71 ° 0 min 0,000 mm 0,0 UV-I 0 W/m² 11,4 °C 13,7 °C 0,0 km/h (0 Bft)
11.05.2018 22:09 13,7 °C 86 % 1015,2 hPa 0,0 mm 0,0 km/h (0 Bft) O-NO 71 ° 0 min 0,000 mm 0,0 UV-I 0 W/m² 11,4 °C 13,7 °C 0,0 km/h (0 Bft)
11.05.2018 22:10 13,7 °C 85 % 1015,2 hPa 0,0 mm 0,0 km/h (0 Bft) O-NO 71 ° 0 min 0,000 mm 0,0 UV-I 0 W/m² 11,2 °C 13,7 °C 0,0 km/h (0 Bft)
11.05.2018 22:11 13,7 °C 85 % 1015,2 hPa 0,0 mm 0,0 km/h (0 Bft) O-NO 71 ° 0 min 0,000 mm 0,0 UV-I 0 W/m² 11,2 °C 13,7 °C 0,0 km/h (0 Bft)
11.05.2018 22:12 13,7 °C 85 % 1015,2 hPa 0,0 mm 0,0 km/h (0 Bft) O-NO 71 ° 0 min 0,000 mm 0,0 UV-I 0 W/m² 11,2 °C 13,7 °C 0,0 km/h (0 Bft)
11.05.2018 22:13 13,7 °C 85 % 1015,2 hPa 0,0 mm 0,0 km/h (0 Bft) O-NO 71 ° 0 min 0,000 mm 0,0 UV-I 0 W/m² 11,2 °C 13,7 °C 0,0 km/h (0 Bft)
11.05.2018 22:14 13,7 °C 85 % 1015,2 hPa 0,0 mm 0,0 km/h (0 Bft) O-NO 71 ° 0 min 0,000 mm 0,0 UV-I 0 W/m² 11,2 °C 13,7 °C 0,0 km/h (0 Bft)
11.05.2018 22:15 13,6 °C 85 % 1015,2 hPa 0,0 mm 0,0 km/h (0 Bft) O-NO 71 ° 0 min 0,000 mm 0,0 UV-I 0 W/m² 11,1 °C 13,6 °C 0,0 km/h (0 Bft)
11.05.2018 22:16 13,6 °C 85 % 1015,2 hPa 0,0 mm 0,9 km/h (0 Bft) O-NO 71 ° 0 min 0,000 mm 0,0 UV-I 0 W/m² 11,1 °C 13,6 °C 1,6 km/h (1 Bft)
11.05.2018 22:17 13,5 °C 85 % 1015,2 hPa 0,0 mm 2,0 km/h (1 Bft) O-NO 71 ° 0 min 0,000 mm 0,0 UV-I 0 W/m² 11,0 °C 13,5 °C 3,2 km/h (1 Bft)
11.05.2018 22:18 13,4 °C 85 % 1015,2 hPa 0,0 mm 1,5 km/h (1 Bft) O-NO 71 ° 0 min 0,000 mm 0,0 UV-I 0 W/m² 10,9 °C 13,4 °C 1,6 km/h (1 Bft)
11.05.2018 22:19 13,4 °C 85 % 1015,2 hPa 0,0 mm 0,6 km/h (0 Bft) O-NO 71 ° 0 min 0,000 mm 0,0 UV-I 0 W/m² 10,9 °C 13,4 °C 1,6 km/h (1 Bft)
11.05.2018 22:20 13,3 °C 86 % 1015,2 hPa 0,0 mm 2,0 km/h (1 Bft) O-NO 71 ° 0 min 0,000 mm 0,0 UV-I 0 W/m² 11,0 °C 13,3 °C 3,2 km/h (1 Bft)
11.05.2018 22:21 13,3 °C 86 % 1015,3 hPa 0,0 mm 0,7 km/h (0 Bft) O-NO 71 ° 0 min 0,000 mm 0,0 UV-I 0 W/m² 11,0 °C 13,3 °C 3,2 km/h (1 Bft)
11.05.2018 22:22 13,2 °C 86 % 1015,3 hPa 0,0 mm 1,1 km/h (1 Bft) O-NO 71 ° 0 min 0,000 mm 0,0 UV-I 0 W/m² 10,9 °C 13,2 °C 3,2 km/h (1 Bft)
11.05.2018 22:23 13,1 °C 86 % 1015,2 hPa 0,0 mm 0,1 km/h (0 Bft) O-NO 71 ° 0 min 0,000 mm 0,0 UV-I 0 W/m² 10,8 °C 13,1 °C 1,6 km/h (1 Bft)
11.05.2018 22:24 13,1 °C 86 % 1015,3 hPa 0,0 mm 0,2 km/h (0 Bft) O-NO 71 ° 0 min 0,000 mm 0,0 UV-I 0 W/m² 10,8 °C 13,1 °C 1,6 km/h (1 Bft)
11.05.2018 22:25 13,1 °C 86 % 1015,3 hPa 0,0 mm 0,0 km/h (0 Bft) O-NO 71 ° 0 min 0,000 mm 0,0 UV-I 0 W/m² 10,8 °C 13,1 °C 0,0 km/h (0 Bft)
11.05.2018 22:26 13,0 °C 86 % 1015,3 hPa 0,0 mm 0,0 km/h (0 Bft) O-NO 71 ° 0 min 0,000 mm 0,0 UV-I 0 W/m² 10,7 °C 13,0 °C 0,0 km/h (0 Bft)
11.05.2018 22:27 13,0 °C 87 % 1015,3 hPa 0,0 mm 0,0 km/h (0 Bft) O-NO 71 ° 0 min 0,000 mm 0,0 UV-I 0 W/m² 10,9 °C 13,0 °C 0,0 km/h (0 Bft)
11.05.2018 22:28 12,9 °C 86 % 1015,3 hPa 0,0 mm 0,0 km/h (0 Bft) O-NO 71 ° 0 min 0,000 mm 0,0 UV-I 0 W/m² 10,6 °C 12,9 °C 0,0 km/h (0 Bft)
11.05.2018 22:29 12,8 °C 86 % 1015,3 hPa 0,0 mm 0,0 km/h (0 Bft) O-NO 71 ° 0 min 0,000 mm 0,0 UV-I 0 W/m² 10,5 °C 12,8 °C 0,0 km/h (0 Bft)
11.05.2018 22:30 12,8 °C 87 % 1015,2 hPa 0,0 mm 0,0 km/h (0 Bft) O-NO 71 ° 0 min 0,000 mm 0,0 UV-I 0 W/m² 10,7 °C 12,8 °C 0,0 km/h (0 Bft)
11.05.2018 22:31 12,7 °C 87 % 1015,2 hPa 0,0 mm 0,0 km/h (0 Bft) O-NO 71 ° 0 min 0,000 mm 0,0 UV-I 0 W/m² 10,6 °C 12,7 °C 0,0 km/h (0 Bft)
11.05.2018 22:32 12,8 °C 88 % 1015,2 hPa 0,0 mm 0,0 km/h (0 Bft) O-NO 71 ° 0 min 0,000 mm 0,0 UV-I 0 W/m² 10,9 °C 12,8 °C 0,0 km/h (0 Bft)
11.05.2018 22:33 12,7 °C 87 % 1015,3 hPa 0,0 mm 0,0 km/h (0 Bft) O-NO 71 ° 0 min 0,000 mm 0,0 UV-I 0 W/m² 10,6 °C 12,7 °C 0,0 km/h (0 Bft)
11.05.2018 22:34 12,7 °C 87 % 1015,2 hPa 0,0 mm 0,0 km/h (0 Bft) O-NO 71 ° 0 min 0,000 mm 0,0 UV-I 0 W/m² 10,6 °C 12,7 °C 0,0 km/h (0 Bft)
11.05.2018 22:35 12,6 °C 87 % 1015,3 hPa 0,0 mm 0,0 km/h (0 Bft) O-NO 71 ° 0 min 0,000 mm 0,0 UV-I 0 W/m² 10,5 °C 12,6 °C 0,0 km/h (0 Bft)
11.05.2018 22:36 12,6 °C 88 % 1015,3 hPa 0,0 mm 0,0 km/h (0 Bft) O-NO 71 ° 0 min 0,000 mm 0,0 UV-I 0 W/m² 10,7 °C 12,6 °C 0,0 km/h (0 Bft)
11.05.2018 22:37 12,6 °C 88 % 1015,3 hPa 0,0 mm 0,0 km/h (0 Bft) O-NO 71 ° 0 min 0,000 mm 0,0 UV-I 0 W/m² 10,7 °C 12,6 °C 0,0 km/h (0 Bft)
11.05.2018 22:38 12,5 °C 88 % 1015,2 hPa 0,0 mm 0,0 km/h (0 Bft) O-NO 71 ° 0 min 0,000 mm 0,0 UV-I 0 W/m² 10,6 °C 12,5 °C 0,0 km/h (0 Bft)
11.05.2018 22:39 12,5 °C 88 % 1015,3 hPa 0,0 mm 0,0 km/h (0 Bft) O-NO 71 ° 0 min 0,000 mm 0,0 UV-I 0 W/m² 10,6 °C 12,5 °C 0,0 km/h (0 Bft)
11.05.2018 22:40 12,6 °C 88 % 1015,2 hPa 0,0 mm 0,0 km/h (0 Bft) O-NO 71 ° 0 min 0,000 mm 0,0 UV-I 0 W/m² 10,7 °C 12,6 °C 0,0 km/h (0 Bft)
11.05.2018 22:41 12,6 °C 88 % 1015,3 hPa 0,0 mm 1,0 km/h (0 Bft) O-NO 71 ° 0 min 0,000 mm 0,0 UV-I 0 W/m² 10,7 °C 12,6 °C 3,2 km/h (1 Bft)
11.05.2018 22:42 12,7 °C 88 % 1015,3 hPa 0,0 mm 2,4 km/h (1 Bft) O-NO 71 ° 0 min 0,000 mm 0,0 UV-I 0 W/m² 10,8 °C 12,7 °C 3,2 km/h (1 Bft)
11.05.2018 22:43 12,8 °C 88 % 1015,3 hPa 0,0 mm 0,9 km/h (0 Bft) O-NO 71 ° 0 min 0,000 mm 0,0 UV-I 0 W/m² 10,9 °C 12,8 °C 1,6 km/h (1 Bft)
11.05.2018 22:44 12,8 °C 88 % 1015,3 hPa 0,0 mm 0,0 km/h (0 Bft) O-NO 71 ° 0 min 0,000 mm 0,0 UV-I 0 W/m² 10,9 °C 12,8 °C 0,0 km/h (0 Bft)
11.05.2018 22:45 12,7 °C 87 % 1015,2 hPa 0,0 mm 0,0 km/h (0 Bft) O-NO 71 ° 0 min 0,000 mm 0,0 UV-I 0 W/m² 10,6 °C 12,7 °C 0,0 km/h (0 Bft)
11.05.2018 22:46 12,7 °C 87 % 1015,2 hPa 0,0 mm 0,0 km/h (0 Bft) O-NO 71 ° 0 min 0,000 mm 0,0 UV-I 0 W/m² 10,6 °C 12,7 °C 0,0 km/h (0 Bft)
11.05.2018 22:47 12,7 °C 87 % 1015,3 hPa 0,0 mm 0,0 km/h (0 Bft) O-NO 71 ° 0 min 0,000 mm 0,0 UV-I 0 W/m² 10,6 °C 12,7 °C 0,0 km/h (0 Bft)
11.05.2018 22:48 12,6 °C 87 % 1015,2 hPa 0,0 mm 0,4 km/h (0 Bft) O-NO 71 ° 0 min 0,000 mm 0,0 UV-I 0 W/m² 10,5 °C 12,6 °C 1,6 km/h (1 Bft)
11.05.2018 22:49 12,6 °C 87 % 1015,2 hPa 0,0 mm 0,0 km/h (0 Bft) O-NO 71 ° 0 min 0,000 mm 0,0 UV-I 0 W/m² 10,5 °C 12,6 °C 0,0 km/h (0 Bft)
11.05.2018 22:50 12,5 °C 87 % 1015,3 hPa 0,0 mm 0,0 km/h (0 Bft) O-NO 71 ° 0 min 0,000 mm 0,0 UV-I 0 W/m² 10,4 °C 12,5 °C 0,0 km/h (0 Bft)
11.05.2018 22:51 12,4 °C 87 % 1015,2 hPa 0,0 mm 0,0 km/h (0 Bft) O-NO 71 ° 0 min 0,000 mm 0,0 UV-I 0 W/m² 10,3 °C 12,4 °C 0,0 km/h (0 Bft)
11.05.2018 22:52 12,4 °C 88 % 1015,2 hPa 0,0 mm 0,0 km/h (0 Bft) O-NO 71 ° 0 min 0,000 mm 0,0 UV-I 0 W/m² 10,5 °C 12,4 °C 0,0 km/h (0 Bft)
11.05.2018 22:53 12,4 °C 88 % 1015,3 hPa 0,0 mm 0,0 km/h (0 Bft) O-NO 71 ° 0 min 0,000 mm 0,0 UV-I 0 W/m² 10,5 °C 12,4 °C 0,0 km/h (0 Bft)
11.05.2018 22:54 12,4 °C 88 % 1015,2 hPa 0,0 mm 0,0 km/h (0 Bft) O-NO 71 ° 0 min 0,000 mm 0,0 UV-I 0 W/m² 10,5 °C 12,4 °C 0,0 km/h (0 Bft)
11.05.2018 22:55 12,4 °C 88 % 1015,3 hPa 0,0 mm 0,0 km/h (0 Bft) O-NO 71 ° 0 min 0,000 mm 0,0 UV-I 0 W/m² 10,5 °C 12,4 °C 0,0 km/h (0 Bft)
11.05.2018 22:56 12,4 °C 88 % 1015,3 hPa 0,0 mm 1,0 km/h (0 Bft) O-SO 105 ° 0 min 0,000 mm 0,0 UV-I 0 W/m² 10,5 °C 12,4 °C 4,8 km/h (1 Bft)
11.05.2018 22:57 12,4 °C 88 % 1015,3 hPa 0,0 mm 1,3 km/h (1 Bft) O-SO 106 ° 0 min 0,000 mm 0,0 UV-I 0 W/m² 10,5 °C 12,4 °C 4,8 km/h (1 Bft)
11.05.2018 22:58 12,4 °C 88 % 1015,3 hPa 0,0 mm 0,0 km/h (0 Bft) O-SO 106 ° 0 min 0,000 mm 0,0 UV-I 0 W/m² 10,5 °C 12,4 °C 0,0 km/h (0 Bft)
11.05.2018 22:59 12,5 °C 88 % 1015,3 hPa 0,0 mm 0,0 km/h (0 Bft) O-SO 106 ° 0 min 0,000 mm 0,0 UV-I 0 W/m² 10,6 °C 12,5 °C 0,0 km/h (0 Bft)
11.05.2018 23:00 12,5 °C 88 % 1015,3 hPa 0,0 mm 0,0 km/h (0 Bft) O-SO 106 ° 0 min 0,000 mm 0,0 UV-I 0 W/m² 10,6 °C 12,5 °C 0,0 km/h (0 Bft)
11.05.2018 23:01 12,6 °C 88 % 1015,3 hPa 0,0 mm 0,0 km/h (0 Bft) O-SO 106 ° 0 min 0,000 mm 0,0 UV-I 0 W/m² 10,7 °C 12,6 °C 0,0 km/h (0 Bft)
11.05.2018 23:02 12,6 °C 88 % 1015,3 hPa 0,0 mm 0,0 km/h (0 Bft) O-SO 106 ° 0 min 0,000 mm 0,0 UV-I 0 W/m² 10,7 °C 12,6 °C 0,0 km/h (0 Bft)
11.05.2018 23:03 12,6 °C 88 % 1015,4 hPa 0,0 mm 0,0 km/h (0 Bft) O-SO 106 ° 0 min 0,000 mm 0,0 UV-I 0 W/m² 10,7 °C 12,6 °C 0,0 km/h (0 Bft)
11.05.2018 23:04 12,6 °C 88 % 1015,3 hPa 0,0 mm 0,0 km/h (0 Bft) O-SO 106 ° 0 min 0,000 mm 0,0 UV-I 0 W/m² 10,7 °C 12,6 °C 0,0 km/h (0 Bft)
11.05.2018 23:05 12,7 °C 88 % 1015,3 hPa 0,0 mm 0,0 km/h (0 Bft) O-SO 106 ° 0 min 0,000 mm 0,0 UV-I 0 W/m² 10,8 °C 12,7 °C 0,0 km/h (0 Bft)
11.05.2018 23:06 12,7 °C 87 % 1015,4 hPa 0,0 mm 0,0 km/h (0 Bft) O-SO 106 ° 0 min 0,000 mm 0,0 UV-I 0 W/m² 10,6 °C 12,7 °C 0,0 km/h (0 Bft)
11.05.2018 23:07 12,7 °C 87 % 1015,3 hPa 0,0 mm 0,0 km/h (0 Bft) O-SO 106 ° 0 min 0,000 mm 0,0 UV-I 0 W/m² 10,6 °C 12,7 °C 0,0 km/h (0 Bft)
11.05.2018 23:08 12,7 °C 87 % 1015,4 hPa 0,0 mm 0,0 km/h (0 Bft) O-SO 106 ° 0 min 0,000 mm 0,0 UV-I 0 W/m² 10,6 °C 12,7 °C 0,0 km/h (0 Bft)
11.05.2018 23:09 12,7 °C 87 % 1015,4 hPa 0,0 mm 0,0 km/h (0 Bft) O-SO 106 ° 0 min 0,000 mm 0,0 UV-I 0 W/m² 10,6 °C 12,7 °C 0,0 km/h (0 Bft)
11.05.2018 23:10 12,7 °C 87 % 1015,3 hPa 0,0 mm 0,0 km/h (0 Bft) O-SO 106 ° 0 min 0,000 mm 0,0 UV-I 0 W/m² 10,6 °C 12,7 °C 0,0 km/h (0 Bft)
11.05.2018 23:11 12,7 °C 87 % 1015,3 hPa 0,0 mm 0,0 km/h (0 Bft) O-SO 106 ° 0 min 0,000 mm 0,0 UV-I 0 W/m² 10,6 °C 12,7 °C 0,0 km/h (0 Bft)
11.05.2018 23:12 12,6 °C 87 % 1015,3 hPa 0,0 mm 0,0 km/h (0 Bft) O-SO 106 ° 0 min 0,000 mm 0,0 UV-I 0 W/m² 10,5 °C 12,6 °C 0,0 km/h (0 Bft)
11.05.2018 23:13 12,7 °C 88 % 1015,3 hPa 0,0 mm 0,0 km/h (0 Bft) O-SO 106 ° 0 min 0,000 mm 0,0 UV-I 0 W/m² 10,8 °C 12,7 °C 0,0 km/h (0 Bft)
11.05.2018 23:14 12,7 °C 88 % 1015,3 hPa 0,0 mm 0,0 km/h (0 Bft) O-SO 106 ° 0 min 0,000 mm 0,0 UV-I 0 W/m² 10,8 °C 12,7 °C 0,0 km/h (0 Bft)
11.05.2018 23:15 12,7 °C 88 % 1015,3 hPa 0,0 mm 0,0 km/h (0 Bft) O-SO 106 ° 0 min 0,000 mm 0,0 UV-I 0 W/m² 10,8 °C 12,7 °C 0,0 km/h (0 Bft)
11.05.2018 23:16 12,7 °C 87 % 1015,3 hPa 0,0 mm 0,0 km/h (0 Bft) O-SO 106 ° 0 min 0,000 mm 0,0 UV-I 0 W/m² 10,6 °C 12,7 °C 0,0 km/h (0 Bft)
11.05.2018 23:17 12,6 °C 87 % 1015,3 hPa 0,0 mm 0,0 km/h (0 Bft) O-SO 106 ° 0 min 0,000 mm 0,0 UV-I 0 W/m² 10,5 °C 12,6 °C 0,0 km/h (0 Bft)
11.05.2018 23:18 12,6 °C 87 % 1015,3 hPa 0,0 mm 0,0 km/h (0 Bft) O-SO 106 ° 0 min 0,000 mm 0,0 UV-I 0 W/m² 10,5 °C 12,6 °C 0,0 km/h (0 Bft)
11.05.2018 23:19 12,6 °C 88 % 1015,2 hPa 0,0 mm 0,0 km/h (0 Bft) O-SO 106 ° 0 min 0,000 mm 0,0 UV-I 0 W/m² 10,7 °C 12,6 °C 0,0 km/h (0 Bft)
11.05.2018 23:20 12,6 °C 88 % 1015,3 hPa 0,0 mm 0,0 km/h (0 Bft) O-SO 106 ° 0 min 0,000 mm 0,0 UV-I 0 W/m² 10,7 °C 12,6 °C 0,0 km/h (0 Bft)
11.05.2018 23:21 12,6 °C 88 % 1015,3 hPa 0,0 mm 0,0 km/h (0 Bft) O-SO 106 ° 0 min 0,000 mm 0,0 UV-I 0 W/m² 10,7 °C 12,6 °C 0,0 km/h (0 Bft)
11.05.2018 23:22 12,6 °C 88 % 1015,3 hPa 0,0 mm 0,0 km/h (0 Bft) O-SO 106 ° 0 min 0,000 mm 0,0 UV-I 0 W/m² 10,7 °C 12,6 °C 0,0 km/h (0 Bft)
11.05.2018 23:23 12,7 °C 88 % 1015,3 hPa 0,0 mm 0,0 km/h (0 Bft) O-SO 106 ° 0 min 0,000 mm 0,0 UV-I 0 W/m² 10,8 °C 12,7 °C 0,0 km/h (0 Bft)
11.05.2018 23:24 12,8 °C 88 % 1015,3 hPa 0,0 mm 0,0 km/h (0 Bft) O-SO 106 ° 0 min 0,000 mm 0,0 UV-I 0 W/m² 10,9 °C 12,8 °C 0,0 km/h (0 Bft)
11.05.2018 23:25 12,8 °C 88 % 1015,3 hPa 0,0 mm 0,0 km/h (0 Bft) O-SO 106 ° 0 min 0,000 mm 0,0 UV-I 0 W/m² 10,9 °C 12,8 °C 0,0 km/h (0 Bft)
11.05.2018 23:26 12,8 °C 87 % 1015,3 hPa 0,0 mm 0,0 km/h (0 Bft) O-SO 106 ° 0 min 0,000 mm 0,0 UV-I 0 W/m² 10,7 °C 12,8 °C 0,0 km/h (0 Bft)
11.05.2018 23:27 12,8 °C 87 % 1015,3 hPa 0,0 mm 0,0 km/h (0 Bft) O-SO 106 ° 0 min 0,000 mm 0,0 UV-I 0 W/m² 10,7 °C 12,8 °C 0,0 km/h (0 Bft)
11.05.2018 23:28 12,8 °C 87 % 1015,3 hPa 0,0 mm 0,0 km/h (0 Bft) O-SO 106 ° 0 min 0,000 mm 0,0 UV-I 0 W/m² 10,7 °C 12,8 °C 0,0 km/h (0 Bft)
11.05.2018 23:29 12,7 °C 87 % 1015,4 hPa 0,0 mm 0,0 km/h (0 Bft) O-SO 106 ° 0 min 0,000 mm 0,0 UV-I 0 W/m² 10,6 °C 12,7 °C 0,0 km/h (0 Bft)
11.05.2018 23:30 12,8 °C 87 % 1015,4 hPa 0,0 mm 0,0 km/h (0 Bft) O-SO 106 ° 0 min 0,000 mm 0,0 UV-I 0 W/m² 10,7 °C 12,8 °C 0,0 km/h (0 Bft)
11.05.2018 23:31 12,7 °C 87 % 1015,3 hPa 0,0 mm 0,0 km/h (0 Bft) O-SO 106 ° 0 min 0,000 mm 0,0 UV-I 0 W/m² 10,6 °C 12,7 °C 0,0 km/h (0 Bft)
11.05.2018 23:32 12,7 °C 87 % 1015,3 hPa 0,0 mm 0,0 km/h (0 Bft) O-SO 106 ° 0 min 0,000 mm 0,0 UV-I 0 W/m² 10,6 °C 12,7 °C 0,0 km/h (0 Bft)
11.05.2018 23:33 12,7 °C 87 % 1015,4 hPa 0,0 mm 0,0 km/h (0 Bft) O-SO 106 ° 0 min 0,000 mm 0,0 UV-I 0 W/m² 10,6 °C 12,7 °C 0,0 km/h (0 Bft)
11.05.2018 23:34 12,7 °C 88 % 1015,4 hPa 0,0 mm 0,0 km/h (0 Bft) O-SO 106 ° 0 min 0,000 mm 0,0 UV-I 0 W/m² 10,8 °C 12,7 °C 0,0 km/h (0 Bft)
11.05.2018 23:35 12,7 °C 88 % 1015,4 hPa 0,0 mm 0,0 km/h (0 Bft) O-SO 106 ° 0 min 0,000 mm 0,0 UV-I 0 W/m² 10,8 °C 12,7 °C 0,0 km/h (0 Bft)
11.05.2018 23:36 12,7 °C 88 % 1015,4 hPa 0,0 mm 0,0 km/h (0 Bft) O-SO 106 ° 0 min 0,000 mm 0,0 UV-I 0 W/m² 10,8 °C 12,7 °C 0,0 km/h (0 Bft)
11.05.2018 23:37 12,6 °C 88 % 1015,3 hPa 0,0 mm 0,0 km/h (0 Bft) O-SO 106 ° 0 min 0,000 mm 0,0 UV-I 0 W/m² 10,7 °C 12,6 °C 0,0 km/h (0 Bft)
11.05.2018 23:38 12,6 °C 88 % 1015,4 hPa 0,0 mm 0,0 km/h (0 Bft) O-SO 106 ° 0 min 0,000 mm 0,0 UV-I 0 W/m² 10,7 °C 12,6 °C 0,0 km/h (0 Bft)
11.05.2018 23:39 12,6 °C 88 % 1015,4 hPa 0,0 mm 0,0 km/h (0 Bft) O-SO 106 ° 0 min 0,000 mm 0,0 UV-I 0 W/m² 10,7 °C 12,6 °C 0,0 km/h (0 Bft)
11.05.2018 23:40 12,6 °C 88 % 1015,5 hPa 0,0 mm 0,0 km/h (0 Bft) O-SO 106 ° 0 min 0,000 mm 0,0 UV-I 0 W/m² 10,7 °C 12,6 °C 0,0 km/h (0 Bft)
11.05.2018 23:41 12,5 °C 88 % 1015,4 hPa 0,0 mm 0,0 km/h (0 Bft) O-SO 106 ° 0 min 0,000 mm 0,0 UV-I 0 W/m² 10,6 °C 12,5 °C 0,0 km/h (0 Bft)
11.05.2018 23:42 12,5 °C 88 % 1015,4 hPa 0,0 mm 0,0 km/h (0 Bft) O-SO 106 ° 0 min 0,000 mm 0,0 UV-I 0 W/m² 10,6 °C 12,5 °C 0,0 km/h (0 Bft)
11.05.2018 23:43 12,4 °C 88 % 1015,5 hPa 0,0 mm 0,0 km/h (0 Bft) O-SO 106 ° 0 min 0,000 mm 0,0 UV-I 0 W/m² 10,5 °C 12,4 °C 0,0 km/h (0 Bft)
11.05.2018 23:44 12,4 °C 88 % 1015,5 hPa 0,0 mm 0,0 km/h (0 Bft) O-SO 106 ° 0 min 0,000 mm 0,0 UV-I 0 W/m² 10,5 °C 12,4 °C 0,0 km/h (0 Bft)
11.05.2018 23:45 12,3 °C 88 % 1015,4 hPa 0,0 mm 0,0 km/h (0 Bft) O-SO 106 ° 0 min 0,000 mm 0,0 UV-I 0 W/m² 10,4 °C 12,3 °C 0,0 km/h (0 Bft)
11.05.2018 23:46 12,3 °C 88 % 1015,5 hPa 0,0 mm 0,0 km/h (0 Bft) O-SO 106 ° 0 min 0,000 mm 0,0 UV-I 0 W/m² 10,4 °C 12,3 °C 0,0 km/h (0 Bft)
11.05.2018 23:47 12,3 °C 89 % 1015,5 hPa 0,0 mm 0,0 km/h (0 Bft) O-SO 106 ° 0 min 0,000 mm 0,0 UV-I 0 W/m² 10,5 °C 12,3 °C 0,0 km/h (0 Bft)
11.05.2018 23:48 12,2 °C 89 % 1015,5 hPa 0,0 mm 0,0 km/h (0 Bft) O-SO 106 ° 0 min 0,000 mm 0,0 UV-I 0 W/m² 10,4 °C 12,2 °C 0,0 km/h (0 Bft)
11.05.2018 23:49 12,2 °C 89 % 1015,5 hPa 0,0 mm 0,0 km/h (0 Bft) O-SO 106 ° 0 min 0,000 mm 0,0 UV-I 0 W/m² 10,4 °C 12,2 °C 0,0 km/h (0 Bft)
11.05.2018 23:50 12,2 °C 89 % 1015,4 hPa 0,0 mm 0,0 km/h (0 Bft) O-SO 106 ° 0 min 0,000 mm 0,0 UV-I 0 W/m² 10,4 °C 12,2 °C 0,0 km/h (0 Bft)
11.05.2018 23:51 12,3 °C 89 % 1015,4 hPa 0,0 mm 0,0 km/h (0 Bft) O-SO 106 ° 0 min 0,000 mm 0,0 UV-I 0 W/m² 10,5 °C 12,3 °C 0,0 km/h (0 Bft)
11.05.2018 23:52 12,3 °C 89 % 1015,4 hPa 0,0 mm 0,0 km/h (0 Bft) O-SO 106 ° 0 min 0,000 mm 0,0 UV-I 0 W/m² 10,5 °C 12,3 °C 0,0 km/h (0 Bft)
11.05.2018 23:53 12,3 °C 89 % 1015,4 hPa 0,0 mm 0,0 km/h (0 Bft) O-SO 106 ° 0 min 0,000 mm 0,0 UV-I 0 W/m² 10,5 °C 12,3 °C 0,0 km/h (0 Bft)
11.05.2018 23:54 12,2 °C 89 % 1015,4 hPa 0,0 mm 0,0 km/h (0 Bft) O-SO 106 ° 0 min 0,000 mm 0,0 UV-I 0 W/m² 10,4 °C 12,2 °C 0,0 km/h (0 Bft)
11.05.2018 23:55 12,2 °C 89 % 1015,4 hPa 0,0 mm 0,0 km/h (0 Bft) O-SO 106 ° 0 min 0,000 mm 0,0 UV-I 0 W/m² 10,4 °C 12,2 °C 0,0 km/h (0 Bft)
11.05.2018 23:56 12,2 °C 89 % 1015,4 hPa 0,0 mm 0,0 km/h (0 Bft) O-SO 106 ° 0 min 0,000 mm 0,0 UV-I 0 W/m² 10,4 °C 12,2 °C 0,0 km/h (0 Bft)
11.05.2018 23:57 12,2 °C 89 % 1015,3 hPa 0,0 mm 0,0 km/h (0 Bft) O-SO 106 ° 0 min 0,000 mm 0,0 UV-I 0 W/m² 10,4 °C 12,2 °C 0,0 km/h (0 Bft)
11.05.2018 23:58 12,2 °C 89 % 1015,4 hPa 0,0 mm 0,0 km/h (0 Bft) O-SO 106 ° 0 min 0,000 mm 0,0 UV-I 0 W/m² 10,4 °C 12,2 °C 0,0 km/h (0 Bft)
11.05.2018 23:59 12,2 °C 89 % 1015,3 hPa 0,0 mm 0,0 km/h (0 Bft) O-SO 106 ° 0 min 0,000 mm 0,0 UV-I 0 W/m² 10,4 °C 12,2 °C 0,0 km/h (0 Bft)
_ Min-Zeit 06:27 18:04 18:02 - 23:59 - - - - - - 06:27 06:27 23:59
Minimum _ 4,8 °C 60 % 1013,8 hPa - 0,0 km/h (0 Bft) - - - - - - 3,8 °C 4,8 °C 0,0 km/h (0 Bft)
_ Max-Zeit 17:51 07:18 00:01 12:21 12:48 - - 15:57 14:01 13:10 12:00 16:04 17:51 13:39
Maximum _ 19,4 °C 94 % 1018,9 hPa 0,2 mm 15,9 km/h
O-NO (3 Bft)
- - 1 min 0,508 mm 6,7 UV-I 904 W/m² 12,9 °C 19,4 °C 22,5 km/h
NO (4 Bft)
Durchschnitt _ 12,4 °C 79 % 1016,1 hPa #0,2 mm 3,2 km/h (1 Bft) O-NO - #7:47 h #3,607 mm 3,7 UV-I 267 W/m² 8,7 °C 12,3 °C 5,6 km/h (1 Bft)